<?xml version="1.0" encoding="UTF-8" standalone="no" ?>
<gpx xmlns="http://www.topografix.com/GPX/1/1" creator="www.plotaroute.com" version="1.1"  xmlns:xsi="http://www.w3.org/2001/XMLSchema-instance" xsi:schemaLocation="http://www.topografix.com/GPX/1/1 http://www.topografix.com/GPX/1/1/gpx.xsd">
<metadata>
<desc>Route created on plotaroute.com</desc>
</metadata>
<trk>
<name>4ª Etapa VP Fut. 2026</name>
<trkseg>
<trkpt lat="40.914273" lon="-7.927097">
<ele>542</ele>
<time>2026-05-08T00:00:00Z</time></trkpt>
<trkpt lat="40.914273" lon="-7.927097">
<ele>710</ele>
<time>2026-05-08T00:00:00Z</time></trkpt>
<trkpt lat="40.917182" lon="-7.927939">
<ele>716</ele>
<time>2026-05-08T00:01:00Z</time></trkpt>
<trkpt lat="40.917893" lon="-7.92818">
<ele>722</ele>
<time>2026-05-08T00:01:14Z</time></trkpt>
<trkpt lat="40.918297" lon="-7.928367">
<ele>725</ele>
<time>2026-05-08T00:01:23Z</time></trkpt>
<trkpt lat="40.918624" lon="-7.928574">
<ele>726</ele>
<time>2026-05-08T00:01:30Z</time></trkpt>
<trkpt lat="40.919336" lon="-7.929126">
<ele>727</ele>
<time>2026-05-08T00:01:47Z</time></trkpt>
<trkpt lat="40.919713" lon="-7.929327">
<ele>730</ele>
<time>2026-05-08T00:01:55Z</time></trkpt>
<trkpt lat="40.919992" lon="-7.929349">
<ele>732</ele>
<time>2026-05-08T00:02:00Z</time></trkpt>
<trkpt lat="40.920248" lon="-7.92931">
<ele>734</ele>
<time>2026-05-08T00:02:06Z</time></trkpt>
<trkpt lat="40.920557" lon="-7.929197">
<ele>735</ele>
<time>2026-05-08T00:02:12Z</time></trkpt>
<trkpt lat="40.920825" lon="-7.929008">
<ele>737</ele>
<time>2026-05-08T00:02:18Z</time></trkpt>
<trkpt lat="40.921059" lon="-7.92874">
<ele>738</ele>
<time>2026-05-08T00:02:24Z</time></trkpt>
<trkpt lat="40.921261" lon="-7.92843">
<ele>740</ele>
<time>2026-05-08T00:02:31Z</time></trkpt>
<trkpt lat="40.922588" lon="-7.92617">
<ele>752</ele>
<time>2026-05-08T00:03:14Z</time></trkpt>
<trkpt lat="40.926049" lon="-7.920208">
<ele>780</ele>
<time>2026-05-08T00:05:08Z</time></trkpt>
<trkpt lat="40.926103" lon="-7.920116">
<ele>781</ele>
<time>2026-05-08T00:05:09Z</time></trkpt>
<trkpt lat="40.926903" lon="-7.91872">
<ele>789</ele>
<time>2026-05-08T00:05:36Z</time></trkpt>
<trkpt lat="40.927161" lon="-7.918366">
<ele>791</ele>
<time>2026-05-08T00:05:43Z</time></trkpt>
<trkpt lat="40.927884" lon="-7.917558">
<ele>791</ele>
<time>2026-05-08T00:06:02Z</time></trkpt>
<trkpt lat="40.928576" lon="-7.916844">
<ele>791</ele>
<time>2026-05-08T00:06:20Z</time></trkpt>
<trkpt lat="40.929766" lon="-7.915569">
<ele>796</ele>
<time>2026-05-08T00:06:51Z</time></trkpt>
<trkpt lat="40.929845" lon="-7.915564">
<ele>796</ele>
<time>2026-05-08T00:06:52Z</time></trkpt>
<trkpt lat="40.92989" lon="-7.915564">
<ele>796</ele>
<time>2026-05-08T00:06:53Z</time></trkpt>
<trkpt lat="40.929984" lon="-7.915617">
<ele>796</ele>
<time>2026-05-08T00:06:55Z</time></trkpt>
<trkpt lat="40.930051" lon="-7.915795">
<ele>794</ele>
<time>2026-05-08T00:06:58Z</time></trkpt>
<trkpt lat="40.930065" lon="-7.915965">
<ele>794</ele>
<time>2026-05-08T00:07:01Z</time></trkpt>
<trkpt lat="40.930113" lon="-7.916118">
<ele>794</ele>
<time>2026-05-08T00:07:03Z</time></trkpt>
<trkpt lat="40.93018" lon="-7.916255">
<ele>794</ele>
<time>2026-05-08T00:07:06Z</time></trkpt>
<trkpt lat="40.93026" lon="-7.916355">
<ele>794</ele>
<time>2026-05-08T00:07:08Z</time></trkpt>
<trkpt lat="40.930357" lon="-7.91642">
<ele>794</ele>
<time>2026-05-08T00:07:10Z</time></trkpt>
<trkpt lat="40.930599" lon="-7.916452">
<ele>795</ele>
<time>2026-05-08T00:07:15Z</time></trkpt>
<trkpt lat="40.931518" lon="-7.916294">
<ele>793</ele>
<time>2026-05-08T00:07:34Z</time></trkpt>
<trkpt lat="40.931869" lon="-7.916326">
<ele>791</ele>
<time>2026-05-08T00:07:41Z</time></trkpt>
<trkpt lat="40.932205" lon="-7.916471">
<ele>787</ele>
<time>2026-05-08T00:07:48Z</time></trkpt>
<trkpt lat="40.932288" lon="-7.916506">
<ele>787</ele>
<time>2026-05-08T00:07:49Z</time></trkpt>
<trkpt lat="40.93349" lon="-7.91741">
<ele>780</ele>
<time>2026-05-08T00:08:17Z</time></trkpt>
<trkpt lat="40.933762" lon="-7.917529">
<ele>780</ele>
<time>2026-05-08T00:08:23Z</time></trkpt>
<trkpt lat="40.935794" lon="-7.917961">
<ele>769</ele>
<time>2026-05-08T00:09:04Z</time></trkpt>
<trkpt lat="40.938375" lon="-7.918886">
<ele>766</ele>
<time>2026-05-08T00:09:58Z</time></trkpt>
<trkpt lat="40.938709" lon="-7.919091">
<ele>762</ele>
<time>2026-05-08T00:10:05Z</time></trkpt>
<trkpt lat="40.938816" lon="-7.919223">
<ele>761</ele>
<time>2026-05-08T00:10:08Z</time></trkpt>
<trkpt lat="40.938887" lon="-7.919347">
<ele>763</ele>
<time>2026-05-08T00:10:10Z</time></trkpt>
<trkpt lat="40.938978" lon="-7.919667">
<ele>766</ele>
<time>2026-05-08T00:10:16Z</time></trkpt>
<trkpt lat="40.938962" lon="-7.920067">
<ele>770</ele>
<time>2026-05-08T00:10:22Z</time></trkpt>
<trkpt lat="40.938799" lon="-7.920448">
<ele>775</ele>
<time>2026-05-08T00:10:28Z</time></trkpt>
<trkpt lat="40.937744" lon="-7.92148">
<ele>780</ele>
<time>2026-05-08T00:10:55Z</time></trkpt>
<trkpt lat="40.93651" lon="-7.922669">
<ele>788</ele>
<time>2026-05-08T00:11:25Z</time></trkpt>
<trkpt lat="40.93637" lon="-7.922826">
<ele>788</ele>
<time>2026-05-08T00:11:29Z</time></trkpt>
<trkpt lat="40.936259" lon="-7.923023">
<ele>790</ele>
<time>2026-05-08T00:11:33Z</time></trkpt>
<trkpt lat="40.936198" lon="-7.923192">
<ele>792</ele>
<time>2026-05-08T00:11:35Z</time></trkpt>
<trkpt lat="40.936165" lon="-7.92342">
<ele>794</ele>
<time>2026-05-08T00:11:39Z</time></trkpt>
<trkpt lat="40.936167" lon="-7.923664">
<ele>795</ele>
<time>2026-05-08T00:11:43Z</time></trkpt>
<trkpt lat="40.936204" lon="-7.923881">
<ele>795</ele>
<time>2026-05-08T00:11:46Z</time></trkpt>
<trkpt lat="40.936225" lon="-7.923997">
<ele>796</ele>
<time>2026-05-08T00:11:48Z</time></trkpt>
<trkpt lat="40.936334" lon="-7.924246">
<ele>797</ele>
<time>2026-05-08T00:11:52Z</time></trkpt>
<trkpt lat="40.937045" lon="-7.925301">
<ele>803</ele>
<time>2026-05-08T00:12:14Z</time></trkpt>
<trkpt lat="40.937387" lon="-7.92564">
<ele>806</ele>
<time>2026-05-08T00:12:22Z</time></trkpt>
<trkpt lat="40.937812" lon="-7.925776">
<ele>808</ele>
<time>2026-05-08T00:12:31Z</time></trkpt>
<trkpt lat="40.940944" lon="-7.925779">
<ele>828</ele>
<time>2026-05-08T00:13:34Z</time></trkpt>
<trkpt lat="40.941521" lon="-7.925897">
<ele>830</ele>
<time>2026-05-08T00:13:45Z</time></trkpt>
<trkpt lat="40.942565" lon="-7.926321">
<ele>837</ele>
<time>2026-05-08T00:14:07Z</time></trkpt>
<trkpt lat="40.942565" lon="-7.926321">
<ele>837</ele>
<time>2026-05-08T00:14:07Z</time></trkpt>
<trkpt lat="40.943601" lon="-7.926742">
<ele>845</ele>
<time>2026-05-08T00:14:29Z</time></trkpt>
<trkpt lat="40.944018" lon="-7.926995">
<ele>848</ele>
<time>2026-05-08T00:14:38Z</time></trkpt>
<trkpt lat="40.944309" lon="-7.927277">
<ele>851</ele>
<time>2026-05-08T00:14:45Z</time></trkpt>
<trkpt lat="40.944596" lon="-7.927729">
<ele>853</ele>
<time>2026-05-08T00:14:54Z</time></trkpt>
<trkpt lat="40.944806" lon="-7.928181">
<ele>855</ele>
<time>2026-05-08T00:15:02Z</time></trkpt>
<trkpt lat="40.945165" lon="-7.929457">
<ele>867</ele>
<time>2026-05-08T00:15:23Z</time></trkpt>
<trkpt lat="40.94535" lon="-7.929835">
<ele>870</ele>
<time>2026-05-08T00:15:30Z</time></trkpt>
<trkpt lat="40.945594" lon="-7.930073">
<ele>874</ele>
<time>2026-05-08T00:15:36Z</time></trkpt>
<trkpt lat="40.946931" lon="-7.931035">
<ele>885</ele>
<time>2026-05-08T00:16:06Z</time></trkpt>
<trkpt lat="40.947111" lon="-7.931196">
<ele>887</ele>
<time>2026-05-08T00:16:11Z</time></trkpt>
<trkpt lat="40.947281" lon="-7.931483">
<ele>886</ele>
<time>2026-05-08T00:16:16Z</time></trkpt>
<trkpt lat="40.94737" lon="-7.931841">
<ele>886</ele>
<time>2026-05-08T00:16:22Z</time></trkpt>
<trkpt lat="40.947355" lon="-7.932269">
<ele>890</ele>
<time>2026-05-08T00:16:28Z</time></trkpt>
<trkpt lat="40.947213" lon="-7.932671">
<ele>894</ele>
<time>2026-05-08T00:16:35Z</time></trkpt>
<trkpt lat="40.945576" lon="-7.934811">
<ele>904</ele>
<time>2026-05-08T00:17:21Z</time></trkpt>
<trkpt lat="40.945393" lon="-7.935232">
<ele>904</ele>
<time>2026-05-08T00:17:28Z</time></trkpt>
<trkpt lat="40.945335" lon="-7.935629">
<ele>904</ele>
<time>2026-05-08T00:17:35Z</time></trkpt>
<trkpt lat="40.945337" lon="-7.936018">
<ele>906</ele>
<time>2026-05-08T00:17:41Z</time></trkpt>
<trkpt lat="40.9454" lon="-7.936405">
<ele>908</ele>
<time>2026-05-08T00:17:46Z</time></trkpt>
<trkpt lat="40.946225" lon="-7.938636">
<ele>921</ele>
<time>2026-05-08T00:18:24Z</time></trkpt>
<trkpt lat="40.94733" lon="-7.941622">
<ele>941</ele>
<time>2026-05-08T00:19:14Z</time></trkpt>
<trkpt lat="40.947388" lon="-7.941898">
<ele>942</ele>
<time>2026-05-08T00:19:19Z</time></trkpt>
<trkpt lat="40.947418" lon="-7.942177">
<ele>942</ele>
<time>2026-05-08T00:19:23Z</time></trkpt>
<trkpt lat="40.947363" lon="-7.942435">
<ele>940</ele>
<time>2026-05-08T00:19:27Z</time></trkpt>
<trkpt lat="40.946938" lon="-7.943154">
<ele>942</ele>
<time>2026-05-08T00:19:41Z</time></trkpt>
<trkpt lat="40.946912" lon="-7.943245">
<ele>943</ele>
<time>2026-05-08T00:19:42Z</time></trkpt>
<trkpt lat="40.94687" lon="-7.94339">
<ele>943</ele>
<time>2026-05-08T00:19:45Z</time></trkpt>
<trkpt lat="40.946845" lon="-7.94367">
<ele>943</ele>
<time>2026-05-08T00:19:49Z</time></trkpt>
<trkpt lat="40.946895" lon="-7.943932">
<ele>943</ele>
<time>2026-05-08T00:19:53Z</time></trkpt>
<trkpt lat="40.947045" lon="-7.94419">
<ele>945</ele>
<time>2026-05-08T00:19:58Z</time></trkpt>
<trkpt lat="40.947228" lon="-7.944342">
<ele>945</ele>
<time>2026-05-08T00:20:02Z</time></trkpt>
<trkpt lat="40.948905" lon="-7.944572">
<ele>961</ele>
<time>2026-05-08T00:20:36Z</time></trkpt>
<trkpt lat="40.949174" lon="-7.944694">
<ele>963</ele>
<time>2026-05-08T00:20:42Z</time></trkpt>
<trkpt lat="40.949388" lon="-7.944928">
<ele>964</ele>
<time>2026-05-08T00:20:47Z</time></trkpt>
<trkpt lat="40.949571" lon="-7.945404">
<ele>967</ele>
<time>2026-05-08T00:20:55Z</time></trkpt>
<trkpt lat="40.949571" lon="-7.945778">
<ele>967</ele>
<time>2026-05-08T00:21:01Z</time></trkpt>
<trkpt lat="40.949347" lon="-7.946989">
<ele>968</ele>
<time>2026-05-08T00:21:20Z</time></trkpt>
<trkpt lat="40.949378" lon="-7.947201">
<ele>969</ele>
<time>2026-05-08T00:21:23Z</time></trkpt>
<trkpt lat="40.949443" lon="-7.947425">
<ele>970</ele>
<time>2026-05-08T00:21:27Z</time></trkpt>
<trkpt lat="40.949854" lon="-7.948015">
<ele>972</ele>
<time>2026-05-08T00:21:39Z</time></trkpt>
<trkpt lat="40.950406" lon="-7.948603">
<ele>972</ele>
<time>2026-05-08T00:21:53Z</time></trkpt>
<trkpt lat="40.950755" lon="-7.948769">
<ele>973</ele>
<time>2026-05-08T00:22:01Z</time></trkpt>
<trkpt lat="40.951149" lon="-7.948836">
<ele>974</ele>
<time>2026-05-08T00:22:09Z</time></trkpt>
<trkpt lat="40.95464" lon="-7.949427">
<ele>985</ele>
<time>2026-05-08T00:23:19Z</time></trkpt>
<trkpt lat="40.955037" lon="-7.949416">
<ele>986</ele>
<time>2026-05-08T00:23:27Z</time></trkpt>
<trkpt lat="40.955242" lon="-7.949345">
<ele>986</ele>
<time>2026-05-08T00:23:31Z</time></trkpt>
<trkpt lat="40.956122" lon="-7.948818">
<ele>992</ele>
<time>2026-05-08T00:23:51Z</time></trkpt>
<trkpt lat="40.956564" lon="-7.94872">
<ele>993</ele>
<time>2026-05-08T00:24:00Z</time></trkpt>
<trkpt lat="40.957547" lon="-7.948896">
<ele>992</ele>
<time>2026-05-08T00:24:20Z</time></trkpt>
<trkpt lat="40.95774" lon="-7.94893">
<ele>991</ele>
<time>2026-05-08T00:24:23Z</time></trkpt>
<trkpt lat="40.958437" lon="-7.949055">
<ele>989</ele>
<time>2026-05-08T00:24:38Z</time></trkpt>
<trkpt lat="40.959126" lon="-7.948911">
<ele>997</ele>
<time>2026-05-08T00:24:52Z</time></trkpt>
<trkpt lat="40.959658" lon="-7.948893">
<ele>1003</ele>
<time>2026-05-08T00:25:02Z</time></trkpt>
<trkpt lat="40.96216" lon="-7.94981">
<ele>989</ele>
<time>2026-05-08T00:25:54Z</time></trkpt>
<trkpt lat="40.962417" lon="-7.949826">
<ele>989</ele>
<time>2026-05-08T00:25:59Z</time></trkpt>
<trkpt lat="40.962618" lon="-7.949752">
<ele>988</ele>
<time>2026-05-08T00:26:04Z</time></trkpt>
<trkpt lat="40.963156" lon="-7.949302">
<ele>990</ele>
<time>2026-05-08T00:26:16Z</time></trkpt>
<trkpt lat="40.96355" lon="-7.949175">
<ele>991</ele>
<time>2026-05-08T00:26:24Z</time></trkpt>
<trkpt lat="40.965048" lon="-7.949438">
<ele>983</ele>
<time>2026-05-08T00:26:55Z</time></trkpt>
<trkpt lat="40.965303" lon="-7.94955">
<ele>982</ele>
<time>2026-05-08T00:27:00Z</time></trkpt>
<trkpt lat="40.965472" lon="-7.949778">
<ele>979</ele>
<time>2026-05-08T00:27:05Z</time></trkpt>
<trkpt lat="40.965545" lon="-7.950016">
<ele>978</ele>
<time>2026-05-08T00:27:09Z</time></trkpt>
<trkpt lat="40.965568" lon="-7.950092">
<ele>980</ele>
<time>2026-05-08T00:27:10Z</time></trkpt>
<trkpt lat="40.96556" lon="-7.95043">
<ele>985</ele>
<time>2026-05-08T00:27:15Z</time></trkpt>
<trkpt lat="40.965462" lon="-7.950667">
<ele>988</ele>
<time>2026-05-08T00:27:19Z</time></trkpt>
<trkpt lat="40.965243" lon="-7.950885">
<ele>987</ele>
<time>2026-05-08T00:27:25Z</time></trkpt>
<trkpt lat="40.965087" lon="-7.950924">
<ele>985</ele>
<time>2026-05-08T00:27:28Z</time></trkpt>
<trkpt lat="40.964922" lon="-7.950965">
<ele>984</ele>
<time>2026-05-08T00:27:31Z</time></trkpt>
<trkpt lat="40.96396" lon="-7.950906">
<ele>971</ele>
<time>2026-05-08T00:27:51Z</time></trkpt>
<trkpt lat="40.963703" lon="-7.950965">
<ele>968</ele>
<time>2026-05-08T00:27:56Z</time></trkpt>
<trkpt lat="40.963506" lon="-7.951191">
<ele>967</ele>
<time>2026-05-08T00:28:01Z</time></trkpt>
<trkpt lat="40.963405" lon="-7.951451">
<ele>966</ele>
<time>2026-05-08T00:28:05Z</time></trkpt>
<trkpt lat="40.963391" lon="-7.951765">
<ele>966</ele>
<time>2026-05-08T00:28:10Z</time></trkpt>
<trkpt lat="40.963637" lon="-7.952587">
<ele>974</ele>
<time>2026-05-08T00:28:24Z</time></trkpt>
<trkpt lat="40.963652" lon="-7.952906">
<ele>975</ele>
<time>2026-05-08T00:28:28Z</time></trkpt>
<trkpt lat="40.963602" lon="-7.953081">
<ele>973</ele>
<time>2026-05-08T00:28:31Z</time></trkpt>
<trkpt lat="40.963376" lon="-7.953548">
<ele>969</ele>
<time>2026-05-08T00:28:40Z</time></trkpt>
<trkpt lat="40.962975" lon="-7.954374">
<ele>968</ele>
<time>2026-05-08T00:28:54Z</time></trkpt>
<trkpt lat="40.962164" lon="-7.956044">
<ele>970</ele>
<time>2026-05-08T00:29:25Z</time></trkpt>
<trkpt lat="40.961951" lon="-7.956318">
<ele>972</ele>
<time>2026-05-08T00:29:30Z</time></trkpt>
<trkpt lat="40.961704" lon="-7.956456">
<ele>969</ele>
<time>2026-05-08T00:29:36Z</time></trkpt>
<trkpt lat="40.961357" lon="-7.956504">
<ele>965</ele>
<time>2026-05-08T00:29:43Z</time></trkpt>
<trkpt lat="40.960628" lon="-7.956464">
<ele>955</ele>
<time>2026-05-08T00:29:57Z</time></trkpt>
<trkpt lat="40.960381" lon="-7.956589">
<ele>955</ele>
<time>2026-05-08T00:30:03Z</time></trkpt>
<trkpt lat="40.960178" lon="-7.956807">
<ele>956</ele>
<time>2026-05-08T00:30:08Z</time></trkpt>
<trkpt lat="40.959331" lon="-7.958711">
<ele>957</ele>
<time>2026-05-08T00:30:41Z</time></trkpt>
<trkpt lat="40.959186" lon="-7.959233">
<ele>955</ele>
<time>2026-05-08T00:30:50Z</time></trkpt>
<trkpt lat="40.959001" lon="-7.961033">
<ele>958</ele>
<time>2026-05-08T00:31:17Z</time></trkpt>
<trkpt lat="40.958829" lon="-7.96131">
<ele>960</ele>
<time>2026-05-08T00:31:23Z</time></trkpt>
<trkpt lat="40.958204" lon="-7.961764">
<ele>951</ele>
<time>2026-05-08T00:31:37Z</time></trkpt>
<trkpt lat="40.958102" lon="-7.961937">
<ele>948</ele>
<time>2026-05-08T00:31:40Z</time></trkpt>
<trkpt lat="40.958013" lon="-7.962256">
<ele>947</ele>
<time>2026-05-08T00:31:46Z</time></trkpt>
<trkpt lat="40.95811" lon="-7.963631">
<ele>951</ele>
<time>2026-05-08T00:32:06Z</time></trkpt>
<trkpt lat="40.958206" lon="-7.964001">
<ele>952</ele>
<time>2026-05-08T00:32:12Z</time></trkpt>
<trkpt lat="40.95863" lon="-7.964897">
<ele>953</ele>
<time>2026-05-08T00:32:28Z</time></trkpt>
<trkpt lat="40.958678" lon="-7.965139">
<ele>956</ele>
<time>2026-05-08T00:32:32Z</time></trkpt>
<trkpt lat="40.95868" lon="-7.965355">
<ele>959</ele>
<time>2026-05-08T00:32:35Z</time></trkpt>
<trkpt lat="40.958654" lon="-7.965531">
<ele>962</ele>
<time>2026-05-08T00:32:38Z</time></trkpt>
<trkpt lat="40.958604" lon="-7.965698">
<ele>964</ele>
<time>2026-05-08T00:32:41Z</time></trkpt>
<trkpt lat="40.958529" lon="-7.965827">
<ele>964</ele>
<time>2026-05-08T00:32:43Z</time></trkpt>
<trkpt lat="40.958433" lon="-7.96594">
<ele>965</ele>
<time>2026-05-08T00:32:46Z</time></trkpt>
<trkpt lat="40.95818" lon="-7.966067">
<ele>966</ele>
<time>2026-05-08T00:32:51Z</time></trkpt>
<trkpt lat="40.957539" lon="-7.966219">
<ele>965</ele>
<time>2026-05-08T00:33:04Z</time></trkpt>
<trkpt lat="40.957394" lon="-7.96629">
<ele>965</ele>
<time>2026-05-08T00:33:07Z</time></trkpt>
<trkpt lat="40.957348" lon="-7.966312">
<ele>964</ele>
<time>2026-05-08T00:33:08Z</time></trkpt>
<trkpt lat="40.95717" lon="-7.966514">
<ele>965</ele>
<time>2026-05-08T00:33:13Z</time></trkpt>
<trkpt lat="40.956991" lon="-7.966887">
<ele>968</ele>
<time>2026-05-08T00:33:20Z</time></trkpt>
<trkpt lat="40.95593" lon="-7.970344">
<ele>990</ele>
<time>2026-05-08T00:34:16Z</time></trkpt>
<trkpt lat="40.955856" lon="-7.970729">
<ele>992</ele>
<time>2026-05-08T00:34:22Z</time></trkpt>
<trkpt lat="40.955828" lon="-7.971632">
<ele>995</ele>
<time>2026-05-08T00:34:36Z</time></trkpt>
<trkpt lat="40.955805" lon="-7.972242">
<ele>1001</ele>
<time>2026-05-08T00:34:45Z</time></trkpt>
<trkpt lat="40.955766" lon="-7.972432">
<ele>1002</ele>
<time>2026-05-08T00:34:48Z</time></trkpt>
<trkpt lat="40.955714" lon="-7.97257">
<ele>1003</ele>
<time>2026-05-08T00:34:51Z</time></trkpt>
<trkpt lat="40.95561" lon="-7.972732">
<ele>1005</ele>
<time>2026-05-08T00:34:54Z</time></trkpt>
<trkpt lat="40.955483" lon="-7.972862">
<ele>1005</ele>
<time>2026-05-08T00:34:57Z</time></trkpt>
<trkpt lat="40.954996" lon="-7.973187">
<ele>1003</ele>
<time>2026-05-08T00:35:08Z</time></trkpt>
<trkpt lat="40.954799" lon="-7.973394">
<ele>1003</ele>
<time>2026-05-08T00:35:13Z</time></trkpt>
<trkpt lat="40.954633" lon="-7.973665">
<ele>1004</ele>
<time>2026-05-08T00:35:18Z</time></trkpt>
<trkpt lat="40.954561" lon="-7.973917">
<ele>1006</ele>
<time>2026-05-08T00:35:22Z</time></trkpt>
<trkpt lat="40.954519" lon="-7.974248">
<ele>1009</ele>
<time>2026-05-08T00:35:27Z</time></trkpt>
<trkpt lat="40.9545" lon="-7.974789">
<ele>1014</ele>
<time>2026-05-08T00:35:36Z</time></trkpt>
<trkpt lat="40.95449" lon="-7.974863">
<ele>1014</ele>
<time>2026-05-08T00:35:37Z</time></trkpt>
<trkpt lat="40.954462" lon="-7.975075">
<ele>1016</ele>
<time>2026-05-08T00:35:40Z</time></trkpt>
<trkpt lat="40.954342" lon="-7.975405">
<ele>1020</ele>
<time>2026-05-08T00:35:45Z</time></trkpt>
<trkpt lat="40.953795" lon="-7.976101">
<ele>1022</ele>
<time>2026-05-08T00:36:01Z</time></trkpt>
<trkpt lat="40.953665" lon="-7.976383">
<ele>1024</ele>
<time>2026-05-08T00:36:06Z</time></trkpt>
<trkpt lat="40.953581" lon="-7.976782">
<ele>1027</ele>
<time>2026-05-08T00:36:12Z</time></trkpt>
<trkpt lat="40.953534" lon="-7.97891">
<ele>1035</ele>
<time>2026-05-08T00:36:44Z</time></trkpt>
<trkpt lat="40.953542" lon="-7.979365">
<ele>1036</ele>
<time>2026-05-08T00:36:51Z</time></trkpt>
<trkpt lat="40.953683" lon="-7.980341">
<ele>1044</ele>
<time>2026-05-08T00:37:06Z</time></trkpt>
<trkpt lat="40.953697" lon="-7.980705">
<ele>1046</ele>
<time>2026-05-08T00:37:12Z</time></trkpt>
<trkpt lat="40.953621" lon="-7.981045">
<ele>1048</ele>
<time>2026-05-08T00:37:17Z</time></trkpt>
<trkpt lat="40.953524" lon="-7.981238">
<ele>1050</ele>
<time>2026-05-08T00:37:20Z</time></trkpt>
<trkpt lat="40.953422" lon="-7.981362">
<ele>1050</ele>
<time>2026-05-08T00:37:23Z</time></trkpt>
<trkpt lat="40.952295" lon="-7.982311">
<ele>1053</ele>
<time>2026-05-08T00:37:50Z</time></trkpt>
<trkpt lat="40.95207" lon="-7.982575">
<ele>1053</ele>
<time>2026-05-08T00:37:56Z</time></trkpt>
<trkpt lat="40.951875" lon="-7.982947">
<ele>1057</ele>
<time>2026-05-08T00:38:03Z</time></trkpt>
<trkpt lat="40.951769" lon="-7.983287">
<ele>1061</ele>
<time>2026-05-08T00:38:08Z</time></trkpt>
<trkpt lat="40.951769" lon="-7.983287">
<ele>1061</ele>
<time>2026-05-08T00:38:08Z</time></trkpt>
<trkpt lat="40.951389" lon="-7.984511">
<ele>1070</ele>
<time>2026-05-08T00:38:28Z</time></trkpt>
<trkpt lat="40.951214" lon="-7.984878">
<ele>1071</ele>
<time>2026-05-08T00:38:35Z</time></trkpt>
<trkpt lat="40.95062" lon="-7.985782">
<ele>1072</ele>
<time>2026-05-08T00:38:53Z</time></trkpt>
<trkpt lat="40.950547" lon="-7.985953">
<ele>1072</ele>
<time>2026-05-08T00:38:56Z</time></trkpt>
<trkpt lat="40.950487" lon="-7.986149">
<ele>1073</ele>
<time>2026-05-08T00:38:59Z</time></trkpt>
<trkpt lat="40.950449" lon="-7.986407">
<ele>1075</ele>
<time>2026-05-08T00:39:03Z</time></trkpt>
<trkpt lat="40.950441" lon="-7.986691">
<ele>1079</ele>
<time>2026-05-08T00:39:08Z</time></trkpt>
<trkpt lat="40.950477" lon="-7.98733">
<ele>1083</ele>
<time>2026-05-08T00:39:17Z</time></trkpt>
<trkpt lat="40.950447" lon="-7.987896">
<ele>1086</ele>
<time>2026-05-08T00:39:26Z</time></trkpt>
<trkpt lat="40.950182" lon="-7.989114">
<ele>1089</ele>
<time>2026-05-08T00:39:45Z</time></trkpt>
<trkpt lat="40.950136" lon="-7.989502">
<ele>1088</ele>
<time>2026-05-08T00:39:51Z</time></trkpt>
<trkpt lat="40.950202" lon="-7.989957">
<ele>1090</ele>
<time>2026-05-08T00:39:58Z</time></trkpt>
<trkpt lat="40.950381" lon="-7.990279">
<ele>1091</ele>
<time>2026-05-08T00:40:04Z</time></trkpt>
<trkpt lat="40.950905" lon="-7.990563">
<ele>1099</ele>
<time>2026-05-08T00:40:15Z</time></trkpt>
<trkpt lat="40.951938" lon="-7.990867">
<ele>1107</ele>
<time>2026-05-08T00:40:37Z</time></trkpt>
<trkpt lat="40.952187" lon="-7.991042">
<ele>1110</ele>
<time>2026-05-08T00:40:42Z</time></trkpt>
<trkpt lat="40.95241" lon="-7.991289">
<ele>1112</ele>
<time>2026-05-08T00:40:48Z</time></trkpt>
<trkpt lat="40.953161" lon="-7.992848">
<ele>1115</ele>
<time>2026-05-08T00:41:16Z</time></trkpt>
<trkpt lat="40.953269" lon="-7.993022">
<ele>1117</ele>
<time>2026-05-08T00:41:20Z</time></trkpt>
<trkpt lat="40.953402" lon="-7.993236">
<ele>1119</ele>
<time>2026-05-08T00:41:24Z</time></trkpt>
<trkpt lat="40.953641" lon="-7.993494">
<ele>1122</ele>
<time>2026-05-08T00:41:30Z</time></trkpt>
<trkpt lat="40.953982" lon="-7.993731">
<ele>1125</ele>
<time>2026-05-08T00:41:38Z</time></trkpt>
<trkpt lat="40.959501" lon="-7.995917">
<ele>1160</ele>
<time>2026-05-08T00:43:33Z</time></trkpt>
<trkpt lat="40.959756" lon="-7.996116">
<ele>1163</ele>
<time>2026-05-08T00:43:39Z</time></trkpt>
<trkpt lat="40.959889" lon="-7.996412">
<ele>1164</ele>
<time>2026-05-08T00:43:44Z</time></trkpt>
<trkpt lat="40.959939" lon="-7.996688">
<ele>1164</ele>
<time>2026-05-08T00:43:48Z</time></trkpt>
<trkpt lat="40.959911" lon="-7.997044">
<ele>1168</ele>
<time>2026-05-08T00:43:54Z</time></trkpt>
<trkpt lat="40.959371" lon="-7.998433">
<ele>1167</ele>
<time>2026-05-08T00:44:18Z</time></trkpt>
<trkpt lat="40.9593" lon="-7.9988">
<ele>1166</ele>
<time>2026-05-08T00:44:23Z</time></trkpt>
<trkpt lat="40.95932" lon="-7.999161">
<ele>1169</ele>
<time>2026-05-08T00:44:29Z</time></trkpt>
<trkpt lat="40.959425" lon="-7.999544">
<ele>1169</ele>
<time>2026-05-08T00:44:35Z</time></trkpt>
<trkpt lat="40.959622" lon="-7.999832">
<ele>1172</ele>
<time>2026-05-08T00:44:41Z</time></trkpt>
<trkpt lat="40.960178" lon="-8.000249">
<ele>315</ele>
<time>2026-05-08T00:44:54Z</time></trkpt>
<trkpt lat="40.963335" lon="-8.002156">
<ele>1196</ele>
<time>2026-05-08T00:46:03Z</time></trkpt>
<trkpt lat="40.963614" lon="-8.002432">
<ele>1198</ele>
<time>2026-05-08T00:46:10Z</time></trkpt>
<trkpt lat="40.963711" lon="-8.002635">
<ele>1199</ele>
<time>2026-05-08T00:46:14Z</time></trkpt>
<trkpt lat="40.963746" lon="-8.002759">
<ele>1200</ele>
<time>2026-05-08T00:46:16Z</time></trkpt>
<trkpt lat="40.963757" lon="-8.002885">
<ele>1199</ele>
<time>2026-05-08T00:46:18Z</time></trkpt>
<trkpt lat="40.963707" lon="-8.004206">
<ele>1199</ele>
<time>2026-05-08T00:46:38Z</time></trkpt>
<trkpt lat="40.963737" lon="-8.004605">
<ele>1197</ele>
<time>2026-05-08T00:46:44Z</time></trkpt>
<trkpt lat="40.963815" lon="-8.004935">
<ele>1198</ele>
<time>2026-05-08T00:46:49Z</time></trkpt>
<trkpt lat="40.963907" lon="-8.005166">
<ele>1198</ele>
<time>2026-05-08T00:46:53Z</time></trkpt>
<trkpt lat="40.964012" lon="-8.00536">
<ele>1199</ele>
<time>2026-05-08T00:46:57Z</time></trkpt>
<trkpt lat="40.964763" lon="-8.00623">
<ele>1205</ele>
<time>2026-05-08T00:47:17Z</time></trkpt>
<trkpt lat="40.965984" lon="-8.007493">
<ele>1213</ele>
<time>2026-05-08T00:47:48Z</time></trkpt>
<trkpt lat="40.966105" lon="-8.007657">
<ele>1213</ele>
<time>2026-05-08T00:47:51Z</time></trkpt>
<trkpt lat="40.966178" lon="-8.007796">
<ele>1213</ele>
<time>2026-05-08T00:47:54Z</time></trkpt>
<trkpt lat="40.966258" lon="-8.00804">
<ele>1211</ele>
<time>2026-05-08T00:47:58Z</time></trkpt>
<trkpt lat="40.966296" lon="-8.008225">
<ele>1209</ele>
<time>2026-05-08T00:48:01Z</time></trkpt>
<trkpt lat="40.966332" lon="-8.008406">
<ele>1208</ele>
<time>2026-05-08T00:48:03Z</time></trkpt>
<trkpt lat="40.966418" lon="-8.008859">
<ele>1206</ele>
<time>2026-05-08T00:48:10Z</time></trkpt>
<trkpt lat="40.966538" lon="-8.009352">
<ele>1206</ele>
<time>2026-05-08T00:48:18Z</time></trkpt>
<trkpt lat="40.966635" lon="-8.009715">
<ele>1208</ele>
<time>2026-05-08T00:48:24Z</time></trkpt>
<trkpt lat="40.966804" lon="-8.010202">
<ele>1207</ele>
<time>2026-05-08T00:48:32Z</time></trkpt>
<trkpt lat="40.967209" lon="-8.011159">
<ele>1204</ele>
<time>2026-05-08T00:48:49Z</time></trkpt>
<trkpt lat="40.967394" lon="-8.011639">
<ele>1204</ele>
<time>2026-05-08T00:48:57Z</time></trkpt>
<trkpt lat="40.967638" lon="-8.012361">
<ele>1199</ele>
<time>2026-05-08T00:49:09Z</time></trkpt>
<trkpt lat="40.968249" lon="-8.014375">
<ele>1187</ele>
<time>2026-05-08T00:49:42Z</time></trkpt>
<trkpt lat="40.968303" lon="-8.014533">
<ele>1187</ele>
<time>2026-05-08T00:49:44Z</time></trkpt>
<trkpt lat="40.968397" lon="-8.014725">
<ele>1186</ele>
<time>2026-05-08T00:49:48Z</time></trkpt>
<trkpt lat="40.96862" lon="-8.015005">
<ele>1185</ele>
<time>2026-05-08T00:49:54Z</time></trkpt>
<trkpt lat="40.968735" lon="-8.015104">
<ele>1184</ele>
<time>2026-05-08T00:49:57Z</time></trkpt>
<trkpt lat="40.970516" lon="-8.016065">
<ele>1162</ele>
<time>2026-05-08T00:50:35Z</time></trkpt>
<trkpt lat="40.970705" lon="-8.016184">
<ele>1159</ele>
<time>2026-05-08T00:50:39Z</time></trkpt>
<trkpt lat="40.970912" lon="-8.016396">
<ele>1157</ele>
<time>2026-05-08T00:50:45Z</time></trkpt>
<trkpt lat="40.971025" lon="-8.016551">
<ele>1155</ele>
<time>2026-05-08T00:50:48Z</time></trkpt>
<trkpt lat="40.971113" lon="-8.016721">
<ele>1154</ele>
<time>2026-05-08T00:50:51Z</time></trkpt>
<trkpt lat="40.971175" lon="-8.016888">
<ele>1153</ele>
<time>2026-05-08T00:50:54Z</time></trkpt>
<trkpt lat="40.971242" lon="-8.017235">
<ele>1151</ele>
<time>2026-05-08T00:50:59Z</time></trkpt>
<trkpt lat="40.971252" lon="-8.017491">
<ele>1151</ele>
<time>2026-05-08T00:51:03Z</time></trkpt>
<trkpt lat="40.971238" lon="-8.017739">
<ele>1150</ele>
<time>2026-05-08T00:51:07Z</time></trkpt>
<trkpt lat="40.971183" lon="-8.018111">
<ele>1149</ele>
<time>2026-05-08T00:51:13Z</time></trkpt>
<trkpt lat="40.971093" lon="-8.018663">
<ele>1149</ele>
<time>2026-05-08T00:51:21Z</time></trkpt>
<trkpt lat="40.971081" lon="-8.01887">
<ele>1149</ele>
<time>2026-05-08T00:51:24Z</time></trkpt>
<trkpt lat="40.971119" lon="-8.019245">
<ele>1146</ele>
<time>2026-05-08T00:51:30Z</time></trkpt>
<trkpt lat="40.971179" lon="-8.01945">
<ele>1146</ele>
<time>2026-05-08T00:51:33Z</time></trkpt>
<trkpt lat="40.971486" lon="-8.019881">
<ele>1143</ele>
<time>2026-05-08T00:51:42Z</time></trkpt>
<trkpt lat="40.972578" lon="-8.02091">
<ele>1132</ele>
<time>2026-05-08T00:52:09Z</time></trkpt>
<trkpt lat="40.973006" lon="-8.020977">
<ele>1130</ele>
<time>2026-05-08T00:52:18Z</time></trkpt>
<trkpt lat="40.975058" lon="-8.020604">
<ele>1114</ele>
<time>2026-05-08T00:52:59Z</time></trkpt>
<trkpt lat="40.975442" lon="-8.020588">
<ele>1111</ele>
<time>2026-05-08T00:53:07Z</time></trkpt>
<trkpt lat="40.976317" lon="-8.020817">
<ele>1105</ele>
<time>2026-05-08T00:53:25Z</time></trkpt>
<trkpt lat="40.978534" lon="-8.022708">
<ele>1089</ele>
<time>2026-05-08T00:54:18Z</time></trkpt>
<trkpt lat="40.978791" lon="-8.023141">
<ele>1085</ele>
<time>2026-05-08T00:54:26Z</time></trkpt>
<trkpt lat="40.978841" lon="-8.023535">
<ele>1082</ele>
<time>2026-05-08T00:54:32Z</time></trkpt>
<trkpt lat="40.978614" lon="-8.024636">
<ele>1080</ele>
<time>2026-05-08T00:54:49Z</time></trkpt>
<trkpt lat="40.978642" lon="-8.024878">
<ele>1079</ele>
<time>2026-05-08T00:54:53Z</time></trkpt>
<trkpt lat="40.978756" lon="-8.025094">
<ele>1079</ele>
<time>2026-05-08T00:54:57Z</time></trkpt>
<trkpt lat="40.979019" lon="-8.025234">
<ele>1079</ele>
<time>2026-05-08T00:55:03Z</time></trkpt>
<trkpt lat="40.979246" lon="-8.025218">
<ele>1077</ele>
<time>2026-05-08T00:55:07Z</time></trkpt>
<trkpt lat="40.980642" lon="-8.02453">
<ele>1058</ele>
<time>2026-05-08T00:55:37Z</time></trkpt>
<trkpt lat="40.980905" lon="-8.024498">
<ele>1056</ele>
<time>2026-05-08T00:55:43Z</time></trkpt>
<trkpt lat="40.981145" lon="-8.024548">
<ele>1053</ele>
<time>2026-05-08T00:55:47Z</time></trkpt>
<trkpt lat="40.981431" lon="-8.02475">
<ele>1052</ele>
<time>2026-05-08T00:55:54Z</time></trkpt>
<trkpt lat="40.981614" lon="-8.024966">
<ele>1051</ele>
<time>2026-05-08T00:55:59Z</time></trkpt>
<trkpt lat="40.98179" lon="-8.025293">
<ele>1049</ele>
<time>2026-05-08T00:56:05Z</time></trkpt>
<trkpt lat="40.981888" lon="-8.025657">
<ele>1049</ele>
<time>2026-05-08T00:56:11Z</time></trkpt>
<trkpt lat="40.981974" lon="-8.026884">
<ele>1043</ele>
<time>2026-05-08T00:56:29Z</time></trkpt>
<trkpt lat="40.982029" lon="-8.027362">
<ele>1043</ele>
<time>2026-05-08T00:56:37Z</time></trkpt>
<trkpt lat="40.982163" lon="-8.027639">
<ele>1042</ele>
<time>2026-05-08T00:56:42Z</time></trkpt>
<trkpt lat="40.982276" lon="-8.027792">
<ele>1042</ele>
<time>2026-05-08T00:56:45Z</time></trkpt>
<trkpt lat="40.982404" lon="-8.027897">
<ele>1041</ele>
<time>2026-05-08T00:56:48Z</time></trkpt>
<trkpt lat="40.982554" lon="-8.027966">
<ele>1039</ele>
<time>2026-05-08T00:56:51Z</time></trkpt>
<trkpt lat="40.982714" lon="-8.027979">
<ele>1038</ele>
<time>2026-05-08T00:56:54Z</time></trkpt>
<trkpt lat="40.984667" lon="-8.027652">
<ele>1019</ele>
<time>2026-05-08T00:57:34Z</time></trkpt>
<trkpt lat="40.98488" lon="-8.027689">
<ele>1020</ele>
<time>2026-05-08T00:57:38Z</time></trkpt>
<trkpt lat="40.985578" lon="-8.028049">
<ele>1015</ele>
<time>2026-05-08T00:57:53Z</time></trkpt>
<trkpt lat="40.985755" lon="-8.028112">
<ele>1014</ele>
<time>2026-05-08T00:57:57Z</time></trkpt>
<trkpt lat="40.985975" lon="-8.02814">
<ele>1014</ele>
<time>2026-05-08T00:58:01Z</time></trkpt>
<trkpt lat="40.9861365" lon="-8.0280988">
<ele>1013</ele>
<time>2026-05-08T00:58:04Z</time></trkpt>
<trkpt lat="40.986974" lon="-8.027833">
<ele>1005</ele>
<time>2026-05-08T00:58:22Z</time></trkpt>
<trkpt lat="40.987243" lon="-8.027774">
<ele>1003</ele>
<time>2026-05-08T00:58:27Z</time></trkpt>
<trkpt lat="40.987413" lon="-8.027781">
<ele>1002</ele>
<time>2026-05-08T00:58:31Z</time></trkpt>
<trkpt lat="40.987649" lon="-8.027852">
<ele>1000</ele>
<time>2026-05-08T00:58:35Z</time></trkpt>
<trkpt lat="40.988774" lon="-8.028396">
<ele>991</ele>
<time>2026-05-08T00:58:59Z</time></trkpt>
<trkpt lat="40.989132" lon="-8.028607">
<ele>988</ele>
<time>2026-05-08T00:59:07Z</time></trkpt>
<trkpt lat="40.98928" lon="-8.028737">
<ele>986</ele>
<time>2026-05-08T00:59:11Z</time></trkpt>
<trkpt lat="40.989415" lon="-8.028958">
<ele>987</ele>
<time>2026-05-08T00:59:15Z</time></trkpt>
<trkpt lat="40.989467" lon="-8.029237">
<ele>987</ele>
<time>2026-05-08T00:59:19Z</time></trkpt>
<trkpt lat="40.98937" lon="-8.030184">
<ele>979</ele>
<time>2026-05-08T00:59:34Z</time></trkpt>
<trkpt lat="40.989391" lon="-8.03045">
<ele>979</ele>
<time>2026-05-08T00:59:38Z</time></trkpt>
<trkpt lat="40.989434" lon="-8.030608">
<ele>979</ele>
<time>2026-05-08T00:59:41Z</time></trkpt>
<trkpt lat="40.989519" lon="-8.030739">
<ele>977</ele>
<time>2026-05-08T00:59:43Z</time></trkpt>
<trkpt lat="40.9897" lon="-8.030904">
<ele>976</ele>
<time>2026-05-08T00:59:48Z</time></trkpt>
<trkpt lat="40.991892" lon="-8.031598">
<ele>956</ele>
<time>2026-05-08T01:00:33Z</time></trkpt>
<trkpt lat="40.992606" lon="-8.032077">
<ele>951</ele>
<time>2026-05-08T01:00:49Z</time></trkpt>
<trkpt lat="40.992827" lon="-8.032298">
<ele>950</ele>
<time>2026-05-08T01:00:54Z</time></trkpt>
<trkpt lat="40.992968" lon="-8.032668">
<ele>949</ele>
<time>2026-05-08T01:01:01Z</time></trkpt>
<trkpt lat="40.993008" lon="-8.032997">
<ele>945</ele>
<time>2026-05-08T01:01:06Z</time></trkpt>
<trkpt lat="40.993011" lon="-8.033158">
<ele>944</ele>
<time>2026-05-08T01:01:08Z</time></trkpt>
<trkpt lat="40.992996" lon="-8.033319">
<ele>943</ele>
<time>2026-05-08T01:01:10Z</time></trkpt>
<trkpt lat="40.992797" lon="-8.034215">
<ele>941</ele>
<time>2026-05-08T01:01:25Z</time></trkpt>
<trkpt lat="40.992786" lon="-8.034337">
<ele>943</ele>
<time>2026-05-08T01:01:26Z</time></trkpt>
<trkpt lat="40.992803" lon="-8.034471">
<ele>944</ele>
<time>2026-05-08T01:01:29Z</time></trkpt>
<trkpt lat="40.992861" lon="-8.034662">
<ele>943</ele>
<time>2026-05-08T01:01:32Z</time></trkpt>
<trkpt lat="40.993136" lon="-8.034997">
<ele>938</ele>
<time>2026-05-08T01:01:39Z</time></trkpt>
<trkpt lat="40.994154" lon="-8.035787">
<ele>927</ele>
<time>2026-05-08T01:02:03Z</time></trkpt>
<trkpt lat="40.995774" lon="-8.03662">
<ele>916</ele>
<time>2026-05-08T01:02:38Z</time></trkpt>
<trkpt lat="40.995999" lon="-8.036843">
<ele>913</ele>
<time>2026-05-08T01:02:43Z</time></trkpt>
<trkpt lat="40.996219" lon="-8.037324">
<ele>908</ele>
<time>2026-05-08T01:02:52Z</time></trkpt>
<trkpt lat="40.996225" lon="-8.037675">
<ele>904</ele>
<time>2026-05-08T01:02:57Z</time></trkpt>
<trkpt lat="40.99577" lon="-8.039194">
<ele>905</ele>
<time>2026-05-08T01:03:22Z</time></trkpt>
<trkpt lat="40.995766" lon="-8.039539">
<ele>906</ele>
<time>2026-05-08T01:03:27Z</time></trkpt>
<trkpt lat="40.99586" lon="-8.040247">
<ele>901</ele>
<time>2026-05-08T01:03:38Z</time></trkpt>
<trkpt lat="40.995958" lon="-8.040452">
<ele>899</ele>
<time>2026-05-08T01:03:42Z</time></trkpt>
<trkpt lat="40.996177" lon="-8.040598">
<ele>897</ele>
<time>2026-05-08T01:03:46Z</time></trkpt>
<trkpt lat="40.99637" lon="-8.040611">
<ele>895</ele>
<time>2026-05-08T01:03:50Z</time></trkpt>
<trkpt lat="40.996914" lon="-8.040361">
<ele>883</ele>
<time>2026-05-08T01:04:02Z</time></trkpt>
<trkpt lat="40.997187" lon="-8.04034">
<ele>877</ele>
<time>2026-05-08T01:04:07Z</time></trkpt>
<trkpt lat="40.997319" lon="-8.04043">
<ele>877</ele>
<time>2026-05-08T01:04:10Z</time></trkpt>
<trkpt lat="40.997811" lon="-8.041042">
<ele>882</ele>
<time>2026-05-08T01:04:24Z</time></trkpt>
<trkpt lat="40.998038" lon="-8.04113">
<ele>881</ele>
<time>2026-05-08T01:04:29Z</time></trkpt>
<trkpt lat="40.999483" lon="-8.041082">
<ele>867</ele>
<time>2026-05-08T01:04:58Z</time></trkpt>
<trkpt lat="40.999786" lon="-8.040984">
<ele>864</ele>
<time>2026-05-08T01:05:04Z</time></trkpt>
<trkpt lat="41.00143" lon="-8.040188">
<ele>856</ele>
<time>2026-05-08T01:05:39Z</time></trkpt>
<trkpt lat="41.001669" lon="-8.040031">
<ele>857</ele>
<time>2026-05-08T01:05:44Z</time></trkpt>
<trkpt lat="41.002598" lon="-8.038872">
<ele>845</ele>
<time>2026-05-08T01:06:10Z</time></trkpt>
<trkpt lat="41.002877" lon="-8.038702">
<ele>841</ele>
<time>2026-05-08T01:06:16Z</time></trkpt>
<trkpt lat="41.003212" lon="-8.038686">
<ele>841</ele>
<time>2026-05-08T01:06:23Z</time></trkpt>
<trkpt lat="41.004404" lon="-8.038755">
<ele>833</ele>
<time>2026-05-08T01:06:47Z</time></trkpt>
<trkpt lat="41.006345" lon="-8.039659">
<ele>820</ele>
<time>2026-05-08T01:07:28Z</time></trkpt>
<trkpt lat="41.007409" lon="-8.039601">
<ele>807</ele>
<time>2026-05-08T01:07:49Z</time></trkpt>
<trkpt lat="41.007676" lon="-8.039694">
<ele>805</ele>
<time>2026-05-08T01:07:55Z</time></trkpt>
<trkpt lat="41.007906" lon="-8.039845">
<ele>805</ele>
<time>2026-05-08T01:08:00Z</time></trkpt>
<trkpt lat="41.009622" lon="-8.04134">
<ele>796</ele>
<time>2026-05-08T01:08:41Z</time></trkpt>
<trkpt lat="41.009983" lon="-8.041478">
<ele>794</ele>
<time>2026-05-08T01:08:48Z</time></trkpt>
<trkpt lat="41.010242" lon="-8.041414">
<ele>793</ele>
<time>2026-05-08T01:08:54Z</time></trkpt>
<trkpt lat="41.010451" lon="-8.041287">
<ele>792</ele>
<time>2026-05-08T01:08:58Z</time></trkpt>
<trkpt lat="41.011131" lon="-8.040728">
<ele>784</ele>
<time>2026-05-08T01:09:14Z</time></trkpt>
<trkpt lat="41.011406" lon="-8.04064">
<ele>781</ele>
<time>2026-05-08T01:09:20Z</time></trkpt>
<trkpt lat="41.011727" lon="-8.040686">
<ele>780</ele>
<time>2026-05-08T01:09:26Z</time></trkpt>
<trkpt lat="41.011988" lon="-8.040816">
<ele>776</ele>
<time>2026-05-08T01:09:32Z</time></trkpt>
<trkpt lat="41.012155" lon="-8.041031">
<ele>775</ele>
<time>2026-05-08T01:09:37Z</time></trkpt>
<trkpt lat="41.012494" lon="-8.041865">
<ele>777</ele>
<time>2026-05-08T01:09:51Z</time></trkpt>
<trkpt lat="41.012719" lon="-8.042489">
<ele>770</ele>
<time>2026-05-08T01:10:02Z</time></trkpt>
<trkpt lat="41.012805" lon="-8.043015">
<ele>765</ele>
<time>2026-05-08T01:10:10Z</time></trkpt>
<trkpt lat="41.012789" lon="-8.04346">
<ele>763</ele>
<time>2026-05-08T01:10:16Z</time></trkpt>
<trkpt lat="41.012363" lon="-8.044872">
<ele>760</ele>
<time>2026-05-08T01:10:39Z</time></trkpt>
<trkpt lat="41.012323" lon="-8.045241">
<ele>758</ele>
<time>2026-05-08T01:10:45Z</time></trkpt>
<trkpt lat="41.012328" lon="-8.045395">
<ele>758</ele>
<time>2026-05-08T01:10:47Z</time></trkpt>
<trkpt lat="41.012373" lon="-8.045571">
<ele>756</ele>
<time>2026-05-08T01:10:50Z</time></trkpt>
<trkpt lat="41.012495" lon="-8.045845">
<ele>754</ele>
<time>2026-05-08T01:10:55Z</time></trkpt>
<trkpt lat="41.012809" lon="-8.046385">
<ele>746</ele>
<time>2026-05-08T01:11:05Z</time></trkpt>
<trkpt lat="41.012945" lon="-8.046741">
<ele>742</ele>
<time>2026-05-08T01:11:11Z</time></trkpt>
<trkpt lat="41.01296" lon="-8.046917">
<ele>740</ele>
<time>2026-05-08T01:11:14Z</time></trkpt>
<trkpt lat="41.012781" lon="-8.047534">
<ele>740</ele>
<time>2026-05-08T01:11:24Z</time></trkpt>
<trkpt lat="41.012424" lon="-8.048281">
<ele>734</ele>
<time>2026-05-08T01:11:37Z</time></trkpt>
<trkpt lat="41.012153" lon="-8.048637">
<ele>731</ele>
<time>2026-05-08T01:11:45Z</time></trkpt>
<trkpt lat="41.010656" lon="-8.04968">
<ele>721</ele>
<time>2026-05-08T01:12:19Z</time></trkpt>
<trkpt lat="41.010371" lon="-8.049933">
<ele>717</ele>
<time>2026-05-08T01:12:26Z</time></trkpt>
<trkpt lat="41.01021" lon="-8.050206">
<ele>715</ele>
<time>2026-05-08T01:12:31Z</time></trkpt>
<trkpt lat="41.009692" lon="-8.052028">
<ele>709</ele>
<time>2026-05-08T01:13:00Z</time></trkpt>
<trkpt lat="41.009409" lon="-8.05248">
<ele>707</ele>
<time>2026-05-08T01:13:09Z</time></trkpt>
<trkpt lat="41.009092" lon="-8.052802">
<ele>706</ele>
<time>2026-05-08T01:13:17Z</time></trkpt>
<trkpt lat="41.006965" lon="-8.054134">
<ele>696</ele>
<time>2026-05-08T01:14:04Z</time></trkpt>
<trkpt lat="41.00597" lon="-8.054562">
<ele>696</ele>
<time>2026-05-08T01:14:25Z</time></trkpt>
<trkpt lat="41.00494" lon="-8.055169">
<ele>698</ele>
<time>2026-05-08T01:14:48Z</time></trkpt>
<trkpt lat="41.004723" lon="-8.055384">
<ele>699</ele>
<time>2026-05-08T01:14:53Z</time></trkpt>
<trkpt lat="41.004657" lon="-8.055634">
<ele>696</ele>
<time>2026-05-08T01:14:57Z</time></trkpt>
<trkpt lat="41.004659" lon="-8.055884">
<ele>692</ele>
<time>2026-05-08T01:15:01Z</time></trkpt>
<trkpt lat="41.004739" lon="-8.056147">
<ele>694</ele>
<time>2026-05-08T01:15:06Z</time></trkpt>
<trkpt lat="41.005055" lon="-8.056467">
<ele>689</ele>
<time>2026-05-08T01:15:13Z</time></trkpt>
<trkpt lat="41.005263" lon="-8.056546">
<ele>692</ele>
<time>2026-05-08T01:15:18Z</time></trkpt>
<trkpt lat="41.005701" lon="-8.056331">
<ele>690</ele>
<time>2026-05-08T01:15:27Z</time></trkpt>
<trkpt lat="41.007184" lon="-8.056238">
<ele>691</ele>
<time>2026-05-08T01:15:57Z</time></trkpt>
<trkpt lat="41.008075" lon="-8.056012">
<ele>684</ele>
<time>2026-05-08T01:16:15Z</time></trkpt>
<trkpt lat="41.009534" lon="-8.056166">
<ele>679</ele>
<time>2026-05-08T01:16:44Z</time></trkpt>
<trkpt lat="41.01014" lon="-8.056347">
<ele>681</ele>
<time>2026-05-08T01:16:57Z</time></trkpt>
<trkpt lat="41.011489" lon="-8.056339">
<ele>681</ele>
<time>2026-05-08T01:17:24Z</time></trkpt>
<trkpt lat="41.0119295" lon="-8.0561789">
<ele>676</ele>
<time>2026-05-08T01:17:33Z</time></trkpt>
<trkpt lat="41.012177" lon="-8.056089">
<ele>674</ele>
<time>2026-05-08T01:17:38Z</time></trkpt>
<trkpt lat="41.012388" lon="-8.056076">
<ele>674</ele>
<time>2026-05-08T01:17:42Z</time></trkpt>
<trkpt lat="41.014147" lon="-8.056602">
<ele>679</ele>
<time>2026-05-08T01:18:19Z</time></trkpt>
<trkpt lat="41.01432" lon="-8.056531">
<ele>678</ele>
<time>2026-05-08T01:18:22Z</time></trkpt>
<trkpt lat="41.015105" lon="-8.055922">
<ele>673</ele>
<time>2026-05-08T01:18:40Z</time></trkpt>
<trkpt lat="41.015341" lon="-8.055818">
<ele>672</ele>
<time>2026-05-08T01:18:45Z</time></trkpt>
<trkpt lat="41.015577" lon="-8.055842">
<ele>672</ele>
<time>2026-05-08T01:18:50Z</time></trkpt>
<trkpt lat="41.017051" lon="-8.056545">
<ele>675</ele>
<time>2026-05-08T01:19:22Z</time></trkpt>
<trkpt lat="41.017308" lon="-8.056605">
<ele>675</ele>
<time>2026-05-08T01:19:27Z</time></trkpt>
<trkpt lat="41.017494" lon="-8.056552">
<ele>674</ele>
<time>2026-05-08T01:19:31Z</time></trkpt>
<trkpt lat="41.018847" lon="-8.055429">
<ele>676</ele>
<time>2026-05-08T01:20:03Z</time></trkpt>
<trkpt lat="41.018956" lon="-8.055307">
<ele>676</ele>
<time>2026-05-08T01:20:05Z</time></trkpt>
<trkpt lat="41.019544" lon="-8.054297">
<ele>666</ele>
<time>2026-05-08T01:20:25Z</time></trkpt>
<trkpt lat="41.019664" lon="-8.054172">
<ele>666</ele>
<time>2026-05-08T01:20:28Z</time></trkpt>
<trkpt lat="41.020841" lon="-8.053382">
<ele>665</ele>
<time>2026-05-08T01:20:54Z</time></trkpt>
<trkpt lat="41.02115" lon="-8.053241">
<ele>662</ele>
<time>2026-05-08T01:21:01Z</time></trkpt>
<trkpt lat="41.022075" lon="-8.053172">
<ele>661</ele>
<time>2026-05-08T01:21:19Z</time></trkpt>
<trkpt lat="41.023187" lon="-8.053592">
<ele>669</ele>
<time>2026-05-08T01:21:42Z</time></trkpt>
<trkpt lat="41.023456" lon="-8.053584">
<ele>668</ele>
<time>2026-05-08T01:21:48Z</time></trkpt>
<trkpt lat="41.024342" lon="-8.053379">
<ele>663</ele>
<time>2026-05-08T01:22:06Z</time></trkpt>
<trkpt lat="41.024591" lon="-8.053408">
<ele>663</ele>
<time>2026-05-08T01:22:11Z</time></trkpt>
<trkpt lat="41.02531" lon="-8.05365">
<ele>667</ele>
<time>2026-05-08T01:22:26Z</time></trkpt>
<trkpt lat="41.025607" lon="-8.053637">
<ele>666</ele>
<time>2026-05-08T01:22:32Z</time></trkpt>
<trkpt lat="41.02684" lon="-8.053281">
<ele>661</ele>
<time>2026-05-08T01:22:57Z</time></trkpt>
<trkpt lat="41.027047" lon="-8.053262">
<ele>661</ele>
<time>2026-05-08T01:23:01Z</time></trkpt>
<trkpt lat="41.027437" lon="-8.053371">
<ele>662</ele>
<time>2026-05-08T01:23:09Z</time></trkpt>
<trkpt lat="41.027876" lon="-8.05356">
<ele>659</ele>
<time>2026-05-08T01:23:18Z</time></trkpt>
<trkpt lat="41.028104" lon="-8.053706">
<ele>658</ele>
<time>2026-05-08T01:23:23Z</time></trkpt>
<trkpt lat="41.028729" lon="-8.054415">
<ele>653</ele>
<time>2026-05-08T01:23:40Z</time></trkpt>
<trkpt lat="41.028806" lon="-8.054551">
<ele>652</ele>
<time>2026-05-08T01:23:43Z</time></trkpt>
<trkpt lat="41.028903" lon="-8.054791">
<ele>652</ele>
<time>2026-05-08T01:23:47Z</time></trkpt>
<trkpt lat="41.029123" lon="-8.05619">
<ele>651</ele>
<time>2026-05-08T01:24:08Z</time></trkpt>
<trkpt lat="41.029121" lon="-8.056388">
<ele>650</ele>
<time>2026-05-08T01:24:11Z</time></trkpt>
<trkpt lat="41.029097" lon="-8.056539">
<ele>649</ele>
<time>2026-05-08T01:24:14Z</time></trkpt>
<trkpt lat="41.02904" lon="-8.056705">
<ele>649</ele>
<time>2026-05-08T01:24:16Z</time></trkpt>
<trkpt lat="41.028944" lon="-8.056859">
<ele>648</ele>
<time>2026-05-08T01:24:19Z</time></trkpt>
<trkpt lat="41.028172" lon="-8.057547">
<ele>652</ele>
<time>2026-05-08T01:24:38Z</time></trkpt>
<trkpt lat="41.027986" lon="-8.05778">
<ele>655</ele>
<time>2026-05-08T01:24:43Z</time></trkpt>
<trkpt lat="41.027864" lon="-8.058081">
<ele>654</ele>
<time>2026-05-08T01:24:48Z</time></trkpt>
<trkpt lat="41.027816" lon="-8.058258">
<ele>652</ele>
<time>2026-05-08T01:24:51Z</time></trkpt>
<trkpt lat="41.027803" lon="-8.058435">
<ele>652</ele>
<time>2026-05-08T01:24:54Z</time></trkpt>
<trkpt lat="41.027813" lon="-8.058617">
<ele>653</ele>
<time>2026-05-08T01:24:57Z</time></trkpt>
<trkpt lat="41.027843" lon="-8.058799">
<ele>653</ele>
<time>2026-05-08T01:24:59Z</time></trkpt>
<trkpt lat="41.02798" lon="-8.059166">
<ele>652</ele>
<time>2026-05-08T01:25:06Z</time></trkpt>
<trkpt lat="41.028116" lon="-8.059385">
<ele>652</ele>
<time>2026-05-08T01:25:10Z</time></trkpt>
<trkpt lat="41.028338" lon="-8.059577">
<ele>650</ele>
<time>2026-05-08T01:25:15Z</time></trkpt>
<trkpt lat="41.030087" lon="-8.06064">
<ele>644</ele>
<time>2026-05-08T01:25:54Z</time></trkpt>
<trkpt lat="41.030456" lon="-8.06073">
<ele>646</ele>
<time>2026-05-08T01:26:01Z</time></trkpt>
<trkpt lat="41.030669" lon="-8.060699">
<ele>645</ele>
<time>2026-05-08T01:26:06Z</time></trkpt>
<trkpt lat="41.030869" lon="-8.060623">
<ele>642</ele>
<time>2026-05-08T01:26:10Z</time></trkpt>
<trkpt lat="41.032642" lon="-8.05982">
<ele>637</ele>
<time>2026-05-08T01:26:47Z</time></trkpt>
<trkpt lat="41.032935" lon="-8.059743">
<ele>634</ele>
<time>2026-05-08T01:26:53Z</time></trkpt>
<trkpt lat="41.033784" lon="-8.059762">
<ele>632</ele>
<time>2026-05-08T01:27:10Z</time></trkpt>
<trkpt lat="41.034034" lon="-8.059747">
<ele>630</ele>
<time>2026-05-08T01:27:15Z</time></trkpt>
<trkpt lat="41.03495" lon="-8.059548">
<ele>625</ele>
<time>2026-05-08T01:27:34Z</time></trkpt>
<trkpt lat="41.035193" lon="-8.059559">
<ele>623</ele>
<time>2026-05-08T01:27:39Z</time></trkpt>
<trkpt lat="41.035358" lon="-8.059589">
<ele>622</ele>
<time>2026-05-08T01:27:42Z</time></trkpt>
<trkpt lat="41.036131" lon="-8.059964">
<ele>620</ele>
<time>2026-05-08T01:27:59Z</time></trkpt>
<trkpt lat="41.036333" lon="-8.060179">
<ele>620</ele>
<time>2026-05-08T01:28:04Z</time></trkpt>
<trkpt lat="41.036692" lon="-8.060784">
<ele>630</ele>
<time>2026-05-08T01:28:15Z</time></trkpt>
<trkpt lat="41.036849" lon="-8.060929">
<ele>631</ele>
<time>2026-05-08T01:28:19Z</time></trkpt>
<trkpt lat="41.036979" lon="-8.061012">
<ele>630</ele>
<time>2026-05-08T01:28:22Z</time></trkpt>
<trkpt lat="41.037175" lon="-8.061077">
<ele>627</ele>
<time>2026-05-08T01:28:26Z</time></trkpt>
<trkpt lat="41.037875" lon="-8.061092">
<ele>614</ele>
<time>2026-05-08T01:28:40Z</time></trkpt>
<trkpt lat="41.038046" lon="-8.061145">
<ele>613</ele>
<time>2026-05-08T01:28:44Z</time></trkpt>
<trkpt lat="41.038245" lon="-8.061304">
<ele>613</ele>
<time>2026-05-08T01:28:48Z</time></trkpt>
<trkpt lat="41.038349" lon="-8.061444">
<ele>613</ele>
<time>2026-05-08T01:28:51Z</time></trkpt>
<trkpt lat="41.038425" lon="-8.061668">
<ele>614</ele>
<time>2026-05-08T01:28:55Z</time></trkpt>
<trkpt lat="41.038867" lon="-8.063491">
<ele>612</ele>
<time>2026-05-08T01:29:24Z</time></trkpt>
<trkpt lat="41.038988" lon="-8.063754">
<ele>614</ele>
<time>2026-05-08T01:29:29Z</time></trkpt>
<trkpt lat="41.039094" lon="-8.063901">
<ele>614</ele>
<time>2026-05-08T01:29:32Z</time></trkpt>
<trkpt lat="41.040141" lon="-8.065103">
<ele>613</ele>
<time>2026-05-08T01:29:59Z</time></trkpt>
<trkpt lat="41.040305" lon="-8.065259">
<ele>613</ele>
<time>2026-05-08T01:30:04Z</time></trkpt>
<trkpt lat="41.040458" lon="-8.06536">
<ele>612</ele>
<time>2026-05-08T01:30:07Z</time></trkpt>
<trkpt lat="41.040756" lon="-8.065477">
<ele>605</ele>
<time>2026-05-08T01:30:13Z</time></trkpt>
<trkpt lat="41.040893" lon="-8.065565">
<ele>603</ele>
<time>2026-05-08T01:30:16Z</time></trkpt>
<trkpt lat="41.041154" lon="-8.065812">
<ele>603</ele>
<time>2026-05-08T01:30:23Z</time></trkpt>
<trkpt lat="41.041394" lon="-8.066128">
<ele>600</ele>
<time>2026-05-08T01:30:29Z</time></trkpt>
<trkpt lat="41.041515" lon="-8.066361">
<ele>599</ele>
<time>2026-05-08T01:30:34Z</time></trkpt>
<trkpt lat="41.041601" lon="-8.066612">
<ele>601</ele>
<time>2026-05-08T01:30:38Z</time></trkpt>
<trkpt lat="41.04166" lon="-8.066873">
<ele>599</ele>
<time>2026-05-08T01:30:42Z</time></trkpt>
<trkpt lat="41.041693" lon="-8.067181">
<ele>598</ele>
<time>2026-05-08T01:30:47Z</time></trkpt>
<trkpt lat="41.041685" lon="-8.067525">
<ele>600</ele>
<time>2026-05-08T01:30:52Z</time></trkpt>
<trkpt lat="41.041543" lon="-8.068294">
<ele>606</ele>
<time>2026-05-08T01:31:04Z</time></trkpt>
<trkpt lat="41.041515" lon="-8.068527">
<ele>608</ele>
<time>2026-05-08T01:31:07Z</time></trkpt>
<trkpt lat="41.041521" lon="-8.068772">
<ele>608</ele>
<time>2026-05-08T01:31:11Z</time></trkpt>
<trkpt lat="41.041762" lon="-8.07047">
<ele>598</ele>
<time>2026-05-08T01:31:37Z</time></trkpt>
<trkpt lat="41.041824" lon="-8.071005">
<ele>597</ele>
<time>2026-05-08T01:31:45Z</time></trkpt>
<trkpt lat="41.04193" lon="-8.072243">
<ele>592</ele>
<time>2026-05-08T01:32:04Z</time></trkpt>
<trkpt lat="41.042017" lon="-8.072493">
<ele>592</ele>
<time>2026-05-08T01:32:08Z</time></trkpt>
<trkpt lat="41.042096" lon="-8.072607">
<ele>594</ele>
<time>2026-05-08T01:32:11Z</time></trkpt>
<trkpt lat="41.04362" lon="-8.073598">
<ele>602</ele>
<time>2026-05-08T01:32:45Z</time></trkpt>
<trkpt lat="41.043783" lon="-8.073659">
<ele>603</ele>
<time>2026-05-08T01:32:48Z</time></trkpt>
<trkpt lat="41.043923" lon="-8.073648">
<ele>602</ele>
<time>2026-05-08T01:32:51Z</time></trkpt>
<trkpt lat="41.044048" lon="-8.073608">
<ele>600</ele>
<time>2026-05-08T01:32:54Z</time></trkpt>
<trkpt lat="41.045292" lon="-8.072984">
<ele>593</ele>
<time>2026-05-08T01:33:20Z</time></trkpt>
<trkpt lat="41.045445" lon="-8.07284">
<ele>593</ele>
<time>2026-05-08T01:33:24Z</time></trkpt>
<trkpt lat="41.045555" lon="-8.072676">
<ele>591</ele>
<time>2026-05-08T01:33:27Z</time></trkpt>
<trkpt lat="41.04608" lon="-8.071338">
<ele>576</ele>
<time>2026-05-08T01:33:50Z</time></trkpt>
<trkpt lat="41.046181" lon="-8.071163">
<ele>574</ele>
<time>2026-05-08T01:33:53Z</time></trkpt>
<trkpt lat="41.046303" lon="-8.071026">
<ele>573</ele>
<time>2026-05-08T01:33:57Z</time></trkpt>
<trkpt lat="41.046428" lon="-8.070939">
<ele>574</ele>
<time>2026-05-08T01:33:59Z</time></trkpt>
<trkpt lat="41.0475" lon="-8.070482">
<ele>574</ele>
<time>2026-05-08T01:34:22Z</time></trkpt>
<trkpt lat="41.049002" lon="-8.070181">
<ele>562</ele>
<time>2026-05-08T01:34:52Z</time></trkpt>
<trkpt lat="41.049182" lon="-8.070199">
<ele>560</ele>
<time>2026-05-08T01:34:56Z</time></trkpt>
<trkpt lat="41.049336" lon="-8.070283">
<ele>559</ele>
<time>2026-05-08T01:34:59Z</time></trkpt>
<trkpt lat="41.049447" lon="-8.070414">
<ele>559</ele>
<time>2026-05-08T01:35:02Z</time></trkpt>
<trkpt lat="41.049554" lon="-8.070629">
<ele>560</ele>
<time>2026-05-08T01:35:06Z</time></trkpt>
<trkpt lat="41.049788" lon="-8.07157">
<ele>560</ele>
<time>2026-05-08T01:35:21Z</time></trkpt>
<trkpt lat="41.049888" lon="-8.071822">
<ele>562</ele>
<time>2026-05-08T01:35:26Z</time></trkpt>
<trkpt lat="41.049989" lon="-8.071949">
<ele>563</ele>
<time>2026-05-08T01:35:28Z</time></trkpt>
<trkpt lat="41.050124" lon="-8.072057">
<ele>563</ele>
<time>2026-05-08T01:35:31Z</time></trkpt>
<trkpt lat="41.051717" lon="-8.07274">
<ele>550</ele>
<time>2026-05-08T01:36:05Z</time></trkpt>
<trkpt lat="41.052763" lon="-8.073541">
<ele>537</ele>
<time>2026-05-08T01:36:29Z</time></trkpt>
<trkpt lat="41.052931" lon="-8.073725">
<ele>535</ele>
<time>2026-05-08T01:36:34Z</time></trkpt>
<trkpt lat="41.053036" lon="-8.073883">
<ele>534</ele>
<time>2026-05-08T01:36:37Z</time></trkpt>
<trkpt lat="41.05312" lon="-8.074097">
<ele>535</ele>
<time>2026-05-08T01:36:40Z</time></trkpt>
<trkpt lat="41.053365" lon="-8.075049">
<ele>538</ele>
<time>2026-05-08T01:36:56Z</time></trkpt>
<trkpt lat="41.05347" lon="-8.075323">
<ele>540</ele>
<time>2026-05-08T01:37:00Z</time></trkpt>
<trkpt lat="41.05347" lon="-8.075323">
<ele>540</ele>
<time>2026-05-08T01:37:00Z</time></trkpt>
<trkpt lat="41.054539" lon="-8.076759">
<ele>530</ele>
<time>2026-05-08T01:37:31Z</time></trkpt>
<trkpt lat="41.054689" lon="-8.076899">
<ele>530</ele>
<time>2026-05-08T01:37:34Z</time></trkpt>
<trkpt lat="41.054882" lon="-8.077012">
<ele>528</ele>
<time>2026-05-08T01:37:39Z</time></trkpt>
<trkpt lat="41.056282" lon="-8.077458">
<ele>520</ele>
<time>2026-05-08T01:38:08Z</time></trkpt>
<trkpt lat="41.056453" lon="-8.077453">
<ele>519</ele>
<time>2026-05-08T01:38:11Z</time></trkpt>
<trkpt lat="41.056639" lon="-8.07741">
<ele>516</ele>
<time>2026-05-08T01:38:15Z</time></trkpt>
<trkpt lat="41.057678" lon="-8.076978">
<ele>506</ele>
<time>2026-05-08T01:38:37Z</time></trkpt>
<trkpt lat="41.057825" lon="-8.076952">
<ele>505</ele>
<time>2026-05-08T01:38:40Z</time></trkpt>
<trkpt lat="41.057958" lon="-8.076963">
<ele>504</ele>
<time>2026-05-08T01:38:42Z</time></trkpt>
<trkpt lat="41.058145" lon="-8.077029">
<ele>504</ele>
<time>2026-05-08T01:38:46Z</time></trkpt>
<trkpt lat="41.058277" lon="-8.077129">
<ele>505</ele>
<time>2026-05-08T01:38:49Z</time></trkpt>
<trkpt lat="41.058394" lon="-8.077282">
<ele>505</ele>
<time>2026-05-08T01:38:52Z</time></trkpt>
<trkpt lat="41.058507" lon="-8.077533">
<ele>505</ele>
<time>2026-05-08T01:38:57Z</time></trkpt>
<trkpt lat="41.059311" lon="-8.079979">
<ele>492</ele>
<time>2026-05-08T01:39:37Z</time></trkpt>
<trkpt lat="41.059354" lon="-8.080173">
<ele>490</ele>
<time>2026-05-08T01:39:40Z</time></trkpt>
<trkpt lat="41.059356" lon="-8.080412">
<ele>488</ele>
<time>2026-05-08T01:39:44Z</time></trkpt>
<trkpt lat="41.059015" lon="-8.081985">
<ele>489</ele>
<time>2026-05-08T01:40:09Z</time></trkpt>
<trkpt lat="41.05901" lon="-8.082279">
<ele>489</ele>
<time>2026-05-08T01:40:13Z</time></trkpt>
<trkpt lat="41.059077" lon="-8.082497">
<ele>487</ele>
<time>2026-05-08T01:40:17Z</time></trkpt>
<trkpt lat="41.05921" lon="-8.082678">
<ele>487</ele>
<time>2026-05-08T01:40:20Z</time></trkpt>
<trkpt lat="41.05932" lon="-8.082769">
<ele>488</ele>
<time>2026-05-08T01:40:23Z</time></trkpt>
<trkpt lat="41.059494" lon="-8.082797">
<ele>487</ele>
<time>2026-05-08T01:40:26Z</time></trkpt>
<trkpt lat="41.059661" lon="-8.08277">
<ele>485</ele>
<time>2026-05-08T01:40:30Z</time></trkpt>
<trkpt lat="41.063028" lon="-8.081414">
<ele>464</ele>
<time>2026-05-08T01:41:40Z</time></trkpt>
<trkpt lat="41.063203" lon="-8.081358">
<ele>464</ele>
<time>2026-05-08T01:41:44Z</time></trkpt>
<trkpt lat="41.063405" lon="-8.08133">
<ele>463</ele>
<time>2026-05-08T01:41:48Z</time></trkpt>
<trkpt lat="41.065143" lon="-8.081357">
<ele>450</ele>
<time>2026-05-08T01:42:23Z</time></trkpt>
<trkpt lat="41.065271" lon="-8.081396">
<ele>450</ele>
<time>2026-05-08T01:42:25Z</time></trkpt>
<trkpt lat="41.065411" lon="-8.08149">
<ele>450</ele>
<time>2026-05-08T01:42:29Z</time></trkpt>
<trkpt lat="41.066154" lon="-8.082217">
<ele>456</ele>
<time>2026-05-08T01:42:47Z</time></trkpt>
<trkpt lat="41.066303" lon="-8.082307">
<ele>457</ele>
<time>2026-05-08T01:42:50Z</time></trkpt>
<trkpt lat="41.066456" lon="-8.082322">
<ele>456</ele>
<time>2026-05-08T01:42:53Z</time></trkpt>
<trkpt lat="41.066626" lon="-8.082259">
<ele>453</ele>
<time>2026-05-08T01:42:57Z</time></trkpt>
<trkpt lat="41.066737" lon="-8.082154">
<ele>451</ele>
<time>2026-05-08T01:43:00Z</time></trkpt>
<trkpt lat="41.067592" lon="-8.080975">
<ele>439</ele>
<time>2026-05-08T01:43:24Z</time></trkpt>
<trkpt lat="41.067691" lon="-8.080877">
<ele>438</ele>
<time>2026-05-08T01:43:27Z</time></trkpt>
<trkpt lat="41.067806" lon="-8.080803">
<ele>436</ele>
<time>2026-05-08T01:43:29Z</time></trkpt>
<trkpt lat="41.067974" lon="-8.080744">
<ele>436</ele>
<time>2026-05-08T01:43:33Z</time></trkpt>
<trkpt lat="41.06875" lon="-8.080705">
<ele>430</ele>
<time>2026-05-08T01:43:49Z</time></trkpt>
<trkpt lat="41.068977" lon="-8.080758">
<ele>428</ele>
<time>2026-05-08T01:43:53Z</time></trkpt>
<trkpt lat="41.069145" lon="-8.080841">
<ele>428</ele>
<time>2026-05-08T01:43:57Z</time></trkpt>
<trkpt lat="41.069366" lon="-8.081028">
<ele>425</ele>
<time>2026-05-08T01:44:02Z</time></trkpt>
<trkpt lat="41.069495" lon="-8.081205">
<ele>424</ele>
<time>2026-05-08T01:44:06Z</time></trkpt>
<trkpt lat="41.069583" lon="-8.081375">
<ele>424</ele>
<time>2026-05-08T01:44:09Z</time></trkpt>
<trkpt lat="41.069655" lon="-8.081568">
<ele>425</ele>
<time>2026-05-08T01:44:12Z</time></trkpt>
<trkpt lat="41.069702" lon="-8.081783">
<ele>424</ele>
<time>2026-05-08T01:44:15Z</time></trkpt>
<trkpt lat="41.06972" lon="-8.082004">
<ele>423</ele>
<time>2026-05-08T01:44:19Z</time></trkpt>
<trkpt lat="41.069713" lon="-8.082194">
<ele>422</ele>
<time>2026-05-08T01:44:22Z</time></trkpt>
<trkpt lat="41.06968" lon="-8.082395">
<ele>424</ele>
<time>2026-05-08T01:44:25Z</time></trkpt>
<trkpt lat="41.06958" lon="-8.082695">
<ele>424</ele>
<time>2026-05-08T01:44:30Z</time></trkpt>
<trkpt lat="41.068989" lon="-8.083843">
<ele>424</ele>
<time>2026-05-08T01:44:51Z</time></trkpt>
<trkpt lat="41.068864" lon="-8.084115">
<ele>423</ele>
<time>2026-05-08T01:44:56Z</time></trkpt>
<trkpt lat="41.068824" lon="-8.084284">
<ele>424</ele>
<time>2026-05-08T01:44:58Z</time></trkpt>
<trkpt lat="41.068821" lon="-8.084436">
<ele>425</ele>
<time>2026-05-08T01:45:01Z</time></trkpt>
<trkpt lat="41.06885" lon="-8.084598">
<ele>425</ele>
<time>2026-05-08T01:45:03Z</time></trkpt>
<trkpt lat="41.068897" lon="-8.084728">
<ele>425</ele>
<time>2026-05-08T01:45:05Z</time></trkpt>
<trkpt lat="41.068982" lon="-8.084846">
<ele>423</ele>
<time>2026-05-08T01:45:08Z</time></trkpt>
<trkpt lat="41.069085" lon="-8.084936">
<ele>420</ele>
<time>2026-05-08T01:45:10Z</time></trkpt>
<trkpt lat="41.069172" lon="-8.084976">
<ele>418</ele>
<time>2026-05-08T01:45:12Z</time></trkpt>
<trkpt lat="41.069313" lon="-8.084986">
<ele>417</ele>
<time>2026-05-08T01:45:15Z</time></trkpt>
<trkpt lat="41.070806" lon="-8.084752">
<ele>410</ele>
<time>2026-05-08T01:45:45Z</time></trkpt>
<trkpt lat="41.070932" lon="-8.084754">
<ele>408</ele>
<time>2026-05-08T01:45:47Z</time></trkpt>
<trkpt lat="41.071065" lon="-8.084786">
<ele>406</ele>
<time>2026-05-08T01:45:50Z</time></trkpt>
<trkpt lat="41.071277" lon="-8.084901">
<ele>404</ele>
<time>2026-05-08T01:45:55Z</time></trkpt>
<trkpt lat="41.071404" lon="-8.085026">
<ele>405</ele>
<time>2026-05-08T01:45:58Z</time></trkpt>
<trkpt lat="41.0714548" lon="-8.0851087">
<ele>405</ele>
<time>2026-05-08T01:46:00Z</time></trkpt>
<trkpt lat="41.071544" lon="-8.085254">
<ele>406</ele>
<time>2026-05-08T01:46:02Z</time></trkpt>
<trkpt lat="41.071862" lon="-8.085847">
<ele>410</ele>
<time>2026-05-08T01:46:13Z</time></trkpt>
<trkpt lat="41.0721805" lon="-8.0864548">
<ele>408</ele>
<time>2026-05-08T01:46:25Z</time></trkpt>
<trkpt lat="41.072182" lon="-8.086454">
<ele>408</ele>
<time>2026-05-08T01:46:25Z</time></trkpt>
<trkpt lat="41.072568" lon="-8.087194">
<ele>406</ele>
<time>2026-05-08T01:46:38Z</time></trkpt>
<trkpt lat="41.07264" lon="-8.087267">
<ele>405</ele>
<time>2026-05-08T01:46:40Z</time></trkpt>
<trkpt lat="41.072752" lon="-8.08731">
<ele>404</ele>
<time>2026-05-08T01:46:42Z</time></trkpt>
<trkpt lat="41.072807" lon="-8.087295">
<ele>403</ele>
<time>2026-05-08T01:46:43Z</time></trkpt>
<trkpt lat="41.072941" lon="-8.087187">
<ele>401</ele>
<time>2026-05-08T01:46:47Z</time></trkpt>
<trkpt lat="41.073102" lon="-8.086734">
<ele>399</ele>
<time>2026-05-08T01:46:54Z</time></trkpt>
<trkpt lat="41.07335" lon="-8.086419">
<ele>398</ele>
<time>2026-05-08T01:47:01Z</time></trkpt>
<trkpt lat="41.073547" lon="-8.086274">
<ele>398</ele>
<time>2026-05-08T01:47:06Z</time></trkpt>
<trkpt lat="41.073742" lon="-8.086281">
<ele>398</ele>
<time>2026-05-08T01:47:09Z</time></trkpt>
<trkpt lat="41.074563" lon="-8.08644">
<ele>390</ele>
<time>2026-05-08T01:47:26Z</time></trkpt>
<trkpt lat="41.074716" lon="-8.086475">
<ele>388</ele>
<time>2026-05-08T01:47:29Z</time></trkpt>
<trkpt lat="41.074744" lon="-8.08651">
<ele>387</ele>
<time>2026-05-08T01:47:30Z</time></trkpt>
<trkpt lat="41.074744" lon="-8.08651">
<ele>387</ele>
<time>2026-05-08T01:47:30Z</time></trkpt>
<trkpt lat="41.074802" lon="-8.086581">
<ele>386</ele>
<time>2026-05-08T01:47:32Z</time></trkpt>
<trkpt lat="41.07481" lon="-8.086742">
<ele>384</ele>
<time>2026-05-08T01:47:34Z</time></trkpt>
<trkpt lat="41.074737" lon="-8.087037">
<ele>382</ele>
<time>2026-05-08T01:47:39Z</time></trkpt>
<trkpt lat="41.074584" lon="-8.08737">
<ele>382</ele>
<time>2026-05-08T01:47:45Z</time></trkpt>
<trkpt lat="41.074447" lon="-8.087748">
<ele>381</ele>
<time>2026-05-08T01:47:51Z</time></trkpt>
<trkpt lat="41.074359" lon="-8.087902">
<ele>381</ele>
<time>2026-05-08T01:47:54Z</time></trkpt>
<trkpt lat="41.074252" lon="-8.087997">
<ele>382</ele>
<time>2026-05-08T01:47:56Z</time></trkpt>
<trkpt lat="41.074155" lon="-8.088055">
<ele>384</ele>
<time>2026-05-08T01:47:59Z</time></trkpt>
<trkpt lat="41.073958" lon="-8.088241">
<ele>385</ele>
<time>2026-05-08T01:48:03Z</time></trkpt>
<trkpt lat="41.073841" lon="-8.088438">
<ele>386</ele>
<time>2026-05-08T01:48:07Z</time></trkpt>
<trkpt lat="41.073787" lon="-8.088565">
<ele>387</ele>
<time>2026-05-08T01:48:09Z</time></trkpt>
<trkpt lat="41.0738247" lon="-8.0891873">
<ele>382</ele>
<time>2026-05-08T01:48:19Z</time></trkpt>
<trkpt lat="41.07389" lon="-8.08965">
<ele>378</ele>
<time>2026-05-08T01:48:26Z</time></trkpt>
<trkpt lat="41.073905" lon="-8.090147">
<ele>375</ele>
<time>2026-05-08T01:48:33Z</time></trkpt>
<trkpt lat="41.073954" lon="-8.090185">
<ele>374</ele>
<time>2026-05-08T01:48:35Z</time></trkpt>
<trkpt lat="41.073976" lon="-8.090292">
<ele>373</ele>
<time>2026-05-08T01:48:36Z</time></trkpt>
<trkpt lat="41.073941" lon="-8.090369">
<ele>373</ele>
<time>2026-05-08T01:48:38Z</time></trkpt>
<trkpt lat="41.07385" lon="-8.090678">
<ele>372</ele>
<time>2026-05-08T01:48:43Z</time></trkpt>
<trkpt lat="41.073599" lon="-8.09114">
<ele>372</ele>
<time>2026-05-08T01:48:51Z</time></trkpt>
<trkpt lat="41.073554" lon="-8.091263">
<ele>372</ele>
<time>2026-05-08T01:48:53Z</time></trkpt>
<trkpt lat="41.073511" lon="-8.091507">
<ele>371</ele>
<time>2026-05-08T01:48:57Z</time></trkpt>
<trkpt lat="41.073518" lon="-8.091618">
<ele>371</ele>
<time>2026-05-08T01:48:59Z</time></trkpt>
<trkpt lat="41.073558" lon="-8.091753">
<ele>370</ele>
<time>2026-05-08T01:49:01Z</time></trkpt>
<trkpt lat="41.073624" lon="-8.09185">
<ele>369</ele>
<time>2026-05-08T01:49:03Z</time></trkpt>
<trkpt lat="41.073717" lon="-8.091939">
<ele>368</ele>
<time>2026-05-08T01:49:05Z</time></trkpt>
<trkpt lat="41.073937" lon="-8.092072">
<ele>366</ele>
<time>2026-05-08T01:49:10Z</time></trkpt>
<trkpt lat="41.074123" lon="-8.092116">
<ele>363</ele>
<time>2026-05-08T01:49:14Z</time></trkpt>
<trkpt lat="41.074353" lon="-8.09213">
<ele>361</ele>
<time>2026-05-08T01:49:18Z</time></trkpt>
<trkpt lat="41.074439" lon="-8.092121">
<ele>361</ele>
<time>2026-05-08T01:49:20Z</time></trkpt>
<trkpt lat="41.074512" lon="-8.092089">
<ele>360</ele>
<time>2026-05-08T01:49:22Z</time></trkpt>
<trkpt lat="41.074571" lon="-8.092049">
<ele>360</ele>
<time>2026-05-08T01:49:23Z</time></trkpt>
<trkpt lat="41.074636" lon="-8.092061">
<ele>359</ele>
<time>2026-05-08T01:49:24Z</time></trkpt>
<trkpt lat="41.074664" lon="-8.092087">
<ele>359</ele>
<time>2026-05-08T01:49:25Z</time></trkpt>
<trkpt lat="41.074692" lon="-8.092148">
<ele>359</ele>
<time>2026-05-08T01:49:26Z</time></trkpt>
<trkpt lat="41.074694" lon="-8.092219">
<ele>359</ele>
<time>2026-05-08T01:49:27Z</time></trkpt>
<trkpt lat="41.07465" lon="-8.092308">
<ele>359</ele>
<time>2026-05-08T01:49:29Z</time></trkpt>
<trkpt lat="41.074848" lon="-8.092702">
<ele>360</ele>
<time>2026-05-08T01:49:36Z</time></trkpt>
<trkpt lat="41.074897" lon="-8.092906">
<ele>363</ele>
<time>2026-05-08T01:49:39Z</time></trkpt>
<trkpt lat="41.074958" lon="-8.093429">
<ele>369</ele>
<time>2026-05-08T01:49:47Z</time></trkpt>
<trkpt lat="41.075007" lon="-8.093582">
<ele>371</ele>
<time>2026-05-08T01:49:50Z</time></trkpt>
<trkpt lat="41.075078" lon="-8.09371">
<ele>372</ele>
<time>2026-05-08T01:49:52Z</time></trkpt>
<trkpt lat="41.075234" lon="-8.093883">
<ele>373</ele>
<time>2026-05-08T01:49:56Z</time></trkpt>
<trkpt lat="41.075363" lon="-8.093953">
<ele>372</ele>
<time>2026-05-08T01:49:59Z</time></trkpt>
<trkpt lat="41.075727" lon="-8.094098">
<ele>371</ele>
<time>2026-05-08T01:50:07Z</time></trkpt>
<trkpt lat="41.075807" lon="-8.094158">
<ele>371</ele>
<time>2026-05-08T01:50:08Z</time></trkpt>
<trkpt lat="41.075861" lon="-8.094235">
<ele>370</ele>
<time>2026-05-08T01:50:10Z</time></trkpt>
<trkpt lat="41.0759" lon="-8.094377">
<ele>369</ele>
<time>2026-05-08T01:50:12Z</time></trkpt>
<trkpt lat="41.075888" lon="-8.094528">
<ele>370</ele>
<time>2026-05-08T01:50:15Z</time></trkpt>
<trkpt lat="41.075821" lon="-8.094658">
<ele>372</ele>
<time>2026-05-08T01:50:17Z</time></trkpt>
<trkpt lat="41.075703" lon="-8.094741">
<ele>373</ele>
<time>2026-05-08T01:50:20Z</time></trkpt>
<trkpt lat="41.075303" lon="-8.0949157">
<ele>379</ele>
<time>2026-05-08T01:50:28Z</time></trkpt>
<trkpt lat="41.075117" lon="-8.094997">
<ele>381</ele>
<time>2026-05-08T01:50:32Z</time></trkpt>
<trkpt lat="41.075105" lon="-8.095057">
<ele>382</ele>
<time>2026-05-08T01:50:33Z</time></trkpt>
<trkpt lat="41.075053" lon="-8.095101">
<ele>382</ele>
<time>2026-05-08T01:50:34Z</time></trkpt>
<trkpt lat="41.075059" lon="-8.095199">
<ele>382</ele>
<time>2026-05-08T01:50:36Z</time></trkpt>
<trkpt lat="41.075168" lon="-8.09564">
<ele>381</ele>
<time>2026-05-08T01:50:43Z</time></trkpt>
<trkpt lat="41.075231" lon="-8.095792">
<ele>381</ele>
<time>2026-05-08T01:50:45Z</time></trkpt>
<trkpt lat="41.07531" lon="-8.095903">
<ele>381</ele>
<time>2026-05-08T01:50:48Z</time></trkpt>
<trkpt lat="41.075446" lon="-8.095996">
<ele>380</ele>
<time>2026-05-08T01:50:51Z</time></trkpt>
<trkpt lat="41.075939" lon="-8.096151">
<ele>378</ele>
<time>2026-05-08T01:51:01Z</time></trkpt>
<trkpt lat="41.076652" lon="-8.096587">
<ele>372</ele>
<time>2026-05-08T01:51:17Z</time></trkpt>
<trkpt lat="41.076794" lon="-8.096696">
<ele>370</ele>
<time>2026-05-08T01:51:20Z</time></trkpt>
<trkpt lat="41.077064" lon="-8.097115">
<ele>370</ele>
<time>2026-05-08T01:51:28Z</time></trkpt>
<trkpt lat="41.07718" lon="-8.097248">
<ele>369</ele>
<time>2026-05-08T01:51:31Z</time></trkpt>
<trkpt lat="41.077942" lon="-8.097877">
<ele>362</ele>
<time>2026-05-08T01:51:49Z</time></trkpt>
<trkpt lat="41.078017" lon="-8.097971">
<ele>360</ele>
<time>2026-05-08T01:51:51Z</time></trkpt>
<trkpt lat="41.078074" lon="-8.098087">
<ele>360</ele>
<time>2026-05-08T01:51:53Z</time></trkpt>
<trkpt lat="41.078098" lon="-8.098189">
<ele>360</ele>
<time>2026-05-08T01:51:55Z</time></trkpt>
<trkpt lat="41.078101" lon="-8.098312">
<ele>361</ele>
<time>2026-05-08T01:51:57Z</time></trkpt>
<trkpt lat="41.078078" lon="-8.098482">
<ele>361</ele>
<time>2026-05-08T01:51:59Z</time></trkpt>
<trkpt lat="41.077966" lon="-8.099023">
<ele>363</ele>
<time>2026-05-08T01:52:08Z</time></trkpt>
<trkpt lat="41.07797" lon="-8.099176">
<ele>363</ele>
<time>2026-05-08T01:52:10Z</time></trkpt>
<trkpt lat="41.078008" lon="-8.099308">
<ele>363</ele>
<time>2026-05-08T01:52:12Z</time></trkpt>
<trkpt lat="41.078388" lon="-8.099981">
<ele>357</ele>
<time>2026-05-08T01:52:25Z</time></trkpt>
<trkpt lat="41.078433" lon="-8.100097">
<ele>356</ele>
<time>2026-05-08T01:52:27Z</time></trkpt>
<trkpt lat="41.078457" lon="-8.100443">
<ele>358</ele>
<time>2026-05-08T01:52:32Z</time></trkpt>
<trkpt lat="41.078507" lon="-8.100664">
<ele>358</ele>
<time>2026-05-08T01:52:36Z</time></trkpt>
<trkpt lat="41.078595" lon="-8.100804">
<ele>357</ele>
<time>2026-05-08T01:52:39Z</time></trkpt>
<trkpt lat="41.078718" lon="-8.100936">
<ele>355</ele>
<time>2026-05-08T01:52:42Z</time></trkpt>
<trkpt lat="41.079054" lon="-8.101203">
<ele>350</ele>
<time>2026-05-08T01:52:50Z</time></trkpt>
<trkpt lat="41.079152" lon="-8.101324">
<ele>348</ele>
<time>2026-05-08T01:52:52Z</time></trkpt>
<trkpt lat="41.079199" lon="-8.101449">
<ele>348</ele>
<time>2026-05-08T01:52:54Z</time></trkpt>
<trkpt lat="41.07922" lon="-8.101588">
<ele>348</ele>
<time>2026-05-08T01:52:57Z</time></trkpt>
<trkpt lat="41.079247" lon="-8.103697">
<ele>341</ele>
<time>2026-05-08T01:53:28Z</time></trkpt>
<trkpt lat="41.079265" lon="-8.103834">
<ele>342</ele>
<time>2026-05-08T01:53:30Z</time></trkpt>
<trkpt lat="41.079335" lon="-8.103976">
<ele>341</ele>
<time>2026-05-08T01:53:33Z</time></trkpt>
<trkpt lat="41.07941" lon="-8.104042">
<ele>341</ele>
<time>2026-05-08T01:53:35Z</time></trkpt>
<trkpt lat="41.079519" lon="-8.104084">
<ele>340</ele>
<time>2026-05-08T01:53:37Z</time></trkpt>
<trkpt lat="41.079619" lon="-8.104093">
<ele>339</ele>
<time>2026-05-08T01:53:39Z</time></trkpt>
<trkpt lat="41.080091" lon="-8.103996">
<ele>334</ele>
<time>2026-05-08T01:53:49Z</time></trkpt>
<trkpt lat="41.080211" lon="-8.104006">
<ele>332</ele>
<time>2026-05-08T01:53:51Z</time></trkpt>
<trkpt lat="41.080312" lon="-8.104061">
<ele>331</ele>
<time>2026-05-08T01:53:53Z</time></trkpt>
<trkpt lat="41.080402" lon="-8.104193">
<ele>331</ele>
<time>2026-05-08T01:53:56Z</time></trkpt>
<trkpt lat="41.080805" lon="-8.10528">
<ele>331</ele>
<time>2026-05-08T01:54:14Z</time></trkpt>
<trkpt lat="41.080931" lon="-8.105624">
<ele>329</ele>
<time>2026-05-08T01:54:20Z</time></trkpt>
<trkpt lat="41.081266" lon="-8.106561">
<ele>327</ele>
<time>2026-05-08T01:54:36Z</time></trkpt>
<trkpt lat="41.081344" lon="-8.10668">
<ele>327</ele>
<time>2026-05-08T01:54:38Z</time></trkpt>
<trkpt lat="41.08146" lon="-8.106786">
<ele>326</ele>
<time>2026-05-08T01:54:41Z</time></trkpt>
<trkpt lat="41.081967" lon="-8.107086">
<ele>323</ele>
<time>2026-05-08T01:54:52Z</time></trkpt>
<trkpt lat="41.082209" lon="-8.107141">
<ele>322</ele>
<time>2026-05-08T01:54:57Z</time></trkpt>
<trkpt lat="41.082537" lon="-8.107184">
<ele>321</ele>
<time>2026-05-08T01:55:04Z</time></trkpt>
<trkpt lat="41.082703" lon="-8.107285">
<ele>318</ele>
<time>2026-05-08T01:55:07Z</time></trkpt>
<trkpt lat="41.082768" lon="-8.107397">
<ele>316</ele>
<time>2026-05-08T01:55:09Z</time></trkpt>
<trkpt lat="41.082806" lon="-8.10753">
<ele>314</ele>
<time>2026-05-08T01:55:12Z</time></trkpt>
<trkpt lat="41.082817" lon="-8.107688">
<ele>312</ele>
<time>2026-05-08T01:55:14Z</time></trkpt>
<trkpt lat="41.082782" lon="-8.107869">
<ele>311</ele>
<time>2026-05-08T01:55:17Z</time></trkpt>
<trkpt lat="41.082736" lon="-8.107964">
<ele>310</ele>
<time>2026-05-08T01:55:18Z</time></trkpt>
<trkpt lat="41.08265" lon="-8.108077">
<ele>310</ele>
<time>2026-05-08T01:55:21Z</time></trkpt>
<trkpt lat="41.082418" lon="-8.10832">
<ele>310</ele>
<time>2026-05-08T01:55:27Z</time></trkpt>
<trkpt lat="41.08236" lon="-8.108417">
<ele>310</ele>
<time>2026-05-08T01:55:29Z</time></trkpt>
<trkpt lat="41.082322" lon="-8.108557">
<ele>309</ele>
<time>2026-05-08T01:55:31Z</time></trkpt>
<trkpt lat="41.082303" lon="-8.108696">
<ele>308</ele>
<time>2026-05-08T01:55:33Z</time></trkpt>
<trkpt lat="41.08231" lon="-8.10915">
<ele>304</ele>
<time>2026-05-08T01:55:40Z</time></trkpt>
<trkpt lat="41.082283" lon="-8.109307">
<ele>302</ele>
<time>2026-05-08T01:55:42Z</time></trkpt>
<trkpt lat="41.082228" lon="-8.109477">
<ele>299</ele>
<time>2026-05-08T01:55:45Z</time></trkpt>
<trkpt lat="41.082148" lon="-8.109578">
<ele>298</ele>
<time>2026-05-08T01:55:47Z</time></trkpt>
<trkpt lat="41.082062" lon="-8.109645">
<ele>297</ele>
<time>2026-05-08T01:55:49Z</time></trkpt>
<trkpt lat="41.081974" lon="-8.109663">
<ele>297</ele>
<time>2026-05-08T01:55:51Z</time></trkpt>
<trkpt lat="41.081882" lon="-8.109656">
<ele>297</ele>
<time>2026-05-08T01:55:53Z</time></trkpt>
<trkpt lat="41.081778" lon="-8.109618">
<ele>298</ele>
<time>2026-05-08T01:55:55Z</time></trkpt>
<trkpt lat="41.081706" lon="-8.109569">
<ele>299</ele>
<time>2026-05-08T01:55:57Z</time></trkpt>
<trkpt lat="41.081454" lon="-8.109222">
<ele>302</ele>
<time>2026-05-08T01:56:04Z</time></trkpt>
<trkpt lat="41.081386" lon="-8.109162">
<ele>303</ele>
<time>2026-05-08T01:56:06Z</time></trkpt>
<trkpt lat="41.081296" lon="-8.109133">
<ele>303</ele>
<time>2026-05-08T01:56:08Z</time></trkpt>
<trkpt lat="41.081213" lon="-8.109136">
<ele>303</ele>
<time>2026-05-08T01:56:09Z</time></trkpt>
<trkpt lat="41.081125" lon="-8.10918">
<ele>302</ele>
<time>2026-05-08T01:56:11Z</time></trkpt>
<trkpt lat="41.080106" lon="-8.109877">
<ele>298</ele>
<time>2026-05-08T01:56:34Z</time></trkpt>
<trkpt lat="41.079945" lon="-8.110005">
<ele>298</ele>
<time>2026-05-08T01:56:38Z</time></trkpt>
<trkpt lat="41.079845" lon="-8.110121">
<ele>298</ele>
<time>2026-05-08T01:56:40Z</time></trkpt>
<trkpt lat="41.07976" lon="-8.110286">
<ele>296</ele>
<time>2026-05-08T01:56:43Z</time></trkpt>
<trkpt lat="41.078991" lon="-8.11218">
<ele>284</ele>
<time>2026-05-08T01:57:16Z</time></trkpt>
<trkpt lat="41.078911" lon="-8.112297">
<ele>283</ele>
<time>2026-05-08T01:57:18Z</time></trkpt>
<trkpt lat="41.078348" lon="-8.112781">
<ele>281</ele>
<time>2026-05-08T01:57:32Z</time></trkpt>
<trkpt lat="41.078183" lon="-8.112873">
<ele>279</ele>
<time>2026-05-08T01:57:35Z</time></trkpt>
<trkpt lat="41.077739" lon="-8.112934">
<ele>280</ele>
<time>2026-05-08T01:57:44Z</time></trkpt>
<trkpt lat="41.077649" lon="-8.11299">
<ele>279</ele>
<time>2026-05-08T01:57:46Z</time></trkpt>
<trkpt lat="41.077543" lon="-8.11311">
<ele>277</ele>
<time>2026-05-08T01:57:49Z</time></trkpt>
<trkpt lat="41.077454" lon="-8.113333">
<ele>274</ele>
<time>2026-05-08T01:57:53Z</time></trkpt>
<trkpt lat="41.077393" lon="-8.113538">
<ele>271</ele>
<time>2026-05-08T01:57:56Z</time></trkpt>
<trkpt lat="41.077321" lon="-8.113689">
<ele>270</ele>
<time>2026-05-08T01:57:59Z</time></trkpt>
<trkpt lat="41.077135" lon="-8.11391">
<ele>269</ele>
<time>2026-05-08T01:58:04Z</time></trkpt>
<trkpt lat="41.076236" lon="-8.114311">
<ele>259</ele>
<time>2026-05-08T01:58:23Z</time></trkpt>
<trkpt lat="41.076064" lon="-8.114314">
<ele>257</ele>
<time>2026-05-08T01:58:26Z</time></trkpt>
<trkpt lat="41.075976" lon="-8.114263">
<ele>258</ele>
<time>2026-05-08T01:58:28Z</time></trkpt>
<trkpt lat="41.075891" lon="-8.114176">
<ele>260</ele>
<time>2026-05-08T01:58:30Z</time></trkpt>
<trkpt lat="41.075512" lon="-8.113677">
<ele>264</ele>
<time>2026-05-08T01:58:41Z</time></trkpt>
<trkpt lat="41.075457" lon="-8.113625">
<ele>264</ele>
<time>2026-05-08T01:58:43Z</time></trkpt>
<trkpt lat="41.075289" lon="-8.11354">
<ele>261</ele>
<time>2026-05-08T01:58:46Z</time></trkpt>
<trkpt lat="41.075212" lon="-8.113436">
<ele>261</ele>
<time>2026-05-08T01:58:48Z</time></trkpt>
<trkpt lat="41.074941" lon="-8.112975">
<ele>267</ele>
<time>2026-05-08T01:58:57Z</time></trkpt>
<trkpt lat="41.07483" lon="-8.112847">
<ele>271</ele>
<time>2026-05-08T01:59:00Z</time></trkpt>
<trkpt lat="41.07472" lon="-8.112782">
<ele>272</ele>
<time>2026-05-08T01:59:03Z</time></trkpt>
<trkpt lat="41.074529" lon="-8.11274">
<ele>271</ele>
<time>2026-05-08T01:59:06Z</time></trkpt>
<trkpt lat="41.074293" lon="-8.112745">
<ele>270</ele>
<time>2026-05-08T01:59:11Z</time></trkpt>
<trkpt lat="41.074133" lon="-8.112774">
<ele>269</ele>
<time>2026-05-08T01:59:14Z</time></trkpt>
<trkpt lat="41.074012" lon="-8.112834">
<ele>269</ele>
<time>2026-05-08T01:59:17Z</time></trkpt>
<trkpt lat="41.073931" lon="-8.112921">
<ele>269</ele>
<time>2026-05-08T01:59:19Z</time></trkpt>
<trkpt lat="41.073882" lon="-8.113027">
<ele>269</ele>
<time>2026-05-08T01:59:21Z</time></trkpt>
<trkpt lat="41.07387" lon="-8.113161">
<ele>268</ele>
<time>2026-05-08T01:59:23Z</time></trkpt>
<trkpt lat="41.073894" lon="-8.11331">
<ele>266</ele>
<time>2026-05-08T01:59:25Z</time></trkpt>
<trkpt lat="41.074029" lon="-8.113617">
<ele>262</ele>
<time>2026-05-08T01:59:31Z</time></trkpt>
<trkpt lat="41.074146" lon="-8.113838">
<ele>258</ele>
<time>2026-05-08T01:59:35Z</time></trkpt>
<trkpt lat="41.074197" lon="-8.114004">
<ele>257</ele>
<time>2026-05-08T01:59:37Z</time></trkpt>
<trkpt lat="41.074217" lon="-8.114123">
<ele>257</ele>
<time>2026-05-08T01:59:39Z</time></trkpt>
<trkpt lat="41.074216" lon="-8.11443">
<ele>259</ele>
<time>2026-05-08T01:59:44Z</time></trkpt>
<trkpt lat="41.074247" lon="-8.114543">
<ele>259</ele>
<time>2026-05-08T01:59:46Z</time></trkpt>
<trkpt lat="41.074365" lon="-8.114764">
<ele>257</ele>
<time>2026-05-08T01:59:50Z</time></trkpt>
<trkpt lat="41.074396" lon="-8.114875">
<ele>256</ele>
<time>2026-05-08T01:59:52Z</time></trkpt>
<trkpt lat="41.074398" lon="-8.115008">
<ele>257</ele>
<time>2026-05-08T01:59:54Z</time></trkpt>
<trkpt lat="41.074323" lon="-8.115778">
<ele>267</ele>
<time>2026-05-08T02:00:05Z</time></trkpt>
<trkpt lat="41.074323" lon="-8.115924">
<ele>269</ele>
<time>2026-05-08T02:00:08Z</time></trkpt>
<trkpt lat="41.074377" lon="-8.11609">
<ele>270</ele>
<time>2026-05-08T02:00:10Z</time></trkpt>
<trkpt lat="41.074492" lon="-8.116389">
<ele>271</ele>
<time>2026-05-08T02:00:15Z</time></trkpt>
<trkpt lat="41.074599" lon="-8.11661">
<ele>271</ele>
<time>2026-05-08T02:00:19Z</time></trkpt>
<trkpt lat="41.074697" lon="-8.116749">
<ele>270</ele>
<time>2026-05-08T02:00:22Z</time></trkpt>
<trkpt lat="41.074909" lon="-8.116944">
<ele>265</ele>
<time>2026-05-08T02:00:27Z</time></trkpt>
<trkpt lat="41.075121" lon="-8.117078">
<ele>259</ele>
<time>2026-05-08T02:00:32Z</time></trkpt>
<trkpt lat="41.075202" lon="-8.117151">
<ele>257</ele>
<time>2026-05-08T02:00:34Z</time></trkpt>
<trkpt lat="41.075264" lon="-8.117251">
<ele>256</ele>
<time>2026-05-08T02:00:36Z</time></trkpt>
<trkpt lat="41.075304" lon="-8.117365">
<ele>257</ele>
<time>2026-05-08T02:00:38Z</time></trkpt>
<trkpt lat="41.075301" lon="-8.117711">
<ele>261</ele>
<time>2026-05-08T02:00:43Z</time></trkpt>
<trkpt lat="41.075242" lon="-8.1182">
<ele>268</ele>
<time>2026-05-08T02:00:51Z</time></trkpt>
<trkpt lat="41.075237" lon="-8.118382">
<ele>269</ele>
<time>2026-05-08T02:00:53Z</time></trkpt>
<trkpt lat="41.075252" lon="-8.118558">
<ele>269</ele>
<time>2026-05-08T02:00:56Z</time></trkpt>
<trkpt lat="41.075292" lon="-8.118716">
<ele>268</ele>
<time>2026-05-08T02:00:59Z</time></trkpt>
<trkpt lat="41.075443" lon="-8.119076">
<ele>263</ele>
<time>2026-05-08T02:01:05Z</time></trkpt>
<trkpt lat="41.075476" lon="-8.119202">
<ele>262</ele>
<time>2026-05-08T02:01:07Z</time></trkpt>
<trkpt lat="41.075493" lon="-8.119356">
<ele>263</ele>
<time>2026-05-08T02:01:09Z</time></trkpt>
<trkpt lat="41.075484" lon="-8.119502">
<ele>264</ele>
<time>2026-05-08T02:01:11Z</time></trkpt>
<trkpt lat="41.075408" lon="-8.119889">
<ele>271</ele>
<time>2026-05-08T02:01:17Z</time></trkpt>
<trkpt lat="41.075399" lon="-8.120218">
<ele>274</ele>
<time>2026-05-08T02:01:22Z</time></trkpt>
<trkpt lat="41.075436" lon="-8.120371">
<ele>274</ele>
<time>2026-05-08T02:01:25Z</time></trkpt>
<trkpt lat="41.075668" lon="-8.120847">
<ele>268</ele>
<time>2026-05-08T02:01:33Z</time></trkpt>
<trkpt lat="41.075724" lon="-8.121063">
<ele>268</ele>
<time>2026-05-08T02:01:37Z</time></trkpt>
<trkpt lat="41.075782" lon="-8.121913">
<ele>278</ele>
<time>2026-05-08T02:01:50Z</time></trkpt>
<trkpt lat="41.075822" lon="-8.122024">
<ele>278</ele>
<time>2026-05-08T02:01:52Z</time></trkpt>
<trkpt lat="41.075957" lon="-8.122172">
<ele>278</ele>
<time>2026-05-08T02:01:55Z</time></trkpt>
<trkpt lat="41.076082" lon="-8.122227">
<ele>278</ele>
<time>2026-05-08T02:01:58Z</time></trkpt>
<trkpt lat="41.076743" lon="-8.122293">
<ele>274</ele>
<time>2026-05-08T02:02:11Z</time></trkpt>
<trkpt lat="41.076875" lon="-8.122322">
<ele>273</ele>
<time>2026-05-08T02:02:14Z</time></trkpt>
<trkpt lat="41.077016" lon="-8.12239">
<ele>272</ele>
<time>2026-05-08T02:02:17Z</time></trkpt>
<trkpt lat="41.077501" lon="-8.122715">
<ele>270</ele>
<time>2026-05-08T02:02:28Z</time></trkpt>
<trkpt lat="41.077622" lon="-8.122841">
<ele>270</ele>
<time>2026-05-08T02:02:31Z</time></trkpt>
<trkpt lat="41.077985" lon="-8.123304">
<ele>272</ele>
<time>2026-05-08T02:02:41Z</time></trkpt>
<trkpt lat="41.078128" lon="-8.123529">
<ele>272</ele>
<time>2026-05-08T02:02:45Z</time></trkpt>
<trkpt lat="41.078267" lon="-8.123876">
<ele>272</ele>
<time>2026-05-08T02:02:51Z</time></trkpt>
<trkpt lat="41.078575" lon="-8.124954">
<ele>269</ele>
<time>2026-05-08T02:03:09Z</time></trkpt>
<trkpt lat="41.078585" lon="-8.125063">
<ele>268</ele>
<time>2026-05-08T02:03:10Z</time></trkpt>
<trkpt lat="41.078556" lon="-8.125251">
<ele>267</ele>
<time>2026-05-08T02:03:13Z</time></trkpt>
<trkpt lat="41.078185" lon="-8.126072">
<ele>267</ele>
<time>2026-05-08T02:03:28Z</time></trkpt>
<trkpt lat="41.078054" lon="-8.126264">
<ele>267</ele>
<time>2026-05-08T02:03:31Z</time></trkpt>
<trkpt lat="41.077953" lon="-8.126344">
<ele>267</ele>
<time>2026-05-08T02:03:34Z</time></trkpt>
<trkpt lat="41.0777" lon="-8.12649">
<ele>269</ele>
<time>2026-05-08T02:03:39Z</time></trkpt>
<trkpt lat="41.077474" lon="-8.126664">
<ele>269</ele>
<time>2026-05-08T02:03:45Z</time></trkpt>
<trkpt lat="41.077227" lon="-8.126934">
<ele>268</ele>
<time>2026-05-08T02:03:51Z</time></trkpt>
<trkpt lat="41.077131" lon="-8.127014">
<ele>268</ele>
<time>2026-05-08T02:03:53Z</time></trkpt>
<trkpt lat="41.077035" lon="-8.127054">
<ele>268</ele>
<time>2026-05-08T02:03:55Z</time></trkpt>
<trkpt lat="41.076246" lon="-8.127149">
<ele>273</ele>
<time>2026-05-08T02:04:11Z</time></trkpt>
<trkpt lat="41.076134" lon="-8.127201">
<ele>274</ele>
<time>2026-05-08T02:04:14Z</time></trkpt>
<trkpt lat="41.075871" lon="-8.127476">
<ele>273</ele>
<time>2026-05-08T02:04:20Z</time></trkpt>
<trkpt lat="41.075753" lon="-8.127689">
<ele>273</ele>
<time>2026-05-08T02:04:24Z</time></trkpt>
<trkpt lat="41.075207" lon="-8.128556">
<ele>274</ele>
<time>2026-05-08T02:04:41Z</time></trkpt>
<trkpt lat="41.074913" lon="-8.128913">
<ele>274</ele>
<time>2026-05-08T02:04:49Z</time></trkpt>
<trkpt lat="41.074544" lon="-8.12922">
<ele>276</ele>
<time>2026-05-08T02:04:58Z</time></trkpt>
<trkpt lat="41.074161" lon="-8.129352">
<ele>282</ele>
<time>2026-05-08T02:05:06Z</time></trkpt>
<trkpt lat="41.074077" lon="-8.129407">
<ele>282</ele>
<time>2026-05-08T02:05:08Z</time></trkpt>
<trkpt lat="41.073793" lon="-8.129756">
<ele>278</ele>
<time>2026-05-08T02:05:16Z</time></trkpt>
<trkpt lat="41.073654" lon="-8.1299">
<ele>277</ele>
<time>2026-05-08T02:05:19Z</time></trkpt>
<trkpt lat="41.07339" lon="-8.130087">
<ele>277</ele>
<time>2026-05-08T02:05:25Z</time></trkpt>
<trkpt lat="41.073054" lon="-8.130282">
<ele>282</ele>
<time>2026-05-08T02:05:32Z</time></trkpt>
<trkpt lat="41.072906" lon="-8.130396">
<ele>283</ele>
<time>2026-05-08T02:05:36Z</time></trkpt>
<trkpt lat="41.072637" lon="-8.130817">
<ele>281</ele>
<time>2026-05-08T02:05:44Z</time></trkpt>
<trkpt lat="41.072553" lon="-8.130882">
<ele>281</ele>
<time>2026-05-08T02:05:46Z</time></trkpt>
<trkpt lat="41.07188" lon="-8.131243">
<ele>286</ele>
<time>2026-05-08T02:06:01Z</time></trkpt>
<trkpt lat="41.071751" lon="-8.131379">
<ele>285</ele>
<time>2026-05-08T02:06:04Z</time></trkpt>
<trkpt lat="41.071403" lon="-8.131863">
<ele>285</ele>
<time>2026-05-08T02:06:14Z</time></trkpt>
<trkpt lat="41.071267" lon="-8.132006">
<ele>286</ele>
<time>2026-05-08T02:06:18Z</time></trkpt>
<trkpt lat="41.07098" lon="-8.132234">
<ele>291</ele>
<time>2026-05-08T02:06:24Z</time></trkpt>
<trkpt lat="41.070897" lon="-8.132332">
<ele>292</ele>
<time>2026-05-08T02:06:27Z</time></trkpt>
<trkpt lat="41.07085" lon="-8.13244">
<ele>292</ele>
<time>2026-05-08T02:06:28Z</time></trkpt>
<trkpt lat="41.070829" lon="-8.13253">
<ele>291</ele>
<time>2026-05-08T02:06:30Z</time></trkpt>
<trkpt lat="41.070797" lon="-8.132949">
<ele>287</ele>
<time>2026-05-08T02:06:36Z</time></trkpt>
<trkpt lat="41.070746" lon="-8.133292">
<ele>284</ele>
<time>2026-05-08T02:06:41Z</time></trkpt>
<trkpt lat="41.070554" lon="-8.134228">
<ele>277</ele>
<time>2026-05-08T02:06:56Z</time></trkpt>
<trkpt lat="41.0705" lon="-8.134389">
<ele>275</ele>
<time>2026-05-08T02:06:59Z</time></trkpt>
<trkpt lat="41.07044" lon="-8.134509">
<ele>274</ele>
<time>2026-05-08T02:07:01Z</time></trkpt>
<trkpt lat="41.070341" lon="-8.134617">
<ele>273</ele>
<time>2026-05-08T02:07:04Z</time></trkpt>
<trkpt lat="41.070251" lon="-8.134664">
<ele>274</ele>
<time>2026-05-08T02:07:05Z</time></trkpt>
<trkpt lat="41.069836" lon="-8.134723">
<ele>278</ele>
<time>2026-05-08T02:07:14Z</time></trkpt>
<trkpt lat="41.069695" lon="-8.134704">
<ele>280</ele>
<time>2026-05-08T02:07:17Z</time></trkpt>
<trkpt lat="41.069469" lon="-8.134632">
<ele>283</ele>
<time>2026-05-08T02:07:21Z</time></trkpt>
<trkpt lat="41.069374" lon="-8.134632">
<ele>283</ele>
<time>2026-05-08T02:07:23Z</time></trkpt>
<trkpt lat="41.069345" lon="-8.134814">
<ele>280</ele>
<time>2026-05-08T02:07:26Z</time></trkpt>
<trkpt lat="41.06936" lon="-8.134903">
<ele>278</ele>
<time>2026-05-08T02:07:27Z</time></trkpt>
<trkpt lat="41.069428" lon="-8.134995">
<ele>276</ele>
<time>2026-05-08T02:07:29Z</time></trkpt>
<trkpt lat="41.069558" lon="-8.135006">
<ele>275</ele>
<time>2026-05-08T02:07:32Z</time></trkpt>
<trkpt lat="41.07036" lon="-8.134947">
<ele>266</ele>
<time>2026-05-08T02:07:48Z</time></trkpt>
<trkpt lat="41.070512" lon="-8.134908">
<ele>264</ele>
<time>2026-05-08T02:07:51Z</time></trkpt>
<trkpt lat="41.070655" lon="-8.134804">
<ele>264</ele>
<time>2026-05-08T02:07:54Z</time></trkpt>
<trkpt lat="41.070861" lon="-8.134547">
<ele>265</ele>
<time>2026-05-08T02:08:00Z</time></trkpt>
<trkpt lat="41.071261" lon="-8.133756">
<ele>260</ele>
<time>2026-05-08T02:08:14Z</time></trkpt>
<trkpt lat="41.071431" lon="-8.1335">
<ele>258</ele>
<time>2026-05-08T02:08:20Z</time></trkpt>
<trkpt lat="41.071581" lon="-8.133348">
<ele>255</ele>
<time>2026-05-08T02:08:23Z</time></trkpt>
<trkpt lat="41.071743" lon="-8.133251">
<ele>252</ele>
<time>2026-05-08T02:08:27Z</time></trkpt>
<trkpt lat="41.071893" lon="-8.133208">
<ele>251</ele>
<time>2026-05-08T02:08:30Z</time></trkpt>
<trkpt lat="41.071893" lon="-8.133208">
<ele>251</ele>
<time>2026-05-08T02:08:30Z</time></trkpt>
<trkpt lat="41.073333" lon="-8.13312">
<ele>237</ele>
<time>2026-05-08T02:08:59Z</time></trkpt>
<trkpt lat="41.073471" lon="-8.133093">
<ele>236</ele>
<time>2026-05-08T02:09:02Z</time></trkpt>
<trkpt lat="41.073602" lon="-8.133035">
<ele>235</ele>
<time>2026-05-08T02:09:04Z</time></trkpt>
<trkpt lat="41.073732" lon="-8.132925">
<ele>235</ele>
<time>2026-05-08T02:09:08Z</time></trkpt>
<trkpt lat="41.074192" lon="-8.132422">
<ele>234</ele>
<time>2026-05-08T02:09:20Z</time></trkpt>
<trkpt lat="41.074486" lon="-8.132163">
<ele>230</ele>
<time>2026-05-08T02:09:27Z</time></trkpt>
<trkpt lat="41.074672" lon="-8.132044">
<ele>228</ele>
<time>2026-05-08T02:09:31Z</time></trkpt>
<trkpt lat="41.074878" lon="-8.131946">
<ele>225</ele>
<time>2026-05-08T02:09:35Z</time></trkpt>
<trkpt lat="41.077494" lon="-8.1312">
<ele>203</ele>
<time>2026-05-08T02:10:29Z</time></trkpt>
<trkpt lat="41.077658" lon="-8.131109">
<ele>201</ele>
<time>2026-05-08T02:10:32Z</time></trkpt>
<trkpt lat="41.07787" lon="-8.130918">
<ele>200</ele>
<time>2026-05-08T02:10:37Z</time></trkpt>
<trkpt lat="41.078052" lon="-8.130616">
<ele>202</ele>
<time>2026-05-08T02:10:43Z</time></trkpt>
<trkpt lat="41.078251" lon="-8.130014">
<ele>207</ele>
<time>2026-05-08T02:10:53Z</time></trkpt>
<trkpt lat="41.078356" lon="-8.129799">
<ele>206</ele>
<time>2026-05-08T02:10:57Z</time></trkpt>
<trkpt lat="41.078525" lon="-8.129561">
<ele>202</ele>
<time>2026-05-08T02:11:02Z</time></trkpt>
<trkpt lat="41.079421" lon="-8.128832">
<ele>186</ele>
<time>2026-05-08T02:11:23Z</time></trkpt>
<trkpt lat="41.079685" lon="-8.128564">
<ele>185</ele>
<time>2026-05-08T02:11:30Z</time></trkpt>
<trkpt lat="41.081891" lon="-8.125944">
<ele>164</ele>
<time>2026-05-08T02:12:29Z</time></trkpt>
<trkpt lat="41.08216" lon="-8.125738">
<ele>160</ele>
<time>2026-05-08T02:12:35Z</time></trkpt>
<trkpt lat="41.08238" lon="-8.125629">
<ele>157</ele>
<time>2026-05-08T02:12:40Z</time></trkpt>
<trkpt lat="41.083031" lon="-8.125568">
<ele>146</ele>
<time>2026-05-08T02:12:53Z</time></trkpt>
<trkpt lat="41.083278" lon="-8.125482">
<ele>144</ele>
<time>2026-05-08T02:12:58Z</time></trkpt>
<trkpt lat="41.083523" lon="-8.125295">
<ele>143</ele>
<time>2026-05-08T02:13:04Z</time></trkpt>
<trkpt lat="41.083976" lon="-8.12479">
<ele>141</ele>
<time>2026-05-08T02:13:16Z</time></trkpt>
<trkpt lat="41.084261" lon="-8.124426">
<ele>139</ele>
<time>2026-05-08T02:13:24Z</time></trkpt>
<trkpt lat="41.084551" lon="-8.12414">
<ele>134</ele>
<time>2026-05-08T02:13:31Z</time></trkpt>
<trkpt lat="41.084842" lon="-8.123734">
<ele>134</ele>
<time>2026-05-08T02:13:39Z</time></trkpt>
<trkpt lat="41.08507" lon="-8.123364">
<ele>136</ele>
<time>2026-05-08T02:13:47Z</time></trkpt>
<trkpt lat="41.085632" lon="-8.122179">
<ele>120</ele>
<time>2026-05-08T02:14:08Z</time></trkpt>
<trkpt lat="41.085741" lon="-8.121868">
<ele>119</ele>
<time>2026-05-08T02:14:13Z</time></trkpt>
<trkpt lat="41.085794" lon="-8.121532">
<ele>120</ele>
<time>2026-05-08T02:14:18Z</time></trkpt>
<trkpt lat="41.085793" lon="-8.12065">
<ele>115</ele>
<time>2026-05-08T02:14:31Z</time></trkpt>
<trkpt lat="41.085833" lon="-8.12048">
<ele>110</ele>
<time>2026-05-08T02:14:34Z</time></trkpt>
<trkpt lat="41.085894" lon="-8.12036">
<ele>106</ele>
<time>2026-05-08T02:14:36Z</time></trkpt>
<trkpt lat="41.085998" lon="-8.120297">
<ele>104</ele>
<time>2026-05-08T02:14:39Z</time></trkpt>
<trkpt lat="41.086126" lon="-8.120285">
<ele>102</ele>
<time>2026-05-08T02:14:41Z</time></trkpt>
<trkpt lat="41.086247" lon="-8.120334">
<ele>102</ele>
<time>2026-05-08T02:14:44Z</time></trkpt>
<trkpt lat="41.086356" lon="-8.120446">
<ele>103</ele>
<time>2026-05-08T02:14:46Z</time></trkpt>
<trkpt lat="41.086431" lon="-8.120557">
<ele>104</ele>
<time>2026-05-08T02:14:49Z</time></trkpt>
<trkpt lat="41.086471" lon="-8.120713">
<ele>106</ele>
<time>2026-05-08T02:14:51Z</time></trkpt>
<trkpt lat="41.086466" lon="-8.1209">
<ele>108</ele>
<time>2026-05-08T02:14:54Z</time></trkpt>
<trkpt lat="41.08639" lon="-8.121157">
<ele>107</ele>
<time>2026-05-08T02:14:58Z</time></trkpt>
<trkpt lat="41.086023" lon="-8.122222">
<ele>106</ele>
<time>2026-05-08T02:15:16Z</time></trkpt>
<trkpt lat="41.085543" lon="-8.125656">
<ele>83</ele>
<time>2026-05-08T02:16:09Z</time></trkpt>
<trkpt lat="41.085474" lon="-8.126063">
<ele>79</ele>
<time>2026-05-08T02:16:15Z</time></trkpt>
<trkpt lat="41.085399" lon="-8.126351">
<ele>76</ele>
<time>2026-05-08T02:16:19Z</time></trkpt>
<trkpt lat="41.085284" lon="-8.126612">
<ele>74</ele>
<time>2026-05-08T02:16:24Z</time></trkpt>
<trkpt lat="41.085118" lon="-8.126915">
<ele>72</ele>
<time>2026-05-08T02:16:30Z</time></trkpt>
<trkpt lat="41.084322" lon="-8.128221">
<ele>63</ele>
<time>2026-05-08T02:16:55Z</time></trkpt>
<trkpt lat="41.084086" lon="-8.128658">
<ele>60</ele>
<time>2026-05-08T02:17:03Z</time></trkpt>
<trkpt lat="41.0840214" lon="-8.1288491">
<ele>58</ele>
<time>2026-05-08T02:17:06Z</time></trkpt>
<trkpt lat="41.084016" lon="-8.128865">
<ele>58</ele>
<time>2026-05-08T02:17:07Z</time></trkpt>
<trkpt lat="41.084041" lon="-8.129092">
<ele>54</ele>
<time>2026-05-08T02:17:10Z</time></trkpt>
<trkpt lat="41.084091" lon="-8.12929">
<ele>51</ele>
<time>2026-05-08T02:17:13Z</time></trkpt>
<trkpt lat="41.084156" lon="-8.129409">
<ele>49</ele>
<time>2026-05-08T02:17:15Z</time></trkpt>
<trkpt lat="41.085184" lon="-8.130647">
<ele>36</ele>
<time>2026-05-08T02:17:43Z</time></trkpt>
<trkpt lat="41.086702" lon="-8.13244">
<ele>42</ele>
<time>2026-05-08T02:18:24Z</time></trkpt>
<trkpt lat="41.086806" lon="-8.13253">
<ele>46</ele>
<time>2026-05-08T02:18:26Z</time></trkpt>
<trkpt lat="41.086888" lon="-8.132554">
<ele>49</ele>
<time>2026-05-08T02:18:28Z</time></trkpt>
<trkpt lat="41.086942" lon="-8.132542">
<ele>51</ele>
<time>2026-05-08T02:18:29Z</time></trkpt>
<trkpt lat="41.087447" lon="-8.132191">
<ele>61</ele>
<time>2026-05-08T02:18:41Z</time></trkpt>
<trkpt lat="41.0874864" lon="-8.1321554">
<ele>62</ele>
<time>2026-05-08T02:18:42Z</time></trkpt>
<trkpt lat="41.087614" lon="-8.13204">
<ele>63</ele>
<time>2026-05-08T02:18:45Z</time></trkpt>
<trkpt lat="41.087815" lon="-8.131872">
<ele>64</ele>
<time>2026-05-08T02:18:50Z</time></trkpt>
<trkpt lat="41.087919" lon="-8.131735">
<ele>63</ele>
<time>2026-05-08T02:18:52Z</time></trkpt>
<trkpt lat="41.089056" lon="-8.1298">
<ele>72</ele>
<time>2026-05-08T02:19:30Z</time></trkpt>
<trkpt lat="41.089485" lon="-8.128504">
<ele>76</ele>
<time>2026-05-08T02:19:51Z</time></trkpt>
<trkpt lat="41.089712" lon="-8.128054">
<ele>77</ele>
<time>2026-05-08T02:19:59Z</time></trkpt>
<trkpt lat="41.089922" lon="-8.127752">
<ele>78</ele>
<time>2026-05-08T02:20:05Z</time></trkpt>
<trkpt lat="41.090173" lon="-8.127481">
<ele>82</ele>
<time>2026-05-08T02:20:12Z</time></trkpt>
<trkpt lat="41.090406" lon="-8.127291">
<ele>86</ele>
<time>2026-05-08T02:20:17Z</time></trkpt>
<trkpt lat="41.090657" lon="-8.127141">
<ele>90</ele>
<time>2026-05-08T02:20:23Z</time></trkpt>
<trkpt lat="41.090951" lon="-8.127041">
<ele>95</ele>
<time>2026-05-08T02:20:29Z</time></trkpt>
<trkpt lat="41.091346" lon="-8.126874">
<ele>101</ele>
<time>2026-05-08T02:20:37Z</time></trkpt>
<trkpt lat="41.091493" lon="-8.12675">
<ele>103</ele>
<time>2026-05-08T02:20:41Z</time></trkpt>
<trkpt lat="41.091634" lon="-8.126584">
<ele>103</ele>
<time>2026-05-08T02:20:44Z</time></trkpt>
<trkpt lat="41.091985" lon="-8.12601">
<ele>104</ele>
<time>2026-05-08T02:20:56Z</time></trkpt>
<trkpt lat="41.092224" lon="-8.125748">
<ele>107</ele>
<time>2026-05-08T02:21:02Z</time></trkpt>
<trkpt lat="41.092418" lon="-8.12563">
<ele>111</ele>
<time>2026-05-08T02:21:06Z</time></trkpt>
<trkpt lat="41.093352" lon="-8.125409">
<ele>120</ele>
<time>2026-05-08T02:21:25Z</time></trkpt>
<trkpt lat="41.093648" lon="-8.125306">
<ele>125</ele>
<time>2026-05-08T02:21:31Z</time></trkpt>
<trkpt lat="41.093895" lon="-8.125153">
<ele>127</ele>
<time>2026-05-08T02:21:37Z</time></trkpt>
<trkpt lat="41.094778" lon="-8.124382">
<ele>139</ele>
<time>2026-05-08T02:21:58Z</time></trkpt>
<trkpt lat="41.094854" lon="-8.124272">
<ele>139</ele>
<time>2026-05-08T02:22:00Z</time></trkpt>
<trkpt lat="41.094905" lon="-8.124161">
<ele>138</ele>
<time>2026-05-08T02:22:02Z</time></trkpt>
<trkpt lat="41.094918" lon="-8.124049">
<ele>140</ele>
<time>2026-05-08T02:22:04Z</time></trkpt>
<trkpt lat="41.094911" lon="-8.123882">
<ele>142</ele>
<time>2026-05-08T02:22:06Z</time></trkpt>
<trkpt lat="41.094859" lon="-8.123754">
<ele>143</ele>
<time>2026-05-08T02:22:08Z</time></trkpt>
<trkpt lat="41.094777" lon="-8.123646">
<ele>143</ele>
<time>2026-05-08T02:22:11Z</time></trkpt>
<trkpt lat="41.094682" lon="-8.123591">
<ele>144</ele>
<time>2026-05-08T02:22:13Z</time></trkpt>
<trkpt lat="41.094286" lon="-8.123565">
<ele>142</ele>
<time>2026-05-08T02:22:21Z</time></trkpt>
<trkpt lat="41.093708" lon="-8.123599">
<ele>138</ele>
<time>2026-05-08T02:22:32Z</time></trkpt>
<trkpt lat="41.093521" lon="-8.123526">
<ele>140</ele>
<time>2026-05-08T02:22:36Z</time></trkpt>
<trkpt lat="41.093417" lon="-8.12342">
<ele>143</ele>
<time>2026-05-08T02:22:39Z</time></trkpt>
<trkpt lat="41.093326" lon="-8.123278">
<ele>145</ele>
<time>2026-05-08T02:22:42Z</time></trkpt>
<trkpt lat="41.093273" lon="-8.123103">
<ele>145</ele>
<time>2026-05-08T02:22:45Z</time></trkpt>
<trkpt lat="41.093266" lon="-8.122919">
<ele>145</ele>
<time>2026-05-08T02:22:47Z</time></trkpt>
<trkpt lat="41.093304" lon="-8.12276">
<ele>146</ele>
<time>2026-05-08T02:22:50Z</time></trkpt>
<trkpt lat="41.093379" lon="-8.122584">
<ele>147</ele>
<time>2026-05-08T02:22:53Z</time></trkpt>
<trkpt lat="41.093491" lon="-8.122499">
<ele>149</ele>
<time>2026-05-08T02:22:56Z</time></trkpt>
<trkpt lat="41.093634" lon="-8.122439">
<ele>149</ele>
<time>2026-05-08T02:22:59Z</time></trkpt>
<trkpt lat="41.093878" lon="-8.122439">
<ele>152</ele>
<time>2026-05-08T02:23:03Z</time></trkpt>
<trkpt lat="41.094162" lon="-8.12248">
<ele>156</ele>
<time>2026-05-08T02:23:09Z</time></trkpt>
<trkpt lat="41.095785" lon="-8.123086">
<ele>163</ele>
<time>2026-05-08T02:23:43Z</time></trkpt>
<trkpt lat="41.096152" lon="-8.123068">
<ele>170</ele>
<time>2026-05-08T02:23:50Z</time></trkpt>
<trkpt lat="41.096472" lon="-8.122866">
<ele>178</ele>
<time>2026-05-08T02:23:57Z</time></trkpt>
<trkpt lat="41.09683" lon="-8.122416">
<ele>186</ele>
<time>2026-05-08T02:24:07Z</time></trkpt>
<trkpt lat="41.096922" lon="-8.122295">
<ele>187</ele>
<time>2026-05-08T02:24:10Z</time></trkpt>
<trkpt lat="41.097266" lon="-8.121839">
<ele>192</ele>
<time>2026-05-08T02:24:20Z</time></trkpt>
<trkpt lat="41.097815" lon="-8.121111">
<ele>200</ele>
<time>2026-05-08T02:24:35Z</time></trkpt>
<trkpt lat="41.097872" lon="-8.120938">
<ele>200</ele>
<time>2026-05-08T02:24:38Z</time></trkpt>
<trkpt lat="41.097883" lon="-8.12078">
<ele>199</ele>
<time>2026-05-08T02:24:40Z</time></trkpt>
<trkpt lat="41.097861" lon="-8.120639">
<ele>201</ele>
<time>2026-05-08T02:24:43Z</time></trkpt>
<trkpt lat="41.097807" lon="-8.120524">
<ele>202</ele>
<time>2026-05-08T02:24:45Z</time></trkpt>
<trkpt lat="41.097726" lon="-8.120429">
<ele>202</ele>
<time>2026-05-08T02:24:47Z</time></trkpt>
<trkpt lat="41.097601" lon="-8.120351">
<ele>202</ele>
<time>2026-05-08T02:24:50Z</time></trkpt>
<trkpt lat="41.097096" lon="-8.120161">
<ele>201</ele>
<time>2026-05-08T02:25:00Z</time></trkpt>
<trkpt lat="41.096997" lon="-8.120072">
<ele>202</ele>
<time>2026-05-08T02:25:02Z</time></trkpt>
<trkpt lat="41.09691" lon="-8.11997">
<ele>202</ele>
<time>2026-05-08T02:25:05Z</time></trkpt>
<trkpt lat="41.096854" lon="-8.119856">
<ele>202</ele>
<time>2026-05-08T02:25:07Z</time></trkpt>
<trkpt lat="41.096813" lon="-8.119708">
<ele>202</ele>
<time>2026-05-08T02:25:09Z</time></trkpt>
<trkpt lat="41.096799" lon="-8.119512">
<ele>202</ele>
<time>2026-05-08T02:25:12Z</time></trkpt>
<trkpt lat="41.096834" lon="-8.119334">
<ele>204</ele>
<time>2026-05-08T02:25:15Z</time></trkpt>
<trkpt lat="41.096892" lon="-8.119186">
<ele>206</ele>
<time>2026-05-08T02:25:18Z</time></trkpt>
<trkpt lat="41.096986" lon="-8.119045">
<ele>207</ele>
<time>2026-05-08T02:25:20Z</time></trkpt>
<trkpt lat="41.097458" lon="-8.118551">
<ele>217</ele>
<time>2026-05-08T02:25:32Z</time></trkpt>
<trkpt lat="41.097769" lon="-8.118225">
<ele>219</ele>
<time>2026-05-08T02:25:40Z</time></trkpt>
<trkpt lat="41.098081" lon="-8.118024">
<ele>221</ele>
<time>2026-05-08T02:25:47Z</time></trkpt>
<trkpt lat="41.099016" lon="-8.117817">
<ele>227</ele>
<time>2026-05-08T02:26:06Z</time></trkpt>
<trkpt lat="41.099275" lon="-8.117739">
<ele>229</ele>
<time>2026-05-08T02:26:12Z</time></trkpt>
<trkpt lat="41.09934" lon="-8.117779">
<ele>230</ele>
<time>2026-05-08T02:26:13Z</time></trkpt>
<trkpt lat="41.099377" lon="-8.117825">
<ele>231</ele>
<time>2026-05-08T02:26:14Z</time></trkpt>
<trkpt lat="41.09939" lon="-8.117889">
<ele>232</ele>
<time>2026-05-08T02:26:15Z</time></trkpt>
<trkpt lat="41.099309" lon="-8.11808">
<ele>233</ele>
<time>2026-05-08T02:26:18Z</time></trkpt>
<trkpt lat="41.099142" lon="-8.118561">
<ele>234</ele>
<time>2026-05-08T02:26:26Z</time></trkpt>
<trkpt lat="41.099104" lon="-8.118841">
<ele>234</ele>
<time>2026-05-08T02:26:31Z</time></trkpt>
<trkpt lat="41.099108" lon="-8.119164">
<ele>235</ele>
<time>2026-05-08T02:26:36Z</time></trkpt>
<trkpt lat="41.099108" lon="-8.119164">
<ele>235</ele>
<time>2026-05-08T02:26:36Z</time></trkpt>
<trkpt lat="41.099116" lon="-8.119831">
<ele>233</ele>
<time>2026-05-08T02:26:46Z</time></trkpt>
<trkpt lat="41.099402" lon="-8.120496">
<ele>242</ele>
<time>2026-05-08T02:26:57Z</time></trkpt>
<trkpt lat="41.099399" lon="-8.120735">
<ele>242</ele>
<time>2026-05-08T02:27:01Z</time></trkpt>
<trkpt lat="41.099307" lon="-8.120973">
<ele>242</ele>
<time>2026-05-08T02:27:05Z</time></trkpt>
<trkpt lat="41.09838" lon="-8.122394">
<ele>238</ele>
<time>2026-05-08T02:27:33Z</time></trkpt>
<trkpt lat="41.097814" lon="-8.124073">
<ele>242</ele>
<time>2026-05-08T02:28:01Z</time></trkpt>
<trkpt lat="41.097787" lon="-8.124683">
<ele>253</ele>
<time>2026-05-08T02:28:10Z</time></trkpt>
<trkpt lat="41.097579" lon="-8.125069">
<ele>253</ele>
<time>2026-05-08T02:28:17Z</time></trkpt>
<trkpt lat="41.097426" lon="-8.125497">
<ele>260</ele>
<time>2026-05-08T02:28:25Z</time></trkpt>
<trkpt lat="41.096994" lon="-8.125593">
<ele>250</ele>
<time>2026-05-08T02:28:33Z</time></trkpt>
<trkpt lat="41.096643" lon="-8.126202">
<ele>256</ele>
<time>2026-05-08T02:28:45Z</time></trkpt>
<trkpt lat="41.096249" lon="-8.126627">
<ele>254</ele>
<time>2026-05-08T02:28:55Z</time></trkpt>
<trkpt lat="41.096109" lon="-8.126898">
<ele>257</ele>
<time>2026-05-08T02:29:00Z</time></trkpt>
<trkpt lat="41.095744" lon="-8.127831">
<ele>268</ele>
<time>2026-05-08T02:29:16Z</time></trkpt>
<trkpt lat="41.095613" lon="-8.12798">
<ele>267</ele>
<time>2026-05-08T02:29:19Z</time></trkpt>
<trkpt lat="41.095341" lon="-8.12816">
<ele>263</ele>
<time>2026-05-08T02:29:25Z</time></trkpt>
<trkpt lat="41.095197" lon="-8.128378">
<ele>264</ele>
<time>2026-05-08T02:29:30Z</time></trkpt>
<trkpt lat="41.094329" lon="-8.130232">
<ele>274</ele>
<time>2026-05-08T02:30:03Z</time></trkpt>
<trkpt lat="41.094127" lon="-8.130594">
<ele>276</ele>
<time>2026-05-08T02:30:10Z</time></trkpt>
<trkpt lat="41.093333" lon="-8.131661">
<ele>278</ele>
<time>2026-05-08T02:30:32Z</time></trkpt>
<trkpt lat="41.093239" lon="-8.131895">
<ele>279</ele>
<time>2026-05-08T02:30:36Z</time></trkpt>
<trkpt lat="41.093131" lon="-8.132943">
<ele>288</ele>
<time>2026-05-08T02:30:52Z</time></trkpt>
<trkpt lat="41.093048" lon="-8.133749">
<ele>295</ele>
<time>2026-05-08T02:31:04Z</time></trkpt>
<trkpt lat="41.092943" lon="-8.133971">
<ele>295</ele>
<time>2026-05-08T02:31:08Z</time></trkpt>
<trkpt lat="41.092652" lon="-8.134251">
<ele>290</ele>
<time>2026-05-08T02:31:16Z</time></trkpt>
<trkpt lat="41.092521" lon="-8.134506">
<ele>291</ele>
<time>2026-05-08T02:31:20Z</time></trkpt>
<trkpt lat="41.092089" lon="-8.135819">
<ele>299</ele>
<time>2026-05-08T02:31:42Z</time></trkpt>
<trkpt lat="41.092066" lon="-8.136007">
<ele>298</ele>
<time>2026-05-08T02:31:45Z</time></trkpt>
<trkpt lat="41.092087" lon="-8.136193">
<ele>298</ele>
<time>2026-05-08T02:31:48Z</time></trkpt>
<trkpt lat="41.092304" lon="-8.13663">
<ele>304</ele>
<time>2026-05-08T02:31:56Z</time></trkpt>
<trkpt lat="41.092331" lon="-8.136825">
<ele>307</ele>
<time>2026-05-08T02:31:59Z</time></trkpt>
<trkpt lat="41.092283" lon="-8.137054">
<ele>308</ele>
<time>2026-05-08T02:32:02Z</time></trkpt>
<trkpt lat="41.091303" lon="-8.139203">
<ele>315</ele>
<time>2026-05-08T02:32:40Z</time></trkpt>
<trkpt lat="41.091198" lon="-8.139535">
<ele>313</ele>
<time>2026-05-08T02:32:46Z</time></trkpt>
<trkpt lat="41.091148" lon="-8.139923">
<ele>315</ele>
<time>2026-05-08T02:32:51Z</time></trkpt>
<trkpt lat="41.091167" lon="-8.14035">
<ele>313</ele>
<time>2026-05-08T02:32:58Z</time></trkpt>
<trkpt lat="41.09123" lon="-8.140666">
<ele>313</ele>
<time>2026-05-08T02:33:03Z</time></trkpt>
<trkpt lat="41.091359" lon="-8.14092">
<ele>314</ele>
<time>2026-05-08T02:33:07Z</time></trkpt>
<trkpt lat="41.091582" lon="-8.141103">
<ele>318</ele>
<time>2026-05-08T02:33:13Z</time></trkpt>
<trkpt lat="41.091904" lon="-8.141234">
<ele>320</ele>
<time>2026-05-08T02:33:19Z</time></trkpt>
<trkpt lat="41.092476" lon="-8.141289">
<ele>327</ele>
<time>2026-05-08T02:33:31Z</time></trkpt>
<trkpt lat="41.092647" lon="-8.14137">
<ele>330</ele>
<time>2026-05-08T02:33:35Z</time></trkpt>
<trkpt lat="41.092804" lon="-8.141517">
<ele>331</ele>
<time>2026-05-08T02:33:38Z</time></trkpt>
<trkpt lat="41.093124" lon="-8.142033">
<ele>332</ele>
<time>2026-05-08T02:33:49Z</time></trkpt>
<trkpt lat="41.093251" lon="-8.142342">
<ele>332</ele>
<time>2026-05-08T02:33:54Z</time></trkpt>
<trkpt lat="41.093347" lon="-8.143203">
<ele>333</ele>
<time>2026-05-08T02:34:07Z</time></trkpt>
<trkpt lat="41.09333" lon="-8.143616">
<ele>333</ele>
<time>2026-05-08T02:34:13Z</time></trkpt>
<trkpt lat="41.09329" lon="-8.144051">
<ele>330</ele>
<time>2026-05-08T02:34:20Z</time></trkpt>
<trkpt lat="41.093298" lon="-8.144219">
<ele>329</ele>
<time>2026-05-08T02:34:22Z</time></trkpt>
<trkpt lat="41.093366" lon="-8.144393">
<ele>325</ele>
<time>2026-05-08T02:34:25Z</time></trkpt>
<trkpt lat="41.093528" lon="-8.144518">
<ele>321</ele>
<time>2026-05-08T02:34:29Z</time></trkpt>
<trkpt lat="41.093649" lon="-8.144553">
<ele>320</ele>
<time>2026-05-08T02:34:32Z</time></trkpt>
<trkpt lat="41.093779" lon="-8.144557">
<ele>320</ele>
<time>2026-05-08T02:34:34Z</time></trkpt>
<trkpt lat="41.093895" lon="-8.144466">
<ele>323</ele>
<time>2026-05-08T02:34:37Z</time></trkpt>
<trkpt lat="41.09402" lon="-8.144294">
<ele>328</ele>
<time>2026-05-08T02:34:41Z</time></trkpt>
<trkpt lat="41.09419" lon="-8.143979">
<ele>335</ele>
<time>2026-05-08T02:34:46Z</time></trkpt>
<trkpt lat="41.094286" lon="-8.143844">
<ele>335</ele>
<time>2026-05-08T02:34:49Z</time></trkpt>
<trkpt lat="41.09453" lon="-8.14365">
<ele>335</ele>
<time>2026-05-08T02:34:55Z</time></trkpt>
<trkpt lat="41.094827" lon="-8.143266">
<ele>340</ele>
<time>2026-05-08T02:35:03Z</time></trkpt>
<trkpt lat="41.094924" lon="-8.143173">
<ele>341</ele>
<time>2026-05-08T02:35:06Z</time></trkpt>
<trkpt lat="41.09504" lon="-8.143133">
<ele>341</ele>
<time>2026-05-08T02:35:08Z</time></trkpt>
<trkpt lat="41.095659" lon="-8.143256">
<ele>342</ele>
<time>2026-05-08T02:35:21Z</time></trkpt>
<trkpt lat="41.095924" lon="-8.143208">
<ele>345</ele>
<time>2026-05-08T02:35:26Z</time></trkpt>
<trkpt lat="41.096559" lon="-8.143018">
<ele>351</ele>
<time>2026-05-08T02:35:39Z</time></trkpt>
<trkpt lat="41.096559" lon="-8.143018">
<ele>351</ele>
<time>2026-05-08T02:35:39Z</time></trkpt>
<trkpt lat="41.096647" lon="-8.143017">
<ele>351</ele>
<time>2026-05-08T02:35:41Z</time></trkpt>
<trkpt lat="41.096749" lon="-8.143055">
<ele>352</ele>
<time>2026-05-08T02:35:43Z</time></trkpt>
<trkpt lat="41.096859" lon="-8.143165">
<ele>352</ele>
<time>2026-05-08T02:35:46Z</time></trkpt>
<trkpt lat="41.097026" lon="-8.143428">
<ele>351</ele>
<time>2026-05-08T02:35:51Z</time></trkpt>
<trkpt lat="41.097237" lon="-8.143815">
<ele>351</ele>
<time>2026-05-08T02:35:58Z</time></trkpt>
<trkpt lat="41.097457" lon="-8.144596">
<ele>347</ele>
<time>2026-05-08T02:36:11Z</time></trkpt>
<trkpt lat="41.0980859" lon="-8.1473189">
<ele>344</ele>
<time>2026-05-08T02:36:54Z</time></trkpt>
<trkpt lat="41.098155" lon="-8.147618">
<ele>345</ele>
<time>2026-05-08T02:36:58Z</time></trkpt>
<trkpt lat="41.098237" lon="-8.147825">
<ele>345</ele>
<time>2026-05-08T02:37:02Z</time></trkpt>
<trkpt lat="41.098348" lon="-8.14796">
<ele>345</ele>
<time>2026-05-08T02:37:05Z</time></trkpt>
<trkpt lat="41.098661" lon="-8.148261">
<ele>345</ele>
<time>2026-05-08T02:37:13Z</time></trkpt>
<trkpt lat="41.099231" lon="-8.148847">
<ele>345</ele>
<time>2026-05-08T02:37:27Z</time></trkpt>
<trkpt lat="41.099347" lon="-8.149017">
<ele>347</ele>
<time>2026-05-08T02:37:31Z</time></trkpt>
<trkpt lat="41.099565" lon="-8.149592">
<ele>346</ele>
<time>2026-05-08T02:37:40Z</time></trkpt>
<trkpt lat="41.099716" lon="-8.149896">
<ele>345</ele>
<time>2026-05-08T02:37:46Z</time></trkpt>
<trkpt lat="41.09981" lon="-8.150068">
<ele>344</ele>
<time>2026-05-08T02:37:49Z</time></trkpt>
<trkpt lat="41.099928" lon="-8.150165">
<ele>345</ele>
<time>2026-05-08T02:37:52Z</time></trkpt>
<trkpt lat="41.100081" lon="-8.150255">
<ele>345</ele>
<time>2026-05-08T02:37:55Z</time></trkpt>
<trkpt lat="41.101065" lon="-8.150634">
<ele>349</ele>
<time>2026-05-08T02:38:16Z</time></trkpt>
<trkpt lat="41.101182" lon="-8.150804">
<ele>348</ele>
<time>2026-05-08T02:38:19Z</time></trkpt>
<trkpt lat="41.101244" lon="-8.150956">
<ele>348</ele>
<time>2026-05-08T02:38:22Z</time></trkpt>
<trkpt lat="41.101245" lon="-8.151135">
<ele>348</ele>
<time>2026-05-08T02:38:24Z</time></trkpt>
<trkpt lat="41.101202" lon="-8.151399">
<ele>347</ele>
<time>2026-05-08T02:38:28Z</time></trkpt>
<trkpt lat="41.101178" lon="-8.152121">
<ele>347</ele>
<time>2026-05-08T02:38:39Z</time></trkpt>
<trkpt lat="41.101215" lon="-8.152361">
<ele>348</ele>
<time>2026-05-08T02:38:43Z</time></trkpt>
<trkpt lat="41.101268" lon="-8.152503">
<ele>349</ele>
<time>2026-05-08T02:38:45Z</time></trkpt>
<trkpt lat="41.101354" lon="-8.15264">
<ele>349</ele>
<time>2026-05-08T02:38:48Z</time></trkpt>
<trkpt lat="41.101581" lon="-8.152919">
<ele>351</ele>
<time>2026-05-08T02:38:54Z</time></trkpt>
<trkpt lat="41.102557" lon="-8.154156">
<ele>350</ele>
<time>2026-05-08T02:39:21Z</time></trkpt>
<trkpt lat="41.102715" lon="-8.154325">
<ele>351</ele>
<time>2026-05-08T02:39:25Z</time></trkpt>
<trkpt lat="41.102871" lon="-8.154386">
<ele>352</ele>
<time>2026-05-08T02:39:29Z</time></trkpt>
<trkpt lat="41.103441" lon="-8.154412">
<ele>354</ele>
<time>2026-05-08T02:39:40Z</time></trkpt>
<trkpt lat="41.103651" lon="-8.154509">
<ele>354</ele>
<time>2026-05-08T02:39:45Z</time></trkpt>
<trkpt lat="41.103746" lon="-8.154563">
<ele>353</ele>
<time>2026-05-08T02:39:47Z</time></trkpt>
<trkpt lat="41.104123" lon="-8.154779">
<ele>350</ele>
<time>2026-05-08T02:39:55Z</time></trkpt>
<trkpt lat="41.10429" lon="-8.154832">
<ele>349</ele>
<time>2026-05-08T02:39:58Z</time></trkpt>
<trkpt lat="41.1044" lon="-8.154838">
<ele>349</ele>
<time>2026-05-08T02:40:01Z</time></trkpt>
<trkpt lat="41.104683" lon="-8.154747">
<ele>353</ele>
<time>2026-05-08T02:40:06Z</time></trkpt>
<trkpt lat="41.104825" lon="-8.154621">
<ele>357</ele>
<time>2026-05-08T02:40:10Z</time></trkpt>
<trkpt lat="41.104935" lon="-8.154587">
<ele>359</ele>
<time>2026-05-08T02:40:12Z</time></trkpt>
<trkpt lat="41.104972" lon="-8.154576">
<ele>360</ele>
<time>2026-05-08T02:40:13Z</time></trkpt>
<trkpt lat="41.105105" lon="-8.154627">
<ele>359</ele>
<time>2026-05-08T02:40:16Z</time></trkpt>
<trkpt lat="41.105357" lon="-8.154804">
<ele>356</ele>
<time>2026-05-08T02:40:21Z</time></trkpt>
<trkpt lat="41.1060974" lon="-8.1548424">
<ele>359</ele>
<time>2026-05-08T02:40:36Z</time></trkpt>
<trkpt lat="41.106128" lon="-8.154844">
<ele>359</ele>
<time>2026-05-08T02:40:37Z</time></trkpt>
<trkpt lat="41.106613" lon="-8.15478">
<ele>364</ele>
<time>2026-05-08T02:40:47Z</time></trkpt>
<trkpt lat="41.106716" lon="-8.154817">
<ele>364</ele>
<time>2026-05-08T02:40:49Z</time></trkpt>
<trkpt lat="41.106805" lon="-8.154896">
<ele>364</ele>
<time>2026-05-08T02:40:51Z</time></trkpt>
<trkpt lat="41.106899" lon="-8.155151">
<ele>362</ele>
<time>2026-05-08T02:40:55Z</time></trkpt>
<trkpt lat="41.106931" lon="-8.155378">
<ele>362</ele>
<time>2026-05-08T02:40:59Z</time></trkpt>
<trkpt lat="41.106923" lon="-8.155703">
<ele>360</ele>
<time>2026-05-08T02:41:04Z</time></trkpt>
<trkpt lat="41.106793" lon="-8.156635">
<ele>356</ele>
<time>2026-05-08T02:41:18Z</time></trkpt>
<trkpt lat="41.106807" lon="-8.156816">
<ele>355</ele>
<time>2026-05-08T02:41:21Z</time></trkpt>
<trkpt lat="41.106917" lon="-8.157214">
<ele>355</ele>
<time>2026-05-08T02:41:27Z</time></trkpt>
<trkpt lat="41.10705" lon="-8.157651">
<ele>355</ele>
<time>2026-05-08T02:41:34Z</time></trkpt>
<trkpt lat="41.107182" lon="-8.158044">
<ele>356</ele>
<time>2026-05-08T02:41:41Z</time></trkpt>
<trkpt lat="41.107198" lon="-8.158204">
<ele>355</ele>
<time>2026-05-08T02:41:43Z</time></trkpt>
<trkpt lat="41.107166" lon="-8.158416">
<ele>354</ele>
<time>2026-05-08T02:41:46Z</time></trkpt>
<trkpt lat="41.106866" lon="-8.159148">
<ele>350</ele>
<time>2026-05-08T02:41:59Z</time></trkpt>
<trkpt lat="41.106623" lon="-8.159418">
<ele>348</ele>
<time>2026-05-08T02:42:05Z</time></trkpt>
<trkpt lat="41.105737" lon="-8.160239">
<ele>347</ele>
<time>2026-05-08T02:42:27Z</time></trkpt>
<trkpt lat="41.105622" lon="-8.160345">
<ele>347</ele>
<time>2026-05-08T02:42:30Z</time></trkpt>
<trkpt lat="41.105516" lon="-8.160444">
<ele>347</ele>
<time>2026-05-08T02:42:32Z</time></trkpt>
<trkpt lat="41.105406" lon="-8.160553">
<ele>347</ele>
<time>2026-05-08T02:42:35Z</time></trkpt>
<trkpt lat="41.105327" lon="-8.160689">
<ele>347</ele>
<time>2026-05-08T02:42:38Z</time></trkpt>
<trkpt lat="41.105287" lon="-8.160947">
<ele>346</ele>
<time>2026-05-08T02:42:42Z</time></trkpt>
<trkpt lat="41.105351" lon="-8.161186">
<ele>344</ele>
<time>2026-05-08T02:42:45Z</time></trkpt>
<trkpt lat="41.105461" lon="-8.161292">
<ele>344</ele>
<time>2026-05-08T02:42:48Z</time></trkpt>
<trkpt lat="41.105634" lon="-8.161319">
<ele>344</ele>
<time>2026-05-08T02:42:52Z</time></trkpt>
<trkpt lat="41.106303" lon="-8.161235">
<ele>343</ele>
<time>2026-05-08T02:43:05Z</time></trkpt>
<trkpt lat="41.10647" lon="-8.161243">
<ele>342</ele>
<time>2026-05-08T02:43:08Z</time></trkpt>
<trkpt lat="41.107676" lon="-8.161407">
<ele>337</ele>
<time>2026-05-08T02:43:33Z</time></trkpt>
<trkpt lat="41.107803" lon="-8.161377">
<ele>337</ele>
<time>2026-05-08T02:43:35Z</time></trkpt>
<trkpt lat="41.108208" lon="-8.161229">
<ele>338</ele>
<time>2026-05-08T02:43:44Z</time></trkpt>
<trkpt lat="41.108446" lon="-8.161142">
<ele>339</ele>
<time>2026-05-08T02:43:49Z</time></trkpt>
<trkpt lat="41.108584" lon="-8.161139">
<ele>338</ele>
<time>2026-05-08T02:43:51Z</time></trkpt>
<trkpt lat="41.109287" lon="-8.161287">
<ele>333</ele>
<time>2026-05-08T02:44:06Z</time></trkpt>
<trkpt lat="41.109505" lon="-8.16125">
<ele>333</ele>
<time>2026-05-08T02:44:10Z</time></trkpt>
<trkpt lat="41.110334" lon="-8.160615">
<ele>339</ele>
<time>2026-05-08T02:44:29Z</time></trkpt>
<trkpt lat="41.110543" lon="-8.160575">
<ele>339</ele>
<time>2026-05-08T02:44:34Z</time></trkpt>
<trkpt lat="41.110656" lon="-8.160621">
<ele>338</ele>
<time>2026-05-08T02:44:36Z</time></trkpt>
<trkpt lat="41.110768" lon="-8.160753">
<ele>335</ele>
<time>2026-05-08T02:44:39Z</time></trkpt>
<trkpt lat="41.111392" lon="-8.162029">
<ele>326</ele>
<time>2026-05-08T02:45:02Z</time></trkpt>
<trkpt lat="41.111509" lon="-8.162147">
<ele>326</ele>
<time>2026-05-08T02:45:05Z</time></trkpt>
<trkpt lat="41.112273" lon="-8.162801">
<ele>323</ele>
<time>2026-05-08T02:45:23Z</time></trkpt>
<trkpt lat="41.112677" lon="-8.163113">
<ele>322</ele>
<time>2026-05-08T02:45:32Z</time></trkpt>
<trkpt lat="41.112825" lon="-8.163161">
<ele>322</ele>
<time>2026-05-08T02:45:35Z</time></trkpt>
<trkpt lat="41.114042" lon="-8.163385">
<ele>318</ele>
<time>2026-05-08T02:46:00Z</time></trkpt>
<trkpt lat="41.114042" lon="-8.163385">
<ele>318</ele>
<time>2026-05-08T02:46:00Z</time></trkpt>
<trkpt lat="41.114128" lon="-8.1634">
<ele>318</ele>
<time>2026-05-08T02:46:02Z</time></trkpt>
<trkpt lat="41.114501" lon="-8.163469">
<ele>315</ele>
<time>2026-05-08T02:46:09Z</time></trkpt>
<trkpt lat="41.114887" lon="-8.163483">
<ele>314</ele>
<time>2026-05-08T02:46:17Z</time></trkpt>
<trkpt lat="41.115023" lon="-8.163446">
<ele>314</ele>
<time>2026-05-08T02:46:20Z</time></trkpt>
<trkpt lat="41.115259" lon="-8.163419">
<ele>317</ele>
<time>2026-05-08T02:46:25Z</time></trkpt>
<trkpt lat="41.115412" lon="-8.163456">
<ele>317</ele>
<time>2026-05-08T02:46:28Z</time></trkpt>
<trkpt lat="41.115789" lon="-8.163915">
<ele>309</ele>
<time>2026-05-08T02:46:38Z</time></trkpt>
<trkpt lat="41.115879" lon="-8.164058">
<ele>306</ele>
<time>2026-05-08T02:46:41Z</time></trkpt>
<trkpt lat="41.115973" lon="-8.164135">
<ele>304</ele>
<time>2026-05-08T02:46:43Z</time></trkpt>
<trkpt lat="41.116538" lon="-8.164232">
<ele>301</ele>
<time>2026-05-08T02:46:54Z</time></trkpt>
<trkpt lat="41.116952" lon="-8.164293">
<ele>301</ele>
<time>2026-05-08T02:47:03Z</time></trkpt>
<trkpt lat="41.11707" lon="-8.164357">
<ele>301</ele>
<time>2026-05-08T02:47:05Z</time></trkpt>
<trkpt lat="41.117166" lon="-8.164525">
<ele>300</ele>
<time>2026-05-08T02:47:09Z</time></trkpt>
<trkpt lat="41.117201" lon="-8.164671">
<ele>299</ele>
<time>2026-05-08T02:47:11Z</time></trkpt>
<trkpt lat="41.117172" lon="-8.165811">
<ele>297</ele>
<time>2026-05-08T02:47:28Z</time></trkpt>
<trkpt lat="41.117164" lon="-8.166495">
<ele>294</ele>
<time>2026-05-08T02:47:38Z</time></trkpt>
<trkpt lat="41.117199" lon="-8.166637">
<ele>294</ele>
<time>2026-05-08T02:47:41Z</time></trkpt>
<trkpt lat="41.11729" lon="-8.166765">
<ele>294</ele>
<time>2026-05-08T02:47:43Z</time></trkpt>
<trkpt lat="41.117551" lon="-8.166978">
<ele>296</ele>
<time>2026-05-08T02:47:49Z</time></trkpt>
<trkpt lat="41.117658" lon="-8.167222">
<ele>296</ele>
<time>2026-05-08T02:47:54Z</time></trkpt>
<trkpt lat="41.117696" lon="-8.16744">
<ele>295</ele>
<time>2026-05-08T02:47:57Z</time></trkpt>
<trkpt lat="41.117666" lon="-8.167733">
<ele>294</ele>
<time>2026-05-08T02:48:02Z</time></trkpt>
<trkpt lat="41.117395" lon="-8.168256">
<ele>291</ele>
<time>2026-05-08T02:48:11Z</time></trkpt>
<trkpt lat="41.116652" lon="-8.169667">
<ele>290</ele>
<time>2026-05-08T02:48:37Z</time></trkpt>
<trkpt lat="41.116561" lon="-8.169975">
<ele>289</ele>
<time>2026-05-08T02:48:42Z</time></trkpt>
<trkpt lat="41.116406" lon="-8.170999">
<ele>285</ele>
<time>2026-05-08T02:48:58Z</time></trkpt>
<trkpt lat="41.116253" lon="-8.17223">
<ele>282</ele>
<time>2026-05-08T02:49:17Z</time></trkpt>
<trkpt lat="41.116198" lon="-8.172448">
<ele>281</ele>
<time>2026-05-08T02:49:20Z</time></trkpt>
<trkpt lat="41.116067" lon="-8.172638">
<ele>280</ele>
<time>2026-05-08T02:49:24Z</time></trkpt>
<trkpt lat="41.115912" lon="-8.172691">
<ele>278</ele>
<time>2026-05-08T02:49:27Z</time></trkpt>
<trkpt lat="41.115601" lon="-8.172676">
<ele>277</ele>
<time>2026-05-08T02:49:33Z</time></trkpt>
<trkpt lat="41.114735" lon="-8.172628">
<ele>279</ele>
<time>2026-05-08T02:49:51Z</time></trkpt>
<trkpt lat="41.114028" lon="-8.172588">
<ele>283</ele>
<time>2026-05-08T02:50:05Z</time></trkpt>
<trkpt lat="41.113642" lon="-8.172562">
<ele>282</ele>
<time>2026-05-08T02:50:13Z</time></trkpt>
<trkpt lat="41.113503" lon="-8.172589">
<ele>282</ele>
<time>2026-05-08T02:50:16Z</time></trkpt>
<trkpt lat="41.113273" lon="-8.172737">
<ele>284</ele>
<time>2026-05-08T02:50:21Z</time></trkpt>
<trkpt lat="41.11237" lon="-8.173572">
<ele>292</ele>
<time>2026-05-08T02:50:43Z</time></trkpt>
<trkpt lat="41.112301" lon="-8.173635">
<ele>293</ele>
<time>2026-05-08T02:50:44Z</time></trkpt>
<trkpt lat="41.111729" lon="-8.174164">
<ele>300</ele>
<time>2026-05-08T02:50:58Z</time></trkpt>
<trkpt lat="41.110561" lon="-8.175787">
<ele>289</ele>
<time>2026-05-08T02:51:32Z</time></trkpt>
<trkpt lat="41.110428" lon="-8.176">
<ele>288</ele>
<time>2026-05-08T02:51:36Z</time></trkpt>
<trkpt lat="41.110223" lon="-8.176414">
<ele>286</ele>
<time>2026-05-08T02:51:44Z</time></trkpt>
<trkpt lat="41.110011" lon="-8.177018">
<ele>287</ele>
<time>2026-05-08T02:51:54Z</time></trkpt>
<trkpt lat="41.109888" lon="-8.177259">
<ele>289</ele>
<time>2026-05-08T02:51:58Z</time></trkpt>
<trkpt lat="41.109777" lon="-8.177323">
<ele>290</ele>
<time>2026-05-08T02:52:01Z</time></trkpt>
<trkpt lat="41.109617" lon="-8.177326">
<ele>291</ele>
<time>2026-05-08T02:52:04Z</time></trkpt>
<trkpt lat="41.108979" lon="-8.177172">
<ele>288</ele>
<time>2026-05-08T02:52:17Z</time></trkpt>
<trkpt lat="41.108749" lon="-8.177225">
<ele>288</ele>
<time>2026-05-08T02:52:22Z</time></trkpt>
<trkpt lat="41.108398" lon="-8.1775">
<ele>291</ele>
<time>2026-05-08T02:52:30Z</time></trkpt>
<trkpt lat="41.107934" lon="-8.178142">
<ele>286</ele>
<time>2026-05-08T02:52:43Z</time></trkpt>
<trkpt lat="41.107675" lon="-8.178489">
<ele>282</ele>
<time>2026-05-08T02:52:51Z</time></trkpt>
<trkpt lat="41.107675" lon="-8.178489">
<ele>282</ele>
<time>2026-05-08T02:52:51Z</time></trkpt>
<trkpt lat="41.106981" lon="-8.179322">
<ele>278</ele>
<time>2026-05-08T02:53:09Z</time></trkpt>
<trkpt lat="41.106556" lon="-8.179813">
<ele>279</ele>
<time>2026-05-08T02:53:21Z</time></trkpt>
<trkpt lat="41.106259" lon="-8.180157">
<ele>280</ele>
<time>2026-05-08T02:53:29Z</time></trkpt>
<trkpt lat="41.1061" lon="-8.180338">
<ele>280</ele>
<time>2026-05-08T02:53:33Z</time></trkpt>
<trkpt lat="41.105911" lon="-8.180558">
<ele>280</ele>
<time>2026-05-08T02:53:38Z</time></trkpt>
<trkpt lat="41.105207" lon="-8.181373">
<ele>281</ele>
<time>2026-05-08T02:53:57Z</time></trkpt>
<trkpt lat="41.104886" lon="-8.181857">
<ele>279</ele>
<time>2026-05-08T02:54:06Z</time></trkpt>
<trkpt lat="41.104807" lon="-8.182019">
<ele>278</ele>
<time>2026-05-08T02:54:09Z</time></trkpt>
<trkpt lat="41.104773" lon="-8.182101">
<ele>278</ele>
<time>2026-05-08T02:54:11Z</time></trkpt>
<trkpt lat="41.104691" lon="-8.182298">
<ele>276</ele>
<time>2026-05-08T02:54:14Z</time></trkpt>
<trkpt lat="41.104683" lon="-8.182322">
<ele>276</ele>
<time>2026-05-08T02:54:14Z</time></trkpt>
<trkpt lat="41.104576" lon="-8.182298">
<ele>275</ele>
<time>2026-05-08T02:54:17Z</time></trkpt>
<trkpt lat="41.104468" lon="-8.182153">
<ele>274</ele>
<time>2026-05-08T02:54:20Z</time></trkpt>
<trkpt lat="41.104365" lon="-8.182101">
<ele>273</ele>
<time>2026-05-08T02:54:22Z</time></trkpt>
<trkpt lat="41.104269" lon="-8.182093">
<ele>272</ele>
<time>2026-05-08T02:54:24Z</time></trkpt>
<trkpt lat="41.10419" lon="-8.182136">
<ele>271</ele>
<time>2026-05-08T02:54:26Z</time></trkpt>
<trkpt lat="41.104126" lon="-8.182199">
<ele>270</ele>
<time>2026-05-08T02:54:27Z</time></trkpt>
<trkpt lat="41.104082" lon="-8.182288">
<ele>270</ele>
<time>2026-05-08T02:54:29Z</time></trkpt>
<trkpt lat="41.103991" lon="-8.182636">
<ele>268</ele>
<time>2026-05-08T02:54:34Z</time></trkpt>
<trkpt lat="41.103731" lon="-8.183781">
<ele>264</ele>
<time>2026-05-08T02:54:52Z</time></trkpt>
<trkpt lat="41.103624" lon="-8.184017">
<ele>263</ele>
<time>2026-05-08T02:54:57Z</time></trkpt>
<trkpt lat="41.103353" lon="-8.18424">
<ele>259</ele>
<time>2026-05-08T02:55:03Z</time></trkpt>
<trkpt lat="41.103204" lon="-8.18445">
<ele>259</ele>
<time>2026-05-08T02:55:07Z</time></trkpt>
<trkpt lat="41.102936" lon="-8.184989">
<ele>259</ele>
<time>2026-05-08T02:55:17Z</time></trkpt>
<trkpt lat="41.10268" lon="-8.185504">
<ele>259</ele>
<time>2026-05-08T02:55:26Z</time></trkpt>
<trkpt lat="41.102565" lon="-8.185628">
<ele>258</ele>
<time>2026-05-08T02:55:29Z</time></trkpt>
<trkpt lat="41.102255" lon="-8.1857">
<ele>254</ele>
<time>2026-05-08T02:55:36Z</time></trkpt>
<trkpt lat="41.102072" lon="-8.185839">
<ele>253</ele>
<time>2026-05-08T02:55:40Z</time></trkpt>
<trkpt lat="41.101731" lon="-8.186463">
<ele>250</ele>
<time>2026-05-08T02:55:51Z</time></trkpt>
<trkpt lat="41.101648" lon="-8.186677">
<ele>250</ele>
<time>2026-05-08T02:55:55Z</time></trkpt>
<trkpt lat="41.101628" lon="-8.186962">
<ele>247</ele>
<time>2026-05-08T02:55:59Z</time></trkpt>
<trkpt lat="41.101809" lon="-8.188122">
<ele>241</ele>
<time>2026-05-08T02:56:17Z</time></trkpt>
<trkpt lat="41.101858" lon="-8.188352">
<ele>239</ele>
<time>2026-05-08T02:56:21Z</time></trkpt>
<trkpt lat="41.101921" lon="-8.188493">
<ele>239</ele>
<time>2026-05-08T02:56:23Z</time></trkpt>
<trkpt lat="41.102151" lon="-8.188806">
<ele>242</ele>
<time>2026-05-08T02:56:30Z</time></trkpt>
<trkpt lat="41.102202" lon="-8.188973">
<ele>243</ele>
<time>2026-05-08T02:56:33Z</time></trkpt>
<trkpt lat="41.102201" lon="-8.189127">
<ele>242</ele>
<time>2026-05-08T02:56:35Z</time></trkpt>
<trkpt lat="41.10216" lon="-8.189282">
<ele>242</ele>
<time>2026-05-08T02:56:38Z</time></trkpt>
<trkpt lat="41.102035" lon="-8.189397">
<ele>241</ele>
<time>2026-05-08T02:56:41Z</time></trkpt>
<trkpt lat="41.101787" lon="-8.189542">
<ele>238</ele>
<time>2026-05-08T02:56:46Z</time></trkpt>
<trkpt lat="41.10152" lon="-8.189745">
<ele>234</ele>
<time>2026-05-08T02:56:52Z</time></trkpt>
<trkpt lat="41.101025" lon="-8.190173">
<ele>226</ele>
<time>2026-05-08T02:57:04Z</time></trkpt>
<trkpt lat="41.100955" lon="-8.19028">
<ele>224</ele>
<time>2026-05-08T02:57:06Z</time></trkpt>
<trkpt lat="41.10093" lon="-8.190444">
<ele>224</ele>
<time>2026-05-08T02:57:09Z</time></trkpt>
<trkpt lat="41.10094" lon="-8.190697">
<ele>224</ele>
<time>2026-05-08T02:57:12Z</time></trkpt>
<trkpt lat="41.10098" lon="-8.191099">
<ele>221</ele>
<time>2026-05-08T02:57:19Z</time></trkpt>
<trkpt lat="41.101031" lon="-8.19121">
<ele>221</ele>
<time>2026-05-08T02:57:21Z</time></trkpt>
<trkpt lat="41.101096" lon="-8.191288">
<ele>221</ele>
<time>2026-05-08T02:57:22Z</time></trkpt>
<trkpt lat="41.101342" lon="-8.191509">
<ele>221</ele>
<time>2026-05-08T02:57:28Z</time></trkpt>
<trkpt lat="41.101495" lon="-8.191774">
<ele>219</ele>
<time>2026-05-08T02:57:33Z</time></trkpt>
<trkpt lat="41.101621" lon="-8.191983">
<ele>219</ele>
<time>2026-05-08T02:57:37Z</time></trkpt>
<trkpt lat="41.101808" lon="-8.19213">
<ele>221</ele>
<time>2026-05-08T02:57:42Z</time></trkpt>
<trkpt lat="41.101848" lon="-8.192186">
<ele>222</ele>
<time>2026-05-08T02:57:43Z</time></trkpt>
<trkpt lat="41.101882" lon="-8.192287">
<ele>222</ele>
<time>2026-05-08T02:57:45Z</time></trkpt>
<trkpt lat="41.101894" lon="-8.192406">
<ele>222</ele>
<time>2026-05-08T02:57:46Z</time></trkpt>
<trkpt lat="41.101871" lon="-8.192547">
<ele>221</ele>
<time>2026-05-08T02:57:49Z</time></trkpt>
<trkpt lat="41.101707" lon="-8.192897">
<ele>217</ele>
<time>2026-05-08T02:57:55Z</time></trkpt>
<trkpt lat="41.101653" lon="-8.193054">
<ele>216</ele>
<time>2026-05-08T02:57:57Z</time></trkpt>
<trkpt lat="41.101645" lon="-8.193535">
<ele>217</ele>
<time>2026-05-08T02:58:05Z</time></trkpt>
<trkpt lat="41.101602" lon="-8.193748">
<ele>217</ele>
<time>2026-05-08T02:58:08Z</time></trkpt>
<trkpt lat="41.101456" lon="-8.194384">
<ele>215</ele>
<time>2026-05-08T02:58:18Z</time></trkpt>
<trkpt lat="41.101414" lon="-8.194467">
<ele>214</ele>
<time>2026-05-08T02:58:20Z</time></trkpt>
<trkpt lat="41.1013" lon="-8.194582">
<ele>211</ele>
<time>2026-05-08T02:58:22Z</time></trkpt>
<trkpt lat="41.101193" lon="-8.194731">
<ele>208</ele>
<time>2026-05-08T02:58:26Z</time></trkpt>
<trkpt lat="41.10116" lon="-8.19493">
<ele>208</ele>
<time>2026-05-08T02:58:29Z</time></trkpt>
<trkpt lat="41.101157" lon="-8.195161">
<ele>210</ele>
<time>2026-05-08T02:58:32Z</time></trkpt>
<trkpt lat="41.101098" lon="-8.195323">
<ele>210</ele>
<time>2026-05-08T02:58:35Z</time></trkpt>
<trkpt lat="41.100948" lon="-8.195545">
<ele>207</ele>
<time>2026-05-08T02:58:39Z</time></trkpt>
<trkpt lat="41.100681" lon="-8.195824">
<ele>201</ele>
<time>2026-05-08T02:58:46Z</time></trkpt>
<trkpt lat="41.100615" lon="-8.195997">
<ele>199</ele>
<time>2026-05-08T02:58:49Z</time></trkpt>
<trkpt lat="41.100598" lon="-8.196204">
<ele>200</ele>
<time>2026-05-08T02:58:52Z</time></trkpt>
<trkpt lat="41.100586" lon="-8.196357">
<ele>201</ele>
<time>2026-05-08T02:58:54Z</time></trkpt>
<trkpt lat="41.100523" lon="-8.197109">
<ele>203</ele>
<time>2026-05-08T02:59:06Z</time></trkpt>
<trkpt lat="41.100441" lon="-8.197335">
<ele>201</ele>
<time>2026-05-08T02:59:10Z</time></trkpt>
<trkpt lat="41.100125" lon="-8.197915">
<ele>191</ele>
<time>2026-05-08T02:59:21Z</time></trkpt>
<trkpt lat="41.099976" lon="-8.198278">
<ele>189</ele>
<time>2026-05-08T02:59:27Z</time></trkpt>
<trkpt lat="41.099964" lon="-8.198559">
<ele>187</ele>
<time>2026-05-08T02:59:31Z</time></trkpt>
<trkpt lat="41.099985" lon="-8.198888">
<ele>186</ele>
<time>2026-05-08T02:59:36Z</time></trkpt>
<trkpt lat="41.100092" lon="-8.199161">
<ele>187</ele>
<time>2026-05-08T02:59:41Z</time></trkpt>
<trkpt lat="41.100216" lon="-8.199375">
<ele>186</ele>
<time>2026-05-08T02:59:45Z</time></trkpt>
<trkpt lat="41.100324" lon="-8.199477">
<ele>186</ele>
<time>2026-05-08T02:59:47Z</time></trkpt>
<trkpt lat="41.100847" lon="-8.199757">
<ele>189</ele>
<time>2026-05-08T02:59:59Z</time></trkpt>
<trkpt lat="41.101143" lon="-8.199918">
<ele>189</ele>
<time>2026-05-08T03:00:05Z</time></trkpt>
<trkpt lat="41.101615" lon="-8.200184">
<ele>188</ele>
<time>2026-05-08T03:00:15Z</time></trkpt>
<trkpt lat="41.101706" lon="-8.200299">
<ele>188</ele>
<time>2026-05-08T03:00:18Z</time></trkpt>
<trkpt lat="41.101768" lon="-8.200429">
<ele>188</ele>
<time>2026-05-08T03:00:20Z</time></trkpt>
<trkpt lat="41.101919" lon="-8.201225">
<ele>183</ele>
<time>2026-05-08T03:00:33Z</time></trkpt>
<trkpt lat="41.101892" lon="-8.201503">
<ele>180</ele>
<time>2026-05-08T03:00:37Z</time></trkpt>
<trkpt lat="41.101589" lon="-8.202563">
<ele>172</ele>
<time>2026-05-08T03:00:54Z</time></trkpt>
<trkpt lat="41.101473" lon="-8.202831">
<ele>170</ele>
<time>2026-05-08T03:00:59Z</time></trkpt>
<trkpt lat="41.101358" lon="-8.2031">
<ele>168</ele>
<time>2026-05-08T03:01:03Z</time></trkpt>
<trkpt lat="41.101229" lon="-8.203364">
<ele>166</ele>
<time>2026-05-08T03:01:08Z</time></trkpt>
<trkpt lat="41.101189" lon="-8.203525">
<ele>165</ele>
<time>2026-05-08T03:01:11Z</time></trkpt>
<trkpt lat="41.101187" lon="-8.203685">
<ele>166</ele>
<time>2026-05-08T03:01:13Z</time></trkpt>
<trkpt lat="41.101271" lon="-8.204313">
<ele>171</ele>
<time>2026-05-08T03:01:23Z</time></trkpt>
<trkpt lat="41.101261" lon="-8.204499">
<ele>173</ele>
<time>2026-05-08T03:01:25Z</time></trkpt>
<trkpt lat="41.101218" lon="-8.204629">
<ele>174</ele>
<time>2026-05-08T03:01:28Z</time></trkpt>
<trkpt lat="41.101113" lon="-8.204772">
<ele>172</ele>
<time>2026-05-08T03:01:31Z</time></trkpt>
<trkpt lat="41.100445" lon="-8.205456">
<ele>163</ele>
<time>2026-05-08T03:01:48Z</time></trkpt>
<trkpt lat="41.100346" lon="-8.2056">
<ele>163</ele>
<time>2026-05-08T03:01:50Z</time></trkpt>
<trkpt lat="41.1002" lon="-8.205924">
<ele>165</ele>
<time>2026-05-08T03:01:56Z</time></trkpt>
<trkpt lat="41.100104" lon="-8.206047">
<ele>165</ele>
<time>2026-05-08T03:01:59Z</time></trkpt>
<trkpt lat="41.09979" lon="-8.206267">
<ele>159</ele>
<time>2026-05-08T03:02:06Z</time></trkpt>
<trkpt lat="41.09972" lon="-8.206324">
<ele>157</ele>
<time>2026-05-08T03:02:08Z</time></trkpt>
<trkpt lat="41.099609" lon="-8.206474">
<ele>156</ele>
<time>2026-05-08T03:02:11Z</time></trkpt>
<trkpt lat="41.09908" lon="-8.20751">
<ele>157</ele>
<time>2026-05-08T03:02:30Z</time></trkpt>
<trkpt lat="41.098935" lon="-8.207627">
<ele>156</ele>
<time>2026-05-08T03:02:33Z</time></trkpt>
<trkpt lat="41.098383" lon="-8.207906">
<ele>147</ele>
<time>2026-05-08T03:02:45Z</time></trkpt>
<trkpt lat="41.09816" lon="-8.208089">
<ele>145</ele>
<time>2026-05-08T03:02:50Z</time></trkpt>
<trkpt lat="41.098001" lon="-8.208282">
<ele>144</ele>
<time>2026-05-08T03:02:54Z</time></trkpt>
<trkpt lat="41.097868" lon="-8.208562">
<ele>143</ele>
<time>2026-05-08T03:02:59Z</time></trkpt>
<trkpt lat="41.097541" lon="-8.209485">
<ele>141</ele>
<time>2026-05-08T03:03:15Z</time></trkpt>
<trkpt lat="41.097357" lon="-8.210204">
<ele>137</ele>
<time>2026-05-08T03:03:26Z</time></trkpt>
<trkpt lat="41.097343" lon="-8.210372">
<ele>137</ele>
<time>2026-05-08T03:03:29Z</time></trkpt>
<trkpt lat="41.097352" lon="-8.210814">
<ele>137</ele>
<time>2026-05-08T03:03:36Z</time></trkpt>
<trkpt lat="41.097293" lon="-8.211275">
<ele>137</ele>
<time>2026-05-08T03:03:43Z</time></trkpt>
<trkpt lat="41.097241" lon="-8.211483">
<ele>137</ele>
<time>2026-05-08T03:03:46Z</time></trkpt>
<trkpt lat="41.097127" lon="-8.211622">
<ele>135</ele>
<time>2026-05-08T03:03:49Z</time></trkpt>
<trkpt lat="41.096304" lon="-8.212135">
<ele>130</ele>
<time>2026-05-08T03:04:07Z</time></trkpt>
<trkpt lat="41.09598" lon="-8.212341">
<ele>130</ele>
<time>2026-05-08T03:04:14Z</time></trkpt>
<trkpt lat="41.095812" lon="-8.212367">
<ele>128</ele>
<time>2026-05-08T03:04:18Z</time></trkpt>
<trkpt lat="41.095547" lon="-8.212178">
<ele>116</ele>
<time>2026-05-08T03:04:24Z</time></trkpt>
<trkpt lat="41.095426" lon="-8.212246">
<ele>115</ele>
<time>2026-05-08T03:04:27Z</time></trkpt>
<trkpt lat="41.095426" lon="-8.212246">
<ele>115</ele>
<time>2026-05-08T03:04:27Z</time></trkpt>
<trkpt lat="41.095309" lon="-8.212312">
<ele>114</ele>
<time>2026-05-08T03:04:29Z</time></trkpt>
<trkpt lat="41.095183" lon="-8.21247">
<ele>116</ele>
<time>2026-05-08T03:04:33Z</time></trkpt>
<trkpt lat="41.095123" lon="-8.21265">
<ele>118</ele>
<time>2026-05-08T03:04:35Z</time></trkpt>
<trkpt lat="41.095085" lon="-8.212927">
<ele>121</ele>
<time>2026-05-08T03:04:40Z</time></trkpt>
<trkpt lat="41.0949" lon="-8.213342">
<ele>121</ele>
<time>2026-05-08T03:04:47Z</time></trkpt>
<trkpt lat="41.094838" lon="-8.213532">
<ele>119</ele>
<time>2026-05-08T03:04:50Z</time></trkpt>
<trkpt lat="41.094822" lon="-8.213779">
<ele>120</ele>
<time>2026-05-08T03:04:54Z</time></trkpt>
<trkpt lat="41.09477" lon="-8.21417">
<ele>121</ele>
<time>2026-05-08T03:05:00Z</time></trkpt>
<trkpt lat="41.094692" lon="-8.214287">
<ele>120</ele>
<time>2026-05-08T03:05:02Z</time></trkpt>
<trkpt lat="41.093928" lon="-8.214933">
<ele>110</ele>
<time>2026-05-08T03:05:20Z</time></trkpt>
<trkpt lat="41.093843" lon="-8.215099">
<ele>110</ele>
<time>2026-05-08T03:05:23Z</time></trkpt>
<trkpt lat="41.093801" lon="-8.215535">
<ele>114</ele>
<time>2026-05-08T03:05:30Z</time></trkpt>
<trkpt lat="41.093787" lon="-8.215676">
<ele>115</ele>
<time>2026-05-08T03:05:32Z</time></trkpt>
<trkpt lat="41.093688" lon="-8.215839">
<ele>114</ele>
<time>2026-05-08T03:05:35Z</time></trkpt>
<trkpt lat="41.093483" lon="-8.215972">
<ele>109</ele>
<time>2026-05-08T03:05:40Z</time></trkpt>
<trkpt lat="41.093407" lon="-8.216022">
<ele>108</ele>
<time>2026-05-08T03:05:42Z</time></trkpt>
<trkpt lat="41.093274" lon="-8.216149">
<ele>106</ele>
<time>2026-05-08T03:05:45Z</time></trkpt>
<trkpt lat="41.093223" lon="-8.216327">
<ele>107</ele>
<time>2026-05-08T03:05:48Z</time></trkpt>
<trkpt lat="41.093202" lon="-8.216565">
<ele>110</ele>
<time>2026-05-08T03:05:51Z</time></trkpt>
<trkpt lat="41.093171" lon="-8.216691">
<ele>112</ele>
<time>2026-05-08T03:05:53Z</time></trkpt>
<trkpt lat="41.093107" lon="-8.216793">
<ele>113</ele>
<time>2026-05-08T03:05:55Z</time></trkpt>
<trkpt lat="41.092634" lon="-8.21709">
<ele>110</ele>
<time>2026-05-08T03:06:06Z</time></trkpt>
<trkpt lat="41.092444" lon="-8.217151">
<ele>108</ele>
<time>2026-05-08T03:06:10Z</time></trkpt>
<trkpt lat="41.092018" lon="-8.217183">
<ele>101</ele>
<time>2026-05-08T03:06:18Z</time></trkpt>
<trkpt lat="41.091859" lon="-8.217233">
<ele>99</ele>
<time>2026-05-08T03:06:22Z</time></trkpt>
<trkpt lat="41.09158" lon="-8.217462">
<ele>102</ele>
<time>2026-05-08T03:06:28Z</time></trkpt>
<trkpt lat="41.091446" lon="-8.217542">
<ele>102</ele>
<time>2026-05-08T03:06:31Z</time></trkpt>
<trkpt lat="41.091321" lon="-8.217581">
<ele>102</ele>
<time>2026-05-08T03:06:34Z</time></trkpt>
<trkpt lat="41.0908" lon="-8.21773">
<ele>100</ele>
<time>2026-05-08T03:06:44Z</time></trkpt>
<trkpt lat="41.090109" lon="-8.218117">
<ele>99</ele>
<time>2026-05-08T03:06:59Z</time></trkpt>
<trkpt lat="41.089962" lon="-8.218206">
<ele>99</ele>
<time>2026-05-08T03:07:03Z</time></trkpt>
<trkpt lat="41.089382" lon="-8.219011">
<ele>111</ele>
<time>2026-05-08T03:07:20Z</time></trkpt>
<trkpt lat="41.089295" lon="-8.219078">
<ele>112</ele>
<time>2026-05-08T03:07:22Z</time></trkpt>
<trkpt lat="41.089126" lon="-8.219151">
<ele>112</ele>
<time>2026-05-08T03:07:25Z</time></trkpt>
<trkpt lat="41.088762" lon="-8.219212">
<ele>116</ele>
<time>2026-05-08T03:07:32Z</time></trkpt>
<trkpt lat="41.088627" lon="-8.219198">
<ele>116</ele>
<time>2026-05-08T03:07:35Z</time></trkpt>
<trkpt lat="41.088367" lon="-8.219128">
<ele>114</ele>
<time>2026-05-08T03:07:40Z</time></trkpt>
<trkpt lat="41.087407" lon="-8.219155">
<ele>120</ele>
<time>2026-05-08T03:08:00Z</time></trkpt>
<trkpt lat="41.087214" lon="-8.219253">
<ele>123</ele>
<time>2026-05-08T03:08:04Z</time></trkpt>
<trkpt lat="41.085942" lon="-8.22002">
<ele>123</ele>
<time>2026-05-08T03:08:32Z</time></trkpt>
<trkpt lat="41.085207" lon="-8.2206">
<ele>126</ele>
<time>2026-05-08T03:08:49Z</time></trkpt>
<trkpt lat="41.085015" lon="-8.220734">
<ele>126</ele>
<time>2026-05-08T03:08:53Z</time></trkpt>
<trkpt lat="41.084602" lon="-8.220924">
<ele>126</ele>
<time>2026-05-08T03:09:02Z</time></trkpt>
<trkpt lat="41.084302" lon="-8.221176">
<ele>128</ele>
<time>2026-05-08T03:09:09Z</time></trkpt>
<trkpt lat="41.083997" lon="-8.22166">
<ele>132</ele>
<time>2026-05-08T03:09:19Z</time></trkpt>
<trkpt lat="41.083819" lon="-8.222113">
<ele>139</ele>
<time>2026-05-08T03:09:26Z</time></trkpt>
<trkpt lat="41.08362" lon="-8.222443">
<ele>143</ele>
<time>2026-05-08T03:09:33Z</time></trkpt>
<trkpt lat="41.083398" lon="-8.222696">
<ele>144</ele>
<time>2026-05-08T03:09:39Z</time></trkpt>
<trkpt lat="41.083205" lon="-8.222847">
<ele>142</ele>
<time>2026-05-08T03:09:43Z</time></trkpt>
<trkpt lat="41.082979" lon="-8.223053">
<ele>140</ele>
<time>2026-05-08T03:09:49Z</time></trkpt>
<trkpt lat="41.08282" lon="-8.223285">
<ele>141</ele>
<time>2026-05-08T03:09:53Z</time></trkpt>
<trkpt lat="41.082689" lon="-8.223571">
<ele>142</ele>
<time>2026-05-08T03:09:58Z</time></trkpt>
<trkpt lat="41.082563" lon="-8.223897">
<ele>144</ele>
<time>2026-05-08T03:10:04Z</time></trkpt>
<trkpt lat="41.082482" lon="-8.22422">
<ele>146</ele>
<time>2026-05-08T03:10:09Z</time></trkpt>
<trkpt lat="41.08249" lon="-8.224406">
<ele>147</ele>
<time>2026-05-08T03:10:12Z</time></trkpt>
<trkpt lat="41.082527" lon="-8.224551">
<ele>148</ele>
<time>2026-05-08T03:10:14Z</time></trkpt>
<trkpt lat="41.082716" lon="-8.224923">
<ele>150</ele>
<time>2026-05-08T03:10:21Z</time></trkpt>
<trkpt lat="41.082753" lon="-8.225101">
<ele>151</ele>
<time>2026-05-08T03:10:24Z</time></trkpt>
<trkpt lat="41.082734" lon="-8.225241">
<ele>151</ele>
<time>2026-05-08T03:10:26Z</time></trkpt>
<trkpt lat="41.082683" lon="-8.225364">
<ele>151</ele>
<time>2026-05-08T03:10:28Z</time></trkpt>
<trkpt lat="41.082581" lon="-8.225533">
<ele>151</ele>
<time>2026-05-08T03:10:31Z</time></trkpt>
<trkpt lat="41.082542" lon="-8.225695">
<ele>151</ele>
<time>2026-05-08T03:10:34Z</time></trkpt>
<trkpt lat="41.082515" lon="-8.225997">
<ele>151</ele>
<time>2026-05-08T03:10:39Z</time></trkpt>
<trkpt lat="41.082441" lon="-8.226283">
<ele>151</ele>
<time>2026-05-08T03:10:43Z</time></trkpt>
<trkpt lat="41.082424" lon="-8.226438">
<ele>151</ele>
<time>2026-05-08T03:10:45Z</time></trkpt>
<trkpt lat="41.082444" lon="-8.226569">
<ele>151</ele>
<time>2026-05-08T03:10:47Z</time></trkpt>
<trkpt lat="41.082498" lon="-8.226663">
<ele>152</ele>
<time>2026-05-08T03:10:49Z</time></trkpt>
<trkpt lat="41.082657" lon="-8.226868">
<ele>155</ele>
<time>2026-05-08T03:10:54Z</time></trkpt>
<trkpt lat="41.082702" lon="-8.226985">
<ele>155</ele>
<time>2026-05-08T03:10:56Z</time></trkpt>
<trkpt lat="41.082715" lon="-8.227131">
<ele>156</ele>
<time>2026-05-08T03:10:58Z</time></trkpt>
<trkpt lat="41.082691" lon="-8.227257">
<ele>156</ele>
<time>2026-05-08T03:11:00Z</time></trkpt>
<trkpt lat="41.082595" lon="-8.227477">
<ele>155</ele>
<time>2026-05-08T03:11:04Z</time></trkpt>
<trkpt lat="41.082577" lon="-8.227606">
<ele>155</ele>
<time>2026-05-08T03:11:06Z</time></trkpt>
<trkpt lat="41.0826" lon="-8.227736">
<ele>155</ele>
<time>2026-05-08T03:11:08Z</time></trkpt>
<trkpt lat="41.082653" lon="-8.227845">
<ele>155</ele>
<time>2026-05-08T03:11:10Z</time></trkpt>
<trkpt lat="41.082817" lon="-8.228033">
<ele>157</ele>
<time>2026-05-08T03:11:14Z</time></trkpt>
<trkpt lat="41.083085" lon="-8.228198">
<ele>160</ele>
<time>2026-05-08T03:11:20Z</time></trkpt>
<trkpt lat="41.083178" lon="-8.228336">
<ele>161</ele>
<time>2026-05-08T03:11:23Z</time></trkpt>
<trkpt lat="41.083195" lon="-8.228464">
<ele>162</ele>
<time>2026-05-08T03:11:25Z</time></trkpt>
<trkpt lat="41.08318" lon="-8.228597">
<ele>162</ele>
<time>2026-05-08T03:11:27Z</time></trkpt>
<trkpt lat="41.082887" lon="-8.229152">
<ele>161</ele>
<time>2026-05-08T03:11:37Z</time></trkpt>
<trkpt lat="41.082854" lon="-8.229268">
<ele>161</ele>
<time>2026-05-08T03:11:39Z</time></trkpt>
<trkpt lat="41.082847" lon="-8.229383">
<ele>161</ele>
<time>2026-05-08T03:11:41Z</time></trkpt>
<trkpt lat="41.082864" lon="-8.22952">
<ele>162</ele>
<time>2026-05-08T03:11:43Z</time></trkpt>
<trkpt lat="41.082932" lon="-8.229805">
<ele>164</ele>
<time>2026-05-08T03:11:47Z</time></trkpt>
<trkpt lat="41.083167" lon="-8.230634">
<ele>169</ele>
<time>2026-05-08T03:12:01Z</time></trkpt>
<trkpt lat="41.083191" lon="-8.230921">
<ele>171</ele>
<time>2026-05-08T03:12:05Z</time></trkpt>
<trkpt lat="41.082932" lon="-8.232103">
<ele>171</ele>
<time>2026-05-08T03:12:24Z</time></trkpt>
<trkpt lat="41.082871" lon="-8.233013">
<ele>169</ele>
<time>2026-05-08T03:12:37Z</time></trkpt>
<trkpt lat="41.082965" lon="-8.233832">
<ele>174</ele>
<time>2026-05-08T03:12:50Z</time></trkpt>
<trkpt lat="41.083021" lon="-8.234314">
<ele>176</ele>
<time>2026-05-08T03:12:57Z</time></trkpt>
<trkpt lat="41.082941" lon="-8.23579">
<ele>170</ele>
<time>2026-05-08T03:13:20Z</time></trkpt>
<trkpt lat="41.082891" lon="-8.236379">
<ele>173</ele>
<time>2026-05-08T03:13:29Z</time></trkpt>
<trkpt lat="41.082634" lon="-8.237341">
<ele>171</ele>
<time>2026-05-08T03:13:44Z</time></trkpt>
<trkpt lat="41.082775" lon="-8.238148">
<ele>180</ele>
<time>2026-05-08T03:13:56Z</time></trkpt>
<trkpt lat="41.082612" lon="-8.238494">
<ele>178</ele>
<time>2026-05-08T03:14:03Z</time></trkpt>
<trkpt lat="41.082113" lon="-8.239144">
<ele>173</ele>
<time>2026-05-08T03:14:17Z</time></trkpt>
<trkpt lat="41.08188" lon="-8.239583">
<ele>167</ele>
<time>2026-05-08T03:14:25Z</time></trkpt>
<trkpt lat="41.081638" lon="-8.240774">
<ele>168</ele>
<time>2026-05-08T03:14:43Z</time></trkpt>
<trkpt lat="41.081577" lon="-8.241099">
<ele>168</ele>
<time>2026-05-08T03:14:48Z</time></trkpt>
<trkpt lat="41.081483" lon="-8.241601">
<ele>167</ele>
<time>2026-05-08T03:14:56Z</time></trkpt>
<trkpt lat="41.081482" lon="-8.241778">
<ele>167</ele>
<time>2026-05-08T03:14:59Z</time></trkpt>
<trkpt lat="41.081468" lon="-8.24373">
<ele>158</ele>
<time>2026-05-08T03:15:28Z</time></trkpt>
<trkpt lat="41.081523" lon="-8.243941">
<ele>157</ele>
<time>2026-05-08T03:15:32Z</time></trkpt>
<trkpt lat="41.081618" lon="-8.244034">
<ele>156</ele>
<time>2026-05-08T03:15:34Z</time></trkpt>
<trkpt lat="41.081734" lon="-8.244093">
<ele>155</ele>
<time>2026-05-08T03:15:37Z</time></trkpt>
<trkpt lat="41.081853" lon="-8.244079">
<ele>155</ele>
<time>2026-05-08T03:15:39Z</time></trkpt>
<trkpt lat="41.082693" lon="-8.24376">
<ele>155</ele>
<time>2026-05-08T03:15:57Z</time></trkpt>
<trkpt lat="41.082693" lon="-8.24376">
<ele>155</ele>
<time>2026-05-08T03:15:57Z</time></trkpt>
<trkpt lat="41.084832" lon="-8.242953">
<ele>153</ele>
<time>2026-05-08T03:16:41Z</time></trkpt>
<trkpt lat="41.085652" lon="-8.242211">
<ele>156</ele>
<time>2026-05-08T03:17:01Z</time></trkpt>
<trkpt lat="41.086017" lon="-8.242139">
<ele>155</ele>
<time>2026-05-08T03:17:08Z</time></trkpt>
<trkpt lat="41.086273" lon="-8.24218">
<ele>153</ele>
<time>2026-05-08T03:17:14Z</time></trkpt>
<trkpt lat="41.086442" lon="-8.242235">
<ele>151</ele>
<time>2026-05-08T03:17:17Z</time></trkpt>
<trkpt lat="41.087945" lon="-8.244136">
<ele>139</ele>
<time>2026-05-08T03:17:59Z</time></trkpt>
<trkpt lat="41.088611" lon="-8.24449">
<ele>138</ele>
<time>2026-05-08T03:18:13Z</time></trkpt>
<trkpt lat="41.088795" lon="-8.24464">
<ele>137</ele>
<time>2026-05-08T03:18:17Z</time></trkpt>
<trkpt lat="41.089026" lon="-8.244958">
<ele>134</ele>
<time>2026-05-08T03:18:24Z</time></trkpt>
<trkpt lat="41.0891" lon="-8.245116">
<ele>134</ele>
<time>2026-05-08T03:18:27Z</time></trkpt>
<trkpt lat="41.089385" lon="-8.246136">
<ele>137</ele>
<time>2026-05-08T03:18:43Z</time></trkpt>
<trkpt lat="41.089385" lon="-8.246136">
<ele>137</ele>
<time>2026-05-08T03:18:43Z</time></trkpt>
<trkpt lat="41.089523" lon="-8.246618">
<ele>139</ele>
<time>2026-05-08T03:18:51Z</time></trkpt>
<trkpt lat="41.089569" lon="-8.246725">
<ele>139</ele>
<time>2026-05-08T03:18:53Z</time></trkpt>
<trkpt lat="41.089613" lon="-8.246826">
<ele>138</ele>
<time>2026-05-08T03:18:55Z</time></trkpt>
<trkpt lat="41.089638" lon="-8.246863">
<ele>138</ele>
<time>2026-05-08T03:18:55Z</time></trkpt>
<trkpt lat="41.089639" lon="-8.246915">
<ele>137</ele>
<time>2026-05-08T03:18:56Z</time></trkpt>
<trkpt lat="41.089614" lon="-8.246955">
<ele>137</ele>
<time>2026-05-08T03:18:57Z</time></trkpt>
<trkpt lat="41.089575" lon="-8.246963">
<ele>137</ele>
<time>2026-05-08T03:18:58Z</time></trkpt>
<trkpt lat="41.089447" lon="-8.246975">
<ele>138</ele>
<time>2026-05-08T03:19:00Z</time></trkpt>
<trkpt lat="41.088496" lon="-8.247223">
<ele>139</ele>
<time>2026-05-08T03:19:20Z</time></trkpt>
<trkpt lat="41.08835" lon="-8.24734">
<ele>139</ele>
<time>2026-05-08T03:19:23Z</time></trkpt>
<trkpt lat="41.088359" lon="-8.247429">
<ele>140</ele>
<time>2026-05-08T03:19:25Z</time></trkpt>
<trkpt lat="41.088331" lon="-8.247477">
<ele>140</ele>
<time>2026-05-08T03:19:25Z</time></trkpt>
<trkpt lat="41.088287" lon="-8.247495">
<ele>140</ele>
<time>2026-05-08T03:19:26Z</time></trkpt>
<trkpt lat="41.088227" lon="-8.247453">
<ele>140</ele>
<time>2026-05-08T03:19:28Z</time></trkpt>
<trkpt lat="41.088213" lon="-8.247395">
<ele>140</ele>
<time>2026-05-08T03:19:29Z</time></trkpt>
<trkpt lat="41.088228" lon="-8.247337">
<ele>139</ele>
<time>2026-05-08T03:19:30Z</time></trkpt>
<trkpt lat="41.08813" lon="-8.247292">
<ele>139</ele>
<time>2026-05-08T03:19:32Z</time></trkpt>
<trkpt lat="41.087589" lon="-8.247143">
<ele>137</ele>
<time>2026-05-08T03:19:43Z</time></trkpt>
<trkpt lat="41.087491" lon="-8.247142">
<ele>137</ele>
<time>2026-05-08T03:19:45Z</time></trkpt>
<trkpt lat="41.087253" lon="-8.247141">
<ele>137</ele>
<time>2026-05-08T03:19:49Z</time></trkpt>
<trkpt lat="41.08703" lon="-8.247141">
<ele>137</ele>
<time>2026-05-08T03:19:54Z</time></trkpt>
<trkpt lat="41.086797" lon="-8.247234">
<ele>137</ele>
<time>2026-05-08T03:19:59Z</time></trkpt>
<trkpt lat="41.085698" lon="-8.247718">
<ele>138</ele>
<time>2026-05-08T03:20:22Z</time></trkpt>
<trkpt lat="41.085604" lon="-8.247778">
<ele>138</ele>
<time>2026-05-08T03:20:24Z</time></trkpt>
<trkpt lat="41.085486" lon="-8.247893">
<ele>139</ele>
<time>2026-05-08T03:20:27Z</time></trkpt>
<trkpt lat="41.085043" lon="-8.248375">
<ele>141</ele>
<time>2026-05-08T03:20:38Z</time></trkpt>
<trkpt lat="41.084919" lon="-8.248483">
<ele>141</ele>
<time>2026-05-08T03:20:41Z</time></trkpt>
<trkpt lat="41.084803" lon="-8.248513">
<ele>141</ele>
<time>2026-05-08T03:20:44Z</time></trkpt>
<trkpt lat="41.084119" lon="-8.248523">
<ele>140</ele>
<time>2026-05-08T03:20:58Z</time></trkpt>
<trkpt lat="41.08399" lon="-8.248573">
<ele>140</ele>
<time>2026-05-08T03:21:00Z</time></trkpt>
<trkpt lat="41.083696" lon="-8.248806">
<ele>141</ele>
<time>2026-05-08T03:21:07Z</time></trkpt>
<trkpt lat="41.083514" lon="-8.248958">
<ele>141</ele>
<time>2026-05-08T03:21:11Z</time></trkpt>
<trkpt lat="41.082958" lon="-8.249436">
<ele>140</ele>
<time>2026-05-08T03:21:25Z</time></trkpt>
<trkpt lat="41.082873" lon="-8.249531">
<ele>140</ele>
<time>2026-05-08T03:21:27Z</time></trkpt>
<trkpt lat="41.082424" lon="-8.250192">
<ele>138</ele>
<time>2026-05-08T03:21:40Z</time></trkpt>
<trkpt lat="41.082146" lon="-8.250567">
<ele>138</ele>
<time>2026-05-08T03:21:48Z</time></trkpt>
<trkpt lat="41.082058" lon="-8.25063">
<ele>138</ele>
<time>2026-05-08T03:21:50Z</time></trkpt>
<trkpt lat="41.081962" lon="-8.250664">
<ele>137</ele>
<time>2026-05-08T03:21:52Z</time></trkpt>
<trkpt lat="41.081312" lon="-8.250709">
<ele>132</ele>
<time>2026-05-08T03:22:05Z</time></trkpt>
<trkpt lat="41.081189" lon="-8.250751">
<ele>132</ele>
<time>2026-05-08T03:22:08Z</time></trkpt>
<trkpt lat="41.08074" lon="-8.251134">
<ele>130</ele>
<time>2026-05-08T03:22:19Z</time></trkpt>
<trkpt lat="41.080661" lon="-8.251253">
<ele>129</ele>
<time>2026-05-08T03:22:21Z</time></trkpt>
<trkpt lat="41.0806" lon="-8.251387">
<ele>129</ele>
<time>2026-05-08T03:22:23Z</time></trkpt>
<trkpt lat="41.080567" lon="-8.251596">
<ele>129</ele>
<time>2026-05-08T03:22:27Z</time></trkpt>
<trkpt lat="41.080542" lon="-8.254078">
<ele>130</ele>
<time>2026-05-08T03:23:04Z</time></trkpt>
<trkpt lat="41.08051" lon="-8.254366">
<ele>131</ele>
<time>2026-05-08T03:23:08Z</time></trkpt>
<trkpt lat="41.080461" lon="-8.254551">
<ele>131</ele>
<time>2026-05-08T03:23:11Z</time></trkpt>
<trkpt lat="41.080425" lon="-8.254687">
<ele>132</ele>
<time>2026-05-08T03:23:14Z</time></trkpt>
<trkpt lat="41.079779" lon="-8.257048">
<ele>130</ele>
<time>2026-05-08T03:23:52Z</time></trkpt>
<trkpt lat="41.079428" lon="-8.258275">
<ele>133</ele>
<time>2026-05-08T03:24:11Z</time></trkpt>
<trkpt lat="41.079379" lon="-8.258377">
<ele>133</ele>
<time>2026-05-08T03:24:13Z</time></trkpt>
<trkpt lat="41.079312" lon="-8.258467">
<ele>133</ele>
<time>2026-05-08T03:24:15Z</time></trkpt>
<trkpt lat="41.079196" lon="-8.258565">
<ele>133</ele>
<time>2026-05-08T03:24:18Z</time></trkpt>
<trkpt lat="41.078538" lon="-8.258878">
<ele>128</ele>
<time>2026-05-08T03:24:32Z</time></trkpt>
<trkpt lat="41.078316" lon="-8.25901">
<ele>126</ele>
<time>2026-05-08T03:24:37Z</time></trkpt>
<trkpt lat="41.078061" lon="-8.259212">
<ele>125</ele>
<time>2026-05-08T03:24:43Z</time></trkpt>
<trkpt lat="41.077675" lon="-8.259826">
<ele>123</ele>
<time>2026-05-08T03:24:55Z</time></trkpt>
<trkpt lat="41.077176" lon="-8.260815">
<ele>123</ele>
<time>2026-05-08T03:25:13Z</time></trkpt>
<trkpt lat="41.076911" lon="-8.26131">
<ele>122</ele>
<time>2026-05-08T03:25:22Z</time></trkpt>
<trkpt lat="41.076808" lon="-8.261459">
<ele>122</ele>
<time>2026-05-08T03:25:25Z</time></trkpt>
<trkpt lat="41.076766" lon="-8.261504">
<ele>122</ele>
<time>2026-05-08T03:25:26Z</time></trkpt>
<trkpt lat="41.076594" lon="-8.261593">
<ele>120</ele>
<time>2026-05-08T03:25:30Z</time></trkpt>
<trkpt lat="41.07603" lon="-8.2618">
<ele>117</ele>
<time>2026-05-08T03:25:41Z</time></trkpt>
<trkpt lat="41.075949" lon="-8.261847">
<ele>117</ele>
<time>2026-05-08T03:25:43Z</time></trkpt>
<trkpt lat="41.075895" lon="-8.261901">
<ele>117</ele>
<time>2026-05-08T03:25:45Z</time></trkpt>
<trkpt lat="41.07577" lon="-8.262055">
<ele>116</ele>
<time>2026-05-08T03:25:48Z</time></trkpt>
<trkpt lat="41.075702" lon="-8.262215">
<ele>116</ele>
<time>2026-05-08T03:25:51Z</time></trkpt>
<trkpt lat="41.075702" lon="-8.262215">
<ele>116</ele>
<time>2026-05-08T03:25:51Z</time></trkpt>
<trkpt lat="41.075662" lon="-8.26231">
<ele>115</ele>
<time>2026-05-08T03:25:52Z</time></trkpt>
<trkpt lat="41.075625" lon="-8.262472">
<ele>116</ele>
<time>2026-05-08T03:25:55Z</time></trkpt>
<trkpt lat="41.075597" lon="-8.262695">
<ele>115</ele>
<time>2026-05-08T03:25:58Z</time></trkpt>
<trkpt lat="41.075591" lon="-8.263107">
<ele>114</ele>
<time>2026-05-08T03:26:05Z</time></trkpt>
<trkpt lat="41.075623" lon="-8.263261">
<ele>114</ele>
<time>2026-05-08T03:26:07Z</time></trkpt>
<trkpt lat="41.075905" lon="-8.263728">
<ele>119</ele>
<time>2026-05-08T03:26:16Z</time></trkpt>
<trkpt lat="41.075935" lon="-8.263828">
<ele>119</ele>
<time>2026-05-08T03:26:18Z</time></trkpt>
<trkpt lat="41.075937" lon="-8.264042">
<ele>117</ele>
<time>2026-05-08T03:26:21Z</time></trkpt>
<trkpt lat="41.075904" lon="-8.264146">
<ele>115</ele>
<time>2026-05-08T03:26:23Z</time></trkpt>
<trkpt lat="41.075861" lon="-8.264216">
<ele>114</ele>
<time>2026-05-08T03:26:24Z</time></trkpt>
<trkpt lat="41.075749" lon="-8.264376">
<ele>115</ele>
<time>2026-05-08T03:26:27Z</time></trkpt>
<trkpt lat="41.075656" lon="-8.264443">
<ele>114</ele>
<time>2026-05-08T03:26:29Z</time></trkpt>
<trkpt lat="41.075358" lon="-8.264595">
<ele>112</ele>
<time>2026-05-08T03:26:36Z</time></trkpt>
<trkpt lat="41.07527" lon="-8.264673">
<ele>112</ele>
<time>2026-05-08T03:26:38Z</time></trkpt>
<trkpt lat="41.074324" lon="-8.265702">
<ele>113</ele>
<time>2026-05-08T03:27:02Z</time></trkpt>
<trkpt lat="41.074185" lon="-8.26585">
<ele>112</ele>
<time>2026-05-08T03:27:06Z</time></trkpt>
<trkpt lat="41.073641" lon="-8.26645">
<ele>109</ele>
<time>2026-05-08T03:27:20Z</time></trkpt>
<trkpt lat="41.073449" lon="-8.266691">
<ele>107</ele>
<time>2026-05-08T03:27:25Z</time></trkpt>
<trkpt lat="41.073351" lon="-8.266843">
<ele>107</ele>
<time>2026-05-08T03:27:28Z</time></trkpt>
<trkpt lat="41.073312" lon="-8.266927">
<ele>106</ele>
<time>2026-05-08T03:27:30Z</time></trkpt>
<trkpt lat="41.073298" lon="-8.26703">
<ele>107</ele>
<time>2026-05-08T03:27:32Z</time></trkpt>
<trkpt lat="41.073322" lon="-8.267419">
<ele>110</ele>
<time>2026-05-08T03:27:37Z</time></trkpt>
<trkpt lat="41.073312" lon="-8.267649">
<ele>111</ele>
<time>2026-05-08T03:27:41Z</time></trkpt>
<trkpt lat="41.073257" lon="-8.267782">
<ele>111</ele>
<time>2026-05-08T03:27:43Z</time></trkpt>
<trkpt lat="41.073137" lon="-8.267936">
<ele>111</ele>
<time>2026-05-08T03:27:47Z</time></trkpt>
<trkpt lat="41.073068" lon="-8.268009">
<ele>111</ele>
<time>2026-05-08T03:27:48Z</time></trkpt>
<trkpt lat="41.072557" lon="-8.268478">
<ele>111</ele>
<time>2026-05-08T03:28:01Z</time></trkpt>
<trkpt lat="41.072422" lon="-8.268628">
<ele>110</ele>
<time>2026-05-08T03:28:04Z</time></trkpt>
<trkpt lat="41.072331" lon="-8.26876">
<ele>110</ele>
<time>2026-05-08T03:28:07Z</time></trkpt>
<trkpt lat="41.072277" lon="-8.268872">
<ele>110</ele>
<time>2026-05-08T03:28:09Z</time></trkpt>
<trkpt lat="41.072246" lon="-8.268976">
<ele>111</ele>
<time>2026-05-08T03:28:11Z</time></trkpt>
<trkpt lat="41.072223" lon="-8.269177">
<ele>111</ele>
<time>2026-05-08T03:28:14Z</time></trkpt>
<trkpt lat="41.072232" lon="-8.270051">
<ele>107</ele>
<time>2026-05-08T03:28:27Z</time></trkpt>
<trkpt lat="41.072221" lon="-8.270222">
<ele>108</ele>
<time>2026-05-08T03:28:30Z</time></trkpt>
<trkpt lat="41.072185" lon="-8.270454">
<ele>108</ele>
<time>2026-05-08T03:28:33Z</time></trkpt>
<trkpt lat="41.072075" lon="-8.270834">
<ele>107</ele>
<time>2026-05-08T03:28:39Z</time></trkpt>
<trkpt lat="41.072055" lon="-8.270947">
<ele>106</ele>
<time>2026-05-08T03:28:41Z</time></trkpt>
<trkpt lat="41.072057" lon="-8.271074">
<ele>106</ele>
<time>2026-05-08T03:28:43Z</time></trkpt>
<trkpt lat="41.072104" lon="-8.271232">
<ele>106</ele>
<time>2026-05-08T03:28:46Z</time></trkpt>
<trkpt lat="41.072155" lon="-8.271323">
<ele>106</ele>
<time>2026-05-08T03:28:47Z</time></trkpt>
<trkpt lat="41.072421" lon="-8.271599">
<ele>111</ele>
<time>2026-05-08T03:28:54Z</time></trkpt>
<trkpt lat="41.072468" lon="-8.271705">
<ele>112</ele>
<time>2026-05-08T03:28:56Z</time></trkpt>
<trkpt lat="41.072487" lon="-8.271926">
<ele>113</ele>
<time>2026-05-08T03:28:59Z</time></trkpt>
<trkpt lat="41.072481" lon="-8.272067">
<ele>114</ele>
<time>2026-05-08T03:29:01Z</time></trkpt>
<trkpt lat="41.072449" lon="-8.272208">
<ele>113</ele>
<time>2026-05-08T03:29:04Z</time></trkpt>
<trkpt lat="41.07239" lon="-8.272377">
<ele>112</ele>
<time>2026-05-08T03:29:06Z</time></trkpt>
<trkpt lat="41.072336" lon="-8.272479">
<ele>111</ele>
<time>2026-05-08T03:29:08Z</time></trkpt>
<trkpt lat="41.072273" lon="-8.272552">
<ele>110</ele>
<time>2026-05-08T03:29:10Z</time></trkpt>
<trkpt lat="41.072081" lon="-8.272723">
<ele>108</ele>
<time>2026-05-08T03:29:15Z</time></trkpt>
<trkpt lat="41.071792" lon="-8.272866">
<ele>103</ele>
<time>2026-05-08T03:29:21Z</time></trkpt>
<trkpt lat="41.071674" lon="-8.272945">
<ele>102</ele>
<time>2026-05-08T03:29:23Z</time></trkpt>
<trkpt lat="41.071574" lon="-8.273042">
<ele>101</ele>
<time>2026-05-08T03:29:26Z</time></trkpt>
<trkpt lat="41.071415" lon="-8.27327">
<ele>100</ele>
<time>2026-05-08T03:29:31Z</time></trkpt>
<trkpt lat="41.071312" lon="-8.273453">
<ele>99</ele>
<time>2026-05-08T03:29:34Z</time></trkpt>
<trkpt lat="41.071266" lon="-8.273599">
<ele>100</ele>
<time>2026-05-08T03:29:36Z</time></trkpt>
<trkpt lat="41.07122" lon="-8.273794">
<ele>102</ele>
<time>2026-05-08T03:29:40Z</time></trkpt>
<trkpt lat="41.07107" lon="-8.274632">
<ele>110</ele>
<time>2026-05-08T03:29:53Z</time></trkpt>
<trkpt lat="41.071041" lon="-8.274725">
<ele>111</ele>
<time>2026-05-08T03:29:54Z</time></trkpt>
<trkpt lat="41.070934" lon="-8.274913">
<ele>111</ele>
<time>2026-05-08T03:29:58Z</time></trkpt>
<trkpt lat="41.07081" lon="-8.275035">
<ele>111</ele>
<time>2026-05-08T03:30:01Z</time></trkpt>
<trkpt lat="41.070618" lon="-8.275149">
<ele>106</ele>
<time>2026-05-08T03:30:05Z</time></trkpt>
<trkpt lat="41.070516" lon="-8.275283">
<ele>104</ele>
<time>2026-05-08T03:30:08Z</time></trkpt>
<trkpt lat="41.070477" lon="-8.275361">
<ele>104</ele>
<time>2026-05-08T03:30:09Z</time></trkpt>
<trkpt lat="41.070451" lon="-8.275499">
<ele>103</ele>
<time>2026-05-08T03:30:11Z</time></trkpt>
<trkpt lat="41.070445" lon="-8.275673">
<ele>104</ele>
<time>2026-05-08T03:30:14Z</time></trkpt>
<trkpt lat="41.070626" lon="-8.276359">
<ele>102</ele>
<time>2026-05-08T03:30:25Z</time></trkpt>
<trkpt lat="41.070708" lon="-8.276584">
<ele>101</ele>
<time>2026-05-08T03:30:29Z</time></trkpt>
<trkpt lat="41.070799" lon="-8.276726">
<ele>101</ele>
<time>2026-05-08T03:30:32Z</time></trkpt>
<trkpt lat="41.07094" lon="-8.276857">
<ele>101</ele>
<time>2026-05-08T03:30:35Z</time></trkpt>
<trkpt lat="41.071549" lon="-8.277093">
<ele>101</ele>
<time>2026-05-08T03:30:48Z</time></trkpt>
<trkpt lat="41.071722" lon="-8.277169">
<ele>100</ele>
<time>2026-05-08T03:30:51Z</time></trkpt>
<trkpt lat="41.071794" lon="-8.277221">
<ele>100</ele>
<time>2026-05-08T03:30:53Z</time></trkpt>
<trkpt lat="41.072068" lon="-8.277754">
<ele>95</ele>
<time>2026-05-08T03:31:03Z</time></trkpt>
<trkpt lat="41.072185" lon="-8.277863">
<ele>95</ele>
<time>2026-05-08T03:31:06Z</time></trkpt>
<trkpt lat="41.072391" lon="-8.277967">
<ele>97</ele>
<time>2026-05-08T03:31:10Z</time></trkpt>
<trkpt lat="41.072512" lon="-8.27808">
<ele>97</ele>
<time>2026-05-08T03:31:13Z</time></trkpt>
<trkpt lat="41.072582" lon="-8.278181">
<ele>98</ele>
<time>2026-05-08T03:31:15Z</time></trkpt>
<trkpt lat="41.072628" lon="-8.278355">
<ele>97</ele>
<time>2026-05-08T03:31:18Z</time></trkpt>
<trkpt lat="41.072663" lon="-8.278765">
<ele>91</ele>
<time>2026-05-08T03:31:24Z</time></trkpt>
<trkpt lat="41.072706" lon="-8.278927">
<ele>90</ele>
<time>2026-05-08T03:31:27Z</time></trkpt>
<trkpt lat="41.072734" lon="-8.278993">
<ele>90</ele>
<time>2026-05-08T03:31:28Z</time></trkpt>
<trkpt lat="41.072819" lon="-8.279087">
<ele>91</ele>
<time>2026-05-08T03:31:30Z</time></trkpt>
<trkpt lat="41.07339" lon="-8.279416">
<ele>100</ele>
<time>2026-05-08T03:31:43Z</time></trkpt>
<trkpt lat="41.073481" lon="-8.279482">
<ele>100</ele>
<time>2026-05-08T03:31:45Z</time></trkpt>
<trkpt lat="41.073733" lon="-8.279734">
<ele>100</ele>
<time>2026-05-08T03:31:51Z</time></trkpt>
<trkpt lat="41.074139" lon="-8.279847">
<ele>105</ele>
<time>2026-05-08T03:31:59Z</time></trkpt>
<trkpt lat="41.074503" lon="-8.279908">
<ele>104</ele>
<time>2026-05-08T03:32:07Z</time></trkpt>
<trkpt lat="41.074543" lon="-8.279896">
<ele>104</ele>
<time>2026-05-08T03:32:07Z</time></trkpt>
<trkpt lat="41.074771" lon="-8.279768">
<ele>106</ele>
<time>2026-05-08T03:32:12Z</time></trkpt>
<trkpt lat="41.074869" lon="-8.279734">
<ele>106</ele>
<time>2026-05-08T03:32:14Z</time></trkpt>
<trkpt lat="41.074975" lon="-8.279732">
<ele>106</ele>
<time>2026-05-08T03:32:17Z</time></trkpt>
<trkpt lat="41.075055" lon="-8.279759">
<ele>106</ele>
<time>2026-05-08T03:32:18Z</time></trkpt>
<trkpt lat="41.075342" lon="-8.27995">
<ele>104</ele>
<time>2026-05-08T03:32:25Z</time></trkpt>
<trkpt lat="41.075553" lon="-8.280119">
<ele>102</ele>
<time>2026-05-08T03:32:30Z</time></trkpt>
<trkpt lat="41.075619" lon="-8.280193">
<ele>101</ele>
<time>2026-05-08T03:32:31Z</time></trkpt>
<trkpt lat="41.075929" lon="-8.280935">
<ele>93</ele>
<time>2026-05-08T03:32:44Z</time></trkpt>
<trkpt lat="41.075976" lon="-8.280997">
<ele>92</ele>
<time>2026-05-08T03:32:45Z</time></trkpt>
<trkpt lat="41.076537" lon="-8.28139">
<ele>89</ele>
<time>2026-05-08T03:32:58Z</time></trkpt>
<trkpt lat="41.076631" lon="-8.281439">
<ele>89</ele>
<time>2026-05-08T03:33:00Z</time></trkpt>
<trkpt lat="41.076735" lon="-8.281461">
<ele>89</ele>
<time>2026-05-08T03:33:02Z</time></trkpt>
<trkpt lat="41.076836" lon="-8.281446">
<ele>90</ele>
<time>2026-05-08T03:33:04Z</time></trkpt>
<trkpt lat="41.077165" lon="-8.281304">
<ele>93</ele>
<time>2026-05-08T03:33:11Z</time></trkpt>
<trkpt lat="41.077237" lon="-8.281289">
<ele>94</ele>
<time>2026-05-08T03:33:13Z</time></trkpt>
<trkpt lat="41.077309" lon="-8.281297">
<ele>93</ele>
<time>2026-05-08T03:33:14Z</time></trkpt>
<trkpt lat="41.077449" lon="-8.281387">
<ele>92</ele>
<time>2026-05-08T03:33:17Z</time></trkpt>
<trkpt lat="41.077513" lon="-8.281489">
<ele>91</ele>
<time>2026-05-08T03:33:19Z</time></trkpt>
<trkpt lat="41.077544" lon="-8.28158">
<ele>90</ele>
<time>2026-05-08T03:33:21Z</time></trkpt>
<trkpt lat="41.077651" lon="-8.282004">
<ele>82</ele>
<time>2026-05-08T03:33:28Z</time></trkpt>
<trkpt lat="41.077686" lon="-8.282085">
<ele>81</ele>
<time>2026-05-08T03:33:29Z</time></trkpt>
<trkpt lat="41.078026" lon="-8.282611">
<ele>80</ele>
<time>2026-05-08T03:33:39Z</time></trkpt>
<trkpt lat="41.078539" lon="-8.282999">
<ele>83</ele>
<time>2026-05-08T03:33:51Z</time></trkpt>
<trkpt lat="41.078613" lon="-8.283148">
<ele>80</ele>
<time>2026-05-08T03:33:54Z</time></trkpt>
<trkpt lat="41.078613" lon="-8.283148">
<ele>80</ele>
<time>2026-05-08T03:33:54Z</time></trkpt>
<trkpt lat="41.078668" lon="-8.283437">
<ele>72</ele>
<time>2026-05-08T03:33:58Z</time></trkpt>
<trkpt lat="41.078704" lon="-8.283545">
<ele>70</ele>
<time>2026-05-08T03:34:00Z</time></trkpt>
<trkpt lat="41.079121" lon="-8.284087">
<ele>65</ele>
<time>2026-05-08T03:34:12Z</time></trkpt>
<trkpt lat="41.079188" lon="-8.284149">
<ele>65</ele>
<time>2026-05-08T03:34:14Z</time></trkpt>
<trkpt lat="41.07926" lon="-8.284179">
<ele>64</ele>
<time>2026-05-08T03:34:15Z</time></trkpt>
<trkpt lat="41.079403" lon="-8.284168">
<ele>65</ele>
<time>2026-05-08T03:34:18Z</time></trkpt>
<trkpt lat="41.079886" lon="-8.283905">
<ele>74</ele>
<time>2026-05-08T03:34:28Z</time></trkpt>
<trkpt lat="41.079975" lon="-8.283893">
<ele>74</ele>
<time>2026-05-08T03:34:30Z</time></trkpt>
<trkpt lat="41.080089" lon="-8.283938">
<ele>75</ele>
<time>2026-05-08T03:34:33Z</time></trkpt>
<trkpt lat="41.080161" lon="-8.284033">
<ele>75</ele>
<time>2026-05-08T03:34:35Z</time></trkpt>
<trkpt lat="41.080201" lon="-8.284118">
<ele>74</ele>
<time>2026-05-08T03:34:36Z</time></trkpt>
<trkpt lat="41.080339" lon="-8.284557">
<ele>65</ele>
<time>2026-05-08T03:34:43Z</time></trkpt>
<trkpt lat="41.080465" lon="-8.285063">
<ele>54</ele>
<time>2026-05-08T03:34:51Z</time></trkpt>
<trkpt lat="41.080514" lon="-8.2852">
<ele>51</ele>
<time>2026-05-08T03:34:54Z</time></trkpt>
<trkpt lat="41.080554" lon="-8.285254">
<ele>51</ele>
<time>2026-05-08T03:34:55Z</time></trkpt>
<trkpt lat="41.080675" lon="-8.285314">
<ele>51</ele>
<time>2026-05-08T03:34:57Z</time></trkpt>
<trkpt lat="41.081657" lon="-8.285517">
<ele>63</ele>
<time>2026-05-08T03:35:17Z</time></trkpt>
<trkpt lat="41.081711" lon="-8.28555">
<ele>62</ele>
<time>2026-05-08T03:35:19Z</time></trkpt>
<trkpt lat="41.081789" lon="-8.28565">
<ele>60</ele>
<time>2026-05-08T03:35:21Z</time></trkpt>
<trkpt lat="41.081903" lon="-8.28593">
<ele>55</ele>
<time>2026-05-08T03:35:25Z</time></trkpt>
<trkpt lat="41.082017" lon="-8.286101">
<ele>54</ele>
<time>2026-05-08T03:35:29Z</time></trkpt>
<trkpt lat="41.082145" lon="-8.286157">
<ele>54</ele>
<time>2026-05-08T03:35:32Z</time></trkpt>
<trkpt lat="41.082254" lon="-8.286142">
<ele>55</ele>
<time>2026-05-08T03:35:34Z</time></trkpt>
<trkpt lat="41.082494" lon="-8.286002">
<ele>58</ele>
<time>2026-05-08T03:35:39Z</time></trkpt>
<trkpt lat="41.082592" lon="-8.285998">
<ele>60</ele>
<time>2026-05-08T03:35:41Z</time></trkpt>
<trkpt lat="41.082622" lon="-8.286017">
<ele>60</ele>
<time>2026-05-08T03:35:42Z</time></trkpt>
<trkpt lat="41.082715" lon="-8.286073">
<ele>60</ele>
<time>2026-05-08T03:35:44Z</time></trkpt>
<trkpt lat="41.083815" lon="-8.287184">
<ele>50</ele>
<time>2026-05-08T03:36:11Z</time></trkpt>
<trkpt lat="41.083936" lon="-8.287239">
<ele>49</ele>
<time>2026-05-08T03:36:14Z</time></trkpt>
<trkpt lat="41.084129" lon="-8.287297">
<ele>48</ele>
<time>2026-05-08T03:36:18Z</time></trkpt>
<trkpt lat="41.08485" lon="-8.287513">
<ele>44</ele>
<time>2026-05-08T03:36:33Z</time></trkpt>
<trkpt lat="41.08504" lon="-8.28757">
<ele>44</ele>
<time>2026-05-08T03:36:37Z</time></trkpt>
<trkpt lat="41.086081" lon="-8.288056">
<ele>38</ele>
<time>2026-05-08T03:36:59Z</time></trkpt>
<trkpt lat="41.086265" lon="-8.288122">
<ele>37</ele>
<time>2026-05-08T03:37:03Z</time></trkpt>
<trkpt lat="41.08642" lon="-8.288138">
<ele>36</ele>
<time>2026-05-08T03:37:06Z</time></trkpt>
<trkpt lat="41.086588" lon="-8.28812">
<ele>37</ele>
<time>2026-05-08T03:37:09Z</time></trkpt>
<trkpt lat="41.0870152" lon="-8.287894">
<ele>34</ele>
<time>2026-05-08T03:37:18Z</time></trkpt>
<trkpt lat="41.087072" lon="-8.287864">
<ele>33</ele>
<time>2026-05-08T03:37:20Z</time></trkpt>
<trkpt lat="41.087135" lon="-8.287855">
<ele>32</ele>
<time>2026-05-08T03:37:21Z</time></trkpt>
<trkpt lat="41.087197" lon="-8.287872">
<ele>30</ele>
<time>2026-05-08T03:37:22Z</time></trkpt>
<trkpt lat="41.087253" lon="-8.2879">
<ele>28</ele>
<time>2026-05-08T03:37:23Z</time></trkpt>
<trkpt lat="41.087293" lon="-8.287948">
<ele>26</ele>
<time>2026-05-08T03:37:24Z</time></trkpt>
<trkpt lat="41.08854" lon="-8.28948">
<ele>28</ele>
<time>2026-05-08T03:37:58Z</time></trkpt>
<trkpt lat="41.088651" lon="-8.289643">
<ele>32</ele>
<time>2026-05-08T03:38:02Z</time></trkpt>
<trkpt lat="41.088688" lon="-8.289779">
<ele>34</ele>
<time>2026-05-08T03:38:04Z</time></trkpt>
<trkpt lat="41.088698" lon="-8.289903">
<ele>36</ele>
<time>2026-05-08T03:38:06Z</time></trkpt>
<trkpt lat="41.088684" lon="-8.290006">
<ele>37</ele>
<time>2026-05-08T03:38:07Z</time></trkpt>
<trkpt lat="41.088658" lon="-8.290105">
<ele>38</ele>
<time>2026-05-08T03:38:09Z</time></trkpt>
<trkpt lat="41.088609" lon="-8.290215">
<ele>39</ele>
<time>2026-05-08T03:38:11Z</time></trkpt>
<trkpt lat="41.088352" lon="-8.290592">
<ele>40</ele>
<time>2026-05-08T03:38:19Z</time></trkpt>
<trkpt lat="41.08826" lon="-8.290727">
<ele>41</ele>
<time>2026-05-08T03:38:21Z</time></trkpt>
<trkpt lat="41.088071" lon="-8.290946">
<ele>42</ele>
<time>2026-05-08T03:38:26Z</time></trkpt>
<trkpt lat="41.088025" lon="-8.290995">
<ele>43</ele>
<time>2026-05-08T03:38:28Z</time></trkpt>
<trkpt lat="41.087809" lon="-8.29116">
<ele>43</ele>
<time>2026-05-08T03:38:33Z</time></trkpt>
<trkpt lat="41.086944" lon="-8.291519">
<ele>38</ele>
<time>2026-05-08T03:38:51Z</time></trkpt>
<trkpt lat="41.086438" lon="-8.291839">
<ele>36</ele>
<time>2026-05-08T03:39:02Z</time></trkpt>
<trkpt lat="41.086281" lon="-8.29197">
<ele>37</ele>
<time>2026-05-08T03:39:06Z</time></trkpt>
<trkpt lat="41.085618" lon="-8.29261">
<ele>39</ele>
<time>2026-05-08T03:39:22Z</time></trkpt>
<trkpt lat="41.085421" lon="-8.292738">
<ele>39</ele>
<time>2026-05-08T03:39:26Z</time></trkpt>
<trkpt lat="41.08495" lon="-8.292991">
<ele>37</ele>
<time>2026-05-08T03:39:37Z</time></trkpt>
<trkpt lat="41.084833" lon="-8.293089">
<ele>37</ele>
<time>2026-05-08T03:39:39Z</time></trkpt>
<trkpt lat="41.084778" lon="-8.293171">
<ele>37</ele>
<time>2026-05-08T03:39:41Z</time></trkpt>
<trkpt lat="41.084431" lon="-8.293908">
<ele>45</ele>
<time>2026-05-08T03:39:54Z</time></trkpt>
<trkpt lat="41.084378" lon="-8.294">
<ele>46</ele>
<time>2026-05-08T03:39:56Z</time></trkpt>
<trkpt lat="41.084309" lon="-8.294073">
<ele>45</ele>
<time>2026-05-08T03:39:58Z</time></trkpt>
<trkpt lat="41.084236" lon="-8.294121">
<ele>44</ele>
<time>2026-05-08T03:39:59Z</time></trkpt>
<trkpt lat="41.083866" lon="-8.294228">
<ele>40</ele>
<time>2026-05-08T03:40:07Z</time></trkpt>
<trkpt lat="41.083777" lon="-8.294298">
<ele>40</ele>
<time>2026-05-08T03:40:09Z</time></trkpt>
<trkpt lat="41.083682" lon="-8.294408">
<ele>41</ele>
<time>2026-05-08T03:40:12Z</time></trkpt>
<trkpt lat="41.08337" lon="-8.294917">
<ele>42</ele>
<time>2026-05-08T03:40:21Z</time></trkpt>
<trkpt lat="41.083313" lon="-8.294975">
<ele>41</ele>
<time>2026-05-08T03:40:23Z</time></trkpt>
<trkpt lat="41.083184" lon="-8.295039">
<ele>40</ele>
<time>2026-05-08T03:40:26Z</time></trkpt>
<trkpt lat="41.082984" lon="-8.295066">
<ele>37</ele>
<time>2026-05-08T03:40:30Z</time></trkpt>
<trkpt lat="41.082899" lon="-8.295109">
<ele>36</ele>
<time>2026-05-08T03:40:32Z</time></trkpt>
<trkpt lat="41.082812" lon="-8.295194">
<ele>36</ele>
<time>2026-05-08T03:40:34Z</time></trkpt>
<trkpt lat="41.082755" lon="-8.295311">
<ele>37</ele>
<time>2026-05-08T03:40:36Z</time></trkpt>
<trkpt lat="41.082703" lon="-8.295597">
<ele>41</ele>
<time>2026-05-08T03:40:40Z</time></trkpt>
<trkpt lat="41.082703" lon="-8.295597">
<ele>41</ele>
<time>2026-05-08T03:40:40Z</time></trkpt>
<trkpt lat="41.082672" lon="-8.295767">
<ele>44</ele>
<time>2026-05-08T03:40:43Z</time></trkpt>
<trkpt lat="41.082633" lon="-8.295861">
<ele>45</ele>
<time>2026-05-08T03:40:45Z</time></trkpt>
<trkpt lat="41.08258" lon="-8.295925">
<ele>45</ele>
<time>2026-05-08T03:40:46Z</time></trkpt>
<trkpt lat="41.082512" lon="-8.295966">
<ele>44</ele>
<time>2026-05-08T03:40:47Z</time></trkpt>
<trkpt lat="41.082428" lon="-8.295986">
<ele>43</ele>
<time>2026-05-08T03:40:49Z</time></trkpt>
<trkpt lat="41.082336" lon="-8.295967">
<ele>41</ele>
<time>2026-05-08T03:40:51Z</time></trkpt>
<trkpt lat="41.082274" lon="-8.295931">
<ele>39</ele>
<time>2026-05-08T03:40:52Z</time></trkpt>
<trkpt lat="41.082111" lon="-8.295767">
<ele>33</ele>
<time>2026-05-08T03:40:56Z</time></trkpt>
<trkpt lat="41.082013" lon="-8.29573">
<ele>31</ele>
<time>2026-05-08T03:40:59Z</time></trkpt>
<trkpt lat="41.081884" lon="-8.295758">
<ele>30</ele>
<time>2026-05-08T03:41:01Z</time></trkpt>
<trkpt lat="41.081824" lon="-8.295803">
<ele>29</ele>
<time>2026-05-08T03:41:03Z</time></trkpt>
<trkpt lat="41.081737" lon="-8.295931">
<ele>30</ele>
<time>2026-05-08T03:41:05Z</time></trkpt>
<trkpt lat="41.08156" lon="-8.296273">
<ele>32</ele>
<time>2026-05-08T03:41:11Z</time></trkpt>
<trkpt lat="41.081468" lon="-8.296513">
<ele>34</ele>
<time>2026-05-08T03:41:15Z</time></trkpt>
<trkpt lat="41.081415" lon="-8.296882">
<ele>38</ele>
<time>2026-05-08T03:41:21Z</time></trkpt>
<trkpt lat="41.081382" lon="-8.296995">
<ele>39</ele>
<time>2026-05-08T03:41:23Z</time></trkpt>
<trkpt lat="41.081333" lon="-8.297086">
<ele>40</ele>
<time>2026-05-08T03:41:25Z</time></trkpt>
<trkpt lat="41.081188" lon="-8.297217">
<ele>39</ele>
<time>2026-05-08T03:41:28Z</time></trkpt>
<trkpt lat="41.080609" lon="-8.297421">
<ele>33</ele>
<time>2026-05-08T03:41:40Z</time></trkpt>
<trkpt lat="41.080508" lon="-8.297491">
<ele>33</ele>
<time>2026-05-08T03:41:42Z</time></trkpt>
<trkpt lat="41.080449" lon="-8.297609">
<ele>35</ele>
<time>2026-05-08T03:41:45Z</time></trkpt>
<trkpt lat="41.080429" lon="-8.297759">
<ele>38</ele>
<time>2026-05-08T03:41:47Z</time></trkpt>
<trkpt lat="41.080428" lon="-8.29793">
<ele>42</ele>
<time>2026-05-08T03:41:49Z</time></trkpt>
<trkpt lat="41.080457" lon="-8.298032">
<ele>45</ele>
<time>2026-05-08T03:41:51Z</time></trkpt>
<trkpt lat="41.080534" lon="-8.298074">
<ele>47</ele>
<time>2026-05-08T03:41:53Z</time></trkpt>
<trkpt lat="41.080565" lon="-8.298113">
<ele>48</ele>
<time>2026-05-08T03:41:54Z</time></trkpt>
<trkpt lat="41.0806" lon="-8.298211">
<ele>51</ele>
<time>2026-05-08T03:41:55Z</time></trkpt>
<trkpt lat="41.080604" lon="-8.298266">
<ele>52</ele>
<time>2026-05-08T03:41:56Z</time></trkpt>
<trkpt lat="41.080568" lon="-8.298398">
<ele>54</ele>
<time>2026-05-08T03:41:58Z</time></trkpt>
<trkpt lat="41.08048" lon="-8.298477">
<ele>55</ele>
<time>2026-05-08T03:42:00Z</time></trkpt>
<trkpt lat="41.080383" lon="-8.298477">
<ele>54</ele>
<time>2026-05-08T03:42:02Z</time></trkpt>
<trkpt lat="41.080137" lon="-8.298608">
<ele>53</ele>
<time>2026-05-08T03:42:08Z</time></trkpt>
<trkpt lat="41.080075" lon="-8.298658">
<ele>53</ele>
<time>2026-05-08T03:42:09Z</time></trkpt>
<trkpt lat="41.079938" lon="-8.2987">
<ele>53</ele>
<time>2026-05-08T03:42:12Z</time></trkpt>
<trkpt lat="41.079514" lon="-8.298608">
<ele>51</ele>
<time>2026-05-08T03:42:20Z</time></trkpt>
<trkpt lat="41.079344" lon="-8.298601">
<ele>51</ele>
<time>2026-05-08T03:42:24Z</time></trkpt>
<trkpt lat="41.07913" lon="-8.298663">
<ele>51</ele>
<time>2026-05-08T03:42:28Z</time></trkpt>
<trkpt lat="41.078925" lon="-8.298768">
<ele>48</ele>
<time>2026-05-08T03:42:33Z</time></trkpt>
<trkpt lat="41.078762" lon="-8.29891">
<ele>47</ele>
<time>2026-05-08T03:42:37Z</time></trkpt>
<trkpt lat="41.078189" lon="-8.299726">
<ele>52</ele>
<time>2026-05-08T03:42:53Z</time></trkpt>
<trkpt lat="41.077803" lon="-8.300207">
<ele>54</ele>
<time>2026-05-08T03:43:04Z</time></trkpt>
<trkpt lat="41.07747" lon="-8.300528">
<ele>53</ele>
<time>2026-05-08T03:43:12Z</time></trkpt>
<trkpt lat="41.077211" lon="-8.300655">
<ele>51</ele>
<time>2026-05-08T03:43:18Z</time></trkpt>
<trkpt lat="41.076528" lon="-8.300784">
<ele>46</ele>
<time>2026-05-08T03:43:32Z</time></trkpt>
<trkpt lat="41.076042" lon="-8.301022">
<ele>50</ele>
<time>2026-05-08T03:43:42Z</time></trkpt>
<trkpt lat="41.076042" lon="-8.301022">
<ele>50</ele>
<time>2026-05-08T03:43:42Z</time></trkpt>
<trkpt lat="41.075771" lon="-8.301155">
<ele>51</ele>
<time>2026-05-08T03:43:48Z</time></trkpt>
<trkpt lat="41.073377" lon="-8.301605">
<ele>57</ele>
<time>2026-05-08T03:44:36Z</time></trkpt>
<trkpt lat="41.072548" lon="-8.301857">
<ele>52</ele>
<time>2026-05-08T03:44:53Z</time></trkpt>
<trkpt lat="41.07209" lon="-8.302025">
<ele>48</ele>
<time>2026-05-08T03:45:03Z</time></trkpt>
<trkpt lat="41.071463" lon="-8.302309">
<ele>44</ele>
<time>2026-05-08T03:45:16Z</time></trkpt>
<trkpt lat="41.071015" lon="-8.302579">
<ele>44</ele>
<time>2026-05-08T03:45:26Z</time></trkpt>
<trkpt lat="41.070532" lon="-8.302976">
<ele>47</ele>
<time>2026-05-08T03:45:37Z</time></trkpt>
<trkpt lat="41.070211" lon="-8.303401">
<ele>47</ele>
<time>2026-05-08T03:45:46Z</time></trkpt>
<trkpt lat="41.069842" lon="-8.303985">
<ele>60</ele>
<time>2026-05-08T03:45:58Z</time></trkpt>
<trkpt lat="41.069638" lon="-8.304151">
<ele>60</ele>
<time>2026-05-08T03:46:03Z</time></trkpt>
<trkpt lat="41.068612" lon="-8.304571">
<ele>47</ele>
<time>2026-05-08T03:46:24Z</time></trkpt>
<trkpt lat="41.068408" lon="-8.304691">
<ele>47</ele>
<time>2026-05-08T03:46:29Z</time></trkpt>
<trkpt lat="41.06818" lon="-8.304941">
<ele>51</ele>
<time>2026-05-08T03:46:35Z</time></trkpt>
<trkpt lat="41.067326" lon="-8.305977">
<ele>48</ele>
<time>2026-05-08T03:46:58Z</time></trkpt>
<trkpt lat="41.067182" lon="-8.306239">
<ele>48</ele>
<time>2026-05-08T03:47:03Z</time></trkpt>
<trkpt lat="41.066838" lon="-8.307135">
<ele>50</ele>
<time>2026-05-08T03:47:18Z</time></trkpt>
<trkpt lat="41.066734" lon="-8.307317">
<ele>49</ele>
<time>2026-05-08T03:47:21Z</time></trkpt>
<trkpt lat="41.066248" lon="-8.307977">
<ele>39</ele>
<time>2026-05-08T03:47:35Z</time></trkpt>
<trkpt lat="41.066021" lon="-8.308342">
<ele>38</ele>
<time>2026-05-08T03:47:42Z</time></trkpt>
<trkpt lat="41.065976" lon="-8.308533">
<ele>37</ele>
<time>2026-05-08T03:47:46Z</time></trkpt>
<trkpt lat="41.06596" lon="-8.308768">
<ele>36</ele>
<time>2026-05-08T03:47:49Z</time></trkpt>
<trkpt lat="41.066011" lon="-8.30909">
<ele>37</ele>
<time>2026-05-08T03:47:54Z</time></trkpt>
<trkpt lat="41.066068" lon="-8.309217">
<ele>38</ele>
<time>2026-05-08T03:47:56Z</time></trkpt>
<trkpt lat="41.066191" lon="-8.309352">
<ele>39</ele>
<time>2026-05-08T03:47:59Z</time></trkpt>
<trkpt lat="41.066336" lon="-8.309396">
<ele>42</ele>
<time>2026-05-08T03:48:02Z</time></trkpt>
<trkpt lat="41.066795" lon="-8.30943">
<ele>49</ele>
<time>2026-05-08T03:48:12Z</time></trkpt>
<trkpt lat="41.066925" lon="-8.309477">
<ele>51</ele>
<time>2026-05-08T03:48:14Z</time></trkpt>
<trkpt lat="41.067042" lon="-8.309567">
<ele>52</ele>
<time>2026-05-08T03:48:17Z</time></trkpt>
<trkpt lat="41.067128" lon="-8.309711">
<ele>53</ele>
<time>2026-05-08T03:48:20Z</time></trkpt>
<trkpt lat="41.06718" lon="-8.309873">
<ele>54</ele>
<time>2026-05-08T03:48:23Z</time></trkpt>
<trkpt lat="41.06717" lon="-8.310168">
<ele>58</ele>
<time>2026-05-08T03:48:27Z</time></trkpt>
<trkpt lat="41.067106" lon="-8.310334">
<ele>61</ele>
<time>2026-05-08T03:48:30Z</time></trkpt>
<trkpt lat="41.066968" lon="-8.310474">
<ele>62</ele>
<time>2026-05-08T03:48:33Z</time></trkpt>
<trkpt lat="41.064465" lon="-8.311798">
<ele>57</ele>
<time>2026-05-08T03:49:27Z</time></trkpt>
<trkpt lat="41.064298" lon="-8.31195">
<ele>58</ele>
<time>2026-05-08T03:49:31Z</time></trkpt>
<trkpt lat="41.063366" lon="-8.313262">
<ele>61</ele>
<time>2026-05-08T03:49:59Z</time></trkpt>
<trkpt lat="41.063272" lon="-8.313419">
<ele>61</ele>
<time>2026-05-08T03:50:02Z</time></trkpt>
<trkpt lat="41.063228" lon="-8.313608">
<ele>62</ele>
<time>2026-05-08T03:50:05Z</time></trkpt>
<trkpt lat="41.063002" lon="-8.315138">
<ele>75</ele>
<time>2026-05-08T03:50:28Z</time></trkpt>
<trkpt lat="41.062962" lon="-8.315322">
<ele>76</ele>
<time>2026-05-08T03:50:31Z</time></trkpt>
<trkpt lat="41.062826" lon="-8.315543">
<ele>77</ele>
<time>2026-05-08T03:50:35Z</time></trkpt>
<trkpt lat="41.062614" lon="-8.315614">
<ele>75</ele>
<time>2026-05-08T03:50:40Z</time></trkpt>
<trkpt lat="41.062476" lon="-8.315578">
<ele>72</ele>
<time>2026-05-08T03:50:43Z</time></trkpt>
<trkpt lat="41.061761" lon="-8.315237">
<ele>71</ele>
<time>2026-05-08T03:50:58Z</time></trkpt>
<trkpt lat="41.061551" lon="-8.315208">
<ele>70</ele>
<time>2026-05-08T03:51:02Z</time></trkpt>
<trkpt lat="41.061383" lon="-8.315289">
<ele>69</ele>
<time>2026-05-08T03:51:06Z</time></trkpt>
<trkpt lat="41.061289" lon="-8.315446">
<ele>68</ele>
<time>2026-05-08T03:51:09Z</time></trkpt>
<trkpt lat="41.061134" lon="-8.316161">
<ele>73</ele>
<time>2026-05-08T03:51:20Z</time></trkpt>
<trkpt lat="41.060577" lon="-8.317129">
<ele>73</ele>
<time>2026-05-08T03:51:38Z</time></trkpt>
<trkpt lat="41.06049" lon="-8.317362">
<ele>73</ele>
<time>2026-05-08T03:51:42Z</time></trkpt>
<trkpt lat="41.060427" lon="-8.318068">
<ele>71</ele>
<time>2026-05-08T03:51:53Z</time></trkpt>
<trkpt lat="41.060427" lon="-8.31867">
<ele>67</ele>
<time>2026-05-08T03:52:02Z</time></trkpt>
<trkpt lat="41.06046" lon="-8.318892">
<ele>66</ele>
<time>2026-05-08T03:52:05Z</time></trkpt>
<trkpt lat="41.060571" lon="-8.319115">
<ele>69</ele>
<time>2026-05-08T03:52:09Z</time></trkpt>
<trkpt lat="41.060868" lon="-8.319372">
<ele>82</ele>
<time>2026-05-08T03:52:17Z</time></trkpt>
<trkpt lat="41.060929" lon="-8.319498">
<ele>84</ele>
<time>2026-05-08T03:52:19Z</time></trkpt>
<trkpt lat="41.060962" lon="-8.319624">
<ele>85</ele>
<time>2026-05-08T03:52:21Z</time></trkpt>
<trkpt lat="41.060965" lon="-8.319775">
<ele>85</ele>
<time>2026-05-08T03:52:23Z</time></trkpt>
<trkpt lat="41.060939" lon="-8.319894">
<ele>83</ele>
<time>2026-05-08T03:52:25Z</time></trkpt>
<trkpt lat="41.060706" lon="-8.320362">
<ele>76</ele>
<time>2026-05-08T03:52:33Z</time></trkpt>
<trkpt lat="41.060662" lon="-8.320586">
<ele>76</ele>
<time>2026-05-08T03:52:37Z</time></trkpt>
<trkpt lat="41.060658" lon="-8.320746">
<ele>77</ele>
<time>2026-05-08T03:52:39Z</time></trkpt>
<trkpt lat="41.060738" lon="-8.321491">
<ele>78</ele>
<time>2026-05-08T03:52:51Z</time></trkpt>
<trkpt lat="41.060781" lon="-8.321688">
<ele>78</ele>
<time>2026-05-08T03:52:54Z</time></trkpt>
<trkpt lat="41.060861" lon="-8.32189">
<ele>78</ele>
<time>2026-05-08T03:52:57Z</time></trkpt>
<trkpt lat="41.060993" lon="-8.322005">
<ele>79</ele>
<time>2026-05-08T03:53:00Z</time></trkpt>
<trkpt lat="41.06166" lon="-8.322268">
<ele>88</ele>
<time>2026-05-08T03:53:14Z</time></trkpt>
<trkpt lat="41.061785" lon="-8.322404">
<ele>88</ele>
<time>2026-05-08T03:53:18Z</time></trkpt>
<trkpt lat="41.061835" lon="-8.322615">
<ele>89</ele>
<time>2026-05-08T03:53:21Z</time></trkpt>
<trkpt lat="41.06182" lon="-8.322813">
<ele>91</ele>
<time>2026-05-08T03:53:24Z</time></trkpt>
<trkpt lat="41.061725" lon="-8.322985">
<ele>91</ele>
<time>2026-05-08T03:53:27Z</time></trkpt>
<trkpt lat="41.060882" lon="-8.323877">
<ele>80</ele>
<time>2026-05-08T03:53:49Z</time></trkpt>
<trkpt lat="41.060779" lon="-8.324066">
<ele>79</ele>
<time>2026-05-08T03:53:52Z</time></trkpt>
<trkpt lat="41.060372" lon="-8.325797">
<ele>74</ele>
<time>2026-05-08T03:54:20Z</time></trkpt>
<trkpt lat="41.060348" lon="-8.325981">
<ele>74</ele>
<time>2026-05-08T03:54:23Z</time></trkpt>
<trkpt lat="41.060367" lon="-8.326182">
<ele>76</ele>
<time>2026-05-08T03:54:26Z</time></trkpt>
<trkpt lat="41.06047" lon="-8.326833">
<ele>85</ele>
<time>2026-05-08T03:54:36Z</time></trkpt>
<trkpt lat="41.06047" lon="-8.326833">
<ele>85</ele>
<time>2026-05-08T03:54:36Z</time></trkpt>
<trkpt lat="41.060539" lon="-8.327264">
<ele>90</ele>
<time>2026-05-08T03:54:42Z</time></trkpt>
<trkpt lat="41.060547" lon="-8.327451">
<ele>90</ele>
<time>2026-05-08T03:54:45Z</time></trkpt>
<trkpt lat="41.060514" lon="-8.32763">
<ele>92</ele>
<time>2026-05-08T03:54:48Z</time></trkpt>
<trkpt lat="41.060482" lon="-8.327716">
<ele>93</ele>
<time>2026-05-08T03:54:49Z</time></trkpt>
<trkpt lat="41.060375" lon="-8.327869">
<ele>94</ele>
<time>2026-05-08T03:54:53Z</time></trkpt>
<trkpt lat="41.060283" lon="-8.327951">
<ele>94</ele>
<time>2026-05-08T03:54:55Z</time></trkpt>
<trkpt lat="41.060179" lon="-8.328">
<ele>93</ele>
<time>2026-05-08T03:54:57Z</time></trkpt>
<trkpt lat="41.059992" lon="-8.328029">
<ele>89</ele>
<time>2026-05-08T03:55:01Z</time></trkpt>
<trkpt lat="41.059856" lon="-8.328091">
<ele>85</ele>
<time>2026-05-08T03:55:04Z</time></trkpt>
<trkpt lat="41.059754" lon="-8.328181">
<ele>84</ele>
<time>2026-05-08T03:55:06Z</time></trkpt>
<trkpt lat="41.059644" lon="-8.328335">
<ele>83</ele>
<time>2026-05-08T03:55:09Z</time></trkpt>
<trkpt lat="41.058571" lon="-8.330831">
<ele>104</ele>
<time>2026-05-08T03:55:53Z</time></trkpt>
<trkpt lat="41.058426" lon="-8.331058">
<ele>103</ele>
<time>2026-05-08T03:55:57Z</time></trkpt>
<trkpt lat="41.058056" lon="-8.331471">
<ele>95</ele>
<time>2026-05-08T03:56:07Z</time></trkpt>
<trkpt lat="41.057982" lon="-8.33162">
<ele>95</ele>
<time>2026-05-08T03:56:10Z</time></trkpt>
<trkpt lat="41.057928" lon="-8.331769">
<ele>97</ele>
<time>2026-05-08T03:56:12Z</time></trkpt>
<trkpt lat="41.057877" lon="-8.332179">
<ele>107</ele>
<time>2026-05-08T03:56:18Z</time></trkpt>
<trkpt lat="41.057773" lon="-8.332427">
<ele>108</ele>
<time>2026-05-08T03:56:23Z</time></trkpt>
<trkpt lat="41.057291" lon="-8.332957">
<ele>99</ele>
<time>2026-05-08T03:56:35Z</time></trkpt>
<trkpt lat="41.057197" lon="-8.333108">
<ele>100</ele>
<time>2026-05-08T03:56:38Z</time></trkpt>
<trkpt lat="41.056911" lon="-8.333751">
<ele>112</ele>
<time>2026-05-08T03:56:49Z</time></trkpt>
<trkpt lat="41.056827" lon="-8.333862">
<ele>112</ele>
<time>2026-05-08T03:56:52Z</time></trkpt>
<trkpt lat="41.056722" lon="-8.333938">
<ele>110</ele>
<time>2026-05-08T03:56:54Z</time></trkpt>
<trkpt lat="41.056311" lon="-8.334064">
<ele>102</ele>
<time>2026-05-08T03:57:03Z</time></trkpt>
<trkpt lat="41.056126" lon="-8.334179">
<ele>102</ele>
<time>2026-05-08T03:57:07Z</time></trkpt>
<trkpt lat="41.05548" lon="-8.334799">
<ele>99</ele>
<time>2026-05-08T03:57:23Z</time></trkpt>
<trkpt lat="41.055374" lon="-8.334942">
<ele>98</ele>
<time>2026-05-08T03:57:26Z</time></trkpt>
<trkpt lat="41.05531" lon="-8.335105">
<ele>100</ele>
<time>2026-05-08T03:57:29Z</time></trkpt>
<trkpt lat="41.055108" lon="-8.336143">
<ele>127</ele>
<time>2026-05-08T03:57:45Z</time></trkpt>
<trkpt lat="41.055047" lon="-8.33635">
<ele>131</ele>
<time>2026-05-08T03:57:48Z</time></trkpt>
<trkpt lat="41.054949" lon="-8.336508">
<ele>131</ele>
<time>2026-05-08T03:57:51Z</time></trkpt>
<trkpt lat="41.054482" lon="-8.336913">
<ele>118</ele>
<time>2026-05-08T03:58:02Z</time></trkpt>
<trkpt lat="41.054247" lon="-8.337204">
<ele>116</ele>
<time>2026-05-08T03:58:09Z</time></trkpt>
<trkpt lat="41.053923" lon="-8.337783">
<ele>120</ele>
<time>2026-05-08T03:58:20Z</time></trkpt>
<trkpt lat="41.053663" lon="-8.338286">
<ele>125</ele>
<time>2026-05-08T03:58:29Z</time></trkpt>
<trkpt lat="41.053523" lon="-8.338443">
<ele>123</ele>
<time>2026-05-08T03:58:33Z</time></trkpt>
<trkpt lat="41.053224" lon="-8.338672">
<ele>117</ele>
<time>2026-05-08T03:58:40Z</time></trkpt>
<trkpt lat="41.052216" lon="-8.340189">
<ele>126</ele>
<time>2026-05-08T03:59:10Z</time></trkpt>
<trkpt lat="41.052145" lon="-8.340354">
<ele>126</ele>
<time>2026-05-08T03:59:13Z</time></trkpt>
<trkpt lat="41.051981" lon="-8.341187">
<ele>127</ele>
<time>2026-05-08T03:59:26Z</time></trkpt>
<trkpt lat="41.051905" lon="-8.341414">
<ele>128</ele>
<time>2026-05-08T03:59:30Z</time></trkpt>
<trkpt lat="41.05174" lon="-8.341615">
<ele>127</ele>
<time>2026-05-08T03:59:34Z</time></trkpt>
<trkpt lat="41.051304" lon="-8.34186">
<ele>122</ele>
<time>2026-05-08T03:59:44Z</time></trkpt>
<trkpt lat="41.051157" lon="-8.342012">
<ele>120</ele>
<time>2026-05-08T03:59:47Z</time></trkpt>
<trkpt lat="41.051077" lon="-8.342206">
<ele>119</ele>
<time>2026-05-08T03:59:51Z</time></trkpt>
<trkpt lat="41.051069" lon="-8.342282">
<ele>119</ele>
<time>2026-05-08T03:59:52Z</time></trkpt>
<trkpt lat="41.051078" lon="-8.342484">
<ele>120</ele>
<time>2026-05-08T03:59:55Z</time></trkpt>
<trkpt lat="41.051173" lon="-8.342935">
<ele>119</ele>
<time>2026-05-08T04:00:02Z</time></trkpt>
<trkpt lat="41.05137" lon="-8.343619">
<ele>117</ele>
<time>2026-05-08T04:00:13Z</time></trkpt>
<trkpt lat="41.051812" lon="-8.344656">
<ele>112</ele>
<time>2026-05-08T04:00:31Z</time></trkpt>
<trkpt lat="41.051864" lon="-8.34489">
<ele>111</ele>
<time>2026-05-08T04:00:35Z</time></trkpt>
<trkpt lat="41.051842" lon="-8.345102">
<ele>111</ele>
<time>2026-05-08T04:00:38Z</time></trkpt>
<trkpt lat="41.051796" lon="-8.345275">
<ele>110</ele>
<time>2026-05-08T04:00:41Z</time></trkpt>
<trkpt lat="41.051564" lon="-8.345864">
<ele>109</ele>
<time>2026-05-08T04:00:51Z</time></trkpt>
<trkpt lat="41.051527" lon="-8.346093">
<ele>108</ele>
<time>2026-05-08T04:00:54Z</time></trkpt>
<trkpt lat="41.051538" lon="-8.346311">
<ele>108</ele>
<time>2026-05-08T04:00:58Z</time></trkpt>
<trkpt lat="41.052094" lon="-8.348953">
<ele>110</ele>
<time>2026-05-08T04:01:39Z</time></trkpt>
<trkpt lat="41.052126" lon="-8.349276">
<ele>109</ele>
<time>2026-05-08T04:01:44Z</time></trkpt>
<trkpt lat="41.052098" lon="-8.349528">
<ele>109</ele>
<time>2026-05-08T04:01:48Z</time></trkpt>
<trkpt lat="41.052029" lon="-8.349762">
<ele>108</ele>
<time>2026-05-08T04:01:52Z</time></trkpt>
<trkpt lat="41.051773" lon="-8.35037">
<ele>107</ele>
<time>2026-05-08T04:02:02Z</time></trkpt>
<trkpt lat="41.051733" lon="-8.350429">
<ele>107</ele>
<time>2026-05-08T04:02:03Z</time></trkpt>
<trkpt lat="41.051612" lon="-8.350543">
<ele>107</ele>
<time>2026-05-08T04:02:06Z</time></trkpt>
<trkpt lat="41.051449" lon="-8.350596">
<ele>108</ele>
<time>2026-05-08T04:02:10Z</time></trkpt>
<trkpt lat="41.051365" lon="-8.350603">
<ele>109</ele>
<time>2026-05-08T04:02:11Z</time></trkpt>
<trkpt lat="41.051295" lon="-8.350582">
<ele>109</ele>
<time>2026-05-08T04:02:13Z</time></trkpt>
<trkpt lat="41.050283" lon="-8.350033">
<ele>102</ele>
<time>2026-05-08T04:02:35Z</time></trkpt>
<trkpt lat="41.050187" lon="-8.350022">
<ele>101</ele>
<time>2026-05-08T04:02:37Z</time></trkpt>
<trkpt lat="41.050046" lon="-8.350064">
<ele>102</ele>
<time>2026-05-08T04:02:40Z</time></trkpt>
<trkpt lat="41.050046" lon="-8.350064">
<ele>102</ele>
<time>2026-05-08T04:02:40Z</time></trkpt>
<trkpt lat="41.049913" lon="-8.350142">
<ele>100</ele>
<time>2026-05-08T04:02:43Z</time></trkpt>
<trkpt lat="41.049813" lon="-8.350275">
<ele>99</ele>
<time>2026-05-08T04:02:45Z</time></trkpt>
<trkpt lat="41.049713" lon="-8.350509">
<ele>98</ele>
<time>2026-05-08T04:02:49Z</time></trkpt>
<trkpt lat="41.049295" lon="-8.352366">
<ele>96</ele>
<time>2026-05-08T04:03:19Z</time></trkpt>
<trkpt lat="41.049286" lon="-8.352606">
<ele>96</ele>
<time>2026-05-08T04:03:22Z</time></trkpt>
<trkpt lat="41.049342" lon="-8.352846">
<ele>96</ele>
<time>2026-05-08T04:03:26Z</time></trkpt>
<trkpt lat="41.049446" lon="-8.353016">
<ele>96</ele>
<time>2026-05-08T04:03:29Z</time></trkpt>
<trkpt lat="41.049903" lon="-8.353379">
<ele>94</ele>
<time>2026-05-08T04:03:40Z</time></trkpt>
<trkpt lat="41.05002" lon="-8.353505">
<ele>93</ele>
<time>2026-05-08T04:03:43Z</time></trkpt>
<trkpt lat="41.050078" lon="-8.353606">
<ele>93</ele>
<time>2026-05-08T04:03:45Z</time></trkpt>
<trkpt lat="41.050124" lon="-8.353818">
<ele>92</ele>
<time>2026-05-08T04:03:48Z</time></trkpt>
<trkpt lat="41.050152" lon="-8.354312">
<ele>89</ele>
<time>2026-05-08T04:03:56Z</time></trkpt>
<trkpt lat="41.050182" lon="-8.35442">
<ele>88</ele>
<time>2026-05-08T04:03:58Z</time></trkpt>
<trkpt lat="41.050284" lon="-8.354625">
<ele>87</ele>
<time>2026-05-08T04:04:01Z</time></trkpt>
<trkpt lat="41.050676" lon="-8.35512">
<ele>87</ele>
<time>2026-05-08T04:04:12Z</time></trkpt>
<trkpt lat="41.050995" lon="-8.355554">
<ele>85</ele>
<time>2026-05-08T04:04:21Z</time></trkpt>
<trkpt lat="41.051046" lon="-8.355666">
<ele>85</ele>
<time>2026-05-08T04:04:23Z</time></trkpt>
<trkpt lat="41.051064" lon="-8.355857">
<ele>84</ele>
<time>2026-05-08T04:04:26Z</time></trkpt>
<trkpt lat="41.051044" lon="-8.356015">
<ele>84</ele>
<time>2026-05-08T04:04:29Z</time></trkpt>
<trkpt lat="41.051001" lon="-8.35612">
<ele>85</ele>
<time>2026-05-08T04:04:30Z</time></trkpt>
<trkpt lat="41.050912" lon="-8.356238">
<ele>85</ele>
<time>2026-05-08T04:04:33Z</time></trkpt>
<trkpt lat="41.050782" lon="-8.356319">
<ele>85</ele>
<time>2026-05-08T04:04:36Z</time></trkpt>
<trkpt lat="41.04943" lon="-8.356612">
<ele>79</ele>
<time>2026-05-08T04:05:03Z</time></trkpt>
<trkpt lat="41.049269" lon="-8.356705">
<ele>78</ele>
<time>2026-05-08T04:05:07Z</time></trkpt>
<trkpt lat="41.048996" lon="-8.35707">
<ele>77</ele>
<time>2026-05-08T04:05:15Z</time></trkpt>
<trkpt lat="41.048928" lon="-8.357191">
<ele>77</ele>
<time>2026-05-08T04:05:17Z</time></trkpt>
<trkpt lat="41.048899" lon="-8.357283">
<ele>77</ele>
<time>2026-05-08T04:05:18Z</time></trkpt>
<trkpt lat="41.048883" lon="-8.357435">
<ele>78</ele>
<time>2026-05-08T04:05:21Z</time></trkpt>
<trkpt lat="41.048911" lon="-8.357667">
<ele>78</ele>
<time>2026-05-08T04:05:24Z</time></trkpt>
<trkpt lat="41.049006" lon="-8.358001">
<ele>77</ele>
<time>2026-05-08T04:05:30Z</time></trkpt>
<trkpt lat="41.049059" lon="-8.358372">
<ele>76</ele>
<time>2026-05-08T04:05:35Z</time></trkpt>
<trkpt lat="41.049048" lon="-8.358776">
<ele>74</ele>
<time>2026-05-08T04:05:41Z</time></trkpt>
<trkpt lat="41.048956" lon="-8.359278">
<ele>69</ele>
<time>2026-05-08T04:05:49Z</time></trkpt>
<trkpt lat="41.048948" lon="-8.359459">
<ele>68</ele>
<time>2026-05-08T04:05:52Z</time></trkpt>
<trkpt lat="41.04898" lon="-8.359627">
<ele>67</ele>
<time>2026-05-08T04:05:55Z</time></trkpt>
<trkpt lat="41.049048" lon="-8.359781">
<ele>67</ele>
<time>2026-05-08T04:05:57Z</time></trkpt>
<trkpt lat="41.049238" lon="-8.360036">
<ele>67</ele>
<time>2026-05-08T04:06:03Z</time></trkpt>
<trkpt lat="41.050029" lon="-8.360991">
<ele>63</ele>
<time>2026-05-08T04:06:24Z</time></trkpt>
<trkpt lat="41.050202" lon="-8.36122">
<ele>64</ele>
<time>2026-05-08T04:06:29Z</time></trkpt>
<trkpt lat="41.050238" lon="-8.361294">
<ele>65</ele>
<time>2026-05-08T04:06:30Z</time></trkpt>
<trkpt lat="41.050271" lon="-8.361403">
<ele>64</ele>
<time>2026-05-08T04:06:32Z</time></trkpt>
<trkpt lat="41.050292" lon="-8.361598">
<ele>64</ele>
<time>2026-05-08T04:06:35Z</time></trkpt>
<trkpt lat="41.050272" lon="-8.361755">
<ele>63</ele>
<time>2026-05-08T04:06:38Z</time></trkpt>
<trkpt lat="41.050229" lon="-8.361881">
<ele>62</ele>
<time>2026-05-08T04:06:40Z</time></trkpt>
<trkpt lat="41.05002" lon="-8.362354">
<ele>58</ele>
<time>2026-05-08T04:06:48Z</time></trkpt>
<trkpt lat="41.049982" lon="-8.362545">
<ele>57</ele>
<time>2026-05-08T04:06:51Z</time></trkpt>
<trkpt lat="41.049996" lon="-8.362771">
<ele>54</ele>
<time>2026-05-08T04:06:54Z</time></trkpt>
<trkpt lat="41.050061" lon="-8.362977">
<ele>52</ele>
<time>2026-05-08T04:06:58Z</time></trkpt>
<trkpt lat="41.050118" lon="-8.363067">
<ele>51</ele>
<time>2026-05-08T04:06:59Z</time></trkpt>
<trkpt lat="41.050264" lon="-8.363205">
<ele>51</ele>
<time>2026-05-08T04:07:03Z</time></trkpt>
<trkpt lat="41.050603" lon="-8.363342">
<ele>54</ele>
<time>2026-05-08T04:07:10Z</time></trkpt>
<trkpt lat="41.050699" lon="-8.363415">
<ele>54</ele>
<time>2026-05-08T04:07:12Z</time></trkpt>
<trkpt lat="41.050789" lon="-8.363531">
<ele>54</ele>
<time>2026-05-08T04:07:15Z</time></trkpt>
<trkpt lat="41.050881" lon="-8.363712">
<ele>53</ele>
<time>2026-05-08T04:07:18Z</time></trkpt>
<trkpt lat="41.050933" lon="-8.363889">
<ele>52</ele>
<time>2026-05-08T04:07:21Z</time></trkpt>
<trkpt lat="41.051165" lon="-8.365103">
<ele>45</ele>
<time>2026-05-08T04:07:40Z</time></trkpt>
<trkpt lat="41.05119" lon="-8.365188">
<ele>44</ele>
<time>2026-05-08T04:07:41Z</time></trkpt>
<trkpt lat="41.051432" lon="-8.365752">
<ele>44</ele>
<time>2026-05-08T04:07:51Z</time></trkpt>
<trkpt lat="41.051621" lon="-8.366331">
<ele>42</ele>
<time>2026-05-08T04:08:01Z</time></trkpt>
<trkpt lat="41.051621" lon="-8.366331">
<ele>42</ele>
<time>2026-05-08T04:08:01Z</time></trkpt>
<trkpt lat="41.052353" lon="-8.368709">
<ele>37</ele>
<time>2026-05-08T04:08:40Z</time></trkpt>
<trkpt lat="41.052421" lon="-8.36935">
<ele>34</ele>
<time>2026-05-08T04:08:49Z</time></trkpt>
<trkpt lat="41.052401" lon="-8.369687">
<ele>34</ele>
<time>2026-05-08T04:08:54Z</time></trkpt>
<trkpt lat="41.052308" lon="-8.370095">
<ele>34</ele>
<time>2026-05-08T04:09:01Z</time></trkpt>
<trkpt lat="41.05227" lon="-8.370346">
<ele>33</ele>
<time>2026-05-08T04:09:05Z</time></trkpt>
<trkpt lat="41.052223" lon="-8.371247">
<ele>32</ele>
<time>2026-05-08T04:09:18Z</time></trkpt>
<trkpt lat="41.052205" lon="-8.371384">
<ele>31</ele>
<time>2026-05-08T04:09:20Z</time></trkpt>
<trkpt lat="41.052182" lon="-8.371502">
<ele>30</ele>
<time>2026-05-08T04:09:22Z</time></trkpt>
<trkpt lat="41.051968" lon="-8.372182">
<ele>30</ele>
<time>2026-05-08T04:09:33Z</time></trkpt>
<trkpt lat="41.051717" lon="-8.373292">
<ele>30</ele>
<time>2026-05-08T04:09:51Z</time></trkpt>
<trkpt lat="41.051498" lon="-8.374678">
<ele>21</ele>
<time>2026-05-08T04:10:12Z</time></trkpt>
<trkpt lat="41.05151" lon="-8.374884">
<ele>21</ele>
<time>2026-05-08T04:10:15Z</time></trkpt>
<trkpt lat="41.051547" lon="-8.375006">
<ele>21</ele>
<time>2026-05-08T04:10:17Z</time></trkpt>
<trkpt lat="41.051645" lon="-8.375173">
<ele>21</ele>
<time>2026-05-08T04:10:21Z</time></trkpt>
<trkpt lat="41.051793" lon="-8.375283">
<ele>20</ele>
<time>2026-05-08T04:10:24Z</time></trkpt>
<trkpt lat="41.051892" lon="-8.375316">
<ele>20</ele>
<time>2026-05-08T04:10:26Z</time></trkpt>
<trkpt lat="41.052351" lon="-8.375398">
<ele>19</ele>
<time>2026-05-08T04:10:35Z</time></trkpt>
<trkpt lat="41.052567" lon="-8.375484">
<ele>21</ele>
<time>2026-05-08T04:10:40Z</time></trkpt>
<trkpt lat="41.052644" lon="-8.375564">
<ele>24</ele>
<time>2026-05-08T04:10:42Z</time></trkpt>
<trkpt lat="41.052711" lon="-8.375677">
<ele>26</ele>
<time>2026-05-08T04:10:44Z</time></trkpt>
<trkpt lat="41.052772" lon="-8.375859">
<ele>30</ele>
<time>2026-05-08T04:10:47Z</time></trkpt>
<trkpt lat="41.052778" lon="-8.376091">
<ele>33</ele>
<time>2026-05-08T04:10:51Z</time></trkpt>
<trkpt lat="41.05271" lon="-8.376338">
<ele>33</ele>
<time>2026-05-08T04:10:55Z</time></trkpt>
<trkpt lat="41.052595" lon="-8.376648">
<ele>32</ele>
<time>2026-05-08T04:11:00Z</time></trkpt>
<trkpt lat="41.05251" lon="-8.376813">
<ele>30</ele>
<time>2026-05-08T04:11:03Z</time></trkpt>
<trkpt lat="41.05217" lon="-8.377268">
<ele>28</ele>
<time>2026-05-08T04:11:12Z</time></trkpt>
<trkpt lat="41.052107" lon="-8.37744">
<ele>28</ele>
<time>2026-05-08T04:11:15Z</time></trkpt>
<trkpt lat="41.052075" lon="-8.377642">
<ele>30</ele>
<time>2026-05-08T04:11:18Z</time></trkpt>
<trkpt lat="41.052088" lon="-8.377938">
<ele>32</ele>
<time>2026-05-08T04:11:23Z</time></trkpt>
<trkpt lat="41.052088" lon="-8.378507">
<ele>39</ele>
<time>2026-05-08T04:11:32Z</time></trkpt>
<trkpt lat="41.052026" lon="-8.378646">
<ele>40</ele>
<time>2026-05-08T04:11:34Z</time></trkpt>
<trkpt lat="41.051887" lon="-8.378808">
<ele>39</ele>
<time>2026-05-08T04:11:38Z</time></trkpt>
<trkpt lat="41.051578" lon="-8.379029">
<ele>33</ele>
<time>2026-05-08T04:11:45Z</time></trkpt>
<trkpt lat="41.051479" lon="-8.379144">
<ele>33</ele>
<time>2026-05-08T04:11:47Z</time></trkpt>
<trkpt lat="41.051418" lon="-8.37931">
<ele>33</ele>
<time>2026-05-08T04:11:50Z</time></trkpt>
<trkpt lat="41.0514" lon="-8.379509">
<ele>34</ele>
<time>2026-05-08T04:11:53Z</time></trkpt>
<trkpt lat="41.051475" lon="-8.380236">
<ele>45</ele>
<time>2026-05-08T04:12:04Z</time></trkpt>
<trkpt lat="41.051478" lon="-8.380416">
<ele>47</ele>
<time>2026-05-08T04:12:07Z</time></trkpt>
<trkpt lat="41.051429" lon="-8.3806">
<ele>48</ele>
<time>2026-05-08T04:12:10Z</time></trkpt>
<trkpt lat="41.051218" lon="-8.380996">
<ele>45</ele>
<time>2026-05-08T04:12:17Z</time></trkpt>
<trkpt lat="41.051194" lon="-8.381091">
<ele>44</ele>
<time>2026-05-08T04:12:19Z</time></trkpt>
<trkpt lat="41.051194" lon="-8.381091">
<ele>44</ele>
<time>2026-05-08T04:12:19Z</time></trkpt>
<trkpt lat="41.051178" lon="-8.381158">
<ele>44</ele>
<time>2026-05-08T04:12:20Z</time></trkpt>
<trkpt lat="41.051171" lon="-8.381345">
<ele>45</ele>
<time>2026-05-08T04:12:23Z</time></trkpt>
<trkpt lat="41.051233" lon="-8.381826">
<ele>50</ele>
<time>2026-05-08T04:12:30Z</time></trkpt>
<trkpt lat="41.051226" lon="-8.381948">
<ele>50</ele>
<time>2026-05-08T04:12:32Z</time></trkpt>
<trkpt lat="41.051112" lon="-8.382447">
<ele>47</ele>
<time>2026-05-08T04:12:40Z</time></trkpt>
<trkpt lat="41.051107" lon="-8.382635">
<ele>46</ele>
<time>2026-05-08T04:12:43Z</time></trkpt>
<trkpt lat="41.051161" lon="-8.382837">
<ele>48</ele>
<time>2026-05-08T04:12:46Z</time></trkpt>
<trkpt lat="41.051376" lon="-8.383333">
<ele>55</ele>
<time>2026-05-08T04:12:54Z</time></trkpt>
<trkpt lat="41.051423" lon="-8.383521">
<ele>57</ele>
<time>2026-05-08T04:12:57Z</time></trkpt>
<trkpt lat="41.051423" lon="-8.383728">
<ele>58</ele>
<time>2026-05-08T04:13:01Z</time></trkpt>
<trkpt lat="41.051275" lon="-8.384216">
<ele>54</ele>
<time>2026-05-08T04:13:09Z</time></trkpt>
<trkpt lat="41.051112" lon="-8.385699">
<ele>49</ele>
<time>2026-05-08T04:13:31Z</time></trkpt>
<trkpt lat="41.051099" lon="-8.386117">
<ele>48</ele>
<time>2026-05-08T04:13:38Z</time></trkpt>
<trkpt lat="41.051123" lon="-8.386521">
<ele>47</ele>
<time>2026-05-08T04:13:44Z</time></trkpt>
<trkpt lat="41.051189" lon="-8.386977">
<ele>48</ele>
<time>2026-05-08T04:13:51Z</time></trkpt>
<trkpt lat="41.051281" lon="-8.387455">
<ele>48</ele>
<time>2026-05-08T04:13:58Z</time></trkpt>
<trkpt lat="41.051385" lon="-8.387799">
<ele>47</ele>
<time>2026-05-08T04:14:04Z</time></trkpt>
<trkpt lat="41.051553" lon="-8.38816">
<ele>46</ele>
<time>2026-05-08T04:14:10Z</time></trkpt>
<trkpt lat="41.05174" lon="-8.388454">
<ele>47</ele>
<time>2026-05-08T04:14:16Z</time></trkpt>
<trkpt lat="41.051799" lon="-8.388594">
<ele>48</ele>
<time>2026-05-08T04:14:18Z</time></trkpt>
<trkpt lat="41.051836" lon="-8.388834">
<ele>48</ele>
<time>2026-05-08T04:14:22Z</time></trkpt>
<trkpt lat="41.051823" lon="-8.389509">
<ele>41</ele>
<time>2026-05-08T04:14:32Z</time></trkpt>
<trkpt lat="41.051856" lon="-8.389717">
<ele>39</ele>
<time>2026-05-08T04:14:35Z</time></trkpt>
<trkpt lat="41.051925" lon="-8.389872">
<ele>39</ele>
<time>2026-05-08T04:14:38Z</time></trkpt>
<trkpt lat="41.052038" lon="-8.389997">
<ele>40</ele>
<time>2026-05-08T04:14:41Z</time></trkpt>
<trkpt lat="41.052479" lon="-8.390339">
<ele>45</ele>
<time>2026-05-08T04:14:51Z</time></trkpt>
<trkpt lat="41.05259" lon="-8.390494">
<ele>46</ele>
<time>2026-05-08T04:14:55Z</time></trkpt>
<trkpt lat="41.052635" lon="-8.390624">
<ele>46</ele>
<time>2026-05-08T04:14:57Z</time></trkpt>
<trkpt lat="41.052649" lon="-8.390766">
<ele>44</ele>
<time>2026-05-08T04:14:59Z</time></trkpt>
<trkpt lat="41.052643" lon="-8.390915">
<ele>42</ele>
<time>2026-05-08T04:15:01Z</time></trkpt>
<trkpt lat="41.05253" lon="-8.391698">
<ele>37</ele>
<time>2026-05-08T04:15:13Z</time></trkpt>
<trkpt lat="41.05252" lon="-8.391989">
<ele>35</ele>
<time>2026-05-08T04:15:18Z</time></trkpt>
<trkpt lat="41.052546" lon="-8.392226">
<ele>34</ele>
<time>2026-05-08T04:15:21Z</time></trkpt>
<trkpt lat="41.052836" lon="-8.39321">
<ele>35</ele>
<time>2026-05-08T04:15:37Z</time></trkpt>
<trkpt lat="41.05293" lon="-8.393405">
<ele>35</ele>
<time>2026-05-08T04:15:41Z</time></trkpt>
<trkpt lat="41.053046" lon="-8.393511">
<ele>36</ele>
<time>2026-05-08T04:15:44Z</time></trkpt>
<trkpt lat="41.053394" lon="-8.393665">
<ele>40</ele>
<time>2026-05-08T04:15:51Z</time></trkpt>
<trkpt lat="41.053544" lon="-8.393803">
<ele>40</ele>
<time>2026-05-08T04:15:55Z</time></trkpt>
<trkpt lat="41.05365" lon="-8.394059">
<ele>39</ele>
<time>2026-05-08T04:15:59Z</time></trkpt>
<trkpt lat="41.053826" lon="-8.394857">
<ele>35</ele>
<time>2026-05-08T04:16:12Z</time></trkpt>
<trkpt lat="41.053923" lon="-8.395174">
<ele>34</ele>
<time>2026-05-08T04:16:17Z</time></trkpt>
<trkpt lat="41.054033" lon="-8.395355">
<ele>34</ele>
<time>2026-05-08T04:16:20Z</time></trkpt>
<trkpt lat="41.054189" lon="-8.395519">
<ele>33</ele>
<time>2026-05-08T04:16:24Z</time></trkpt>
<trkpt lat="41.054938" lon="-8.396091">
<ele>31</ele>
<time>2026-05-08T04:16:42Z</time></trkpt>
<trkpt lat="41.057853" lon="-8.398294">
<ele>26</ele>
<time>2026-05-08T04:17:49Z</time></trkpt>
<trkpt lat="41.057995" lon="-8.398361">
<ele>26</ele>
<time>2026-05-08T04:17:52Z</time></trkpt>
<trkpt lat="41.061099" lon="-8.399314">
<ele>24</ele>
<time>2026-05-08T04:18:56Z</time></trkpt>
<trkpt lat="41.061295" lon="-8.399354">
<ele>24</ele>
<time>2026-05-08T04:19:00Z</time></trkpt>
<trkpt lat="41.0615" lon="-8.399342">
<ele>24</ele>
<time>2026-05-08T04:19:04Z</time></trkpt>
<trkpt lat="41.061688" lon="-8.399245">
<ele>25</ele>
<time>2026-05-08T04:19:08Z</time></trkpt>
<trkpt lat="41.062435" lon="-8.398623">
<ele>29</ele>
<time>2026-05-08T04:19:25Z</time></trkpt>
<trkpt lat="41.062576" lon="-8.398562">
<ele>30</ele>
<time>2026-05-08T04:19:28Z</time></trkpt>
<trkpt lat="41.062735" lon="-8.398565">
<ele>29</ele>
<time>2026-05-08T04:19:32Z</time></trkpt>
<trkpt lat="41.062895" lon="-8.398632">
<ele>29</ele>
<time>2026-05-08T04:19:35Z</time></trkpt>
<trkpt lat="41.063002" lon="-8.398752">
<ele>28</ele>
<time>2026-05-08T04:19:38Z</time></trkpt>
<trkpt lat="41.063053" lon="-8.398836">
<ele>28</ele>
<time>2026-05-08T04:19:39Z</time></trkpt>
<trkpt lat="41.063693" lon="-8.400019">
<ele>26</ele>
<time>2026-05-08T04:20:01Z</time></trkpt>
<trkpt lat="41.063793" lon="-8.400167">
<ele>25</ele>
<time>2026-05-08T04:20:04Z</time></trkpt>
<trkpt lat="41.063982" lon="-8.400343">
<ele>24</ele>
<time>2026-05-08T04:20:09Z</time></trkpt>
<trkpt lat="41.064149" lon="-8.400436">
<ele>24</ele>
<time>2026-05-08T04:20:13Z</time></trkpt>
<trkpt lat="41.064537" lon="-8.400529">
<ele>24</ele>
<time>2026-05-08T04:20:21Z</time></trkpt>
<trkpt lat="41.065463" lon="-8.400693">
<ele>25</ele>
<time>2026-05-08T04:20:39Z</time></trkpt>
<trkpt lat="41.0671284" lon="-8.4010565">
<ele>27</ele>
<time>2026-05-08T04:21:13Z</time></trkpt>
<trkpt lat="41.067181" lon="-8.401068">
<ele>27</ele>
<time>2026-05-08T04:21:14Z</time></trkpt>
<trkpt lat="41.067763" lon="-8.401254">
<ele>25</ele>
<time>2026-05-08T04:21:26Z</time></trkpt>
<trkpt lat="41.068569" lon="-8.401603">
<ele>25</ele>
<time>2026-05-08T04:21:43Z</time></trkpt>
<trkpt lat="41.06912" lon="-8.401934">
<ele>26</ele>
<time>2026-05-08T04:21:55Z</time></trkpt>
<trkpt lat="41.069339" lon="-8.402118">
<ele>25</ele>
<time>2026-05-08T04:22:00Z</time></trkpt>
<trkpt lat="41.069488" lon="-8.40229">
<ele>24</ele>
<time>2026-05-08T04:22:04Z</time></trkpt>
<trkpt lat="41.069643" lon="-8.402393">
<ele>23</ele>
<time>2026-05-08T04:22:08Z</time></trkpt>
<trkpt lat="41.069811" lon="-8.402447">
<ele>23</ele>
<time>2026-05-08T04:22:11Z</time></trkpt>
<trkpt lat="41.069912" lon="-8.402442">
<ele>23</ele>
<time>2026-05-08T04:22:13Z</time></trkpt>
<trkpt lat="41.070072" lon="-8.402385">
<ele>23</ele>
<time>2026-05-08T04:22:17Z</time></trkpt>
<trkpt lat="41.070148" lon="-8.402333">
<ele>24</ele>
<time>2026-05-08T04:22:18Z</time></trkpt>
<trkpt lat="41.070296" lon="-8.40217">
<ele>25</ele>
<time>2026-05-08T04:22:22Z</time></trkpt>
<trkpt lat="41.070763" lon="-8.401468">
<ele>28</ele>
<time>2026-05-08T04:22:36Z</time></trkpt>
<trkpt lat="41.070911" lon="-8.401341">
<ele>28</ele>
<time>2026-05-08T04:22:40Z</time></trkpt>
<trkpt lat="41.071076" lon="-8.4013">
<ele>27</ele>
<time>2026-05-08T04:22:43Z</time></trkpt>
<trkpt lat="41.071417" lon="-8.401348">
<ele>25</ele>
<time>2026-05-08T04:22:50Z</time></trkpt>
<trkpt lat="41.07156" lon="-8.401474">
<ele>24</ele>
<time>2026-05-08T04:22:54Z</time></trkpt>
<trkpt lat="41.071683" lon="-8.401657">
<ele>24</ele>
<time>2026-05-08T04:22:57Z</time></trkpt>
<trkpt lat="41.071808" lon="-8.402075">
<ele>27</ele>
<time>2026-05-08T04:23:04Z</time></trkpt>
<trkpt lat="41.071886" lon="-8.402424">
<ele>28</ele>
<time>2026-05-08T04:23:10Z</time></trkpt>
<trkpt lat="41.072055" lon="-8.402779">
<ele>32</ele>
<time>2026-05-08T04:23:16Z</time></trkpt>
<trkpt lat="41.073552" lon="-8.404825">
<ele>20</ele>
<time>2026-05-08T04:23:59Z</time></trkpt>
<trkpt lat="41.07363" lon="-8.404969">
<ele>21</ele>
<time>2026-05-08T04:24:02Z</time></trkpt>
<trkpt lat="41.073673" lon="-8.405164">
<ele>24</ele>
<time>2026-05-08T04:24:05Z</time></trkpt>
<trkpt lat="41.073663" lon="-8.405344">
<ele>26</ele>
<time>2026-05-08T04:24:07Z</time></trkpt>
<trkpt lat="41.073618" lon="-8.4055">
<ele>27</ele>
<time>2026-05-08T04:24:10Z</time></trkpt>
<trkpt lat="41.073358" lon="-8.405972">
<ele>27</ele>
<time>2026-05-08T04:24:19Z</time></trkpt>
<trkpt lat="41.073273" lon="-8.406183">
<ele>27</ele>
<time>2026-05-08T04:24:22Z</time></trkpt>
<trkpt lat="41.073254" lon="-8.406393">
<ele>27</ele>
<time>2026-05-08T04:24:26Z</time></trkpt>
<trkpt lat="41.073297" lon="-8.406673">
<ele>29</ele>
<time>2026-05-08T04:24:30Z</time></trkpt>
<trkpt lat="41.073297" lon="-8.406673">
<ele>29</ele>
<time>2026-05-08T04:24:30Z</time></trkpt>
<trkpt lat="41.073325" lon="-8.406788">
<ele>28</ele>
<time>2026-05-08T04:24:32Z</time></trkpt>
<trkpt lat="41.073411" lon="-8.406977">
<ele>29</ele>
<time>2026-05-08T04:24:35Z</time></trkpt>
<trkpt lat="41.073842" lon="-8.40747">
<ele>31</ele>
<time>2026-05-08T04:24:47Z</time></trkpt>
<trkpt lat="41.074046" lon="-8.407639">
<ele>31</ele>
<time>2026-05-08T04:24:51Z</time></trkpt>
<trkpt lat="41.074229" lon="-8.407733">
<ele>32</ele>
<time>2026-05-08T04:24:55Z</time></trkpt>
<trkpt lat="41.074492" lon="-8.407779">
<ele>34</ele>
<time>2026-05-08T04:25:01Z</time></trkpt>
<trkpt lat="41.075219" lon="-8.407808">
<ele>40</ele>
<time>2026-05-08T04:25:15Z</time></trkpt>
<trkpt lat="41.075375" lon="-8.40787">
<ele>40</ele>
<time>2026-05-08T04:25:18Z</time></trkpt>
<trkpt lat="41.075476" lon="-8.407966">
<ele>40</ele>
<time>2026-05-08T04:25:21Z</time></trkpt>
<trkpt lat="41.075538" lon="-8.408085">
<ele>39</ele>
<time>2026-05-08T04:25:23Z</time></trkpt>
<trkpt lat="41.075576" lon="-8.408204">
<ele>39</ele>
<time>2026-05-08T04:25:25Z</time></trkpt>
<trkpt lat="41.075586" lon="-8.408439">
<ele>40</ele>
<time>2026-05-08T04:25:29Z</time></trkpt>
<trkpt lat="41.075497" lon="-8.40867">
<ele>42</ele>
<time>2026-05-08T04:25:33Z</time></trkpt>
<trkpt lat="41.07541" lon="-8.408782">
<ele>43</ele>
<time>2026-05-08T04:25:35Z</time></trkpt>
<trkpt lat="41.074759" lon="-8.409458">
<ele>41</ele>
<time>2026-05-08T04:25:52Z</time></trkpt>
<trkpt lat="41.074646" lon="-8.409596">
<ele>40</ele>
<time>2026-05-08T04:25:55Z</time></trkpt>
<trkpt lat="41.074577" lon="-8.409839">
<ele>39</ele>
<time>2026-05-08T04:25:59Z</time></trkpt>
<trkpt lat="41.074562" lon="-8.410306">
<ele>41</ele>
<time>2026-05-08T04:26:06Z</time></trkpt>
<trkpt lat="41.074589" lon="-8.411">
<ele>42</ele>
<time>2026-05-08T04:26:16Z</time></trkpt>
<trkpt lat="41.074618" lon="-8.411223">
<ele>42</ele>
<time>2026-05-08T04:26:19Z</time></trkpt>
<trkpt lat="41.074709" lon="-8.411682">
<ele>43</ele>
<time>2026-05-08T04:26:27Z</time></trkpt>
<trkpt lat="41.074916" lon="-8.412353">
<ele>46</ele>
<time>2026-05-08T04:26:38Z</time></trkpt>
<trkpt lat="41.074933" lon="-8.412495">
<ele>45</ele>
<time>2026-05-08T04:26:40Z</time></trkpt>
<trkpt lat="41.074915" lon="-8.412736">
<ele>49</ele>
<time>2026-05-08T04:26:43Z</time></trkpt>
<trkpt lat="41.07477" lon="-8.413107">
<ele>51</ele>
<time>2026-05-08T04:26:50Z</time></trkpt>
<trkpt lat="41.074114" lon="-8.414477">
<ele>43</ele>
<time>2026-05-08T04:27:14Z</time></trkpt>
<trkpt lat="41.074079" lon="-8.414597">
<ele>43</ele>
<time>2026-05-08T04:27:16Z</time></trkpt>
<trkpt lat="41.074073" lon="-8.414716">
<ele>44</ele>
<time>2026-05-08T04:27:18Z</time></trkpt>
<trkpt lat="41.074119" lon="-8.41493">
<ele>46</ele>
<time>2026-05-08T04:27:21Z</time></trkpt>
<trkpt lat="41.07417" lon="-8.415022">
<ele>48</ele>
<time>2026-05-08T04:27:23Z</time></trkpt>
<trkpt lat="41.074271" lon="-8.415132">
<ele>49</ele>
<time>2026-05-08T04:27:26Z</time></trkpt>
<trkpt lat="41.075229" lon="-8.415847">
<ele>57</ele>
<time>2026-05-08T04:27:48Z</time></trkpt>
<trkpt lat="41.075482" lon="-8.415954">
<ele>61</ele>
<time>2026-05-08T04:27:53Z</time></trkpt>
<trkpt lat="41.076265" lon="-8.416097">
<ele>71</ele>
<time>2026-05-08T04:28:09Z</time></trkpt>
<trkpt lat="41.076389" lon="-8.416156">
<ele>72</ele>
<time>2026-05-08T04:28:12Z</time></trkpt>
<trkpt lat="41.076527" lon="-8.41628">
<ele>74</ele>
<time>2026-05-08T04:28:15Z</time></trkpt>
<trkpt lat="41.076605" lon="-8.416464">
<ele>74</ele>
<time>2026-05-08T04:28:18Z</time></trkpt>
<trkpt lat="41.076623" lon="-8.416631">
<ele>74</ele>
<time>2026-05-08T04:28:21Z</time></trkpt>
<trkpt lat="41.076587" lon="-8.41687">
<ele>79</ele>
<time>2026-05-08T04:28:24Z</time></trkpt>
<trkpt lat="41.076449" lon="-8.417073">
<ele>82</ele>
<time>2026-05-08T04:28:28Z</time></trkpt>
<trkpt lat="41.075609" lon="-8.417544">
<ele>80</ele>
<time>2026-05-08T04:28:47Z</time></trkpt>
<trkpt lat="41.075395" lon="-8.417645">
<ele>81</ele>
<time>2026-05-08T04:28:51Z</time></trkpt>
<trkpt lat="41.075219" lon="-8.417672">
<ele>79</ele>
<time>2026-05-08T04:28:55Z</time></trkpt>
<trkpt lat="41.074804" lon="-8.417662">
<ele>74</ele>
<time>2026-05-08T04:29:03Z</time></trkpt>
<trkpt lat="41.074636" lon="-8.417713">
<ele>73</ele>
<time>2026-05-08T04:29:07Z</time></trkpt>
<trkpt lat="41.074575" lon="-8.41777">
<ele>73</ele>
<time>2026-05-08T04:29:08Z</time></trkpt>
<trkpt lat="41.074521" lon="-8.417854">
<ele>74</ele>
<time>2026-05-08T04:29:10Z</time></trkpt>
<trkpt lat="41.074487" lon="-8.417969">
<ele>76</ele>
<time>2026-05-08T04:29:12Z</time></trkpt>
<trkpt lat="41.074467" lon="-8.418133">
<ele>78</ele>
<time>2026-05-08T04:29:14Z</time></trkpt>
<trkpt lat="41.074567" lon="-8.418546">
<ele>87</ele>
<time>2026-05-08T04:29:21Z</time></trkpt>
<trkpt lat="41.074739" lon="-8.418986">
<ele>94</ele>
<time>2026-05-08T04:29:28Z</time></trkpt>
<trkpt lat="41.074883" lon="-8.419306">
<ele>96</ele>
<time>2026-05-08T04:29:34Z</time></trkpt>
<trkpt lat="41.075376" lon="-8.420179">
<ele>99</ele>
<time>2026-05-08T04:29:50Z</time></trkpt>
<trkpt lat="41.075558" lon="-8.420395">
<ele>101</ele>
<time>2026-05-08T04:29:55Z</time></trkpt>
<trkpt lat="41.07577" lon="-8.420567">
<ele>102</ele>
<time>2026-05-08T04:30:00Z</time></trkpt>
<trkpt lat="41.076393" lon="-8.420833">
<ele>102</ele>
<time>2026-05-08T04:30:13Z</time></trkpt>
<trkpt lat="41.076577" lon="-8.420874">
<ele>103</ele>
<time>2026-05-08T04:30:17Z</time></trkpt>
<trkpt lat="41.077131" lon="-8.421078">
<ele>104</ele>
<time>2026-05-08T04:30:29Z</time></trkpt>
<trkpt lat="41.077255" lon="-8.421157">
<ele>104</ele>
<time>2026-05-08T04:30:31Z</time></trkpt>
<trkpt lat="41.077389" lon="-8.421298">
<ele>103</ele>
<time>2026-05-08T04:30:35Z</time></trkpt>
<trkpt lat="41.077476" lon="-8.42152">
<ele>101</ele>
<time>2026-05-08T04:30:38Z</time></trkpt>
<trkpt lat="41.077512" lon="-8.421749">
<ele>101</ele>
<time>2026-05-08T04:30:42Z</time></trkpt>
<trkpt lat="41.0775" lon="-8.421993">
<ele>102</ele>
<time>2026-05-08T04:30:46Z</time></trkpt>
<trkpt lat="41.077399" lon="-8.422265">
<ele>104</ele>
<time>2026-05-08T04:30:50Z</time></trkpt>
<trkpt lat="41.077291" lon="-8.422406">
<ele>107</ele>
<time>2026-05-08T04:30:53Z</time></trkpt>
<trkpt lat="41.077123" lon="-8.422516">
<ele>110</ele>
<time>2026-05-08T04:30:57Z</time></trkpt>
<trkpt lat="41.076979" lon="-8.422523">
<ele>112</ele>
<time>2026-05-08T04:31:00Z</time></trkpt>
<trkpt lat="41.0757" lon="-8.422318">
<ele>117</ele>
<time>2026-05-08T04:31:26Z</time></trkpt>
<trkpt lat="41.074668" lon="-8.422208">
<ele>126</ele>
<time>2026-05-08T04:31:47Z</time></trkpt>
<trkpt lat="41.074334" lon="-8.42214">
<ele>130</ele>
<time>2026-05-08T04:31:53Z</time></trkpt>
<trkpt lat="41.073527" lon="-8.422115">
<ele>137</ele>
<time>2026-05-08T04:32:09Z</time></trkpt>
<trkpt lat="41.07337" lon="-8.422151">
<ele>139</ele>
<time>2026-05-08T04:32:13Z</time></trkpt>
<trkpt lat="41.073161" lon="-8.422275">
<ele>140</ele>
<time>2026-05-08T04:32:17Z</time></trkpt>
<trkpt lat="41.073026" lon="-8.422417">
<ele>141</ele>
<time>2026-05-08T04:32:21Z</time></trkpt>
<trkpt lat="41.072678" lon="-8.422993">
<ele>141</ele>
<time>2026-05-08T04:32:32Z</time></trkpt>
<trkpt lat="41.072392" lon="-8.423555">
<ele>139</ele>
<time>2026-05-08T04:32:42Z</time></trkpt>
<trkpt lat="41.072258" lon="-8.423894">
<ele>139</ele>
<time>2026-05-08T04:32:48Z</time></trkpt>
<trkpt lat="41.072113" lon="-8.42436">
<ele>135</ele>
<time>2026-05-08T04:32:55Z</time></trkpt>
<trkpt lat="41.071479" lon="-8.42657">
<ele>118</ele>
<time>2026-05-08T04:33:31Z</time></trkpt>
<trkpt lat="41.071358" lon="-8.42682">
<ele>117</ele>
<time>2026-05-08T04:33:36Z</time></trkpt>
<trkpt lat="41.071196" lon="-8.427025">
<ele>116</ele>
<time>2026-05-08T04:33:40Z</time></trkpt>
<trkpt lat="41.070702" lon="-8.427369">
<ele>113</ele>
<time>2026-05-08T04:33:51Z</time></trkpt>
<trkpt lat="41.07055" lon="-8.427531">
<ele>111</ele>
<time>2026-05-08T04:33:55Z</time></trkpt>
<trkpt lat="41.070383" lon="-8.427826">
<ele>109</ele>
<time>2026-05-08T04:34:01Z</time></trkpt>
<trkpt lat="41.069931" lon="-8.428735">
<ele>106</ele>
<time>2026-05-08T04:34:17Z</time></trkpt>
<trkpt lat="41.069775" lon="-8.428942">
<ele>106</ele>
<time>2026-05-08T04:34:22Z</time></trkpt>
<trkpt lat="41.06963" lon="-8.429026">
<ele>105</ele>
<time>2026-05-08T04:34:25Z</time></trkpt>
<trkpt lat="41.069469" lon="-8.429049">
<ele>105</ele>
<time>2026-05-08T04:34:28Z</time></trkpt>
<trkpt lat="41.068895" lon="-8.428978">
<ele>102</ele>
<time>2026-05-08T04:34:40Z</time></trkpt>
<trkpt lat="41.068646" lon="-8.429003">
<ele>101</ele>
<time>2026-05-08T04:34:45Z</time></trkpt>
<trkpt lat="41.068375" lon="-8.429138">
<ele>99</ele>
<time>2026-05-08T04:34:50Z</time></trkpt>
<trkpt lat="41.068096" lon="-8.429326">
<ele>98</ele>
<time>2026-05-08T04:34:57Z</time></trkpt>
<trkpt lat="41.067699" lon="-8.429877">
<ele>96</ele>
<time>2026-05-08T04:35:08Z</time></trkpt>
<trkpt lat="41.067476" lon="-8.430187">
<ele>93</ele>
<time>2026-05-08T04:35:15Z</time></trkpt>
<trkpt lat="41.066449" lon="-8.432332">
<ele>85</ele>
<time>2026-05-08T04:35:53Z</time></trkpt>
<trkpt lat="41.066316" lon="-8.43265">
<ele>83</ele>
<time>2026-05-08T04:35:59Z</time></trkpt>
<trkpt lat="41.065925" lon="-8.433896">
<ele>75</ele>
<time>2026-05-08T04:36:19Z</time></trkpt>
<trkpt lat="41.065842" lon="-8.434232">
<ele>73</ele>
<time>2026-05-08T04:36:24Z</time></trkpt>
<trkpt lat="41.065835" lon="-8.434426">
<ele>73</ele>
<time>2026-05-08T04:36:27Z</time></trkpt>
<trkpt lat="41.065879" lon="-8.434609">
<ele>73</ele>
<time>2026-05-08T04:36:30Z</time></trkpt>
<trkpt lat="41.065978" lon="-8.434777">
<ele>74</ele>
<time>2026-05-08T04:36:33Z</time></trkpt>
<trkpt lat="41.06666" lon="-8.435549">
<ele>68</ele>
<time>2026-05-08T04:36:51Z</time></trkpt>
<trkpt lat="41.066732" lon="-8.435763">
<ele>67</ele>
<time>2026-05-08T04:36:55Z</time></trkpt>
<trkpt lat="41.066734" lon="-8.436077">
<ele>65</ele>
<time>2026-05-08T04:37:00Z</time></trkpt>
<trkpt lat="41.066554" lon="-8.437218">
<ele>65</ele>
<time>2026-05-08T04:37:17Z</time></trkpt>
<trkpt lat="41.066435" lon="-8.438384">
<ele>66</ele>
<time>2026-05-08T04:37:35Z</time></trkpt>
<trkpt lat="41.065984" lon="-8.439943">
<ele>60</ele>
<time>2026-05-08T04:38:00Z</time></trkpt>
<trkpt lat="41.065933" lon="-8.440205">
<ele>59</ele>
<time>2026-05-08T04:38:04Z</time></trkpt>
<trkpt lat="41.06597" lon="-8.440497">
<ele>58</ele>
<time>2026-05-08T04:38:09Z</time></trkpt>
<trkpt lat="41.066064" lon="-8.44069">
<ele>57</ele>
<time>2026-05-08T04:38:12Z</time></trkpt>
<trkpt lat="41.066624" lon="-8.441537">
<ele>54</ele>
<time>2026-05-08T04:38:29Z</time></trkpt>
<trkpt lat="41.066716" lon="-8.441721">
<ele>53</ele>
<time>2026-05-08T04:38:33Z</time></trkpt>
<trkpt lat="41.066759" lon="-8.44205">
<ele>54</ele>
<time>2026-05-08T04:38:38Z</time></trkpt>
<trkpt lat="41.066705" lon="-8.442906">
<ele>52</ele>
<time>2026-05-08T04:38:51Z</time></trkpt>
<trkpt lat="41.066735" lon="-8.4432">
<ele>52</ele>
<time>2026-05-08T04:38:55Z</time></trkpt>
<trkpt lat="41.067964" lon="-8.447237">
<ele>60</ele>
<time>2026-05-08T04:40:01Z</time></trkpt>
<trkpt lat="41.068031" lon="-8.447386">
<ele>60</ele>
<time>2026-05-08T04:40:04Z</time></trkpt>
<trkpt lat="41.068111" lon="-8.447535">
<ele>61</ele>
<time>2026-05-08T04:40:06Z</time></trkpt>
<trkpt lat="41.068225" lon="-8.447668">
<ele>61</ele>
<time>2026-05-08T04:40:09Z</time></trkpt>
<trkpt lat="41.070243" lon="-8.449206">
<ele>82</ele>
<time>2026-05-08T04:40:56Z</time></trkpt>
<trkpt lat="41.070243" lon="-8.449206">
<ele>82</ele>
<time>2026-05-08T04:40:56Z</time></trkpt>
<trkpt lat="41.071516" lon="-8.450173">
<ele>88</ele>
<time>2026-05-08T04:41:25Z</time></trkpt>
<trkpt lat="41.072252" lon="-8.450707">
<ele>84</ele>
<time>2026-05-08T04:41:42Z</time></trkpt>
<trkpt lat="41.072604" lon="-8.451009">
<ele>82</ele>
<time>2026-05-08T04:41:51Z</time></trkpt>
<trkpt lat="41.07271" lon="-8.451122">
<ele>81</ele>
<time>2026-05-08T04:41:53Z</time></trkpt>
<trkpt lat="41.072805" lon="-8.451296">
<ele>80</ele>
<time>2026-05-08T04:41:57Z</time></trkpt>
<trkpt lat="41.072877" lon="-8.45152">
<ele>79</ele>
<time>2026-05-08T04:42:00Z</time></trkpt>
<trkpt lat="41.072974" lon="-8.452385">
<ele>73</ele>
<time>2026-05-08T04:42:13Z</time></trkpt>
<trkpt lat="41.073124" lon="-8.452739">
<ele>73</ele>
<time>2026-05-08T04:42:20Z</time></trkpt>
<trkpt lat="41.073167" lon="-8.452803">
<ele>73</ele>
<time>2026-05-08T04:42:21Z</time></trkpt>
<trkpt lat="41.073195" lon="-8.452891">
<ele>74</ele>
<time>2026-05-08T04:42:22Z</time></trkpt>
<trkpt lat="41.073199" lon="-8.452973">
<ele>74</ele>
<time>2026-05-08T04:42:24Z</time></trkpt>
<trkpt lat="41.073184" lon="-8.453054">
<ele>74</ele>
<time>2026-05-08T04:42:25Z</time></trkpt>
<trkpt lat="41.073152" lon="-8.453127">
<ele>74</ele>
<time>2026-05-08T04:42:26Z</time></trkpt>
<trkpt lat="41.073078" lon="-8.453491">
<ele>75</ele>
<time>2026-05-08T04:42:32Z</time></trkpt>
<trkpt lat="41.073664" lon="-8.459696">
<ele>64</ele>
<time>2026-05-08T04:44:06Z</time></trkpt>
<trkpt lat="41.073908" lon="-8.461985">
<ele>56</ele>
<time>2026-05-08T04:44:41Z</time></trkpt>
<trkpt lat="41.073972" lon="-8.462421">
<ele>55</ele>
<time>2026-05-08T04:44:48Z</time></trkpt>
<trkpt lat="41.074052" lon="-8.462701">
<ele>55</ele>
<time>2026-05-08T04:44:52Z</time></trkpt>
<trkpt lat="41.074279" lon="-8.463348">
<ele>53</ele>
<time>2026-05-08T04:45:03Z</time></trkpt>
<trkpt lat="41.074832" lon="-8.464994">
<ele>39</ele>
<time>2026-05-08T04:45:30Z</time></trkpt>
<trkpt lat="41.074971" lon="-8.465343">
<ele>37</ele>
<time>2026-05-08T04:45:36Z</time></trkpt>
<trkpt lat="41.075334" lon="-8.46584">
<ele>41</ele>
<time>2026-05-08T04:45:47Z</time></trkpt>
<trkpt lat="41.075454" lon="-8.466061">
<ele>39</ele>
<time>2026-05-08T04:45:51Z</time></trkpt>
<trkpt lat="41.076034" lon="-8.467371">
<ele>31</ele>
<time>2026-05-08T04:46:14Z</time></trkpt>
<trkpt lat="41.076431" lon="-8.468322">
<ele>31</ele>
<time>2026-05-08T04:46:30Z</time></trkpt>
<trkpt lat="41.076481" lon="-8.468536">
<ele>31</ele>
<time>2026-05-08T04:46:34Z</time></trkpt>
<trkpt lat="41.076701" lon="-8.470577">
<ele>22</ele>
<time>2026-05-08T04:47:05Z</time></trkpt>
<trkpt lat="41.076729" lon="-8.470737">
<ele>22</ele>
<time>2026-05-08T04:47:07Z</time></trkpt>
<trkpt lat="41.076774" lon="-8.470883">
<ele>21</ele>
<time>2026-05-08T04:47:10Z</time></trkpt>
<trkpt lat="41.076856" lon="-8.471014">
<ele>20</ele>
<time>2026-05-08T04:47:12Z</time></trkpt>
<trkpt lat="41.076966" lon="-8.471118">
<ele>20</ele>
<time>2026-05-08T04:47:15Z</time></trkpt>
<trkpt lat="41.077503" lon="-8.471536">
<ele>18</ele>
<time>2026-05-08T04:47:27Z</time></trkpt>
<trkpt lat="41.077894" lon="-8.47198">
<ele>14</ele>
<time>2026-05-08T04:47:38Z</time></trkpt>
<trkpt lat="41.077927" lon="-8.472047">
<ele>14</ele>
<time>2026-05-08T04:47:39Z</time></trkpt>
<trkpt lat="41.077923" lon="-8.47213">
<ele>14</ele>
<time>2026-05-08T04:47:40Z</time></trkpt>
<trkpt lat="41.077893" lon="-8.472334">
<ele>14</ele>
<time>2026-05-08T04:47:43Z</time></trkpt>
<trkpt lat="41.07793" lon="-8.473129">
<ele>17</ele>
<time>2026-05-08T04:47:55Z</time></trkpt>
<trkpt lat="41.077887" lon="-8.473438">
<ele>19</ele>
<time>2026-05-08T04:48:00Z</time></trkpt>
<trkpt lat="41.077833" lon="-8.473665">
<ele>21</ele>
<time>2026-05-08T04:48:04Z</time></trkpt>
<trkpt lat="41.077501" lon="-8.474435">
<ele>21</ele>
<time>2026-05-08T04:48:17Z</time></trkpt>
<trkpt lat="41.077434" lon="-8.474716">
<ele>21</ele>
<time>2026-05-08T04:48:22Z</time></trkpt>
<trkpt lat="41.077401" lon="-8.475082">
<ele>22</ele>
<time>2026-05-08T04:48:27Z</time></trkpt>
<trkpt lat="41.077369" lon="-8.47593">
<ele>22</ele>
<time>2026-05-08T04:48:40Z</time></trkpt>
<trkpt lat="41.07731" lon="-8.476128">
<ele>23</ele>
<time>2026-05-08T04:48:43Z</time></trkpt>
<trkpt lat="41.076866" lon="-8.477307">
<ele>27</ele>
<time>2026-05-08T04:49:03Z</time></trkpt>
<trkpt lat="41.076782" lon="-8.477676">
<ele>27</ele>
<time>2026-05-08T04:49:09Z</time></trkpt>
<trkpt lat="41.076714" lon="-8.478243">
<ele>25</ele>
<time>2026-05-08T04:49:18Z</time></trkpt>
<trkpt lat="41.076686" lon="-8.479281">
<ele>22</ele>
<time>2026-05-08T04:49:33Z</time></trkpt>
<trkpt lat="41.076641" lon="-8.479544">
<ele>23</ele>
<time>2026-05-08T04:49:37Z</time></trkpt>
<trkpt lat="41.076537" lon="-8.479842">
<ele>24</ele>
<time>2026-05-08T04:49:42Z</time></trkpt>
<trkpt lat="41.076245" lon="-8.480438">
<ele>25</ele>
<time>2026-05-08T04:49:53Z</time></trkpt>
<trkpt lat="41.076199" lon="-8.480586">
<ele>25</ele>
<time>2026-05-08T04:49:55Z</time></trkpt>
<trkpt lat="41.076179" lon="-8.480753">
<ele>26</ele>
<time>2026-05-08T04:49:58Z</time></trkpt>
<trkpt lat="41.076211" lon="-8.481582">
<ele>38</ele>
<time>2026-05-08T04:50:11Z</time></trkpt>
<trkpt lat="41.076188" lon="-8.481975">
<ele>41</ele>
<time>2026-05-08T04:50:17Z</time></trkpt>
<trkpt lat="41.076149" lon="-8.482233">
<ele>42</ele>
<time>2026-05-08T04:50:21Z</time></trkpt>
<trkpt lat="41.075413" lon="-8.484739">
<ele>33</ele>
<time>2026-05-08T04:51:01Z</time></trkpt>
<trkpt lat="41.075279" lon="-8.485256">
<ele>33</ele>
<time>2026-05-08T04:51:09Z</time></trkpt>
<trkpt lat="41.074995" lon="-8.485702">
<ele>25</ele>
<time>2026-05-08T04:51:18Z</time></trkpt>
<trkpt lat="41.074795" lon="-8.486129">
<ele>24</ele>
<time>2026-05-08T04:51:26Z</time></trkpt>
<trkpt lat="41.074664" lon="-8.486669">
<ele>24</ele>
<time>2026-05-08T04:51:34Z</time></trkpt>
<trkpt lat="41.074532" lon="-8.487348">
<ele>19</ele>
<time>2026-05-08T04:51:45Z</time></trkpt>
<trkpt lat="41.070716" lon="-8.485699">
<ele>23</ele>
<time>2026-05-08T04:53:05Z</time></trkpt>
<trkpt lat="41.070549" lon="-8.485651">
<ele>27</ele>
<time>2026-05-08T04:53:09Z</time></trkpt>
<trkpt lat="41.070422" lon="-8.485679">
<ele>30</ele>
<time>2026-05-08T04:53:11Z</time></trkpt>
<trkpt lat="41.070309" lon="-8.485734">
<ele>32</ele>
<time>2026-05-08T04:53:14Z</time></trkpt>
<trkpt lat="41.0702" lon="-8.485935">
<ele>34</ele>
<time>2026-05-08T04:53:18Z</time></trkpt>
<trkpt lat="41.0701414" lon="-8.4862873">
<ele>34</ele>
<time>2026-05-08T04:53:23Z</time></trkpt>
<trkpt lat="41.070139" lon="-8.486287">
<ele>34</ele>
<time>2026-05-08T04:53:23Z</time></trkpt>
<trkpt lat="41.070122" lon="-8.486404">
<ele>34</ele>
<time>2026-05-08T04:53:25Z</time></trkpt>
<trkpt lat="41.070058" lon="-8.48663">
<ele>35</ele>
<time>2026-05-08T04:53:28Z</time></trkpt>
<trkpt lat="41.069933" lon="-8.486825">
<ele>38</ele>
<time>2026-05-08T04:53:32Z</time></trkpt>
<trkpt lat="41.069408" lon="-8.487295">
<ele>52</ele>
<time>2026-05-08T04:53:45Z</time></trkpt>
<trkpt lat="41.069301" lon="-8.487458">
<ele>53</ele>
<time>2026-05-08T04:53:48Z</time></trkpt>
<trkpt lat="41.069239" lon="-8.487621">
<ele>54</ele>
<time>2026-05-08T04:53:51Z</time></trkpt>
<trkpt lat="41.069032" lon="-8.488637">
<ele>56</ele>
<time>2026-05-08T04:54:07Z</time></trkpt>
<trkpt lat="41.068912" lon="-8.489373">
<ele>57</ele>
<time>2026-05-08T04:54:18Z</time></trkpt>
<trkpt lat="41.06893" lon="-8.491202">
<ele>57</ele>
<time>2026-05-08T04:54:46Z</time></trkpt>
<trkpt lat="41.068892" lon="-8.491476">
<ele>59</ele>
<time>2026-05-08T04:54:50Z</time></trkpt>
<trkpt lat="41.068836" lon="-8.491658">
<ele>61</ele>
<time>2026-05-08T04:54:53Z</time></trkpt>
<trkpt lat="41.068745" lon="-8.491847">
<ele>64</ele>
<time>2026-05-08T04:54:57Z</time></trkpt>
<trkpt lat="41.068595" lon="-8.492017">
<ele>68</ele>
<time>2026-05-08T04:55:00Z</time></trkpt>
<trkpt lat="41.068455" lon="-8.492116">
<ele>72</ele>
<time>2026-05-08T04:55:04Z</time></trkpt>
<trkpt lat="41.068336" lon="-8.492171">
<ele>75</ele>
<time>2026-05-08T04:55:06Z</time></trkpt>
<trkpt lat="41.068155" lon="-8.492197">
<ele>75</ele>
<time>2026-05-08T04:55:10Z</time></trkpt>
<trkpt lat="41.067997" lon="-8.492179">
<ele>76</ele>
<time>2026-05-08T04:55:13Z</time></trkpt>
<trkpt lat="41.067857" lon="-8.49212">
<ele>76</ele>
<time>2026-05-08T04:55:16Z</time></trkpt>
<trkpt lat="41.067637" lon="-8.49194">
<ele>76</ele>
<time>2026-05-08T04:55:21Z</time></trkpt>
<trkpt lat="41.067482" lon="-8.491734">
<ele>77</ele>
<time>2026-05-08T04:55:26Z</time></trkpt>
<trkpt lat="41.067393" lon="-8.491405">
<ele>75</ele>
<time>2026-05-08T04:55:31Z</time></trkpt>
<trkpt lat="41.067378" lon="-8.49109">
<ele>75</ele>
<time>2026-05-08T04:55:36Z</time></trkpt>
<trkpt lat="41.067397" lon="-8.489914">
<ele>72</ele>
<time>2026-05-08T04:55:53Z</time></trkpt>
<trkpt lat="41.067397" lon="-8.489914">
<ele>72</ele>
<time>2026-05-08T04:55:53Z</time></trkpt>
<trkpt lat="41.0674093" lon="-8.4891186">
<ele>77</ele>
<time>2026-05-08T04:56:05Z</time></trkpt>
<trkpt lat="41.067409" lon="-8.489119">
<ele>77</ele>
<time>2026-05-08T04:56:05Z</time></trkpt>
<trkpt lat="41.067418" lon="-8.488552">
<ele>78</ele>
<time>2026-05-08T04:56:14Z</time></trkpt>
<trkpt lat="41.067381" lon="-8.488152">
<ele>79</ele>
<time>2026-05-08T04:56:20Z</time></trkpt>
<trkpt lat="41.067357" lon="-8.488003">
<ele>79</ele>
<time>2026-05-08T04:56:22Z</time></trkpt>
<trkpt lat="41.067247" lon="-8.487715">
<ele>79</ele>
<time>2026-05-08T04:56:27Z</time></trkpt>
<trkpt lat="41.067058" lon="-8.487363">
<ele>79</ele>
<time>2026-05-08T04:56:34Z</time></trkpt>
<trkpt lat="41.066776" lon="-8.487076">
<ele>79</ele>
<time>2026-05-08T04:56:41Z</time></trkpt>
<trkpt lat="41.066281" lon="-8.486647">
<ele>79</ele>
<time>2026-05-08T04:56:53Z</time></trkpt>
<trkpt lat="41.066075" lon="-8.486363">
<ele>80</ele>
<time>2026-05-08T04:56:59Z</time></trkpt>
<trkpt lat="41.065916" lon="-8.486026">
<ele>81</ele>
<time>2026-05-08T04:57:05Z</time></trkpt>
<trkpt lat="41.065799" lon="-8.485631">
<ele>82</ele>
<time>2026-05-08T04:57:11Z</time></trkpt>
<trkpt lat="41.065741" lon="-8.484687">
<ele>88</ele>
<time>2026-05-08T04:57:25Z</time></trkpt>
<trkpt lat="41.065694" lon="-8.484273">
<ele>90</ele>
<time>2026-05-08T04:57:32Z</time></trkpt>
<trkpt lat="41.065534" lon="-8.483863">
<ele>91</ele>
<time>2026-05-08T04:57:39Z</time></trkpt>
<trkpt lat="41.065377" lon="-8.483703">
<ele>90</ele>
<time>2026-05-08T04:57:43Z</time></trkpt>
<trkpt lat="41.06512" lon="-8.483494">
<ele>89</ele>
<time>2026-05-08T04:57:49Z</time></trkpt>
<trkpt lat="41.064181" lon="-8.483305">
<ele>90</ele>
<time>2026-05-08T04:58:08Z</time></trkpt>
<trkpt lat="41.063851" lon="-8.483194">
<ele>90</ele>
<time>2026-05-08T04:58:15Z</time></trkpt>
<trkpt lat="41.063431" lon="-8.482996">
<ele>89</ele>
<time>2026-05-08T04:58:23Z</time></trkpt>
<trkpt lat="41.063139" lon="-8.482765">
<ele>87</ele>
<time>2026-05-08T04:58:30Z</time></trkpt>
<trkpt lat="41.062803" lon="-8.482447">
<ele>83</ele>
<time>2026-05-08T04:58:39Z</time></trkpt>
<trkpt lat="41.06168" lon="-8.481173">
<ele>69</ele>
<time>2026-05-08T04:59:08Z</time></trkpt>
<trkpt lat="41.061335" lon="-8.48084">
<ele>67</ele>
<time>2026-05-08T04:59:17Z</time></trkpt>
<trkpt lat="41.061167" lon="-8.480713">
<ele>65</ele>
<time>2026-05-08T04:59:21Z</time></trkpt>
<trkpt lat="41.060793" lon="-8.480529">
<ele>59</ele>
<time>2026-05-08T04:59:29Z</time></trkpt>
<trkpt lat="41.060528" lon="-8.480461">
<ele>56</ele>
<time>2026-05-08T04:59:34Z</time></trkpt>
<trkpt lat="41.060204" lon="-8.480409">
<ele>53</ele>
<time>2026-05-08T04:59:41Z</time></trkpt>
<trkpt lat="41.059758" lon="-8.480486">
<ele>52</ele>
<time>2026-05-08T04:59:50Z</time></trkpt>
<trkpt lat="41.059253" lon="-8.480692">
<ele>50</ele>
<time>2026-05-08T05:00:00Z</time></trkpt>
<trkpt lat="41.05902" lon="-8.480873">
<ele>49</ele>
<time>2026-05-08T05:00:06Z</time></trkpt>
<trkpt lat="41.058711" lon="-8.481182">
<ele>51</ele>
<time>2026-05-08T05:00:13Z</time></trkpt>
<trkpt lat="41.058398" lon="-8.481588">
<ele>53</ele>
<time>2026-05-08T05:00:22Z</time></trkpt>
<trkpt lat="41.057978" lon="-8.482237">
<ele>58</ele>
<time>2026-05-08T05:00:35Z</time></trkpt>
<trkpt lat="41.056441" lon="-8.48473">
<ele>63</ele>
<time>2026-05-08T05:01:24Z</time></trkpt>
<trkpt lat="41.055758" lon="-8.485722">
<ele>55</ele>
<time>2026-05-08T05:01:44Z</time></trkpt>
<trkpt lat="41.055525" lon="-8.485945">
<ele>51</ele>
<time>2026-05-08T05:01:50Z</time></trkpt>
<trkpt lat="41.055344" lon="-8.486083">
<ele>49</ele>
<time>2026-05-08T05:01:54Z</time></trkpt>
<trkpt lat="41.054904" lon="-8.486306">
<ele>48</ele>
<time>2026-05-08T05:02:03Z</time></trkpt>
<trkpt lat="41.054463" lon="-8.486447">
<ele>48</ele>
<time>2026-05-08T05:02:12Z</time></trkpt>
<trkpt lat="41.051672" lon="-8.487154">
<ele>72</ele>
<time>2026-05-08T05:03:09Z</time></trkpt>
<trkpt lat="41.050994" lon="-8.487396">
<ele>77</ele>
<time>2026-05-08T05:03:23Z</time></trkpt>
<trkpt lat="41.050658" lon="-8.48755">
<ele>81</ele>
<time>2026-05-08T05:03:31Z</time></trkpt>
<trkpt lat="41.05034" lon="-8.487731">
<ele>84</ele>
<time>2026-05-08T05:03:37Z</time></trkpt>
<trkpt lat="41.048876" lon="-8.48877">
<ele>102</ele>
<time>2026-05-08T05:04:11Z</time></trkpt>
<trkpt lat="41.048876" lon="-8.48877">
<ele>102</ele>
<time>2026-05-08T05:04:11Z</time></trkpt>
<trkpt lat="41.048211" lon="-8.48925">
<ele>110</ele>
<time>2026-05-08T05:04:26Z</time></trkpt>
<trkpt lat="41.047669" lon="-8.489695">
<ele>119</ele>
<time>2026-05-08T05:04:39Z</time></trkpt>
<trkpt lat="41.047564" lon="-8.48964">
<ele>119</ele>
<time>2026-05-08T05:04:41Z</time></trkpt>
<trkpt lat="41.04745" lon="-8.489432">
<ele>118</ele>
<time>2026-05-08T05:04:45Z</time></trkpt>
<trkpt lat="41.047106" lon="-8.489063">
<ele>116</ele>
<time>2026-05-08T05:04:54Z</time></trkpt>
<trkpt lat="41.046906" lon="-8.488891">
<ele>114</ele>
<time>2026-05-08T05:04:59Z</time></trkpt>
<trkpt lat="41.046777" lon="-8.488818">
<ele>114</ele>
<time>2026-05-08T05:05:01Z</time></trkpt>
<trkpt lat="41.046115" lon="-8.488673">
<ele>113</ele>
<time>2026-05-08T05:05:15Z</time></trkpt>
<trkpt lat="41.046005" lon="-8.488611">
<ele>112</ele>
<time>2026-05-08T05:05:17Z</time></trkpt>
<trkpt lat="41.045907" lon="-8.488503">
<ele>110</ele>
<time>2026-05-08T05:05:20Z</time></trkpt>
<trkpt lat="41.045804" lon="-8.488245">
<ele>105</ele>
<time>2026-05-08T05:05:24Z</time></trkpt>
<trkpt lat="41.045696" lon="-8.487785">
<ele>100</ele>
<time>2026-05-08T05:05:31Z</time></trkpt>
<trkpt lat="41.045676" lon="-8.487496">
<ele>95</ele>
<time>2026-05-08T05:05:36Z</time></trkpt>
<trkpt lat="41.045696" lon="-8.486605">
<ele>87</ele>
<time>2026-05-08T05:05:49Z</time></trkpt>
<trkpt lat="41.045696" lon="-8.486605">
<ele>87</ele>
<time>2026-05-08T05:05:49Z</time></trkpt>
<trkpt lat="41.045717" lon="-8.485288">
<ele>71</ele>
<time>2026-05-08T05:06:09Z</time></trkpt>
<trkpt lat="41.045666" lon="-8.484931">
<ele>66</ele>
<time>2026-05-08T05:06:15Z</time></trkpt>
<trkpt lat="41.045584" lon="-8.484693">
<ele>62</ele>
<time>2026-05-08T05:06:19Z</time></trkpt>
<trkpt lat="41.045479" lon="-8.484524">
<ele>60</ele>
<time>2026-05-08T05:06:22Z</time></trkpt>
<trkpt lat="41.045272" lon="-8.484456">
<ele>59</ele>
<time>2026-05-08T05:06:26Z</time></trkpt>
<trkpt lat="41.04394" lon="-8.484298">
<ele>55</ele>
<time>2026-05-08T05:06:53Z</time></trkpt>
<trkpt lat="41.043164" lon="-8.484225">
<ele>59</ele>
<time>2026-05-08T05:07:09Z</time></trkpt>
<trkpt lat="41.042877" lon="-8.484117">
<ele>61</ele>
<time>2026-05-08T05:07:15Z</time></trkpt>
<trkpt lat="41.042767" lon="-8.484035">
<ele>61</ele>
<time>2026-05-08T05:07:17Z</time></trkpt>
<trkpt lat="41.042535" lon="-8.483727">
<ele>59</ele>
<time>2026-05-08T05:07:24Z</time></trkpt>
<trkpt lat="41.04223" lon="-8.483142">
<ele>54</ele>
<time>2026-05-08T05:07:34Z</time></trkpt>
<trkpt lat="41.041661" lon="-8.48198">
<ele>56</ele>
<time>2026-05-08T05:07:55Z</time></trkpt>
<trkpt lat="41.041354" lon="-8.48163">
<ele>60</ele>
<time>2026-05-08T05:08:03Z</time></trkpt>
<trkpt lat="41.040444" lon="-8.48068">
<ele>56</ele>
<time>2026-05-08T05:08:27Z</time></trkpt>
<trkpt lat="41.039304" lon="-8.479437">
<ele>50</ele>
<time>2026-05-08T05:08:56Z</time></trkpt>
<trkpt lat="41.039057" lon="-8.479183">
<ele>49</ele>
<time>2026-05-08T05:09:03Z</time></trkpt>
<trkpt lat="41.038786" lon="-8.478993">
<ele>49</ele>
<time>2026-05-08T05:09:09Z</time></trkpt>
<trkpt lat="41.037416" lon="-8.478641">
<ele>58</ele>
<time>2026-05-08T05:09:37Z</time></trkpt>
<trkpt lat="41.036658" lon="-8.478416">
<ele>66</ele>
<time>2026-05-08T05:09:52Z</time></trkpt>
<trkpt lat="41.036326" lon="-8.478537">
<ele>76</ele>
<time>2026-05-08T05:09:59Z</time></trkpt>
<trkpt lat="41.036144" lon="-8.47875">
<ele>80</ele>
<time>2026-05-08T05:10:04Z</time></trkpt>
<trkpt lat="41.035735" lon="-8.479436">
<ele>87</ele>
<time>2026-05-08T05:10:17Z</time></trkpt>
<trkpt lat="41.03558" lon="-8.479652">
<ele>87</ele>
<time>2026-05-08T05:10:22Z</time></trkpt>
<trkpt lat="41.035362" lon="-8.479796">
<ele>87</ele>
<time>2026-05-08T05:10:27Z</time></trkpt>
<trkpt lat="41.035141" lon="-8.479842">
<ele>88</ele>
<time>2026-05-08T05:10:31Z</time></trkpt>
<trkpt lat="41.034939" lon="-8.479811">
<ele>91</ele>
<time>2026-05-08T05:10:35Z</time></trkpt>
<trkpt lat="41.034329" lon="-8.479528">
<ele>103</ele>
<time>2026-05-08T05:10:48Z</time></trkpt>
<trkpt lat="41.034095" lon="-8.479505">
<ele>105</ele>
<time>2026-05-08T05:10:53Z</time></trkpt>
<trkpt lat="41.033871" lon="-8.479552">
<ele>102</ele>
<time>2026-05-08T05:10:57Z</time></trkpt>
<trkpt lat="41.033725" lon="-8.479522">
<ele>102</ele>
<time>2026-05-08T05:11:00Z</time></trkpt>
<trkpt lat="41.033604" lon="-8.479377">
<ele>105</ele>
<time>2026-05-08T05:11:04Z</time></trkpt>
<trkpt lat="41.033471" lon="-8.478576">
<ele>113</ele>
<time>2026-05-08T05:11:16Z</time></trkpt>
<trkpt lat="41.033406" lon="-8.478338">
<ele>114</ele>
<time>2026-05-08T05:11:20Z</time></trkpt>
<trkpt lat="41.033186" lon="-8.478085">
<ele>114</ele>
<time>2026-05-08T05:11:26Z</time></trkpt>
<trkpt lat="41.031824" lon="-8.477044">
<ele>126</ele>
<time>2026-05-08T05:11:57Z</time></trkpt>
<trkpt lat="41.031548" lon="-8.476901">
<ele>127</ele>
<time>2026-05-08T05:12:03Z</time></trkpt>
<trkpt lat="41.031379" lon="-8.47688">
<ele>127</ele>
<time>2026-05-08T05:12:06Z</time></trkpt>
<trkpt lat="41.031231" lon="-8.476904">
<ele>127</ele>
<time>2026-05-08T05:12:09Z</time></trkpt>
<trkpt lat="41.031061" lon="-8.477008">
<ele>127</ele>
<time>2026-05-08T05:12:13Z</time></trkpt>
<trkpt lat="41.030749" lon="-8.477357">
<ele>127</ele>
<time>2026-05-08T05:12:21Z</time></trkpt>
<trkpt lat="41.030468" lon="-8.477585">
<ele>128</ele>
<time>2026-05-08T05:12:28Z</time></trkpt>
<trkpt lat="41.030271" lon="-8.477651">
<ele>130</ele>
<time>2026-05-08T05:12:32Z</time></trkpt>
<trkpt lat="41.029983" lon="-8.477553">
<ele>133</ele>
<time>2026-05-08T05:12:38Z</time></trkpt>
<trkpt lat="41.029238" lon="-8.476993">
<ele>143</ele>
<time>2026-05-08T05:12:55Z</time></trkpt>
<trkpt lat="41.02917" lon="-8.476897">
<ele>144</ele>
<time>2026-05-08T05:12:57Z</time></trkpt>
<trkpt lat="41.029115" lon="-8.476733">
<ele>144</ele>
<time>2026-05-08T05:13:00Z</time></trkpt>
<trkpt lat="41.02907" lon="-8.476517">
<ele>146</ele>
<time>2026-05-08T05:13:03Z</time></trkpt>
<trkpt lat="41.029" lon="-8.475982">
<ele>147</ele>
<time>2026-05-08T05:13:11Z</time></trkpt>
<trkpt lat="41.028928" lon="-8.47558">
<ele>148</ele>
<time>2026-05-08T05:13:18Z</time></trkpt>
<trkpt lat="41.028852" lon="-8.475369">
<ele>149</ele>
<time>2026-05-08T05:13:21Z</time></trkpt>
<trkpt lat="41.028666" lon="-8.475131">
<ele>152</ele>
<time>2026-05-08T05:13:26Z</time></trkpt>
<trkpt lat="41.028522" lon="-8.475013">
<ele>153</ele>
<time>2026-05-08T05:13:30Z</time></trkpt>
<trkpt lat="41.028432" lon="-8.474985">
<ele>155</ele>
<time>2026-05-08T05:13:32Z</time></trkpt>
<trkpt lat="41.028228" lon="-8.474982">
<ele>157</ele>
<time>2026-05-08T05:13:36Z</time></trkpt>
<trkpt lat="41.027209" lon="-8.475496">
<ele>166</ele>
<time>2026-05-08T05:13:58Z</time></trkpt>
<trkpt lat="41.026955" lon="-8.475569">
<ele>167</ele>
<time>2026-05-08T05:14:03Z</time></trkpt>
<trkpt lat="41.026708" lon="-8.475582">
<ele>169</ele>
<time>2026-05-08T05:14:08Z</time></trkpt>
<trkpt lat="41.02651" lon="-8.475524">
<ele>169</ele>
<time>2026-05-08T05:14:12Z</time></trkpt>
<trkpt lat="41.025043" lon="-8.474777">
<ele>176</ele>
<time>2026-05-08T05:14:43Z</time></trkpt>
<trkpt lat="41.025043" lon="-8.474777">
<ele>176</ele>
<time>2026-05-08T05:14:43Z</time></trkpt>
<trkpt lat="41.024841" lon="-8.474697">
<ele>176</ele>
<time>2026-05-08T05:14:48Z</time></trkpt>
<trkpt lat="41.024478" lon="-8.474629">
<ele>175</ele>
<time>2026-05-08T05:14:55Z</time></trkpt>
<trkpt lat="41.023934" lon="-8.474577">
<ele>176</ele>
<time>2026-05-08T05:15:06Z</time></trkpt>
<trkpt lat="41.022386" lon="-8.474512">
<ele>178</ele>
<time>2026-05-08T05:15:37Z</time></trkpt>
<trkpt lat="41.022269" lon="-8.474533">
<ele>177</ele>
<time>2026-05-08T05:15:39Z</time></trkpt>
<trkpt lat="41.021851" lon="-8.474721">
<ele>175</ele>
<time>2026-05-08T05:15:48Z</time></trkpt>
<trkpt lat="41.021539" lon="-8.474809">
<ele>174</ele>
<time>2026-05-08T05:15:54Z</time></trkpt>
<trkpt lat="41.02141" lon="-8.474821">
<ele>174</ele>
<time>2026-05-08T05:15:57Z</time></trkpt>
<trkpt lat="41.021271" lon="-8.474801">
<ele>173</ele>
<time>2026-05-08T05:16:00Z</time></trkpt>
<trkpt lat="41.021207" lon="-8.474769">
<ele>173</ele>
<time>2026-05-08T05:16:01Z</time></trkpt>
<trkpt lat="41.020968" lon="-8.474584">
<ele>170</ele>
<time>2026-05-08T05:16:07Z</time></trkpt>
<trkpt lat="41.019417" lon="-8.473146">
<ele>157</ele>
<time>2026-05-08T05:16:45Z</time></trkpt>
<trkpt lat="41.018331" lon="-8.472164">
<ele>157</ele>
<time>2026-05-08T05:17:11Z</time></trkpt>
<trkpt lat="41.018002" lon="-8.47192">
<ele>156</ele>
<time>2026-05-08T05:17:19Z</time></trkpt>
<trkpt lat="41.017536" lon="-8.471737">
<ele>157</ele>
<time>2026-05-08T05:17:28Z</time></trkpt>
<trkpt lat="41.017225" lon="-8.471653">
<ele>157</ele>
<time>2026-05-08T05:17:35Z</time></trkpt>
<trkpt lat="41.016133" lon="-8.471469">
<ele>161</ele>
<time>2026-05-08T05:17:57Z</time></trkpt>
<trkpt lat="41.015938" lon="-8.471409">
<ele>162</ele>
<time>2026-05-08T05:18:01Z</time></trkpt>
<trkpt lat="41.015855" lon="-8.471345">
<ele>162</ele>
<time>2026-05-08T05:18:03Z</time></trkpt>
<trkpt lat="41.01558" lon="-8.471">
<ele>163</ele>
<time>2026-05-08T05:18:10Z</time></trkpt>
<trkpt lat="41.015345" lon="-8.470516">
<ele>165</ele>
<time>2026-05-08T05:18:19Z</time></trkpt>
<trkpt lat="41.014885" lon="-8.469655">
<ele>170</ele>
<time>2026-05-08T05:18:35Z</time></trkpt>
<trkpt lat="41.014447" lon="-8.468928">
<ele>177</ele>
<time>2026-05-08T05:18:49Z</time></trkpt>
<trkpt lat="41.01392" lon="-8.467924">
<ele>182</ele>
<time>2026-05-08T05:19:07Z</time></trkpt>
<trkpt lat="41.013196" lon="-8.466492">
<ele>190</ele>
<time>2026-05-08T05:19:34Z</time></trkpt>
<trkpt lat="41.013196" lon="-8.466492">
<ele>190</ele>
<time>2026-05-08T05:19:34Z</time></trkpt>
<trkpt lat="41.01292" lon="-8.465965">
<ele>193</ele>
<time>2026-05-08T05:19:43Z</time></trkpt>
<trkpt lat="41.012771" lon="-8.465641">
<ele>196</ele>
<time>2026-05-08T05:19:49Z</time></trkpt>
<trkpt lat="41.011498" lon="-8.462636">
<ele>215</ele>
<time>2026-05-08T05:20:41Z</time></trkpt>
<trkpt lat="41.011272" lon="-8.462148">
<ele>218</ele>
<time>2026-05-08T05:20:50Z</time></trkpt>
<trkpt lat="41.011011" lon="-8.461858">
<ele>218</ele>
<time>2026-05-08T05:20:57Z</time></trkpt>
<trkpt lat="41.010643" lon="-8.461775">
<ele>218</ele>
<time>2026-05-08T05:21:04Z</time></trkpt>
<trkpt lat="41.0106051" lon="-8.4617841">
<ele>218</ele>
<time>2026-05-08T05:21:05Z</time></trkpt>
<trkpt lat="41.010494" lon="-8.461811">
<ele>218</ele>
<time>2026-05-08T05:21:07Z</time></trkpt>
<trkpt lat="41.010262" lon="-8.461975">
<ele>218</ele>
<time>2026-05-08T05:21:12Z</time></trkpt>
<trkpt lat="41.010176" lon="-8.461978">
<ele>218</ele>
<time>2026-05-08T05:21:14Z</time></trkpt>
<trkpt lat="41.010097" lon="-8.461906">
<ele>218</ele>
<time>2026-05-08T05:21:16Z</time></trkpt>
<trkpt lat="41.01006" lon="-8.461795">
<ele>218</ele>
<time>2026-05-08T05:21:18Z</time></trkpt>
<trkpt lat="41.009927" lon="-8.461746">
<ele>218</ele>
<time>2026-05-08T05:21:21Z</time></trkpt>
<trkpt lat="41.009579" lon="-8.461686">
<ele>220</ele>
<time>2026-05-08T05:21:28Z</time></trkpt>
<trkpt lat="41.009088" lon="-8.461622">
<ele>223</ele>
<time>2026-05-08T05:21:37Z</time></trkpt>
<trkpt lat="41.008973" lon="-8.461641">
<ele>224</ele>
<time>2026-05-08T05:21:40Z</time></trkpt>
<trkpt lat="41.008973" lon="-8.461641">
<ele>224</ele>
<time>2026-05-08T05:21:40Z</time></trkpt>
<trkpt lat="41.008719" lon="-8.461811">
<ele>224</ele>
<time>2026-05-08T05:21:45Z</time></trkpt>
<trkpt lat="41.008591" lon="-8.461987">
<ele>225</ele>
<time>2026-05-08T05:21:49Z</time></trkpt>
<trkpt lat="41.008464" lon="-8.462258">
<ele>225</ele>
<time>2026-05-08T05:21:54Z</time></trkpt>
<trkpt lat="41.008123" lon="-8.463305">
<ele>221</ele>
<time>2026-05-08T05:22:11Z</time></trkpt>
<trkpt lat="41.00799" lon="-8.463425">
<ele>222</ele>
<time>2026-05-08T05:22:14Z</time></trkpt>
<trkpt lat="41.007851" lon="-8.463501">
<ele>222</ele>
<time>2026-05-08T05:22:17Z</time></trkpt>
<trkpt lat="41.007141" lon="-8.463709">
<ele>225</ele>
<time>2026-05-08T05:22:32Z</time></trkpt>
<trkpt lat="41.006918" lon="-8.463943">
<ele>226</ele>
<time>2026-05-08T05:22:38Z</time></trkpt>
<trkpt lat="41.006823" lon="-8.464097">
<ele>226</ele>
<time>2026-05-08T05:22:41Z</time></trkpt>
<trkpt lat="41.006744" lon="-8.464299">
<ele>226</ele>
<time>2026-05-08T05:22:44Z</time></trkpt>
<trkpt lat="41.00664" lon="-8.464723">
<ele>225</ele>
<time>2026-05-08T05:22:51Z</time></trkpt>
<trkpt lat="41.006557" lon="-8.464867">
<ele>225</ele>
<time>2026-05-08T05:22:54Z</time></trkpt>
<trkpt lat="41.006468" lon="-8.465298">
<ele>223</ele>
<time>2026-05-08T05:23:00Z</time></trkpt>
<trkpt lat="41.006473" lon="-8.46542">
<ele>223</ele>
<time>2026-05-08T05:23:02Z</time></trkpt>
<trkpt lat="41.006269" lon="-8.466315">
<ele>224</ele>
<time>2026-05-08T05:23:16Z</time></trkpt>
<trkpt lat="41.006199" lon="-8.46645">
<ele>224</ele>
<time>2026-05-08T05:23:19Z</time></trkpt>
<trkpt lat="41.006081" lon="-8.466979">
<ele>226</ele>
<time>2026-05-08T05:23:27Z</time></trkpt>
<trkpt lat="41.00608" lon="-8.46712">
<ele>227</ele>
<time>2026-05-08T05:23:29Z</time></trkpt>
<trkpt lat="41.005976" lon="-8.467561">
<ele>229</ele>
<time>2026-05-08T05:23:36Z</time></trkpt>
<trkpt lat="41.00593" lon="-8.467677">
<ele>230</ele>
<time>2026-05-08T05:23:38Z</time></trkpt>
<trkpt lat="41.005871" lon="-8.467762">
<ele>231</ele>
<time>2026-05-08T05:23:40Z</time></trkpt>
<trkpt lat="41.005609" lon="-8.468422">
<ele>233</ele>
<time>2026-05-08T05:23:51Z</time></trkpt>
<trkpt lat="41.005476" lon="-8.468928">
<ele>234</ele>
<time>2026-05-08T05:23:59Z</time></trkpt>
<trkpt lat="41.005364" lon="-8.469525">
<ele>236</ele>
<time>2026-05-08T05:24:09Z</time></trkpt>
<trkpt lat="41.005309" lon="-8.469925">
<ele>238</ele>
<time>2026-05-08T05:24:15Z</time></trkpt>
<trkpt lat="41.005263" lon="-8.470122">
<ele>239</ele>
<time>2026-05-08T05:24:18Z</time></trkpt>
<trkpt lat="41.00507" lon="-8.470548">
<ele>240</ele>
<time>2026-05-08T05:24:26Z</time></trkpt>
<trkpt lat="41.004959" lon="-8.470831">
<ele>241</ele>
<time>2026-05-08T05:24:30Z</time></trkpt>
<trkpt lat="41.00463" lon="-8.472273">
<ele>238</ele>
<time>2026-05-08T05:24:53Z</time></trkpt>
<trkpt lat="41.004447" lon="-8.472939">
<ele>236</ele>
<time>2026-05-08T05:25:04Z</time></trkpt>
<trkpt lat="41.00421" lon="-8.473978">
<ele>238</ele>
<time>2026-05-08T05:25:20Z</time></trkpt>
<trkpt lat="41.003835" lon="-8.475439">
<ele>237</ele>
<time>2026-05-08T05:25:44Z</time></trkpt>
<trkpt lat="41.003705" lon="-8.475925">
<ele>237</ele>
<time>2026-05-08T05:25:51Z</time></trkpt>
<trkpt lat="41.003618" lon="-8.47607">
<ele>237</ele>
<time>2026-05-08T05:25:54Z</time></trkpt>
<trkpt lat="41.003526" lon="-8.476185">
<ele>237</ele>
<time>2026-05-08T05:25:57Z</time></trkpt>
<trkpt lat="41.003063" lon="-8.476655">
<ele>236</ele>
<time>2026-05-08T05:26:08Z</time></trkpt>
<trkpt lat="41.002799" lon="-8.477042">
<ele>236</ele>
<time>2026-05-08T05:26:16Z</time></trkpt>
<trkpt lat="41.001968" lon="-8.478163">
<ele>235</ele>
<time>2026-05-08T05:26:40Z</time></trkpt>
<trkpt lat="41.001793" lon="-8.478321">
<ele>233</ele>
<time>2026-05-08T05:26:44Z</time></trkpt>
<trkpt lat="41.001443" lon="-8.478471">
<ele>230</ele>
<time>2026-05-08T05:26:52Z</time></trkpt>
<trkpt lat="40.9991" lon="-8.479319">
<ele>158</ele>
<time>2026-05-08T05:27:40Z</time></trkpt>
<trkpt lat="40.996192" lon="-8.481683">
<ele>212</ele>
<time>2026-05-08T05:28:49Z</time></trkpt>
<trkpt lat="40.996089" lon="-8.481745">
<ele>212</ele>
<time>2026-05-08T05:28:51Z</time></trkpt>
<trkpt lat="40.995242" lon="-8.482062">
<ele>211</ele>
<time>2026-05-08T05:29:09Z</time></trkpt>
<trkpt lat="40.995002" lon="-8.482196">
<ele>210</ele>
<time>2026-05-08T05:29:14Z</time></trkpt>
<trkpt lat="40.993987" lon="-8.482692">
<ele>213</ele>
<time>2026-05-08T05:29:36Z</time></trkpt>
<trkpt lat="40.993571" lon="-8.482847">
<ele>214</ele>
<time>2026-05-08T05:29:44Z</time></trkpt>
<trkpt lat="40.992454" lon="-8.483254">
<ele>220</ele>
<time>2026-05-08T05:30:07Z</time></trkpt>
<trkpt lat="40.992122" lon="-8.48342">
<ele>222</ele>
<time>2026-05-08T05:30:15Z</time></trkpt>
<trkpt lat="40.990931" lon="-8.484463">
<ele>229</ele>
<time>2026-05-08T05:30:43Z</time></trkpt>
<trkpt lat="40.991019" lon="-8.484642">
<ele>228</ele>
<time>2026-05-08T05:30:46Z</time></trkpt>
<trkpt lat="40.991252" lon="-8.485003">
<ele>226</ele>
<time>2026-05-08T05:30:54Z</time></trkpt>
<trkpt lat="40.991294" lon="-8.485146">
<ele>225</ele>
<time>2026-05-08T05:30:56Z</time></trkpt>
<trkpt lat="40.991309" lon="-8.485299">
<ele>224</ele>
<time>2026-05-08T05:30:58Z</time></trkpt>
<trkpt lat="40.991306" lon="-8.4861">
<ele>221</ele>
<time>2026-05-08T05:31:10Z</time></trkpt>
<trkpt lat="40.991322" lon="-8.486253">
<ele>220</ele>
<time>2026-05-08T05:31:13Z</time></trkpt>
<trkpt lat="40.991353" lon="-8.486396">
<ele>220</ele>
<time>2026-05-08T05:31:15Z</time></trkpt>
<trkpt lat="40.991397" lon="-8.486513">
<ele>220</ele>
<time>2026-05-08T05:31:17Z</time></trkpt>
<trkpt lat="40.991397" lon="-8.486513">
<ele>220</ele>
<time>2026-05-08T05:31:17Z</time></trkpt>
<trkpt lat="40.991676" lon="-8.487259">
<ele>220</ele>
<time>2026-05-08T05:31:29Z</time></trkpt>
<trkpt lat="40.991976" lon="-8.487769">
<ele>221</ele>
<time>2026-05-08T05:31:39Z</time></trkpt>
<trkpt lat="40.992043" lon="-8.488009">
<ele>221</ele>
<time>2026-05-08T05:31:43Z</time></trkpt>
<trkpt lat="40.992185" lon="-8.489002">
<ele>218</ele>
<time>2026-05-08T05:31:58Z</time></trkpt>
<trkpt lat="40.992288" lon="-8.489594">
<ele>215</ele>
<time>2026-05-08T05:32:08Z</time></trkpt>
<trkpt lat="40.992313" lon="-8.490062">
<ele>214</ele>
<time>2026-05-08T05:32:15Z</time></trkpt>
<trkpt lat="40.993405" lon="-8.492516">
<ele>206</ele>
<time>2026-05-08T05:32:58Z</time></trkpt>
<trkpt lat="40.993502" lon="-8.492772">
<ele>204</ele>
<time>2026-05-08T05:33:02Z</time></trkpt>
<trkpt lat="40.993539" lon="-8.492953">
<ele>203</ele>
<time>2026-05-08T05:33:05Z</time></trkpt>
<trkpt lat="40.993596" lon="-8.493386">
<ele>202</ele>
<time>2026-05-08T05:33:12Z</time></trkpt>
<trkpt lat="40.993593" lon="-8.493669">
<ele>200</ele>
<time>2026-05-08T05:33:16Z</time></trkpt>
<trkpt lat="40.993556" lon="-8.493821">
<ele>200</ele>
<time>2026-05-08T05:33:18Z</time></trkpt>
<trkpt lat="40.99316" lon="-8.494823">
<ele>195</ele>
<time>2026-05-08T05:33:35Z</time></trkpt>
<trkpt lat="40.993133" lon="-8.494984">
<ele>194</ele>
<time>2026-05-08T05:33:38Z</time></trkpt>
<trkpt lat="40.993148" lon="-8.495158">
<ele>192</ele>
<time>2026-05-08T05:33:41Z</time></trkpt>
<trkpt lat="40.993431" lon="-8.496219">
<ele>181</ele>
<time>2026-05-08T05:33:58Z</time></trkpt>
<trkpt lat="40.993487" lon="-8.496496">
<ele>180</ele>
<time>2026-05-08T05:34:02Z</time></trkpt>
<trkpt lat="40.993495" lon="-8.496735">
<ele>179</ele>
<time>2026-05-08T05:34:06Z</time></trkpt>
<trkpt lat="40.993432" lon="-8.497396">
<ele>177</ele>
<time>2026-05-08T05:34:16Z</time></trkpt>
<trkpt lat="40.993428" lon="-8.497754">
<ele>176</ele>
<time>2026-05-08T05:34:21Z</time></trkpt>
<trkpt lat="40.993464" lon="-8.498357">
<ele>173</ele>
<time>2026-05-08T05:34:30Z</time></trkpt>
<trkpt lat="40.993418" lon="-8.498614">
<ele>171</ele>
<time>2026-05-08T05:34:34Z</time></trkpt>
<trkpt lat="40.992951" lon="-8.499468">
<ele>165</ele>
<time>2026-05-08T05:34:50Z</time></trkpt>
<trkpt lat="40.99262" lon="-8.500136">
<ele>159</ele>
<time>2026-05-08T05:35:02Z</time></trkpt>
<trkpt lat="40.992565" lon="-8.500285">
<ele>158</ele>
<time>2026-05-08T05:35:05Z</time></trkpt>
<trkpt lat="40.992537" lon="-8.500457">
<ele>157</ele>
<time>2026-05-08T05:35:07Z</time></trkpt>
<trkpt lat="40.992561" lon="-8.500628">
<ele>156</ele>
<time>2026-05-08T05:35:10Z</time></trkpt>
<trkpt lat="40.992706" lon="-8.500951">
<ele>157</ele>
<time>2026-05-08T05:35:16Z</time></trkpt>
<trkpt lat="40.992811" lon="-8.501234">
<ele>157</ele>
<time>2026-05-08T05:35:20Z</time></trkpt>
<trkpt lat="40.993231" lon="-8.502499">
<ele>149</ele>
<time>2026-05-08T05:35:41Z</time></trkpt>
<trkpt lat="40.993268" lon="-8.502686">
<ele>148</ele>
<time>2026-05-08T05:35:44Z</time></trkpt>
<trkpt lat="40.993277" lon="-8.502879">
<ele>147</ele>
<time>2026-05-08T05:35:47Z</time></trkpt>
<trkpt lat="40.993243" lon="-8.503343">
<ele>143</ele>
<time>2026-05-08T05:35:54Z</time></trkpt>
<trkpt lat="40.99325" lon="-8.503552">
<ele>142</ele>
<time>2026-05-08T05:35:57Z</time></trkpt>
<trkpt lat="40.993291" lon="-8.503725">
<ele>142</ele>
<time>2026-05-08T05:36:00Z</time></trkpt>
<trkpt lat="40.993362" lon="-8.503897">
<ele>141</ele>
<time>2026-05-08T05:36:03Z</time></trkpt>
<trkpt lat="40.993882" lon="-8.504851">
<ele>136</ele>
<time>2026-05-08T05:36:21Z</time></trkpt>
<trkpt lat="40.99449" lon="-8.506164">
<ele>130</ele>
<time>2026-05-08T05:36:44Z</time></trkpt>
<trkpt lat="40.99449" lon="-8.506164">
<ele>130</ele>
<time>2026-05-08T05:36:44Z</time></trkpt>
<trkpt lat="40.994867" lon="-8.506978">
<ele>128</ele>
<time>2026-05-08T05:36:59Z</time></trkpt>
<trkpt lat="40.994951" lon="-8.507245">
<ele>127</ele>
<time>2026-05-08T05:37:03Z</time></trkpt>
<trkpt lat="40.995795" lon="-8.512879">
<ele>123</ele>
<time>2026-05-08T05:38:30Z</time></trkpt>
<trkpt lat="40.995928" lon="-8.513379">
<ele>124</ele>
<time>2026-05-08T05:38:38Z</time></trkpt>
<trkpt lat="40.99603" lon="-8.513698">
<ele>125</ele>
<time>2026-05-08T05:38:43Z</time></trkpt>
<trkpt lat="40.996097" lon="-8.514021">
<ele>125</ele>
<time>2026-05-08T05:38:48Z</time></trkpt>
<trkpt lat="40.996089" lon="-8.514228">
<ele>126</ele>
<time>2026-05-08T05:38:51Z</time></trkpt>
<trkpt lat="40.996011" lon="-8.514519">
<ele>127</ele>
<time>2026-05-08T05:38:56Z</time></trkpt>
<trkpt lat="40.995935" lon="-8.514917">
<ele>129</ele>
<time>2026-05-08T05:39:02Z</time></trkpt>
<trkpt lat="40.995942" lon="-8.51512">
<ele>129</ele>
<time>2026-05-08T05:39:05Z</time></trkpt>
<trkpt lat="40.99597" lon="-8.515218">
<ele>130</ele>
<time>2026-05-08T05:39:07Z</time></trkpt>
<trkpt lat="40.996128" lon="-8.515495">
<ele>131</ele>
<time>2026-05-08T05:39:12Z</time></trkpt>
<trkpt lat="40.996185" lon="-8.515631">
<ele>132</ele>
<time>2026-05-08T05:39:14Z</time></trkpt>
<trkpt lat="40.996196" lon="-8.515767">
<ele>132</ele>
<time>2026-05-08T05:39:17Z</time></trkpt>
<trkpt lat="40.99617" lon="-8.515924">
<ele>133</ele>
<time>2026-05-08T05:39:19Z</time></trkpt>
<trkpt lat="40.995869" lon="-8.516629">
<ele>139</ele>
<time>2026-05-08T05:39:31Z</time></trkpt>
<trkpt lat="40.995833" lon="-8.516758">
<ele>140</ele>
<time>2026-05-08T05:39:33Z</time></trkpt>
<trkpt lat="40.995825" lon="-8.516878">
<ele>142</ele>
<time>2026-05-08T05:39:35Z</time></trkpt>
<trkpt lat="40.995856" lon="-8.517022">
<ele>143</ele>
<time>2026-05-08T05:39:37Z</time></trkpt>
<trkpt lat="40.995926" lon="-8.517162">
<ele>145</ele>
<time>2026-05-08T05:39:40Z</time></trkpt>
<trkpt lat="40.996095" lon="-8.51731">
<ele>146</ele>
<time>2026-05-08T05:39:44Z</time></trkpt>
<trkpt lat="40.996339" lon="-8.517423">
<ele>147</ele>
<time>2026-05-08T05:39:49Z</time></trkpt>
<trkpt lat="40.996708" lon="-8.517557">
<ele>150</ele>
<time>2026-05-08T05:39:57Z</time></trkpt>
<trkpt lat="40.996943" lon="-8.517606">
<ele>152</ele>
<time>2026-05-08T05:40:02Z</time></trkpt>
<trkpt lat="40.997635" lon="-8.517548">
<ele>154</ele>
<time>2026-05-08T05:40:16Z</time></trkpt>
<trkpt lat="40.99801" lon="-8.517646">
<ele>156</ele>
<time>2026-05-08T05:40:23Z</time></trkpt>
<trkpt lat="40.998173" lon="-8.517712">
<ele>157</ele>
<time>2026-05-08T05:40:27Z</time></trkpt>
<trkpt lat="40.998281" lon="-8.51785">
<ele>158</ele>
<time>2026-05-08T05:40:30Z</time></trkpt>
<trkpt lat="40.998322" lon="-8.517982">
<ele>160</ele>
<time>2026-05-08T05:40:32Z</time></trkpt>
<trkpt lat="40.99831" lon="-8.518217">
<ele>163</ele>
<time>2026-05-08T05:40:35Z</time></trkpt>
<trkpt lat="40.998271" lon="-8.518321">
<ele>164</ele>
<time>2026-05-08T05:40:37Z</time></trkpt>
<trkpt lat="40.998146" lon="-8.518414">
<ele>167</ele>
<time>2026-05-08T05:40:40Z</time></trkpt>
<trkpt lat="40.998091" lon="-8.518433">
<ele>168</ele>
<time>2026-05-08T05:40:41Z</time></trkpt>
<trkpt lat="40.997816" lon="-8.518411">
<ele>170</ele>
<time>2026-05-08T05:40:47Z</time></trkpt>
<trkpt lat="40.997254" lon="-8.518579">
<ele>174</ele>
<time>2026-05-08T05:40:58Z</time></trkpt>
<trkpt lat="40.99697" lon="-8.51875">
<ele>176</ele>
<time>2026-05-08T05:41:04Z</time></trkpt>
<trkpt lat="40.996827" lon="-8.518774">
<ele>176</ele>
<time>2026-05-08T05:41:07Z</time></trkpt>
<trkpt lat="40.99671" lon="-8.51883">
<ele>176</ele>
<time>2026-05-08T05:41:10Z</time></trkpt>
<trkpt lat="40.996618" lon="-8.518945">
<ele>177</ele>
<time>2026-05-08T05:41:12Z</time></trkpt>
<trkpt lat="40.996579" lon="-8.519066">
<ele>179</ele>
<time>2026-05-08T05:41:14Z</time></trkpt>
<trkpt lat="40.996569" lon="-8.519349">
<ele>180</ele>
<time>2026-05-08T05:41:19Z</time></trkpt>
<trkpt lat="40.996581" lon="-8.5195">
<ele>180</ele>
<time>2026-05-08T05:41:21Z</time></trkpt>
<trkpt lat="40.996482" lon="-8.519868">
<ele>179</ele>
<time>2026-05-08T05:41:27Z</time></trkpt>
<trkpt lat="40.996477" lon="-8.520063">
<ele>179</ele>
<time>2026-05-08T05:41:30Z</time></trkpt>
<trkpt lat="40.996518" lon="-8.520216">
<ele>179</ele>
<time>2026-05-08T05:41:32Z</time></trkpt>
<trkpt lat="40.996689" lon="-8.520551">
<ele>178</ele>
<time>2026-05-08T05:41:38Z</time></trkpt>
<trkpt lat="40.996716" lon="-8.520713">
<ele>177</ele>
<time>2026-05-08T05:41:41Z</time></trkpt>
<trkpt lat="40.996759" lon="-8.52188">
<ele>180</ele>
<time>2026-05-08T05:41:58Z</time></trkpt>
<trkpt lat="40.996736" lon="-8.522012">
<ele>182</ele>
<time>2026-05-08T05:42:01Z</time></trkpt>
<trkpt lat="40.996679" lon="-8.522132">
<ele>183</ele>
<time>2026-05-08T05:42:03Z</time></trkpt>
<trkpt lat="40.996591" lon="-8.522233">
<ele>184</ele>
<time>2026-05-08T05:42:05Z</time></trkpt>
<trkpt lat="40.996491" lon="-8.522272">
<ele>184</ele>
<time>2026-05-08T05:42:07Z</time></trkpt>
<trkpt lat="40.99557" lon="-8.522333">
<ele>182</ele>
<time>2026-05-08T05:42:26Z</time></trkpt>
<trkpt lat="40.995402" lon="-8.522469">
<ele>183</ele>
<time>2026-05-08T05:42:30Z</time></trkpt>
<trkpt lat="40.995352" lon="-8.522619">
<ele>184</ele>
<time>2026-05-08T05:42:32Z</time></trkpt>
<trkpt lat="40.995341" lon="-8.522718">
<ele>185</ele>
<time>2026-05-08T05:42:34Z</time></trkpt>
<trkpt lat="40.995547" lon="-8.523471">
<ele>191</ele>
<time>2026-05-08T05:42:46Z</time></trkpt>
<trkpt lat="40.995562" lon="-8.523705">
<ele>194</ele>
<time>2026-05-08T05:42:49Z</time></trkpt>
<trkpt lat="40.995539" lon="-8.523876">
<ele>196</ele>
<time>2026-05-08T05:42:52Z</time></trkpt>
<trkpt lat="40.995494" lon="-8.524006">
<ele>197</ele>
<time>2026-05-08T05:42:54Z</time></trkpt>
<trkpt lat="40.995272" lon="-8.524307">
<ele>199</ele>
<time>2026-05-08T05:43:00Z</time></trkpt>
<trkpt lat="40.995071" lon="-8.524708">
<ele>201</ele>
<time>2026-05-08T05:43:08Z</time></trkpt>
<trkpt lat="40.995022" lon="-8.524852">
<ele>202</ele>
<time>2026-05-08T05:43:10Z</time></trkpt>
<trkpt lat="40.995011" lon="-8.524956">
<ele>203</ele>
<time>2026-05-08T05:43:12Z</time></trkpt>
<trkpt lat="40.995021" lon="-8.525072">
<ele>203</ele>
<time>2026-05-08T05:43:13Z</time></trkpt>
<trkpt lat="40.995076" lon="-8.525141">
<ele>203</ele>
<time>2026-05-08T05:43:15Z</time></trkpt>
<trkpt lat="40.995636" lon="-8.525546">
<ele>206</ele>
<time>2026-05-08T05:43:28Z</time></trkpt>
<trkpt lat="40.996149" lon="-8.525811">
<ele>209</ele>
<time>2026-05-08T05:43:39Z</time></trkpt>
<trkpt lat="40.996342" lon="-8.525946">
<ele>209</ele>
<time>2026-05-08T05:43:43Z</time></trkpt>
<trkpt lat="40.996342" lon="-8.525946">
<ele>209</ele>
<time>2026-05-08T05:43:43Z</time></trkpt>
<trkpt lat="40.997127" lon="-8.526564">
<ele>212</ele>
<time>2026-05-08T05:44:01Z</time></trkpt>
<trkpt lat="40.997226" lon="-8.526721">
<ele>212</ele>
<time>2026-05-08T05:44:04Z</time></trkpt>
<trkpt lat="40.997275" lon="-8.526873">
<ele>212</ele>
<time>2026-05-08T05:44:07Z</time></trkpt>
<trkpt lat="40.997371" lon="-8.527613">
<ele>214</ele>
<time>2026-05-08T05:44:18Z</time></trkpt>
<trkpt lat="40.99744" lon="-8.527885">
<ele>214</ele>
<time>2026-05-08T05:44:23Z</time></trkpt>
<trkpt lat="40.998313" lon="-8.530418">
<ele>221</ele>
<time>2026-05-08T05:45:05Z</time></trkpt>
<trkpt lat="40.998401" lon="-8.530467">
<ele>222</ele>
<time>2026-05-08T05:45:07Z</time></trkpt>
<trkpt lat="40.998462" lon="-8.530436">
<ele>222</ele>
<time>2026-05-08T05:45:08Z</time></trkpt>
<trkpt lat="40.998555" lon="-8.530472">
<ele>223</ele>
<time>2026-05-08T05:45:10Z</time></trkpt>
<trkpt lat="40.998594" lon="-8.530542">
<ele>223</ele>
<time>2026-05-08T05:45:11Z</time></trkpt>
<trkpt lat="40.998601" lon="-8.530628">
<ele>224</ele>
<time>2026-05-08T05:45:13Z</time></trkpt>
<trkpt lat="40.998551" lon="-8.530738">
<ele>224</ele>
<time>2026-05-08T05:45:14Z</time></trkpt>
<trkpt lat="40.99849" lon="-8.530769">
<ele>224</ele>
<time>2026-05-08T05:45:16Z</time></trkpt>
<trkpt lat="40.99837" lon="-8.53089">
<ele>223</ele>
<time>2026-05-08T05:45:19Z</time></trkpt>
<trkpt lat="40.998295" lon="-8.531053">
<ele>223</ele>
<time>2026-05-08T05:45:22Z</time></trkpt>
<trkpt lat="40.997846" lon="-8.532567">
<ele>219</ele>
<time>2026-05-08T05:45:46Z</time></trkpt>
<trkpt lat="40.997726" lon="-8.532925">
<ele>219</ele>
<time>2026-05-08T05:45:52Z</time></trkpt>
<trkpt lat="40.997641" lon="-8.533037">
<ele>219</ele>
<time>2026-05-08T05:45:55Z</time></trkpt>
<trkpt lat="40.997342" lon="-8.533354">
<ele>220</ele>
<time>2026-05-08T05:46:02Z</time></trkpt>
<trkpt lat="40.99725" lon="-8.533498">
<ele>221</ele>
<time>2026-05-08T05:46:05Z</time></trkpt>
<trkpt lat="40.995736" lon="-8.537534">
<ele>234</ele>
<time>2026-05-08T05:47:13Z</time></trkpt>
<trkpt lat="40.995433" lon="-8.538354">
<ele>233</ele>
<time>2026-05-08T05:47:27Z</time></trkpt>
<trkpt lat="40.995432" lon="-8.538353">
<ele>233</ele>
<time>2026-05-08T05:47:27Z</time></trkpt>
<trkpt lat="40.995134" lon="-8.539178">
<ele>232</ele>
<time>2026-05-08T05:47:41Z</time></trkpt>
<trkpt lat="40.995143" lon="-8.53939">
<ele>232</ele>
<time>2026-05-08T05:47:44Z</time></trkpt>
<trkpt lat="40.995166" lon="-8.539447">
<ele>232</ele>
<time>2026-05-08T05:47:45Z</time></trkpt>
<trkpt lat="40.99527" lon="-8.539629">
<ele>231</ele>
<time>2026-05-08T05:47:49Z</time></trkpt>
<trkpt lat="40.996752" lon="-8.540044">
<ele>232</ele>
<time>2026-05-08T05:48:19Z</time></trkpt>
<trkpt lat="40.996972" lon="-8.540131">
<ele>233</ele>
<time>2026-05-08T05:48:24Z</time></trkpt>
<trkpt lat="40.997449" lon="-8.540376">
<ele>233</ele>
<time>2026-05-08T05:48:34Z</time></trkpt>
<trkpt lat="40.999301" lon="-8.541329">
<ele>237</ele>
<time>2026-05-08T05:49:14Z</time></trkpt>
<trkpt lat="40.9995" lon="-8.541462">
<ele>238</ele>
<time>2026-05-08T05:49:18Z</time></trkpt>
<trkpt lat="40.999644" lon="-8.541591">
<ele>238</ele>
<time>2026-05-08T05:49:22Z</time></trkpt>
<trkpt lat="40.999824" lon="-8.541813">
<ele>238</ele>
<time>2026-05-08T05:49:27Z</time></trkpt>
<trkpt lat="41.000022" lon="-8.542136">
<ele>234</ele>
<time>2026-05-08T05:49:33Z</time></trkpt>
<trkpt lat="41.000133" lon="-8.542387">
<ele>236</ele>
<time>2026-05-08T05:49:37Z</time></trkpt>
<trkpt lat="41.00182" lon="-8.547029">
<ele>227</ele>
<time>2026-05-08T05:50:55Z</time></trkpt>
<trkpt lat="41.00182" lon="-8.547029">
<ele>227</ele>
<time>2026-05-08T05:50:55Z</time></trkpt>
<trkpt lat="41.002025" lon="-8.547589">
<ele>227</ele>
<time>2026-05-08T05:51:05Z</time></trkpt>
<trkpt lat="41.001474" lon="-8.548377">
<ele>218</ele>
<time>2026-05-08T05:51:21Z</time></trkpt>
<trkpt lat="41.00118" lon="-8.548667">
<ele>215</ele>
<time>2026-05-08T05:51:28Z</time></trkpt>
<trkpt lat="41.000533" lon="-8.549135">
<ele>210</ele>
<time>2026-05-08T05:51:43Z</time></trkpt>
<trkpt lat="41.000441" lon="-8.549219">
<ele>209</ele>
<time>2026-05-08T05:51:45Z</time></trkpt>
<trkpt lat="41.000372" lon="-8.549322">
<ele>208</ele>
<time>2026-05-08T05:51:47Z</time></trkpt>
<trkpt lat="40.99991" lon="-8.550293">
<ele>1130</ele>
<time>2026-05-08T05:52:05Z</time></trkpt>
<trkpt lat="40.999849" lon="-8.550386">
<ele>198</ele>
<time>2026-05-08T05:52:06Z</time></trkpt>
<trkpt lat="40.999849" lon="-8.550386">
<ele>198</ele>
<time>2026-05-08T05:52:06Z</time></trkpt>
<trkpt lat="40.999705" lon="-8.550549">
<ele>196</ele>
<time>2026-05-08T05:52:10Z</time></trkpt>
<trkpt lat="40.999573" lon="-8.550633">
<ele>195</ele>
<time>2026-05-08T05:52:13Z</time></trkpt>
<trkpt lat="40.99897" lon="-8.550886">
<ele>192</ele>
<time>2026-05-08T05:52:26Z</time></trkpt>
<trkpt lat="40.998401" lon="-8.551215">
<ele>191</ele>
<time>2026-05-08T05:52:38Z</time></trkpt>
<trkpt lat="40.998196" lon="-8.551375">
<ele>190</ele>
<time>2026-05-08T05:52:43Z</time></trkpt>
<trkpt lat="40.998021" lon="-8.551755">
<ele>189</ele>
<time>2026-05-08T05:52:50Z</time></trkpt>
<trkpt lat="40.997857" lon="-8.552226">
<ele>186</ele>
<time>2026-05-08T05:52:58Z</time></trkpt>
<trkpt lat="40.997583" lon="-8.553414">
<ele>180</ele>
<time>2026-05-08T05:53:16Z</time></trkpt>
<trkpt lat="40.997559" lon="-8.553638">
<ele>179</ele>
<time>2026-05-08T05:53:20Z</time></trkpt>
<trkpt lat="40.997574" lon="-8.553872">
<ele>177</ele>
<time>2026-05-08T05:53:23Z</time></trkpt>
<trkpt lat="40.997604" lon="-8.554022">
<ele>176</ele>
<time>2026-05-08T05:53:26Z</time></trkpt>
<trkpt lat="40.997682" lon="-8.554199">
<ele>174</ele>
<time>2026-05-08T05:53:29Z</time></trkpt>
<trkpt lat="40.997872" lon="-8.554554">
<ele>171</ele>
<time>2026-05-08T05:53:35Z</time></trkpt>
<trkpt lat="40.997933" lon="-8.554826">
<ele>170</ele>
<time>2026-05-08T05:53:40Z</time></trkpt>
<trkpt lat="40.997966" lon="-8.555313">
<ele>168</ele>
<time>2026-05-08T05:53:47Z</time></trkpt>
<trkpt lat="40.997984" lon="-8.556548">
<ele>163</ele>
<time>2026-05-08T05:54:06Z</time></trkpt>
<trkpt lat="40.997984" lon="-8.556548">
<ele>163</ele>
<time>2026-05-08T05:54:06Z</time></trkpt>
<trkpt lat="40.997983" lon="-8.556768">
<ele>163</ele>
<time>2026-05-08T05:54:09Z</time></trkpt>
<trkpt lat="40.997932" lon="-8.557588">
<ele>160</ele>
<time>2026-05-08T05:54:22Z</time></trkpt>
<trkpt lat="40.997884" lon="-8.557872">
<ele>158</ele>
<time>2026-05-08T05:54:26Z</time></trkpt>
<trkpt lat="40.997862" lon="-8.55837">
<ele>155</ele>
<time>2026-05-08T05:54:33Z</time></trkpt>
<trkpt lat="40.997622" lon="-8.559917">
<ele>143</ele>
<time>2026-05-08T05:54:57Z</time></trkpt>
<trkpt lat="40.997666" lon="-8.56057">
<ele>142</ele>
<time>2026-05-08T05:55:07Z</time></trkpt>
<trkpt lat="40.997687" lon="-8.560697">
<ele>142</ele>
<time>2026-05-08T05:55:09Z</time></trkpt>
<trkpt lat="40.997716" lon="-8.560775">
<ele>142</ele>
<time>2026-05-08T05:55:11Z</time></trkpt>
<trkpt lat="40.997742" lon="-8.5608">
<ele>142</ele>
<time>2026-05-08T05:55:11Z</time></trkpt>
<trkpt lat="40.997768" lon="-8.560866">
<ele>142</ele>
<time>2026-05-08T05:55:12Z</time></trkpt>
<trkpt lat="40.997769" lon="-8.560892">
<ele>142</ele>
<time>2026-05-08T05:55:13Z</time></trkpt>
<trkpt lat="40.997759" lon="-8.560942">
<ele>142</ele>
<time>2026-05-08T05:55:14Z</time></trkpt>
<trkpt lat="40.997765" lon="-8.56103">
<ele>143</ele>
<time>2026-05-08T05:55:15Z</time></trkpt>
<trkpt lat="40.997942" lon="-8.561739">
<ele>146</ele>
<time>2026-05-08T05:55:26Z</time></trkpt>
<trkpt lat="40.999156" lon="-8.566445">
<ele>184</ele>
<time>2026-05-08T05:56:41Z</time></trkpt>
<trkpt lat="40.999177" lon="-8.566485">
<ele>184</ele>
<time>2026-05-08T05:56:42Z</time></trkpt>
<trkpt lat="40.998574" lon="-8.566936">
<ele>189</ele>
<time>2026-05-08T05:56:56Z</time></trkpt>
<trkpt lat="40.998402" lon="-8.567048">
<ele>191</ele>
<time>2026-05-08T05:57:00Z</time></trkpt>
<trkpt lat="40.998273" lon="-8.567102">
<ele>191</ele>
<time>2026-05-08T05:57:03Z</time></trkpt>
<trkpt lat="40.998043" lon="-8.567132">
<ele>191</ele>
<time>2026-05-08T05:57:07Z</time></trkpt>
<trkpt lat="40.997857" lon="-8.567086">
<ele>190</ele>
<time>2026-05-08T05:57:11Z</time></trkpt>
<trkpt lat="40.997297" lon="-8.566767">
<ele>187</ele>
<time>2026-05-08T05:57:23Z</time></trkpt>
<trkpt lat="40.997098" lon="-8.566744">
<ele>185</ele>
<time>2026-05-08T05:57:27Z</time></trkpt>
<trkpt lat="40.996384" lon="-8.56703">
<ele>180</ele>
<time>2026-05-08T05:57:42Z</time></trkpt>
<trkpt lat="40.9963486" lon="-8.5670675">
<ele>179</ele>
<time>2026-05-08T05:57:43Z</time></trkpt>
<trkpt lat="40.9960882" lon="-8.5673417">
<ele>178</ele>
<time>2026-05-08T05:57:50Z</time></trkpt>
<trkpt lat="40.995837" lon="-8.567605">
<ele>176</ele>
<time>2026-05-08T05:57:56Z</time></trkpt>
<trkpt lat="40.995418" lon="-8.568099">
<ele>176</ele>
<time>2026-05-08T05:58:07Z</time></trkpt>
<trkpt lat="40.995311" lon="-8.568286">
<ele>176</ele>
<time>2026-05-08T05:58:11Z</time></trkpt>
<trkpt lat="40.99513" lon="-8.568684">
<ele>175</ele>
<time>2026-05-08T05:58:18Z</time></trkpt>
<trkpt lat="40.99489" lon="-8.569083">
<ele>174</ele>
<time>2026-05-08T05:58:26Z</time></trkpt>
<trkpt lat="40.994637" lon="-8.569622">
<ele>172</ele>
<time>2026-05-08T05:58:35Z</time></trkpt>
<trkpt lat="40.993986" lon="-8.571223">
<ele>165</ele>
<time>2026-05-08T05:59:03Z</time></trkpt>
<trkpt lat="40.993719" lon="-8.571821">
<ele>160</ele>
<time>2026-05-08T05:59:13Z</time></trkpt>
<trkpt lat="40.993668" lon="-8.572127">
<ele>159</ele>
<time>2026-05-08T05:59:18Z</time></trkpt>
<trkpt lat="40.993679" lon="-8.572166">
<ele>159</ele>
<time>2026-05-08T05:59:19Z</time></trkpt>
<trkpt lat="40.993674" lon="-8.572271">
<ele>159</ele>
<time>2026-05-08T05:59:20Z</time></trkpt>
<trkpt lat="40.993624" lon="-8.572354">
<ele>159</ele>
<time>2026-05-08T05:59:22Z</time></trkpt>
<trkpt lat="40.99356" lon="-8.572383">
<ele>159</ele>
<time>2026-05-08T05:59:23Z</time></trkpt>
<trkpt lat="40.993408" lon="-8.572577">
<ele>157</ele>
<time>2026-05-08T05:59:27Z</time></trkpt>
<trkpt lat="40.993278" lon="-8.572886">
<ele>155</ele>
<time>2026-05-08T05:59:33Z</time></trkpt>
<trkpt lat="40.990709" lon="-8.579116">
<ele>132</ele>
<time>2026-05-08T06:01:20Z</time></trkpt>
<trkpt lat="40.988375" lon="-8.584857">
<ele>122</ele>
<time>2026-05-08T06:02:59Z</time></trkpt>
<trkpt lat="40.988159" lon="-8.585382">
<ele>122</ele>
<time>2026-05-08T06:03:08Z</time></trkpt>
<trkpt lat="40.987022" lon="-8.586995">
<ele>117</ele>
<time>2026-05-08T06:03:41Z</time></trkpt>
<trkpt lat="40.986826" lon="-8.587355">
<ele>116</ele>
<time>2026-05-08T06:03:48Z</time></trkpt>
<trkpt lat="40.98641" lon="-8.588392">
<ele>113</ele>
<time>2026-05-08T06:04:06Z</time></trkpt>
<trkpt lat="40.986048" lon="-8.589865">
<ele>112</ele>
<time>2026-05-08T06:04:29Z</time></trkpt>
<trkpt lat="40.985956" lon="-8.590135">
<ele>111</ele>
<time>2026-05-08T06:04:34Z</time></trkpt>
<trkpt lat="40.9858" lon="-8.5905">
<ele>108</ele>
<time>2026-05-08T06:04:40Z</time></trkpt>
<trkpt lat="40.985749" lon="-8.590584">
<ele>107</ele>
<time>2026-05-08T06:04:42Z</time></trkpt>
<trkpt lat="40.985655" lon="-8.590886">
<ele>105</ele>
<time>2026-05-08T06:04:46Z</time></trkpt>
<trkpt lat="40.985666" lon="-8.590998">
<ele>105</ele>
<time>2026-05-08T06:04:48Z</time></trkpt>
<trkpt lat="40.985632" lon="-8.591101">
<ele>105</ele>
<time>2026-05-08T06:04:50Z</time></trkpt>
<trkpt lat="40.985487" lon="-8.592407">
<ele>103</ele>
<time>2026-05-08T06:05:10Z</time></trkpt>
<trkpt lat="40.98516" lon="-8.593513">
<ele>102</ele>
<time>2026-05-08T06:05:28Z</time></trkpt>
<trkpt lat="40.985087" lon="-8.594139">
<ele>103</ele>
<time>2026-05-08T06:05:37Z</time></trkpt>
<trkpt lat="40.985055" lon="-8.594239">
<ele>103</ele>
<time>2026-05-08T06:05:39Z</time></trkpt>
<trkpt lat="40.98484" lon="-8.594712">
<ele>103</ele>
<time>2026-05-08T06:05:47Z</time></trkpt>
<trkpt lat="40.9848027" lon="-8.5948628">
<ele>103</ele>
<time>2026-05-08T06:05:50Z</time></trkpt>
<trkpt lat="40.984803" lon="-8.594863">
<ele>103</ele>
<time>2026-05-08T06:05:50Z</time></trkpt>
<trkpt lat="40.984711" lon="-8.595233">
<ele>103</ele>
<time>2026-05-08T06:05:56Z</time></trkpt>
<trkpt lat="40.984633" lon="-8.595774">
<ele>102</ele>
<time>2026-05-08T06:06:04Z</time></trkpt>
<trkpt lat="40.98464" lon="-8.595918">
<ele>102</ele>
<time>2026-05-08T06:06:06Z</time></trkpt>
<trkpt lat="40.984684" lon="-8.59608">
<ele>101</ele>
<time>2026-05-08T06:06:09Z</time></trkpt>
<trkpt lat="40.984719" lon="-8.596625">
<ele>98</ele>
<time>2026-05-08T06:06:17Z</time></trkpt>
<trkpt lat="40.984707" lon="-8.597388">
<ele>93</ele>
<time>2026-05-08T06:06:29Z</time></trkpt>
<trkpt lat="40.984683" lon="-8.597563">
<ele>92</ele>
<time>2026-05-08T06:06:31Z</time></trkpt>
<trkpt lat="40.984279" lon="-8.599315">
<ele>87</ele>
<time>2026-05-08T06:06:59Z</time></trkpt>
<trkpt lat="40.984203" lon="-8.599774">
<ele>87</ele>
<time>2026-05-08T06:07:06Z</time></trkpt>
<trkpt lat="40.98421" lon="-8.60072">
<ele>89</ele>
<time>2026-05-08T06:07:20Z</time></trkpt>
<trkpt lat="40.984196" lon="-8.601674">
<ele>89</ele>
<time>2026-05-08T06:07:35Z</time></trkpt>
<trkpt lat="40.984168" lon="-8.601862">
<ele>89</ele>
<time>2026-05-08T06:07:38Z</time></trkpt>
<trkpt lat="40.983978" lon="-8.602782">
<ele>88</ele>
<time>2026-05-08T06:07:52Z</time></trkpt>
<trkpt lat="40.983921" lon="-8.603745">
<ele>88</ele>
<time>2026-05-08T06:08:07Z</time></trkpt>
<trkpt lat="40.983947" lon="-8.603797">
<ele>88</ele>
<time>2026-05-08T06:08:08Z</time></trkpt>
<trkpt lat="40.983948" lon="-8.603912">
<ele>87</ele>
<time>2026-05-08T06:08:09Z</time></trkpt>
<trkpt lat="40.983922" lon="-8.604071">
<ele>87</ele>
<time>2026-05-08T06:08:12Z</time></trkpt>
<trkpt lat="40.98394" lon="-8.604259">
<ele>86</ele>
<time>2026-05-08T06:08:15Z</time></trkpt>
<trkpt lat="40.983841" lon="-8.604823">
<ele>84</ele>
<time>2026-05-08T06:08:24Z</time></trkpt>
<trkpt lat="40.983833" lon="-8.604967">
<ele>84</ele>
<time>2026-05-08T06:08:26Z</time></trkpt>
<trkpt lat="40.98385" lon="-8.605105">
<ele>84</ele>
<time>2026-05-08T06:08:28Z</time></trkpt>
<trkpt lat="40.983928" lon="-8.605385">
<ele>84</ele>
<time>2026-05-08T06:08:32Z</time></trkpt>
<trkpt lat="40.983924" lon="-8.605484">
<ele>85</ele>
<time>2026-05-08T06:08:34Z</time></trkpt>
<trkpt lat="40.984332" lon="-8.606429">
<ele>86</ele>
<time>2026-05-08T06:08:50Z</time></trkpt>
<trkpt lat="40.984599" lon="-8.607008">
<ele>85</ele>
<time>2026-05-08T06:09:01Z</time></trkpt>
<trkpt lat="40.985171" lon="-8.608245">
<ele>85</ele>
<time>2026-05-08T06:09:23Z</time></trkpt>
<trkpt lat="40.985873" lon="-8.610072">
<ele>86</ele>
<time>2026-05-08T06:09:54Z</time></trkpt>
<trkpt lat="40.98596" lon="-8.610368">
<ele>87</ele>
<time>2026-05-08T06:09:58Z</time></trkpt>
<trkpt lat="40.985979" lon="-8.610639">
<ele>87</ele>
<time>2026-05-08T06:10:02Z</time></trkpt>
<trkpt lat="40.985956" lon="-8.610947">
<ele>87</ele>
<time>2026-05-08T06:10:07Z</time></trkpt>
<trkpt lat="40.98577" lon="-8.611939">
<ele>84</ele>
<time>2026-05-08T06:10:23Z</time></trkpt>
<trkpt lat="40.985674" lon="-8.612575">
<ele>82</ele>
<time>2026-05-08T06:10:32Z</time></trkpt>
<trkpt lat="40.985624" lon="-8.613291">
<ele>80</ele>
<time>2026-05-08T06:10:43Z</time></trkpt>
<trkpt lat="40.98562" lon="-8.614955">
<ele>81</ele>
<time>2026-05-08T06:11:08Z</time></trkpt>
<trkpt lat="40.98562" lon="-8.614955">
<ele>81</ele>
<time>2026-05-08T06:11:08Z</time></trkpt>
<trkpt lat="40.985604" lon="-8.618052">
<ele>79</ele>
<time>2026-05-08T06:11:55Z</time></trkpt>
<trkpt lat="40.985609" lon="-8.618185">
<ele>79</ele>
<time>2026-05-08T06:11:57Z</time></trkpt>
<trkpt lat="40.985652" lon="-8.61844">
<ele>77</ele>
<time>2026-05-08T06:12:01Z</time></trkpt>
<trkpt lat="40.985744" lon="-8.61877">
<ele>75</ele>
<time>2026-05-08T06:12:07Z</time></trkpt>
<trkpt lat="40.986185" lon="-8.619999">
<ele>69</ele>
<time>2026-05-08T06:12:27Z</time></trkpt>
<trkpt lat="40.987483" lon="-8.623848">
<ele>57</ele>
<time>2026-05-08T06:13:31Z</time></trkpt>
<trkpt lat="40.987751" lon="-8.624376">
<ele>56</ele>
<time>2026-05-08T06:13:41Z</time></trkpt>
<trkpt lat="40.98788" lon="-8.624565">
<ele>56</ele>
<time>2026-05-08T06:13:44Z</time></trkpt>
<trkpt lat="40.988271" lon="-8.624918">
<ele>55</ele>
<time>2026-05-08T06:13:54Z</time></trkpt>
<trkpt lat="40.988478" lon="-8.625057">
<ele>55</ele>
<time>2026-05-08T06:13:59Z</time></trkpt>
<trkpt lat="40.989604" lon="-8.625636">
<ele>54</ele>
<time>2026-05-08T06:14:23Z</time></trkpt>
<trkpt lat="40.989734" lon="-8.625672">
<ele>54</ele>
<time>2026-05-08T06:14:25Z</time></trkpt>
<trkpt lat="40.990014" lon="-8.625678">
<ele>55</ele>
<time>2026-05-08T06:14:31Z</time></trkpt>
<trkpt lat="40.990555" lon="-8.62547">
<ele>55</ele>
<time>2026-05-08T06:14:42Z</time></trkpt>
<trkpt lat="40.990836" lon="-8.625437">
<ele>55</ele>
<time>2026-05-08T06:14:48Z</time></trkpt>
<trkpt lat="40.990953" lon="-8.625445">
<ele>55</ele>
<time>2026-05-08T06:14:50Z</time></trkpt>
<trkpt lat="40.991068" lon="-8.625486">
<ele>55</ele>
<time>2026-05-08T06:14:53Z</time></trkpt>
<trkpt lat="40.99149" lon="-8.625707">
<ele>54</ele>
<time>2026-05-08T06:15:02Z</time></trkpt>
<trkpt lat="40.991704" lon="-8.625777">
<ele>54</ele>
<time>2026-05-08T06:15:06Z</time></trkpt>
<trkpt lat="40.992316" lon="-8.625955">
<ele>53</ele>
<time>2026-05-08T06:15:19Z</time></trkpt>
<trkpt lat="40.992441" lon="-8.625928">
<ele>53</ele>
<time>2026-05-08T06:15:21Z</time></trkpt>
<trkpt lat="40.992602" lon="-8.625779">
<ele>53</ele>
<time>2026-05-08T06:15:25Z</time></trkpt>
<trkpt lat="40.992754" lon="-8.625734">
<ele>53</ele>
<time>2026-05-08T06:15:28Z</time></trkpt>
<trkpt lat="40.994331" lon="-8.626442">
<ele>47</ele>
<time>2026-05-08T06:16:02Z</time></trkpt>
<trkpt lat="40.994556" lon="-8.626504">
<ele>46</ele>
<time>2026-05-08T06:16:06Z</time></trkpt>
<trkpt lat="40.996047" lon="-8.626766">
<ele>41</ele>
<time>2026-05-08T06:16:36Z</time></trkpt>
<trkpt lat="40.996142" lon="-8.626801">
<ele>39</ele>
<time>2026-05-08T06:16:38Z</time></trkpt>
<trkpt lat="40.996142" lon="-8.626801">
<ele>39</ele>
<time>2026-05-08T06:16:38Z</time></trkpt>
<trkpt lat="40.996168" lon="-8.62681">
<ele>38</ele>
<time>2026-05-08T06:16:39Z</time></trkpt>
<trkpt lat="40.996346" lon="-8.626909">
<ele>35</ele>
<time>2026-05-08T06:16:43Z</time></trkpt>
<trkpt lat="40.996912" lon="-8.627442">
<ele>29</ele>
<time>2026-05-08T06:16:57Z</time></trkpt>
<trkpt lat="40.997415" lon="-8.627947">
<ele>25</ele>
<time>2026-05-08T06:17:09Z</time></trkpt>
<trkpt lat="40.99753" lon="-8.628038">
<ele>25</ele>
<time>2026-05-08T06:17:12Z</time></trkpt>
<trkpt lat="40.997876" lon="-8.628148">
<ele>26</ele>
<time>2026-05-08T06:17:19Z</time></trkpt>
<trkpt lat="40.998162" lon="-8.628192">
<ele>27</ele>
<time>2026-05-08T06:17:25Z</time></trkpt>
<trkpt lat="40.998467" lon="-8.628179">
<ele>30</ele>
<time>2026-05-08T06:17:31Z</time></trkpt>
<trkpt lat="40.998905" lon="-8.628058">
<ele>38</ele>
<time>2026-05-08T06:17:40Z</time></trkpt>
<trkpt lat="40.999638" lon="-8.627788">
<ele>49</ele>
<time>2026-05-08T06:17:55Z</time></trkpt>
<trkpt lat="41.000336" lon="-8.627841">
<ele>54</ele>
<time>2026-05-08T06:18:09Z</time></trkpt>
<trkpt lat="41.00053" lon="-8.627819">
<ele>55</ele>
<time>2026-05-08T06:18:13Z</time></trkpt>
<trkpt lat="41.001321" lon="-8.627462">
<ele>53</ele>
<time>2026-05-08T06:18:30Z</time></trkpt>
<trkpt lat="41.00199" lon="-8.627135">
<ele>52</ele>
<time>2026-05-08T06:18:44Z</time></trkpt>
<trkpt lat="41.003278" lon="-8.626882">
<ele>54</ele>
<time>2026-05-08T06:19:10Z</time></trkpt>
<trkpt lat="41.003441" lon="-8.626822">
<ele>54</ele>
<time>2026-05-08T06:19:14Z</time></trkpt>
<trkpt lat="41.003952" lon="-8.626538">
<ele>55</ele>
<time>2026-05-08T06:19:25Z</time></trkpt>
<trkpt lat="41.003959" lon="-8.625675">
<ele>58</ele>
<time>2026-05-08T06:19:38Z</time></trkpt>
<trkpt lat="41.003944" lon="-8.62316">
<ele>60</ele>
<time>2026-05-08T06:20:16Z</time></trkpt>
<trkpt lat="41.003969" lon="-8.623031">
<ele>60</ele>
<time>2026-05-08T06:20:18Z</time></trkpt>
<trkpt lat="41.00551" lon="-8.624068">
<ele>62</ele>
<time>2026-05-08T06:20:53Z</time></trkpt>
<trkpt lat="41.005578" lon="-8.624029">
<ele>62</ele>
<time>2026-05-08T06:20:54Z</time></trkpt>
<trkpt lat="41.005615" lon="-8.6239">
<ele>61</ele>
<time>2026-05-08T06:20:56Z</time></trkpt>
<trkpt lat="41.005565" lon="-8.623699">
<ele>60</ele>
<time>2026-05-08T06:20:59Z</time></trkpt>
<trkpt lat="41.005553" lon="-8.623497">
<ele>59</ele>
<time>2026-05-08T06:21:02Z</time></trkpt>
<trkpt lat="41.005621" lon="-8.622876">
<ele>54</ele>
<time>2026-05-08T06:21:12Z</time></trkpt>
<trkpt lat="41.00566" lon="-8.622738">
<ele>53</ele>
<time>2026-05-08T06:21:14Z</time></trkpt>
<trkpt lat="41.00581" lon="-8.622546">
<ele>51</ele>
<time>2026-05-08T06:21:18Z</time></trkpt>
<trkpt lat="41.005869" lon="-8.622445">
<ele>51</ele>
<time>2026-05-08T06:21:20Z</time></trkpt>
<trkpt lat="41.006005" lon="-8.621815">
<ele>46</ele>
<time>2026-05-08T06:21:30Z</time></trkpt>
<trkpt lat="41.006028" lon="-8.621667">
<ele>46</ele>
<time>2026-05-08T06:21:32Z</time></trkpt>
<trkpt lat="41.006023" lon="-8.621513">
<ele>45</ele>
<time>2026-05-08T06:21:35Z</time></trkpt>
<trkpt lat="41.005969" lon="-8.621481">
<ele>45</ele>
<time>2026-05-08T06:21:36Z</time></trkpt>
<trkpt lat="41.005942" lon="-8.621411">
<ele>45</ele>
<time>2026-05-08T06:21:37Z</time></trkpt>
<trkpt lat="41.005953" lon="-8.621335">
<ele>44</ele>
<time>2026-05-08T06:21:38Z</time></trkpt>
<trkpt lat="41.005972" lon="-8.621304">
<ele>44</ele>
<time>2026-05-08T06:21:39Z</time></trkpt>
<trkpt lat="41.006025" lon="-8.621274">
<ele>44</ele>
<time>2026-05-08T06:21:40Z</time></trkpt>
<trkpt lat="41.006082" lon="-8.621294">
<ele>44</ele>
<time>2026-05-08T06:21:41Z</time></trkpt>
<trkpt lat="41.006155" lon="-8.621126">
<ele>43</ele>
<time>2026-05-08T06:21:44Z</time></trkpt>
<trkpt lat="41.006242" lon="-8.620722">
<ele>41</ele>
<time>2026-05-08T06:21:51Z</time></trkpt>
<trkpt lat="41.006242" lon="-8.620722">
<ele>41</ele>
<time>2026-05-08T06:21:51Z</time></trkpt>
<trkpt lat="41.006332" lon="-8.620302">
<ele>39</ele>
<time>2026-05-08T06:21:57Z</time></trkpt>
<trkpt lat="41.006339" lon="-8.620197">
<ele>39</ele>
<time>2026-05-08T06:21:59Z</time></trkpt>
<trkpt lat="41.006328" lon="-8.620091">
<ele>39</ele>
<time>2026-05-08T06:22:00Z</time></trkpt>
<trkpt lat="41.006146" lon="-8.619432">
<ele>38</ele>
<time>2026-05-08T06:22:11Z</time></trkpt>
<trkpt lat="41.00615" lon="-8.619259">
<ele>37</ele>
<time>2026-05-08T06:22:14Z</time></trkpt>
<trkpt lat="41.00624" lon="-8.618623">
<ele>37</ele>
<time>2026-05-08T06:22:23Z</time></trkpt>
<trkpt lat="41.006285" lon="-8.618511">
<ele>38</ele>
<time>2026-05-08T06:22:25Z</time></trkpt>
<trkpt lat="41.006328" lon="-8.618471">
<ele>38</ele>
<time>2026-05-08T06:22:26Z</time></trkpt>
<trkpt lat="41.006382" lon="-8.61847">
<ele>38</ele>
<time>2026-05-08T06:22:27Z</time></trkpt>
<trkpt lat="41.006697" lon="-8.618605">
<ele>39</ele>
<time>2026-05-08T06:22:34Z</time></trkpt>
<trkpt lat="41.006879" lon="-8.618576">
<ele>39</ele>
<time>2026-05-08T06:22:38Z</time></trkpt>
<trkpt lat="41.0071" lon="-8.618405">
<ele>40</ele>
<time>2026-05-08T06:22:43Z</time></trkpt>
<trkpt lat="41.007357" lon="-8.618106">
<ele>41</ele>
<time>2026-05-08T06:22:50Z</time></trkpt>
<trkpt lat="41.007483" lon="-8.617924">
<ele>43</ele>
<time>2026-05-08T06:22:53Z</time></trkpt>
<trkpt lat="41.007497" lon="-8.617837">
<ele>44</ele>
<time>2026-05-08T06:22:55Z</time></trkpt>
<trkpt lat="41.007521" lon="-8.617612">
<ele>45</ele>
<time>2026-05-08T06:22:58Z</time></trkpt>
<trkpt lat="41.007809" lon="-8.616316">
<ele>43</ele>
<time>2026-05-08T06:23:19Z</time></trkpt>
<trkpt lat="41.007865" lon="-8.616162">
<ele>42</ele>
<time>2026-05-08T06:23:21Z</time></trkpt>
<trkpt lat="41.007959" lon="-8.616031">
<ele>42</ele>
<time>2026-05-08T06:23:24Z</time></trkpt>
<trkpt lat="41.00818" lon="-8.615917">
<ele>41</ele>
<time>2026-05-08T06:23:29Z</time></trkpt>
<trkpt lat="41.009268" lon="-8.615894">
<ele>47</ele>
<time>2026-05-08T06:23:51Z</time></trkpt>
<trkpt lat="41.009423" lon="-8.615924">
<ele>49</ele>
<time>2026-05-08T06:23:54Z</time></trkpt>
<trkpt lat="41.010626" lon="-8.616444">
<ele>57</ele>
<time>2026-05-08T06:24:19Z</time></trkpt>
<trkpt lat="41.011209" lon="-8.616644">
<ele>58</ele>
<time>2026-05-08T06:24:31Z</time></trkpt>
<trkpt lat="41.011552" lon="-8.616579">
<ele>57</ele>
<time>2026-05-08T06:24:38Z</time></trkpt>
<trkpt lat="41.0126" lon="-8.616288">
<ele>63</ele>
<time>2026-05-08T06:24:59Z</time></trkpt>
<trkpt lat="41.0126" lon="-8.616288">
<ele>63</ele>
<time>2026-05-08T06:24:59Z</time></trkpt>
<trkpt lat="41.014118" lon="-8.615692">
<ele>59</ele>
<time>2026-05-08T06:25:31Z</time></trkpt>
<trkpt lat="41.014434" lon="-8.615455">
<ele>59</ele>
<time>2026-05-08T06:25:38Z</time></trkpt>
<trkpt lat="41.014676" lon="-8.615245">
<ele>59</ele>
<time>2026-05-08T06:25:44Z</time></trkpt>
<trkpt lat="41.014777" lon="-8.615192">
<ele>59</ele>
<time>2026-05-08T06:25:46Z</time></trkpt>
<trkpt lat="41.014898" lon="-8.615161">
<ele>59</ele>
<time>2026-05-08T06:25:49Z</time></trkpt>
<trkpt lat="41.015066" lon="-8.615215">
<ele>59</ele>
<time>2026-05-08T06:25:52Z</time></trkpt>
<trkpt lat="41.015309" lon="-8.615396">
<ele>60</ele>
<time>2026-05-08T06:25:58Z</time></trkpt>
<trkpt lat="41.015702" lon="-8.615748">
<ele>62</ele>
<time>2026-05-08T06:26:07Z</time></trkpt>
<trkpt lat="41.0160843" lon="-8.6161811">
<ele>63</ele>
<time>2026-05-08T06:26:18Z</time></trkpt>
<trkpt lat="41.016154" lon="-8.61626">
<ele>63</ele>
<time>2026-05-08T06:26:19Z</time></trkpt>
<trkpt lat="41.016299" lon="-8.616495">
<ele>64</ele>
<time>2026-05-08T06:26:24Z</time></trkpt>
<trkpt lat="41.016444" lon="-8.616735">
<ele>64</ele>
<time>2026-05-08T06:26:29Z</time></trkpt>
<trkpt lat="41.0168127" lon="-8.6175268">
<ele>63</ele>
<time>2026-05-08T06:26:43Z</time></trkpt>
<trkpt lat="41.0168292" lon="-8.6175622">
<ele>63</ele>
<time>2026-05-08T06:26:43Z</time></trkpt>
<trkpt lat="41.017216" lon="-8.618393">
<ele>63</ele>
<time>2026-05-08T06:26:58Z</time></trkpt>
<trkpt lat="41.017216" lon="-8.618393">
<ele>63</ele>
<time>2026-05-08T06:26:58Z</time></trkpt>
<trkpt lat="41.017514" lon="-8.619022">
<ele>71</ele>
<time>2026-05-08T06:27:09Z</time></trkpt>
<trkpt lat="41.01755" lon="-8.61911">
<ele>72</ele>
<time>2026-05-08T06:27:11Z</time></trkpt>
<trkpt lat="41.017565" lon="-8.619221">
<ele>72</ele>
<time>2026-05-08T06:27:13Z</time></trkpt>
<trkpt lat="41.017543" lon="-8.619544">
<ele>71</ele>
<time>2026-05-08T06:27:17Z</time></trkpt>
<trkpt lat="41.016928" lon="-8.623604">
<ele>52</ele>
<time>2026-05-08T06:28:20Z</time></trkpt>
<trkpt lat="41.016931" lon="-8.62377">
<ele>52</ele>
<time>2026-05-08T06:28:23Z</time></trkpt>
<trkpt lat="41.016967" lon="-8.62393">
<ele>52</ele>
<time>2026-05-08T06:28:25Z</time></trkpt>
<trkpt lat="41.017033" lon="-8.624065">
<ele>52</ele>
<time>2026-05-08T06:28:28Z</time></trkpt>
<trkpt lat="41.017145" lon="-8.624211">
<ele>53</ele>
<time>2026-05-08T06:28:31Z</time></trkpt>
<trkpt lat="41.017174" lon="-8.62428">
<ele>53</ele>
<time>2026-05-08T06:28:32Z</time></trkpt>
<trkpt lat="41.017176" lon="-8.62449">
<ele>53</ele>
<time>2026-05-08T06:28:35Z</time></trkpt>
<trkpt lat="41.016847" lon="-8.624826">
<ele>54</ele>
<time>2026-05-08T06:28:43Z</time></trkpt>
<trkpt lat="41.016685" lon="-8.625158">
<ele>54</ele>
<time>2026-05-08T06:28:49Z</time></trkpt>
<trkpt lat="41.016088" lon="-8.627186">
<ele>44</ele>
<time>2026-05-08T06:29:22Z</time></trkpt>
<trkpt lat="41.014312" lon="-8.632995">
<ele>23</ele>
<time>2026-05-08T06:30:57Z</time></trkpt>
<trkpt lat="41.014313" lon="-8.633132">
<ele>23</ele>
<time>2026-05-08T06:30:59Z</time></trkpt>
<trkpt lat="41.014392" lon="-8.633266">
<ele>24</ele>
<time>2026-05-08T06:31:02Z</time></trkpt>
<trkpt lat="41.014473" lon="-8.633314">
<ele>24</ele>
<time>2026-05-08T06:31:03Z</time></trkpt>
<trkpt lat="41.014503" lon="-8.633359">
<ele>24</ele>
<time>2026-05-08T06:31:04Z</time></trkpt>
<trkpt lat="41.014529" lon="-8.633473">
<ele>24</ele>
<time>2026-05-08T06:31:06Z</time></trkpt>
<trkpt lat="41.014496" lon="-8.633603">
<ele>24</ele>
<time>2026-05-08T06:31:08Z</time></trkpt>
<trkpt lat="41.014428" lon="-8.633671">
<ele>23</ele>
<time>2026-05-08T06:31:10Z</time></trkpt>
<trkpt lat="41.014386" lon="-8.633684">
<ele>23</ele>
<time>2026-05-08T06:31:11Z</time></trkpt>
<trkpt lat="41.014296" lon="-8.633821">
<ele>22</ele>
<time>2026-05-08T06:31:14Z</time></trkpt>
<trkpt lat="41.014216" lon="-8.63451">
<ele>20</ele>
<time>2026-05-08T06:31:24Z</time></trkpt>
<trkpt lat="41.014176" lon="-8.634622">
<ele>20</ele>
<time>2026-05-08T06:31:26Z</time></trkpt>
<trkpt lat="41.014038" lon="-8.63475">
<ele>20</ele>
<time>2026-05-08T06:31:29Z</time></trkpt>
<trkpt lat="41.013613" lon="-8.634941">
<ele>19</ele>
<time>2026-05-08T06:31:38Z</time></trkpt>
<trkpt lat="41.013464" lon="-8.635061">
<ele>18</ele>
<time>2026-05-08T06:31:42Z</time></trkpt>
<trkpt lat="41.013369" lon="-8.635196">
<ele>18</ele>
<time>2026-05-08T06:31:45Z</time></trkpt>
<trkpt lat="41.013311" lon="-8.63533">
<ele>17</ele>
<time>2026-05-08T06:31:47Z</time></trkpt>
<trkpt lat="41.013266" lon="-8.635492">
<ele>17</ele>
<time>2026-05-08T06:31:50Z</time></trkpt>
<trkpt lat="41.013224" lon="-8.635838">
<ele>17</ele>
<time>2026-05-08T06:31:55Z</time></trkpt>
<trkpt lat="41.013248" lon="-8.636052">
<ele>17</ele>
<time>2026-05-08T06:31:58Z</time></trkpt>
<trkpt lat="41.013296" lon="-8.636249">
<ele>18</ele>
<time>2026-05-08T06:32:01Z</time></trkpt>
<trkpt lat="41.013345" lon="-8.636381">
<ele>19</ele>
<time>2026-05-08T06:32:03Z</time></trkpt>
<trkpt lat="41.013642" lon="-8.636766">
<ele>20</ele>
<time>2026-05-08T06:32:12Z</time></trkpt>
<trkpt lat="41.013884" lon="-8.637026">
<ele>19</ele>
<time>2026-05-08T06:32:18Z</time></trkpt>
<trkpt lat="41.014011" lon="-8.63721">
<ele>18</ele>
<time>2026-05-08T06:32:22Z</time></trkpt>
<trkpt lat="41.014125" lon="-8.637414">
<ele>17</ele>
<time>2026-05-08T06:32:26Z</time></trkpt>
<trkpt lat="41.014125" lon="-8.637414">
<ele>17</ele>
<time>2026-05-08T06:32:26Z</time></trkpt>
<trkpt lat="41.014338" lon="-8.637866">
<ele>16</ele>
<time>2026-05-08T06:32:34Z</time></trkpt>
<trkpt lat="41.014437" lon="-8.638236">
<ele>16</ele>
<time>2026-05-08T06:32:40Z</time></trkpt>
<trkpt lat="41.014471" lon="-8.638618">
<ele>16</ele>
<time>2026-05-08T06:32:45Z</time></trkpt>
<trkpt lat="41.014545" lon="-8.640523">
<ele>11</ele>
<time>2026-05-08T06:33:14Z</time></trkpt>
<trkpt lat="41.014569" lon="-8.6405592">
<ele>11</ele>
<time>2026-05-08T06:33:15Z</time></trkpt>
<trkpt lat="41.0147001" lon="-8.6406628">
<ele>10</ele>
<time>2026-05-08T06:33:18Z</time></trkpt>
<trkpt lat="41.0147017" lon="-8.6406634">
<ele>10</ele>
<time>2026-05-08T06:33:18Z</time></trkpt>
<trkpt lat="41.0147476" lon="-8.64068">
<ele>10</ele>
<time>2026-05-08T06:33:19Z</time></trkpt>
<trkpt lat="41.0147942" lon="-8.6407578">
<ele>10</ele>
<time>2026-05-08T06:33:21Z</time></trkpt>
<trkpt lat="41.0148104" lon="-8.6408785">
<ele>9</ele>
<time>2026-05-08T06:33:22Z</time></trkpt>
<trkpt lat="41.0148387" lon="-8.6410126">
<ele>9</ele>
<time>2026-05-08T06:33:25Z</time></trkpt>
<trkpt lat="41.0149237" lon="-8.6410582">
<ele>9</ele>
<time>2026-05-08T06:33:26Z</time></trkpt>
<trkpt lat="41.015048" lon="-8.6410457">
<ele>9</ele>
<time>2026-05-08T06:33:29Z</time></trkpt>
<trkpt lat="41.0150977" lon="-8.6410421">
<ele>9</ele>
<time>2026-05-08T06:33:30Z</time></trkpt>
<trkpt lat="41.0152596" lon="-8.6411279">
<ele>8</ele>
<time>2026-05-08T06:33:33Z</time></trkpt>
<trkpt lat="41.0153325" lon="-8.6413372">
<ele>8</ele>
<time>2026-05-08T06:33:37Z</time></trkpt>
<trkpt lat="41.0152921" lon="-8.6417234">
<ele>7</ele>
<time>2026-05-08T06:33:43Z</time></trkpt>
<trkpt lat="41.015147" lon="-8.6422221">
<ele>7</ele>
<time>2026-05-08T06:33:51Z</time></trkpt>
<trkpt lat="41.0151" lon="-8.642329">
<ele>7</ele>
<time>2026-05-08T06:33:53Z</time></trkpt>
<trkpt lat="41.014928" lon="-8.642582">
<ele>7</ele>
<time>2026-05-08T06:33:58Z</time></trkpt>
<trkpt lat="41.014606" lon="-8.642946">
<ele>5</ele>
<time>2026-05-08T06:34:06Z</time></trkpt>
<trkpt lat="41.014269" lon="-8.643255">
<ele>4</ele>
<time>2026-05-08T06:34:15Z</time></trkpt>
<trkpt lat="41.014151" lon="-8.643357">
<ele>4</ele>
<time>2026-05-08T06:34:17Z</time></trkpt>
<trkpt lat="41.014044" lon="-8.643448">
<ele>5</ele>
<time>2026-05-08T06:34:20Z</time></trkpt>
<trkpt lat="41.014044" lon="-8.643448">
<ele>5</ele>
<time>2026-05-08T06:34:20Z</time></trkpt>
<trkpt lat="41.013872" lon="-8.643578">
<ele>5</ele>
<time>2026-05-08T06:34:24Z</time></trkpt>
<trkpt lat="41.013589" lon="-8.64374">
<ele>6</ele>
<time>2026-05-08T06:34:30Z</time></trkpt>
<trkpt lat="41.013332" lon="-8.643851">
<ele>6</ele>
<time>2026-05-08T06:34:35Z</time></trkpt>
<trkpt lat="41.013003" lon="-8.643941">
<ele>7</ele>
<time>2026-05-08T06:34:42Z</time></trkpt>
<trkpt lat="41.012716" lon="-8.643987">
<ele>7</ele>
<time>2026-05-08T06:34:48Z</time></trkpt>
<trkpt lat="41.009956" lon="-8.644036">
<ele>12</ele>
<time>2026-05-08T06:35:43Z</time></trkpt>
<trkpt lat="41.0097806" lon="-8.6440383">
<ele>12</ele>
<time>2026-05-08T06:35:47Z</time></trkpt>
<trkpt lat="41.0096319" lon="-8.6440405">
<ele>12</ele>
<time>2026-05-08T06:35:50Z</time></trkpt>
<trkpt lat="41.0090574" lon="-8.6440492">
<ele>12</ele>
<time>2026-05-08T06:36:01Z</time></trkpt>
<trkpt lat="41.005848" lon="-8.644098">
<ele>13</ele>
<time>2026-05-08T06:37:06Z</time></trkpt>
<trkpt lat="41.00574" lon="-8.644099">
<ele>13</ele>
<time>2026-05-08T06:37:08Z</time></trkpt>
<trkpt lat="41.00574" lon="-8.644099">
<ele>13</ele>
<time>2026-05-08T06:37:08Z</time></trkpt>
<trkpt lat="41.004716" lon="-8.644109">
<ele>12</ele>
<time>2026-05-08T06:37:28Z</time></trkpt>
<trkpt lat="41.003976" lon="-8.644054">
<ele>10</ele>
<time>2026-05-08T06:37:43Z</time></trkpt>
<trkpt lat="41.003978" lon="-8.643798">
<ele>11</ele>
<time>2026-05-08T06:37:47Z</time></trkpt>
<trkpt lat="41.003971" lon="-8.64212">
<ele>17</ele>
<time>2026-05-08T06:38:12Z</time></trkpt>
<trkpt lat="41.003971" lon="-8.64212">
<ele>17</ele>
<time>2026-05-08T06:38:12Z</time></trkpt>
<trkpt lat="41.003972" lon="-8.63993">
<ele>19</ele>
<time>2026-05-08T06:38:45Z</time></trkpt>
<trkpt lat="41.007223" lon="-8.639877">
<ele>22</ele>
<time>2026-05-08T06:39:51Z</time></trkpt>
<trkpt lat="41.007223" lon="-8.639877">
<ele>22</ele>
<time>2026-05-08T06:39:51Z</time></trkpt>
<trkpt lat="41.007223" lon="-8.639877">
<ele>22</ele>
<time>2026-05-08T06:39:51Z</time></trkpt>
<trkpt lat="41.00815" lon="-8.639865">
<ele>22</ele>
<time>2026-05-08T06:40:09Z</time></trkpt>
</trkseg>
</trk>
</gpx>